<?xml version='1.0' encoding='UTF-8'?><gpx version="1.1" creator="JPX - https://github.com/jenetics/jpx" xmlns="http://www.topografix.com/GPX/1/1"><trk><trkseg><trkpt lat="45.3504317" lon="8.4092146"><ele>127.00000000000001</ele><time>2026-04-26T06:27:08.974Z</time></trkpt><trkpt lat="45.3504838" lon="8.4092742"><ele>127.0</ele><time>2026-04-26T06:27:11.977Z</time></trkpt><trkpt lat="45.3505327" lon="8.4093359"><ele>127.0</ele><time>2026-04-26T06:27:13.968Z</time></trkpt><trkpt lat="45.3505926" lon="8.4094029"><ele>127.0</ele><time>2026-04-26T06:27:15.97Z</time></trkpt><trkpt lat="45.3506564" lon="8.4094869"><ele>127.00000000000001</ele><time>2026-04-26T06:27:17.967Z</time></trkpt><trkpt lat="45.3507295" lon="8.4096033"><ele>127.0</ele><time>2026-04-26T06:27:19.972Z</time></trkpt><trkpt lat="45.3508102" lon="8.4097116"><ele>126.8</ele><time>2026-04-26T06:27:21.976Z</time></trkpt><trkpt lat="45.3508876" lon="8.4098146"><ele>126.6</ele><time>2026-04-26T06:27:23.974Z</time></trkpt><trkpt lat="45.3509702" lon="8.4099146"><ele>126.39999999999999</ele><time>2026-04-26T06:27:25.969Z</time></trkpt><trkpt lat="45.3510491" lon="8.4100176"><ele>126.19999999999999</ele><time>2026-04-26T06:27:27.967Z</time></trkpt><trkpt lat="45.3511274" lon="8.4101275"><ele>126.0</ele><time>2026-04-26T06:27:29.965Z</time></trkpt><trkpt lat="45.3512131" lon="8.4102306"><ele>126.0</ele><time>2026-04-26T06:27:31.97Z</time></trkpt><trkpt lat="45.3512994" lon="8.4103275"><ele>126.0</ele><time>2026-04-26T06:27:33.966Z</time></trkpt><trkpt lat="45.3513788" lon="8.4104268"><ele>126.0</ele><time>2026-04-26T06:27:35.966Z</time></trkpt><trkpt lat="45.3514451" lon="8.410529"><ele>126.0</ele><time>2026-04-26T06:27:37.964Z</time></trkpt><trkpt lat="45.3515106" lon="8.4106148"><ele>126.0</ele><time>2026-04-26T06:27:39.966Z</time></trkpt><trkpt lat="45.3515918" lon="8.4106585"><ele>126.19999999999999</ele><time>2026-04-26T06:27:41.963Z</time></trkpt><trkpt lat="45.3516876" lon="8.410644"><ele>126.39999999999999</ele><time>2026-04-26T06:27:43.975Z</time></trkpt><trkpt lat="45.3517972" lon="8.4106164"><ele>126.6</ele><time>2026-04-26T06:27:45.966Z</time></trkpt><trkpt lat="45.3519075" lon="8.4105739"><ele>126.8</ele><time>2026-04-26T06:27:47.966Z</time></trkpt><trkpt lat="45.3520217" lon="8.4105383"><ele>127.0</ele><time>2026-04-26T06:27:49.966Z</time></trkpt><trkpt lat="45.3521362" lon="8.4105139"><ele>127.25</ele><time>2026-04-26T06:27:51.97Z</time></trkpt><trkpt lat="45.352254" lon="8.4105139"><ele>127.5</ele><time>2026-04-26T06:27:53.973Z</time></trkpt><trkpt lat="45.3523647" lon="8.4104987"><ele>127.75</ele><time>2026-04-26T06:27:55.963Z</time></trkpt><trkpt lat="45.3524752" lon="8.4104967"><ele>128.0</ele><time>2026-04-26T06:27:57.964Z</time></trkpt><trkpt lat="45.3525865" lon="8.4104931"><ele>127.75</ele><time>2026-04-26T06:27:59.965Z</time></trkpt><trkpt lat="45.3526988" lon="8.4104757"><ele>127.5</ele><time>2026-04-26T06:28:01.965Z</time></trkpt><trkpt lat="45.3528111" lon="8.4104487"><ele>127.25</ele><time>2026-04-26T06:28:03.964Z</time></trkpt><trkpt lat="45.3529206" lon="8.4104187"><ele>127.0</ele><time>2026-04-26T06:28:05.973Z</time></trkpt><trkpt lat="45.3530331" lon="8.4103907"><ele>127.0</ele><time>2026-04-26T06:28:07.965Z</time></trkpt><trkpt lat="45.3531433" lon="8.4103672"><ele>126.99999999999999</ele><time>2026-04-26T06:28:09.967Z</time></trkpt><trkpt lat="45.3532509" lon="8.4103395"><ele>126.99999999999999</ele><time>2026-04-26T06:28:11.97Z</time></trkpt><trkpt lat="45.3533545" lon="8.4103088"><ele>127.0</ele><time>2026-04-26T06:28:13.976Z</time></trkpt><trkpt lat="45.3534659" lon="8.4102769"><ele>127.0</ele><time>2026-04-26T06:28:15.965Z</time></trkpt><trkpt lat="45.3535754" lon="8.4102473"><ele>127.0</ele><time>2026-04-26T06:28:17.964Z</time></trkpt><trkpt lat="45.3536809" lon="8.4102172"><ele>126.99999999999999</ele><time>2026-04-26T06:28:19.968Z</time></trkpt><trkpt lat="45.353787" lon="8.410186"><ele>126.99999999999999</ele><time>2026-04-26T06:28:21.974Z</time></trkpt><trkpt lat="45.3538878" lon="8.4101613"><ele>127.0</ele><time>2026-04-26T06:28:23.969Z</time></trkpt><trkpt lat="45.3539875" lon="8.4101307"><ele>127.0</ele><time>2026-04-26T06:28:25.975Z</time></trkpt><trkpt lat="45.3540901" lon="8.4100986"><ele>127.39999999999999</ele><time>2026-04-26T06:28:27.967Z</time></trkpt><trkpt lat="45.3541904" lon="8.4100691"><ele>127.79999999999998</ele><time>2026-04-26T06:28:29.963Z</time></trkpt><trkpt lat="45.3542865" lon="8.4100318"><ele>128.2</ele><time>2026-04-26T06:28:31.965Z</time></trkpt><trkpt lat="45.3543827" lon="8.4099971"><ele>128.6</ele><time>2026-04-26T06:28:33.965Z</time></trkpt><trkpt lat="45.3544753" lon="8.4099509"><ele>129.0</ele><time>2026-04-26T06:28:35.968Z</time></trkpt><trkpt lat="45.3545724" lon="8.4098962"><ele>129.0</ele><time>2026-04-26T06:28:37.974Z</time></trkpt><trkpt lat="45.3546588" lon="8.4098421"><ele>129.0</ele><time>2026-04-26T06:28:39.974Z</time></trkpt><trkpt lat="45.3547398" lon="8.4097963"><ele>129.0</ele><time>2026-04-26T06:28:41.969Z</time></trkpt><trkpt lat="45.3548253" lon="8.4097471"><ele>129.0</ele><time>2026-04-26T06:28:43.978Z</time></trkpt><trkpt lat="45.3549105" lon="8.409686"><ele>129.0</ele><time>2026-04-26T06:28:45.972Z</time></trkpt><trkpt lat="45.3550023" lon="8.4096392"><ele>128.6</ele><time>2026-04-26T06:28:47.974Z</time></trkpt><trkpt lat="45.355089" lon="8.4095947"><ele>128.2</ele><time>2026-04-26T06:28:49.978Z</time></trkpt><trkpt lat="45.35518" lon="8.4095474"><ele>127.79999999999998</ele><time>2026-04-26T06:28:51.977Z</time></trkpt><trkpt lat="45.3552685" lon="8.4094982"><ele>127.39999999999999</ele><time>2026-04-26T06:28:53.973Z</time></trkpt><trkpt lat="45.3553523" lon="8.4094407"><ele>127.0</ele><time>2026-04-26T06:28:55.968Z</time></trkpt><trkpt lat="45.3554332" lon="8.409384"><ele>127.0</ele><time>2026-04-26T06:28:57.967Z</time></trkpt><trkpt lat="45.3555145" lon="8.4093326"><ele>126.99999999999999</ele><time>2026-04-26T06:28:59.968Z</time></trkpt><trkpt lat="45.3555905" lon="8.4092549"><ele>126.99999999999999</ele><time>2026-04-26T06:29:01.981Z</time></trkpt><trkpt lat="45.3556623" lon="8.4091532"><ele>127.0</ele><time>2026-04-26T06:29:03.972Z</time></trkpt><trkpt lat="45.3557378" lon="8.4090487"><ele>127.0</ele><time>2026-04-26T06:29:05.963Z</time></trkpt><trkpt lat="45.3558184" lon="8.4089525"><ele>127.19999999999999</ele><time>2026-04-26T06:29:07.968Z</time></trkpt><trkpt lat="45.3559136" lon="8.4088862"><ele>127.39999999999999</ele><time>2026-04-26T06:29:09.972Z</time></trkpt><trkpt lat="45.3560093" lon="8.4088318"><ele>127.60000000000001</ele><time>2026-04-26T06:29:11.974Z</time></trkpt><trkpt lat="45.3561036" lon="8.4087883"><ele>127.80000000000001</ele><time>2026-04-26T06:29:13.973Z</time></trkpt><trkpt lat="45.3562001" lon="8.4087458"><ele>128.0</ele><time>2026-04-26T06:29:15.977Z</time></trkpt><trkpt lat="45.3562974" lon="8.4087034"><ele>128.0</ele><time>2026-04-26T06:29:17.971Z</time></trkpt><trkpt lat="45.356392" lon="8.4086598"><ele>128.0</ele><time>2026-04-26T06:29:19.976Z</time></trkpt><trkpt lat="45.3564862" lon="8.4086199"><ele>128.0</ele><time>2026-04-26T06:29:21.966Z</time></trkpt><trkpt lat="45.3565808" lon="8.4085805"><ele>128.0</ele><time>2026-04-26T06:29:23.967Z</time></trkpt><trkpt lat="45.3566723" lon="8.4085381"><ele>128.0</ele><time>2026-04-26T06:29:25.969Z</time></trkpt><trkpt lat="45.3567637" lon="8.4084938"><ele>128.0</ele><time>2026-04-26T06:29:27.966Z</time></trkpt><trkpt lat="45.3568611" lon="8.4084498"><ele>128.0</ele><time>2026-04-26T06:29:29.969Z</time></trkpt><trkpt lat="45.3569529" lon="8.4084105"><ele>128.0</ele><time>2026-04-26T06:29:31.973Z</time></trkpt><trkpt lat="45.3570477" lon="8.4083663"><ele>128.0</ele><time>2026-04-26T06:29:33.98Z</time></trkpt><trkpt lat="45.3571378" lon="8.4083322"><ele>128.0</ele><time>2026-04-26T06:29:35.976Z</time></trkpt><trkpt lat="45.3572316" lon="8.4083125"><ele>128.0</ele><time>2026-04-26T06:29:37.968Z</time></trkpt><trkpt lat="45.3573221" lon="8.4082976"><ele>128.0</ele><time>2026-04-26T06:29:39.967Z</time></trkpt><trkpt lat="45.357413" lon="8.4082757"><ele>128.0</ele><time>2026-04-26T06:29:41.98Z</time></trkpt><trkpt lat="45.3575047" lon="8.4082585"><ele>128.0</ele><time>2026-04-26T06:29:43.971Z</time></trkpt><trkpt lat="45.3575962" lon="8.4082328"><ele>128.0</ele><time>2026-04-26T06:29:45.969Z</time></trkpt><trkpt lat="45.3576876" lon="8.4082096"><ele>128.0</ele><time>2026-04-26T06:29:47.972Z</time></trkpt><trkpt lat="45.357777" lon="8.4081854"><ele>128.0</ele><time>2026-04-26T06:29:49.975Z</time></trkpt><trkpt lat="45.3578701" lon="8.4081646"><ele>128.0</ele><time>2026-04-26T06:29:51.966Z</time></trkpt><trkpt lat="45.3579651" lon="8.4081458"><ele>128.0</ele><time>2026-04-26T06:29:53.971Z</time></trkpt><trkpt lat="45.3580577" lon="8.4081367"><ele>128.0</ele><time>2026-04-26T06:29:55.971Z</time></trkpt><trkpt lat="45.3581464" lon="8.4081058"><ele>128.16666666666666</ele><time>2026-04-26T06:29:57.977Z</time></trkpt><trkpt lat="45.3582348" lon="8.40808"><ele>128.33333333333331</ele><time>2026-04-26T06:29:59.972Z</time></trkpt><trkpt lat="45.3583189" lon="8.4080541"><ele>128.5</ele><time>2026-04-26T06:30:01.972Z</time></trkpt><trkpt lat="45.3583949" lon="8.4080383"><ele>128.66666666666666</ele><time>2026-04-26T06:30:03.968Z</time></trkpt><trkpt lat="45.3584713" lon="8.4080253"><ele>128.83333333333334</ele><time>2026-04-26T06:30:06.97Z</time></trkpt><trkpt lat="45.3585286" lon="8.4079862"><ele>129.0</ele><time>2026-04-26T06:30:08.966Z</time></trkpt><trkpt lat="45.3585755" lon="8.4079053"><ele>129.0</ele><time>2026-04-26T06:30:11.954Z</time></trkpt><trkpt lat="45.3585845" lon="8.4078122"><ele>129.0</ele><time>2026-04-26T06:30:13.972Z</time></trkpt><trkpt lat="45.3585932" lon="8.4077162"><ele>129.0</ele><time>2026-04-26T06:30:15.993Z</time></trkpt><trkpt lat="45.3585972" lon="8.4075941"><ele>129.0</ele><time>2026-04-26T06:30:17.982Z</time></trkpt><trkpt lat="45.3586024" lon="8.4074661"><ele>129.0</ele><time>2026-04-26T06:30:19.977Z</time></trkpt><trkpt lat="45.3586179" lon="8.4073469"><ele>129.0</ele><time>2026-04-26T06:30:21.919Z</time></trkpt><trkpt lat="45.3586195" lon="8.407217"><ele>129.0</ele><time>2026-04-26T06:30:23.975Z</time></trkpt><trkpt lat="45.3586289" lon="8.4070874"><ele>129.0</ele><time>2026-04-26T06:30:25.97Z</time></trkpt><trkpt lat="45.3586311" lon="8.4069518"><ele>129.0</ele><time>2026-04-26T06:30:27.968Z</time></trkpt><trkpt lat="45.358629" lon="8.4068165"><ele>129.0</ele><time>2026-04-26T06:30:29.981Z</time></trkpt><trkpt lat="45.3586302" lon="8.4066861"><ele>129.0</ele><time>2026-04-26T06:30:31.972Z</time></trkpt><trkpt lat="45.3586305" lon="8.4065688"><ele>129.0</ele><time>2026-04-26T06:30:33.965Z</time></trkpt><trkpt lat="45.3586363" lon="8.4064352"><ele>129.0</ele><time>2026-04-26T06:30:35.968Z</time></trkpt><trkpt lat="45.3586505" lon="8.4063067"><ele>129.0</ele><time>2026-04-26T06:30:37.966Z</time></trkpt><trkpt lat="45.3586697" lon="8.4061405"><ele>129.0</ele><time>2026-04-26T06:30:40.974Z</time></trkpt><trkpt lat="45.3586904" lon="8.4060012"><ele>129.0</ele><time>2026-04-26T06:30:42.97Z</time></trkpt><trkpt lat="45.3586989" lon="8.405875"><ele>129.0</ele><time>2026-04-26T06:30:44.952Z</time></trkpt><trkpt lat="45.3587018" lon="8.4057519"><ele>129.0</ele><time>2026-04-26T06:30:46.897Z</time></trkpt><trkpt lat="45.3587039" lon="8.405621"><ele>129.0</ele><time>2026-04-26T06:30:48.972Z</time></trkpt><trkpt lat="45.3587147" lon="8.4054931"><ele>129.0</ele><time>2026-04-26T06:30:50.981Z</time></trkpt><trkpt lat="45.3587206" lon="8.4053632"><ele>129.0</ele><time>2026-04-26T06:30:52.972Z</time></trkpt><trkpt lat="45.358727" lon="8.4052355"><ele>129.0</ele><time>2026-04-26T06:30:54.98Z</time></trkpt><trkpt lat="45.3587525" lon="8.405101"><ele>129.0</ele><time>2026-04-26T06:30:56.968Z</time></trkpt><trkpt lat="45.3587807" lon="8.404986"><ele>129.0</ele><time>2026-04-26T06:30:58.98Z</time></trkpt><trkpt lat="45.3588178" lon="8.4049083"><ele>129.0</ele><time>2026-04-26T06:31:00.97Z</time></trkpt><trkpt lat="45.3588431" lon="8.40475"><ele>129.0</ele><time>2026-04-26T06:31:02.978Z</time></trkpt><trkpt lat="45.3588911" lon="8.4046306"><ele>128.8</ele><time>2026-04-26T06:31:04.972Z</time></trkpt><trkpt lat="45.3589236" lon="8.4045099"><ele>128.60000000000002</ele><time>2026-04-26T06:31:06.97Z</time></trkpt><trkpt lat="45.3589674" lon="8.4043903"><ele>128.4</ele><time>2026-04-26T06:31:08.97Z</time></trkpt><trkpt lat="45.3590069" lon="8.4042681"><ele>128.20000000000002</ele><time>2026-04-26T06:31:10.973Z</time></trkpt><trkpt lat="45.3590474" lon="8.4041493"><ele>128.0</ele><time>2026-04-26T06:31:12.97Z</time></trkpt><trkpt lat="45.3590868" lon="8.4040304"><ele>128.0</ele><time>2026-04-26T06:31:14.982Z</time></trkpt><trkpt lat="45.3591232" lon="8.4039044"><ele>128.0</ele><time>2026-04-26T06:31:16.976Z</time></trkpt><trkpt lat="45.3591568" lon="8.4037759"><ele>128.0</ele><time>2026-04-26T06:31:18.97Z</time></trkpt><trkpt lat="45.3591968" lon="8.4036547"><ele>128.0</ele><time>2026-04-26T06:31:20.974Z</time></trkpt><trkpt lat="45.3592372" lon="8.4035376"><ele>128.0</ele><time>2026-04-26T06:31:22.977Z</time></trkpt><trkpt lat="45.3592725" lon="8.40342"><ele>127.99999999999999</ele><time>2026-04-26T06:31:24.97Z</time></trkpt><trkpt lat="45.3593104" lon="8.403307"><ele>128.0</ele><time>2026-04-26T06:31:26.971Z</time></trkpt><trkpt lat="45.3593464" lon="8.4031935"><ele>128.0</ele><time>2026-04-26T06:31:28.974Z</time></trkpt><trkpt lat="45.3593835" lon="8.403082"><ele>128.0</ele><time>2026-04-26T06:31:30.969Z</time></trkpt><trkpt lat="45.3594282" lon="8.4029755"><ele>127.99999999999999</ele><time>2026-04-26T06:31:32.97Z</time></trkpt><trkpt lat="45.3594667" lon="8.4028941"><ele>128.0</ele><time>2026-04-26T06:31:34.974Z</time></trkpt><trkpt lat="45.3595258" lon="8.4028013"><ele>128.20000000000002</ele><time>2026-04-26T06:31:36.973Z</time></trkpt><trkpt lat="45.3595856" lon="8.4027115"><ele>128.4</ele><time>2026-04-26T06:31:38.881Z</time></trkpt><trkpt lat="45.3596409" lon="8.4026035"><ele>128.60000000000002</ele><time>2026-04-26T06:31:40.966Z</time></trkpt><trkpt lat="45.359688" lon="8.4024945"><ele>128.8</ele><time>2026-04-26T06:31:42.97Z</time></trkpt><trkpt lat="45.3597377" lon="8.4023902"><ele>129.0</ele><time>2026-04-26T06:31:44.965Z</time></trkpt><trkpt lat="45.3597924" lon="8.4022869"><ele>129.0</ele><time>2026-04-26T06:31:46.969Z</time></trkpt><trkpt lat="45.3598527" lon="8.402184"><ele>129.0</ele><time>2026-04-26T06:31:48.968Z</time></trkpt><trkpt lat="45.3599148" lon="8.4020873"><ele>129.0</ele><time>2026-04-26T06:31:50.969Z</time></trkpt><trkpt lat="45.3599732" lon="8.4019899"><ele>129.0</ele><time>2026-04-26T06:31:52.975Z</time></trkpt><trkpt lat="45.3600301" lon="8.4019063"><ele>129.0</ele><time>2026-04-26T06:31:54.976Z</time></trkpt><trkpt lat="45.3600834" lon="8.401803"><ele>129.0</ele><time>2026-04-26T06:31:56.972Z</time></trkpt><trkpt lat="45.36015" lon="8.4016659"><ele>129.2</ele><time>2026-04-26T06:31:59.979Z</time></trkpt><trkpt lat="45.3602113" lon="8.4015403"><ele>129.4</ele><time>2026-04-26T06:32:01.983Z</time></trkpt><trkpt lat="45.3602659" lon="8.4014413"><ele>129.6</ele><time>2026-04-26T06:32:03.97Z</time></trkpt><trkpt lat="45.3603181" lon="8.40135"><ele>129.8</ele><time>2026-04-26T06:32:05.876Z</time></trkpt><trkpt lat="45.3603723" lon="8.4012462"><ele>130.0</ele><time>2026-04-26T06:32:07.966Z</time></trkpt><trkpt lat="45.3604311" lon="8.4011598"><ele>130.0</ele><time>2026-04-26T06:32:09.979Z</time></trkpt><trkpt lat="45.3604835" lon="8.4010644"><ele>130.0</ele><time>2026-04-26T06:32:11.963Z</time></trkpt><trkpt lat="45.3605342" lon="8.4009672"><ele>130.0</ele><time>2026-04-26T06:32:13.97Z</time></trkpt><trkpt lat="45.3605865" lon="8.4008734"><ele>130.0</ele><time>2026-04-26T06:32:15.965Z</time></trkpt><trkpt lat="45.3606348" lon="8.4007764"><ele>130.0</ele><time>2026-04-26T06:32:17.908Z</time></trkpt><trkpt lat="45.3606857" lon="8.4006736"><ele>130.0</ele><time>2026-04-26T06:32:19.963Z</time></trkpt><trkpt lat="45.3607409" lon="8.4005805"><ele>129.83333333333334</ele><time>2026-04-26T06:32:21.965Z</time></trkpt><trkpt lat="45.360793" lon="8.4004847"><ele>129.66666666666669</ele><time>2026-04-26T06:32:23.957Z</time></trkpt><trkpt lat="45.3608503" lon="8.4003964"><ele>129.5</ele><time>2026-04-26T06:32:25.909Z</time></trkpt><trkpt lat="45.3609067" lon="8.4002932"><ele>129.33333333333334</ele><time>2026-04-26T06:32:27.971Z</time></trkpt><trkpt lat="45.3609611" lon="8.4001959"><ele>129.16666666666666</ele><time>2026-04-26T06:32:29.967Z</time></trkpt><trkpt lat="45.3610127" lon="8.4000978"><ele>129.0</ele><time>2026-04-26T06:32:31.978Z</time></trkpt><trkpt lat="45.3610666" lon="8.4000211"><ele>129.0</ele><time>2026-04-26T06:32:33.97Z</time></trkpt><trkpt lat="45.361118" lon="8.3999045"><ele>129.0</ele><time>2026-04-26T06:32:35.968Z</time></trkpt><trkpt lat="45.3611632" lon="8.3997998"><ele>129.0</ele><time>2026-04-26T06:32:37.977Z</time></trkpt><trkpt lat="45.3612165" lon="8.39972"><ele>129.0</ele><time>2026-04-26T06:32:39.975Z</time></trkpt><trkpt lat="45.3612617" lon="8.3996328"><ele>129.0</ele><time>2026-04-26T06:32:41.976Z</time></trkpt><trkpt lat="45.361316" lon="8.399546"><ele>129.0</ele><time>2026-04-26T06:32:43.969Z</time></trkpt><trkpt lat="45.3613694" lon="8.3994508"><ele>129.16666666666666</ele><time>2026-04-26T06:32:45.973Z</time></trkpt><trkpt lat="45.3614251" lon="8.3993519"><ele>129.33333333333334</ele><time>2026-04-26T06:32:47.965Z</time></trkpt><trkpt lat="45.3614778" lon="8.3992518"><ele>129.5</ele><time>2026-04-26T06:32:49.977Z</time></trkpt><trkpt lat="45.3615311" lon="8.3991531"><ele>129.66666666666669</ele><time>2026-04-26T06:32:51.971Z</time></trkpt><trkpt lat="45.361591" lon="8.3990538"><ele>129.83333333333334</ele><time>2026-04-26T06:32:53.975Z</time></trkpt><trkpt lat="45.3616444" lon="8.3989507"><ele>130.0</ele><time>2026-04-26T06:32:55.969Z</time></trkpt><trkpt lat="45.3617039" lon="8.398855"><ele>130.0</ele><time>2026-04-26T06:32:57.978Z</time></trkpt><trkpt lat="45.36175" lon="8.398745"><ele>130.0</ele><time>2026-04-26T06:32:59.969Z</time></trkpt><trkpt lat="45.3618016" lon="8.3986416"><ele>130.0</ele><time>2026-04-26T06:33:01.971Z</time></trkpt><trkpt lat="45.3618519" lon="8.3985398"><ele>130.0</ele><time>2026-04-26T06:33:03.987Z</time></trkpt><trkpt lat="45.361897" lon="8.3984759"><ele>130.0</ele><time>2026-04-26T06:33:05.974Z</time></trkpt><trkpt lat="45.3619801" lon="8.3983216"><ele>130.0</ele><time>2026-04-26T06:33:08.969Z</time></trkpt><trkpt lat="45.3620476" lon="8.3981953"><ele>130.0</ele><time>2026-04-26T06:33:10.968Z</time></trkpt><trkpt lat="45.3621092" lon="8.3980933"><ele>130.0</ele><time>2026-04-26T06:33:12.963Z</time></trkpt><trkpt lat="45.3621657" lon="8.3979972"><ele>130.0</ele><time>2026-04-26T06:33:14.98Z</time></trkpt><trkpt lat="45.3622195" lon="8.3978953"><ele>130.0</ele><time>2026-04-26T06:33:16.964Z</time></trkpt><trkpt lat="45.3622781" lon="8.3977976"><ele>130.0</ele><time>2026-04-26T06:33:18.98Z</time></trkpt><trkpt lat="45.3623321" lon="8.3976961"><ele>130.0</ele><time>2026-04-26T06:33:20.973Z</time></trkpt><trkpt lat="45.3623808" lon="8.3975895"><ele>130.0</ele><time>2026-04-26T06:33:22.972Z</time></trkpt><trkpt lat="45.3624257" lon="8.3974769"><ele>130.0</ele><time>2026-04-26T06:33:24.979Z</time></trkpt><trkpt lat="45.3624733" lon="8.3973658"><ele>130.0</ele><time>2026-04-26T06:33:26.98Z</time></trkpt><trkpt lat="45.3625227" lon="8.3972605"><ele>129.8</ele><time>2026-04-26T06:33:28.975Z</time></trkpt><trkpt lat="45.3625876" lon="8.3971175"><ele>129.6</ele><time>2026-04-26T06:33:31.973Z</time></trkpt><trkpt lat="45.3626227" lon="8.3969905"><ele>129.4</ele><time>2026-04-26T06:33:33.965Z</time></trkpt><trkpt lat="45.3626639" lon="8.3968814"><ele>129.2</ele><time>2026-04-26T06:33:35.965Z</time></trkpt><trkpt lat="45.3627115" lon="8.3967749"><ele>129.0</ele><time>2026-04-26T06:33:37.967Z</time></trkpt><trkpt lat="45.3627552" lon="8.396666"><ele>129.0</ele><time>2026-04-26T06:33:39.971Z</time></trkpt><trkpt lat="45.3627999" lon="8.3965594"><ele>129.0</ele><time>2026-04-26T06:33:41.966Z</time></trkpt><trkpt lat="45.362846" lon="8.3964547"><ele>129.0</ele><time>2026-04-26T06:33:43.932Z</time></trkpt><trkpt lat="45.362892" lon="8.3963461"><ele>129.0</ele><time>2026-04-26T06:33:45.969Z</time></trkpt><trkpt lat="45.3629384" lon="8.396242"><ele>129.0</ele><time>2026-04-26T06:33:47.972Z</time></trkpt><trkpt lat="45.3629851" lon="8.396135"><ele>129.0</ele><time>2026-04-26T06:33:49.966Z</time></trkpt><trkpt lat="45.3630279" lon="8.3960337"><ele>129.0</ele><time>2026-04-26T06:33:51.97Z</time></trkpt><trkpt lat="45.3630724" lon="8.3959171"><ele>129.0</ele><time>2026-04-26T06:33:53.971Z</time></trkpt><trkpt lat="45.3631173" lon="8.3958031"><ele>129.0</ele><time>2026-04-26T06:33:55.97Z</time></trkpt><trkpt lat="45.3631646" lon="8.3956899"><ele>129.0</ele><time>2026-04-26T06:33:57.978Z</time></trkpt><trkpt lat="45.3632099" lon="8.3955771"><ele>129.0</ele><time>2026-04-26T06:33:59.971Z</time></trkpt><trkpt lat="45.3632576" lon="8.3954652"><ele>129.33333333333334</ele><time>2026-04-26T06:34:01.973Z</time></trkpt><trkpt lat="45.3633003" lon="8.3953594"><ele>129.66666666666666</ele><time>2026-04-26T06:34:03.976Z</time></trkpt><trkpt lat="45.3633439" lon="8.3952488"><ele>130.0</ele><time>2026-04-26T06:34:05.967Z</time></trkpt><trkpt lat="45.3633909" lon="8.3951384"><ele>130.33333333333331</ele><time>2026-04-26T06:34:07.971Z</time></trkpt><trkpt lat="45.3634359" lon="8.3950267"><ele>130.66666666666666</ele><time>2026-04-26T06:34:09.971Z</time></trkpt><trkpt lat="45.3634831" lon="8.3949159"><ele>131.0</ele><time>2026-04-26T06:34:11.964Z</time></trkpt><trkpt lat="45.3635174" lon="8.3948349"><ele>131.0</ele><time>2026-04-26T06:34:13.981Z</time></trkpt><trkpt lat="45.3635496" lon="8.3947528"><ele>131.0</ele><time>2026-04-26T06:34:14.98Z</time></trkpt><trkpt lat="45.3635974" lon="8.3946373"><ele>131.0</ele><time>2026-04-26T06:34:16.967Z</time></trkpt><trkpt lat="45.3636427" lon="8.3945257"><ele>131.0</ele><time>2026-04-26T06:34:18.966Z</time></trkpt><trkpt lat="45.363689" lon="8.3944125"><ele>131.0</ele><time>2026-04-26T06:34:20.978Z</time></trkpt><trkpt lat="45.363732" lon="8.3943013"><ele>131.0</ele><time>2026-04-26T06:34:22.978Z</time></trkpt><trkpt lat="45.3637744" lon="8.3941954"><ele>131.0</ele><time>2026-04-26T06:34:24.968Z</time></trkpt><trkpt lat="45.3638207" lon="8.3940944"><ele>131.0</ele><time>2026-04-26T06:34:26.976Z</time></trkpt><trkpt lat="45.3638722" lon="8.3939836"><ele>131.0</ele><time>2026-04-26T06:34:28.981Z</time></trkpt><trkpt lat="45.3639413" lon="8.3938457"><ele>131.0</ele><time>2026-04-26T06:34:32.896Z</time></trkpt><trkpt lat="45.3639729" lon="8.3937654"><ele>131.0</ele><time>2026-04-26T06:34:33.876Z</time></trkpt><trkpt lat="45.3640185" lon="8.3936418"><ele>130.85714285714286</ele><time>2026-04-26T06:34:35.966Z</time></trkpt><trkpt lat="45.3640471" lon="8.3935486"><ele>130.71428571428572</ele><time>2026-04-26T06:34:37.976Z</time></trkpt><trkpt lat="45.3640888" lon="8.3934369"><ele>130.57142857142858</ele><time>2026-04-26T06:34:40.969Z</time></trkpt><trkpt lat="45.3641301" lon="8.3933611"><ele>130.42857142857144</ele><time>2026-04-26T06:34:43.97Z</time></trkpt><trkpt lat="45.3641591" lon="8.3932805"><ele>130.28571428571428</ele><time>2026-04-26T06:34:46.972Z</time></trkpt><trkpt lat="45.3641932" lon="8.3931984"><ele>130.14285714285717</ele><time>2026-04-26T06:34:49.968Z</time></trkpt><trkpt lat="45.3642317" lon="8.3931069"><ele>130.0</ele><time>2026-04-26T06:34:52.979Z</time></trkpt><trkpt lat="45.3642701" lon="8.3930222"><ele>130.00000000000003</ele><time>2026-04-26T06:34:55.971Z</time></trkpt><trkpt lat="45.3643013" lon="8.3929364"><ele>130.0</ele><time>2026-04-26T06:34:58.94Z</time></trkpt><trkpt lat="45.364336" lon="8.3928572"><ele>130.0</ele><time>2026-04-26T06:35:00.97Z</time></trkpt><trkpt lat="45.3643743" lon="8.392774"><ele>130.0</ele><time>2026-04-26T06:35:02.968Z</time></trkpt><trkpt lat="45.364406" lon="8.3926883"><ele>130.0</ele><time>2026-04-26T06:35:04.976Z</time></trkpt><trkpt lat="45.3644345" lon="8.3926022"><ele>130.00000000000003</ele><time>2026-04-26T06:35:06.973Z</time></trkpt><trkpt lat="45.3644726" lon="8.3925206"><ele>130.0</ele><time>2026-04-26T06:35:08.978Z</time></trkpt><trkpt lat="45.364511" lon="8.3924404"><ele>130.0</ele><time>2026-04-26T06:35:10.863Z</time></trkpt><trkpt lat="45.3645568" lon="8.392337"><ele>130.0</ele><time>2026-04-26T06:35:12.972Z</time></trkpt><trkpt lat="45.3645994" lon="8.3922344"><ele>130.0</ele><time>2026-04-26T06:35:14.981Z</time></trkpt><trkpt lat="45.3646428" lon="8.3921344"><ele>130.0</ele><time>2026-04-26T06:35:16.972Z</time></trkpt><trkpt lat="45.3646805" lon="8.3920278"><ele>130.0</ele><time>2026-04-26T06:35:18.976Z</time></trkpt><trkpt lat="45.3647242" lon="8.3919189"><ele>130.0</ele><time>2026-04-26T06:35:20.97Z</time></trkpt><trkpt lat="45.3647709" lon="8.3918131"><ele>129.8</ele><time>2026-04-26T06:35:22.972Z</time></trkpt><trkpt lat="45.3648165" lon="8.391705"><ele>129.6</ele><time>2026-04-26T06:35:24.976Z</time></trkpt><trkpt lat="45.3648628" lon="8.3915934"><ele>129.4</ele><time>2026-04-26T06:35:26.972Z</time></trkpt><trkpt lat="45.364908" lon="8.3914775"><ele>129.2</ele><time>2026-04-26T06:35:28.988Z</time></trkpt><trkpt lat="45.3649561" lon="8.3913661"><ele>129.0</ele><time>2026-04-26T06:35:30.977Z</time></trkpt><trkpt lat="45.3650019" lon="8.391253"><ele>129.4</ele><time>2026-04-26T06:35:32.974Z</time></trkpt><trkpt lat="45.3650516" lon="8.3911351"><ele>129.8</ele><time>2026-04-26T06:35:34.976Z</time></trkpt><trkpt lat="45.3650952" lon="8.3910194"><ele>130.2</ele><time>2026-04-26T06:35:36.966Z</time></trkpt><trkpt lat="45.3651457" lon="8.3909046"><ele>130.6</ele><time>2026-04-26T06:35:38.968Z</time></trkpt><trkpt lat="45.365201" lon="8.3907968"><ele>131.0</ele><time>2026-04-26T06:35:40.979Z</time></trkpt><trkpt lat="45.365259" lon="8.3906898"><ele>131.0</ele><time>2026-04-26T06:35:42.972Z</time></trkpt><trkpt lat="45.3653196" lon="8.3905916"><ele>131.0</ele><time>2026-04-26T06:35:44.971Z</time></trkpt><trkpt lat="45.3653805" lon="8.3904964"><ele>131.0</ele><time>2026-04-26T06:35:46.973Z</time></trkpt><trkpt lat="45.3654479" lon="8.3904118"><ele>131.0</ele><time>2026-04-26T06:35:48.976Z</time></trkpt><trkpt lat="45.3655165" lon="8.3903235"><ele>131.0</ele><time>2026-04-26T06:35:50.97Z</time></trkpt><trkpt lat="45.3655908" lon="8.3902415"><ele>131.0</ele><time>2026-04-26T06:35:52.969Z</time></trkpt><trkpt lat="45.3656632" lon="8.390163"><ele>131.0</ele><time>2026-04-26T06:35:54.968Z</time></trkpt><trkpt lat="45.3657413" lon="8.3900887"><ele>131.0</ele><time>2026-04-26T06:35:56.974Z</time></trkpt><trkpt lat="45.3658217" lon="8.3900183"><ele>131.0</ele><time>2026-04-26T06:35:58.975Z</time></trkpt><trkpt lat="45.3659045" lon="8.3899523"><ele>131.0</ele><time>2026-04-26T06:36:00.976Z</time></trkpt><trkpt lat="45.3659898" lon="8.3898806"><ele>131.0</ele><time>2026-04-26T06:36:02.977Z</time></trkpt><trkpt lat="45.3660692" lon="8.389815"><ele>131.0</ele><time>2026-04-26T06:36:04.968Z</time></trkpt><trkpt lat="45.3661464" lon="8.389742"><ele>131.0</ele><time>2026-04-26T06:36:06.973Z</time></trkpt><trkpt lat="45.3662283" lon="8.3896789"><ele>131.0</ele><time>2026-04-26T06:36:08.969Z</time></trkpt><trkpt lat="45.3663051" lon="8.389616"><ele>131.0</ele><time>2026-04-26T06:36:10.978Z</time></trkpt><trkpt lat="45.3663816" lon="8.3895457"><ele>131.0</ele><time>2026-04-26T06:36:12.98Z</time></trkpt><trkpt lat="45.3664627" lon="8.3894809"><ele>131.0</ele><time>2026-04-26T06:36:14.974Z</time></trkpt><trkpt lat="45.3665394" lon="8.3894083"><ele>131.0</ele><time>2026-04-26T06:36:16.971Z</time></trkpt><trkpt lat="45.3666217" lon="8.389349"><ele>131.0</ele><time>2026-04-26T06:36:18.971Z</time></trkpt><trkpt lat="45.3666961" lon="8.3892709"><ele>131.0</ele><time>2026-04-26T06:36:20.976Z</time></trkpt><trkpt lat="45.3667719" lon="8.3891978"><ele>131.0</ele><time>2026-04-26T06:36:22.971Z</time></trkpt><trkpt lat="45.3668445" lon="8.3891153"><ele>131.0</ele><time>2026-04-26T06:36:24.973Z</time></trkpt><trkpt lat="45.3669126" lon="8.3890304"><ele>131.0</ele><time>2026-04-26T06:36:26.981Z</time></trkpt><trkpt lat="45.3669761" lon="8.3889368"><ele>131.0</ele><time>2026-04-26T06:36:28.971Z</time></trkpt><trkpt lat="45.3670297" lon="8.3888321"><ele>131.0</ele><time>2026-04-26T06:36:30.975Z</time></trkpt><trkpt lat="45.3670771" lon="8.3887221"><ele>131.0</ele><time>2026-04-26T06:36:32.982Z</time></trkpt><trkpt lat="45.3671244" lon="8.388613"><ele>131.0</ele><time>2026-04-26T06:36:34.976Z</time></trkpt><trkpt lat="45.3671629" lon="8.3884993"><ele>131.0</ele><time>2026-04-26T06:36:36.98Z</time></trkpt><trkpt lat="45.3672037" lon="8.3883974"><ele>131.0</ele><time>2026-04-26T06:36:39.983Z</time></trkpt><trkpt lat="45.3672502" lon="8.3883095"><ele>131.0</ele><time>2026-04-26T06:36:40.979Z</time></trkpt><trkpt lat="45.3673183" lon="8.3881935"><ele>131.0</ele><time>2026-04-26T06:36:42.976Z</time></trkpt><trkpt lat="45.3673802" lon="8.3880938"><ele>131.4</ele><time>2026-04-26T06:36:44.979Z</time></trkpt><trkpt lat="45.3674474" lon="8.3879998"><ele>131.8</ele><time>2026-04-26T06:36:46.978Z</time></trkpt><trkpt lat="45.3675113" lon="8.3879108"><ele>132.20000000000002</ele><time>2026-04-26T06:36:48.97Z</time></trkpt><trkpt lat="45.3675754" lon="8.3878238"><ele>132.6</ele><time>2026-04-26T06:36:50.977Z</time></trkpt><trkpt lat="45.3676466" lon="8.3877365"><ele>133.0</ele><time>2026-04-26T06:36:52.966Z</time></trkpt><trkpt lat="45.3677231" lon="8.3876647"><ele>133.0</ele><time>2026-04-26T06:36:54.967Z</time></trkpt><trkpt lat="45.367803" lon="8.3875934"><ele>133.0</ele><time>2026-04-26T06:36:56.972Z</time></trkpt><trkpt lat="45.3678862" lon="8.3875283"><ele>133.0</ele><time>2026-04-26T06:36:58.971Z</time></trkpt><trkpt lat="45.3679717" lon="8.3874746"><ele>133.0</ele><time>2026-04-26T06:37:00.977Z</time></trkpt><trkpt lat="45.3680609" lon="8.3874253"><ele>133.0</ele><time>2026-04-26T06:37:02.972Z</time></trkpt><trkpt lat="45.3681473" lon="8.3873816"><ele>132.8</ele><time>2026-04-26T06:37:04.975Z</time></trkpt><trkpt lat="45.3682345" lon="8.38734"><ele>132.60000000000002</ele><time>2026-04-26T06:37:06.968Z</time></trkpt><trkpt lat="45.36832" lon="8.3872937"><ele>132.39999999999998</ele><time>2026-04-26T06:37:08.969Z</time></trkpt><trkpt lat="45.3684062" lon="8.387251"><ele>132.2</ele><time>2026-04-26T06:37:10.972Z</time></trkpt><trkpt lat="45.3684954" lon="8.3872105"><ele>132.0</ele><time>2026-04-26T06:37:12.978Z</time></trkpt><trkpt lat="45.3685859" lon="8.387171"><ele>132.0</ele><time>2026-04-26T06:37:14.971Z</time></trkpt><trkpt lat="45.3686679" lon="8.3871278"><ele>132.0</ele><time>2026-04-26T06:37:16.969Z</time></trkpt><trkpt lat="45.368759" lon="8.3870784"><ele>132.0</ele><time>2026-04-26T06:37:18.967Z</time></trkpt><trkpt lat="45.3688491" lon="8.387038"><ele>132.0</ele><time>2026-04-26T06:37:20.978Z</time></trkpt><trkpt lat="45.3689321" lon="8.3869874"><ele>132.0</ele><time>2026-04-26T06:37:22.977Z</time></trkpt><trkpt lat="45.3690162" lon="8.3869452"><ele>132.0</ele><time>2026-04-26T06:37:24.97Z</time></trkpt><trkpt lat="45.3690957" lon="8.3868844"><ele>132.0</ele><time>2026-04-26T06:37:26.969Z</time></trkpt><trkpt lat="45.3691713" lon="8.3868053"><ele>132.0</ele><time>2026-04-26T06:37:28.973Z</time></trkpt><trkpt lat="45.3692463" lon="8.3867227"><ele>132.0</ele><time>2026-04-26T06:37:30.978Z</time></trkpt><trkpt lat="45.369324" lon="8.386638"><ele>132.0</ele><time>2026-04-26T06:37:32.973Z</time></trkpt><trkpt lat="45.3693919" lon="8.386554"><ele>132.0</ele><time>2026-04-26T06:37:34.972Z</time></trkpt><trkpt lat="45.3694616" lon="8.3864715"><ele>132.0</ele><time>2026-04-26T06:37:36.978Z</time></trkpt><trkpt lat="45.3695335" lon="8.3863768"><ele>132.0</ele><time>2026-04-26T06:37:38.975Z</time></trkpt><trkpt lat="45.3696069" lon="8.3862773"><ele>132.0</ele><time>2026-04-26T06:37:40.97Z</time></trkpt><trkpt lat="45.3696756" lon="8.3861636"><ele>132.0</ele><time>2026-04-26T06:37:42.972Z</time></trkpt><trkpt lat="45.3697334" lon="8.3860365"><ele>132.2</ele><time>2026-04-26T06:37:44.969Z</time></trkpt><trkpt lat="45.3697785" lon="8.3858998"><ele>132.39999999999998</ele><time>2026-04-26T06:37:46.972Z</time></trkpt><trkpt lat="45.3698127" lon="8.385764"><ele>132.60000000000002</ele><time>2026-04-26T06:37:48.98Z</time></trkpt><trkpt lat="45.3698486" lon="8.3856253"><ele>132.8</ele><time>2026-04-26T06:37:50.972Z</time></trkpt><trkpt lat="45.3698819" lon="8.385492"><ele>133.0</ele><time>2026-04-26T06:37:52.977Z</time></trkpt><trkpt lat="45.3699082" lon="8.3853643"><ele>133.0</ele><time>2026-04-26T06:37:54.977Z</time></trkpt><trkpt lat="45.369924" lon="8.3852296"><ele>133.0</ele><time>2026-04-26T06:37:56.975Z</time></trkpt><trkpt lat="45.3699228" lon="8.3850951"><ele>133.0</ele><time>2026-04-26T06:37:58.979Z</time></trkpt><trkpt lat="45.3699048" lon="8.3849684"><ele>133.0</ele><time>2026-04-26T06:38:00.971Z</time></trkpt><trkpt lat="45.3698581" lon="8.3848589"><ele>133.0</ele><time>2026-04-26T06:38:02.978Z</time></trkpt><trkpt lat="45.3697983" lon="8.384763"><ele>133.0</ele><time>2026-04-26T06:38:04.982Z</time></trkpt><trkpt lat="45.3697267" lon="8.3846796"><ele>133.0</ele><time>2026-04-26T06:38:06.971Z</time></trkpt><trkpt lat="45.3696502" lon="8.384604"><ele>133.0</ele><time>2026-04-26T06:38:08.986Z</time></trkpt><trkpt lat="45.3695758" lon="8.384517"><ele>133.0</ele><time>2026-04-26T06:38:10.977Z</time></trkpt><trkpt lat="45.3695008" lon="8.384431"><ele>133.0</ele><time>2026-04-26T06:38:12.975Z</time></trkpt><trkpt lat="45.3694185" lon="8.3843496"><ele>133.0</ele><time>2026-04-26T06:38:14.972Z</time></trkpt><trkpt lat="45.3693476" lon="8.3842415"><ele>133.0</ele><time>2026-04-26T06:38:16.983Z</time></trkpt><trkpt lat="45.3692689" lon="8.3841535"><ele>133.0</ele><time>2026-04-26T06:38:18.973Z</time></trkpt><trkpt lat="45.3691824" lon="8.3840756"><ele>133.0</ele><time>2026-04-26T06:38:20.977Z</time></trkpt><trkpt lat="45.3691062" lon="8.3839828"><ele>133.0</ele><time>2026-04-26T06:38:22.972Z</time></trkpt><trkpt lat="45.3690287" lon="8.3838978"><ele>133.0</ele><time>2026-04-26T06:38:24.976Z</time></trkpt><trkpt lat="45.3689529" lon="8.3838084"><ele>133.0</ele><time>2026-04-26T06:38:26.968Z</time></trkpt><trkpt lat="45.3688738" lon="8.3837225"><ele>133.0</ele><time>2026-04-26T06:38:28.976Z</time></trkpt><trkpt lat="45.3687995" lon="8.3836273"><ele>133.0</ele><time>2026-04-26T06:38:30.969Z</time></trkpt><trkpt lat="45.3687275" lon="8.38353"><ele>133.0</ele><time>2026-04-26T06:38:32.978Z</time></trkpt><trkpt lat="45.3686501" lon="8.3834423"><ele>133.0</ele><time>2026-04-26T06:38:34.975Z</time></trkpt><trkpt lat="45.3685717" lon="8.3833494"><ele>133.0</ele><time>2026-04-26T06:38:36.973Z</time></trkpt><trkpt lat="45.368485" lon="8.3832596"><ele>133.0</ele><time>2026-04-26T06:38:38.978Z</time></trkpt><trkpt lat="45.3684039" lon="8.3831612"><ele>133.0</ele><time>2026-04-26T06:38:40.969Z</time></trkpt><trkpt lat="45.3683256" lon="8.3830584"><ele>133.0</ele><time>2026-04-26T06:38:42.969Z</time></trkpt><trkpt lat="45.3682441" lon="8.3829633"><ele>133.0</ele><time>2026-04-26T06:38:44.971Z</time></trkpt><trkpt lat="45.3681626" lon="8.3828748"><ele>133.0</ele><time>2026-04-26T06:38:46.971Z</time></trkpt><trkpt lat="45.3680784" lon="8.3827841"><ele>133.0</ele><time>2026-04-26T06:38:48.97Z</time></trkpt><trkpt lat="45.368005" lon="8.3826803"><ele>133.0</ele><time>2026-04-26T06:38:50.98Z</time></trkpt><trkpt lat="45.3679388" lon="8.3825873"><ele>133.0</ele><time>2026-04-26T06:38:52.972Z</time></trkpt><trkpt lat="45.3679878" lon="8.3825073"><ele>133.0</ele><time>2026-04-26T06:38:57.97Z</time></trkpt><trkpt lat="45.3680527" lon="8.3825489"><ele>133.0</ele><time>2026-04-26T06:38:59.965Z</time></trkpt><trkpt lat="45.3681487" lon="8.3826292"><ele>133.0</ele><time>2026-04-26T06:39:01.968Z</time></trkpt><trkpt lat="45.3682374" lon="8.382742"><ele>133.0</ele><time>2026-04-26T06:39:03.973Z</time></trkpt><trkpt lat="45.36832" lon="8.3828515"><ele>133.0</ele><time>2026-04-26T06:39:05.968Z</time></trkpt><trkpt lat="45.3684024" lon="8.3829585"><ele>133.0</ele><time>2026-04-26T06:39:07.969Z</time></trkpt><trkpt lat="45.3684998" lon="8.383056"><ele>133.0</ele><time>2026-04-26T06:39:09.971Z</time></trkpt><trkpt lat="45.3685899" lon="8.3831635"><ele>133.0</ele><time>2026-04-26T06:39:11.974Z</time></trkpt><trkpt lat="45.3686832" lon="8.3832684"><ele>133.0</ele><time>2026-04-26T06:39:13.971Z</time></trkpt><trkpt lat="45.3687739" lon="8.3833884"><ele>133.20000000000002</ele><time>2026-04-26T06:39:15.976Z</time></trkpt><trkpt lat="45.3688681" lon="8.3834967"><ele>133.4</ele><time>2026-04-26T06:39:17.97Z</time></trkpt><trkpt lat="45.3689163" lon="8.3835591"><ele>133.60000000000002</ele><time>2026-04-26T06:39:18.971Z</time></trkpt><trkpt lat="45.3690099" lon="8.3836697"><ele>133.8</ele><time>2026-04-26T06:39:20.975Z</time></trkpt><trkpt lat="45.3690598" lon="8.3837244"><ele>134.0</ele><time>2026-04-26T06:39:21.976Z</time></trkpt><trkpt lat="45.3691587" lon="8.3838257"><ele>133.8</ele><time>2026-04-26T06:39:23.971Z</time></trkpt><trkpt lat="45.3692456" lon="8.3839228"><ele>133.60000000000002</ele><time>2026-04-26T06:39:25.974Z</time></trkpt><trkpt lat="45.3693232" lon="8.3840201"><ele>133.4</ele><time>2026-04-26T06:39:27.968Z</time></trkpt><trkpt lat="45.3693947" lon="8.3841076"><ele>133.20000000000002</ele><time>2026-04-26T06:39:29.975Z</time></trkpt><trkpt lat="45.3694597" lon="8.3841803"><ele>133.0</ele><time>2026-04-26T06:39:31.966Z</time></trkpt><trkpt lat="45.3695194" lon="8.384255"><ele>133.0</ele><time>2026-04-26T06:39:33.973Z</time></trkpt><trkpt lat="45.369576" lon="8.3843253"><ele>133.0</ele><time>2026-04-26T06:39:35.97Z</time></trkpt><trkpt lat="45.3696261" lon="8.3843887"><ele>133.0</ele><time>2026-04-26T06:39:37.969Z</time></trkpt><trkpt lat="45.3696896" lon="8.3844729"><ele>133.0</ele><time>2026-04-26T06:39:39.965Z</time></trkpt><trkpt lat="45.369764" lon="8.3845298"><ele>133.0</ele><time>2026-04-26T06:39:41.976Z</time></trkpt><trkpt lat="45.3698373" lon="8.3845982"><ele>133.0</ele><time>2026-04-26T06:39:43.98Z</time></trkpt><trkpt lat="45.369908" lon="8.3846894"><ele>133.0</ele><time>2026-04-26T06:39:45.973Z</time></trkpt><trkpt lat="45.3699756" lon="8.3847805"><ele>133.0</ele><time>2026-04-26T06:39:47.973Z</time></trkpt><trkpt lat="45.370039" lon="8.3848793"><ele>133.0</ele><time>2026-04-26T06:39:49.977Z</time></trkpt><trkpt lat="45.3700947" lon="8.3849524"><ele>133.0</ele><time>2026-04-26T06:39:51.973Z</time></trkpt><trkpt lat="45.3701438" lon="8.38505"><ele>133.0</ele><time>2026-04-26T06:39:53.974Z</time></trkpt><trkpt lat="45.3702315" lon="8.3851073"><ele>133.0</ele><time>2026-04-26T06:39:55.974Z</time></trkpt><trkpt lat="45.3703448" lon="8.3851571"><ele>133.0</ele><time>2026-04-26T06:39:57.967Z</time></trkpt><trkpt lat="45.3704041" lon="8.3852028"><ele>133.0</ele><time>2026-04-26T06:39:58.979Z</time></trkpt><trkpt lat="45.3704515" lon="8.3852633"><ele>133.0</ele><time>2026-04-26T06:39:59.974Z</time></trkpt><trkpt lat="45.370532" lon="8.3853907"><ele>133.0</ele><time>2026-04-26T06:40:01.972Z</time></trkpt><trkpt lat="45.3706149" lon="8.3855132"><ele>133.0</ele><time>2026-04-26T06:40:03.969Z</time></trkpt><trkpt lat="45.3706903" lon="8.3856378"><ele>132.8</ele><time>2026-04-26T06:40:05.971Z</time></trkpt><trkpt lat="45.3707643" lon="8.3857542"><ele>132.60000000000002</ele><time>2026-04-26T06:40:07.979Z</time></trkpt><trkpt lat="45.37084" lon="8.3858503"><ele>132.39999999999998</ele><time>2026-04-26T06:40:09.972Z</time></trkpt><trkpt lat="45.3709384" lon="8.3859047"><ele>132.2</ele><time>2026-04-26T06:40:11.976Z</time></trkpt><trkpt lat="45.3710422" lon="8.3859051"><ele>132.0</ele><time>2026-04-26T06:40:13.975Z</time></trkpt><trkpt lat="45.3711302" lon="8.3858872"><ele>132.0</ele><time>2026-04-26T06:40:15.971Z</time></trkpt><trkpt lat="45.3711995" lon="8.385849"><ele>132.0</ele><time>2026-04-26T06:40:17.97Z</time></trkpt><trkpt lat="45.3712381" lon="8.3857744"><ele>132.0</ele><time>2026-04-26T06:40:19.973Z</time></trkpt><trkpt lat="45.3712408" lon="8.3856686"><ele>132.0</ele><time>2026-04-26T06:40:21.978Z</time></trkpt><trkpt lat="45.3711927" lon="8.3855623"><ele>132.0</ele><time>2026-04-26T06:40:24.975Z</time></trkpt><trkpt lat="45.3711488" lon="8.3854043"><ele>132.0</ele><time>2026-04-26T06:40:26.971Z</time></trkpt><trkpt lat="45.3710993" lon="8.3852762"><ele>132.0</ele><time>2026-04-26T06:40:28.977Z</time></trkpt><trkpt lat="45.3710549" lon="8.3851502"><ele>132.0</ele><time>2026-04-26T06:40:30.968Z</time></trkpt><trkpt lat="45.3710099" lon="8.3850186"><ele>132.0</ele><time>2026-04-26T06:40:32.981Z</time></trkpt><trkpt lat="45.3709729" lon="8.3848758"><ele>132.0</ele><time>2026-04-26T06:40:34.979Z</time></trkpt><trkpt lat="45.3709388" lon="8.3847312"><ele>132.0</ele><time>2026-04-26T06:40:36.973Z</time></trkpt><trkpt lat="45.3709039" lon="8.3845851"><ele>131.66666666666666</ele><time>2026-04-26T06:40:38.974Z</time></trkpt><trkpt lat="45.3708724" lon="8.3844495"><ele>131.33333333333334</ele><time>2026-04-26T06:40:40.972Z</time></trkpt><trkpt lat="45.3708434" lon="8.384326"><ele>131.0</ele><time>2026-04-26T06:40:42.98Z</time></trkpt><trkpt lat="45.3708193" lon="8.3842147"><ele>130.66666666666669</ele><time>2026-04-26T06:40:44.98Z</time></trkpt><trkpt lat="45.3707891" lon="8.3840967"><ele>130.33333333333334</ele><time>2026-04-26T06:40:46.978Z</time></trkpt><trkpt lat="45.3707556" lon="8.3839829"><ele>130.0</ele><time>2026-04-26T06:40:48.981Z</time></trkpt><trkpt lat="45.3706915" lon="8.3838848"><ele>130.0</ele><time>2026-04-26T06:40:51.978Z</time></trkpt><trkpt lat="45.3706207" lon="8.3838216"><ele>130.0</ele><time>2026-04-26T06:40:53.969Z</time></trkpt><trkpt lat="45.3705564" lon="8.3837344"><ele>130.0</ele><time>2026-04-26T06:40:55.973Z</time></trkpt><trkpt lat="45.370507" lon="8.383625"><ele>130.0</ele><time>2026-04-26T06:40:57.967Z</time></trkpt><trkpt lat="45.3704677" lon="8.3835124"><ele>130.0</ele><time>2026-04-26T06:40:59.97Z</time></trkpt><trkpt lat="45.3704242" lon="8.3834033"><ele>130.0</ele><time>2026-04-26T06:41:01.975Z</time></trkpt><trkpt lat="45.3703658" lon="8.3833024"><ele>130.2</ele><time>2026-04-26T06:41:03.965Z</time></trkpt><trkpt lat="45.370301" lon="8.3832114"><ele>130.4</ele><time>2026-04-26T06:41:05.972Z</time></trkpt><trkpt lat="45.3702394" lon="8.3831225"><ele>130.6</ele><time>2026-04-26T06:41:07.968Z</time></trkpt><trkpt lat="45.3701862" lon="8.3830227"><ele>130.8</ele><time>2026-04-26T06:41:09.974Z</time></trkpt><trkpt lat="45.3701405" lon="8.3829224"><ele>131.0</ele><time>2026-04-26T06:41:11.973Z</time></trkpt><trkpt lat="45.3701053" lon="8.3827617"><ele>131.0</ele><time>2026-04-26T06:41:14.974Z</time></trkpt><trkpt lat="45.3701177" lon="8.3826128"><ele>131.0</ele><time>2026-04-26T06:41:16.973Z</time></trkpt><trkpt lat="45.3701918" lon="8.3825273"><ele>131.0</ele><time>2026-04-26T06:41:18.964Z</time></trkpt><trkpt lat="45.3702529" lon="8.3824445"><ele>131.0</ele><time>2026-04-26T06:41:20.965Z</time></trkpt><trkpt lat="45.3703108" lon="8.3823626"><ele>131.0</ele><time>2026-04-26T06:41:22.971Z</time></trkpt><trkpt lat="45.3703826" lon="8.3822935"><ele>131.0</ele><time>2026-04-26T06:41:24.968Z</time></trkpt><trkpt lat="45.370462" lon="8.3822266"><ele>131.0</ele><time>2026-04-26T06:41:26.962Z</time></trkpt><trkpt lat="45.3705388" lon="8.3821593"><ele>131.0</ele><time>2026-04-26T06:41:28.968Z</time></trkpt><trkpt lat="45.3706196" lon="8.3820992"><ele>131.0</ele><time>2026-04-26T06:41:30.967Z</time></trkpt><trkpt lat="45.3706958" lon="8.3820236"><ele>131.0</ele><time>2026-04-26T06:41:32.963Z</time></trkpt><trkpt lat="45.3707692" lon="8.3819482"><ele>131.0</ele><time>2026-04-26T06:41:34.969Z</time></trkpt><trkpt lat="45.3708463" lon="8.3818656"><ele>131.0</ele><time>2026-04-26T06:41:36.964Z</time></trkpt><trkpt lat="45.3709208" lon="8.3817859"><ele>131.0</ele><time>2026-04-26T06:41:38.974Z</time></trkpt><trkpt lat="45.3709934" lon="8.3817075"><ele>131.0</ele><time>2026-04-26T06:41:40.969Z</time></trkpt><trkpt lat="45.3710621" lon="8.3816262"><ele>131.0</ele><time>2026-04-26T06:41:42.97Z</time></trkpt><trkpt lat="45.371129" lon="8.3815378"><ele>131.0</ele><time>2026-04-26T06:41:44.971Z</time></trkpt><trkpt lat="45.3711886" lon="8.3814426"><ele>131.0</ele><time>2026-04-26T06:41:46.97Z</time></trkpt><trkpt lat="45.371232" lon="8.3813587"><ele>131.0</ele><time>2026-04-26T06:41:48.965Z</time></trkpt><trkpt lat="45.371274" lon="8.3812468"><ele>131.0</ele><time>2026-04-26T06:41:50.97Z</time></trkpt><trkpt lat="45.3713073" lon="8.3811362"><ele>131.0</ele><time>2026-04-26T06:41:52.973Z</time></trkpt><trkpt lat="45.3713416" lon="8.3810319"><ele>131.0</ele><time>2026-04-26T06:41:54.966Z</time></trkpt><trkpt lat="45.3713835" lon="8.3809208"><ele>131.16666666666666</ele><time>2026-04-26T06:41:56.985Z</time></trkpt><trkpt lat="45.3714433" lon="8.3808276"><ele>131.33333333333331</ele><time>2026-04-26T06:41:58.973Z</time></trkpt><trkpt lat="45.3715002" lon="8.3807242"><ele>131.5</ele><time>2026-04-26T06:42:00.972Z</time></trkpt><trkpt lat="45.3715525" lon="8.380626"><ele>131.66666666666666</ele><time>2026-04-26T06:42:02.969Z</time></trkpt><trkpt lat="45.3716088" lon="8.3805303"><ele>131.83333333333334</ele><time>2026-04-26T06:42:04.972Z</time></trkpt><trkpt lat="45.3716637" lon="8.380439"><ele>132.0</ele><time>2026-04-26T06:42:06.971Z</time></trkpt><trkpt lat="45.3717209" lon="8.3803528"><ele>132.16666666666666</ele><time>2026-04-26T06:42:08.968Z</time></trkpt><trkpt lat="45.3717807" lon="8.3802711"><ele>132.33333333333334</ele><time>2026-04-26T06:42:10.974Z</time></trkpt><trkpt lat="45.3718381" lon="8.3801884"><ele>132.5</ele><time>2026-04-26T06:42:12.955Z</time></trkpt><trkpt lat="45.3719021" lon="8.3800818"><ele>132.66666666666669</ele><time>2026-04-26T06:42:15.97Z</time></trkpt><trkpt lat="45.3719514" lon="8.3799989"><ele>132.83333333333334</ele><time>2026-04-26T06:42:17.969Z</time></trkpt><trkpt lat="45.3720063" lon="8.3799258"><ele>133.0</ele><time>2026-04-26T06:42:19.93Z</time></trkpt><trkpt lat="45.3720671" lon="8.3798663"><ele>133.0</ele><time>2026-04-26T06:42:21.967Z</time></trkpt><trkpt lat="45.3721391" lon="8.379851"><ele>133.0</ele><time>2026-04-26T06:42:23.968Z</time></trkpt><trkpt lat="45.3722164" lon="8.3798683"><ele>133.0</ele><time>2026-04-26T06:42:25.971Z</time></trkpt><trkpt lat="45.3722948" lon="8.3798987"><ele>133.0</ele><time>2026-04-26T06:42:27.905Z</time></trkpt><trkpt lat="45.3723812" lon="8.3799355"><ele>133.0</ele><time>2026-04-26T06:42:29.934Z</time></trkpt><trkpt lat="45.3724671" lon="8.3799652"><ele>133.0</ele><time>2026-04-26T06:42:31.97Z</time></trkpt><trkpt lat="45.3725553" lon="8.3799931"><ele>133.0</ele><time>2026-04-26T06:42:33.969Z</time></trkpt><trkpt lat="45.3726351" lon="8.3800333"><ele>133.0</ele><time>2026-04-26T06:42:35.969Z</time></trkpt><trkpt lat="45.372722" lon="8.380047"><ele>133.0</ele><time>2026-04-26T06:42:37.968Z</time></trkpt><trkpt lat="45.3728062" lon="8.3800638"><ele>133.0</ele><time>2026-04-26T06:42:39.971Z</time></trkpt><trkpt lat="45.372893" lon="8.3800867"><ele>133.0</ele><time>2026-04-26T06:42:41.97Z</time></trkpt><trkpt lat="45.372976" lon="8.3801059"><ele>133.0</ele><time>2026-04-26T06:42:43.969Z</time></trkpt><trkpt lat="45.3730531" lon="8.3801265"><ele>133.0</ele><time>2026-04-26T06:42:45.905Z</time></trkpt><trkpt lat="45.3731407" lon="8.3801506"><ele>133.0</ele><time>2026-04-26T06:42:47.981Z</time></trkpt><trkpt lat="45.3732247" lon="8.380178"><ele>133.0</ele><time>2026-04-26T06:42:49.969Z</time></trkpt><trkpt lat="45.3733033" lon="8.3802076"><ele>133.0</ele><time>2026-04-26T06:42:51.978Z</time></trkpt><trkpt lat="45.3733799" lon="8.3802401"><ele>133.0</ele><time>2026-04-26T06:42:53.966Z</time></trkpt><trkpt lat="45.373456" lon="8.3802723"><ele>133.0</ele><time>2026-04-26T06:42:55.888Z</time></trkpt><trkpt lat="45.3735423" lon="8.3803154"><ele>133.0</ele><time>2026-04-26T06:42:57.97Z</time></trkpt><trkpt lat="45.3736219" lon="8.3803667"><ele>133.0</ele><time>2026-04-26T06:42:59.975Z</time></trkpt><trkpt lat="45.3737039" lon="8.3804141"><ele>133.0</ele><time>2026-04-26T06:43:01.969Z</time></trkpt><trkpt lat="45.3737874" lon="8.3804668"><ele>133.0</ele><time>2026-04-26T06:43:03.975Z</time></trkpt><trkpt lat="45.3738637" lon="8.3805105"><ele>133.0</ele><time>2026-04-26T06:43:05.975Z</time></trkpt><trkpt lat="45.3739252" lon="8.3805552"><ele>133.0</ele><time>2026-04-26T06:43:07.968Z</time></trkpt><trkpt lat="45.3740073" lon="8.3806087"><ele>133.0</ele><time>2026-04-26T06:43:09.973Z</time></trkpt><trkpt lat="45.3740874" lon="8.3806623"><ele>133.0</ele><time>2026-04-26T06:43:11.971Z</time></trkpt><trkpt lat="45.3741651" lon="8.380709"><ele>133.0</ele><time>2026-04-26T06:43:13.957Z</time></trkpt><trkpt lat="45.3742466" lon="8.3807514"><ele>133.0</ele><time>2026-04-26T06:43:15.968Z</time></trkpt><trkpt lat="45.3743282" lon="8.3808028"><ele>133.0</ele><time>2026-04-26T06:43:17.966Z</time></trkpt><trkpt lat="45.3744049" lon="8.3808566"><ele>133.0</ele><time>2026-04-26T06:43:19.978Z</time></trkpt><trkpt lat="45.3744846" lon="8.3809089"><ele>133.0</ele><time>2026-04-26T06:43:21.975Z</time></trkpt><trkpt lat="45.3745607" lon="8.3809679"><ele>133.0</ele><time>2026-04-26T06:43:23.974Z</time></trkpt><trkpt lat="45.3746533" lon="8.3810019"><ele>133.0</ele><time>2026-04-26T06:43:25.978Z</time></trkpt><trkpt lat="45.3747384" lon="8.3810448"><ele>133.0</ele><time>2026-04-26T06:43:27.968Z</time></trkpt><trkpt lat="45.374808" lon="8.3810855"><ele>133.0</ele><time>2026-04-26T06:43:29.969Z</time></trkpt><trkpt lat="45.3748917" lon="8.3811183"><ele>133.0</ele><time>2026-04-26T06:43:31.965Z</time></trkpt><trkpt lat="45.3749593" lon="8.3811626"><ele>133.16666666666669</ele><time>2026-04-26T06:43:33.972Z</time></trkpt><trkpt lat="45.3750369" lon="8.3812121"><ele>133.33333333333334</ele><time>2026-04-26T06:43:35.968Z</time></trkpt><trkpt lat="45.3751024" lon="8.3812572"><ele>133.5</ele><time>2026-04-26T06:43:37.972Z</time></trkpt><trkpt lat="45.3751584" lon="8.3813071"><ele>133.66666666666666</ele><time>2026-04-26T06:43:39.968Z</time></trkpt><trkpt lat="45.3752392" lon="8.38132"><ele>133.83333333333331</ele><time>2026-04-26T06:43:42.982Z</time></trkpt><trkpt lat="45.3753072" lon="8.3812076"><ele>134.0</ele><time>2026-04-26T06:43:45.971Z</time></trkpt><trkpt lat="45.3753464" lon="8.3811215"><ele>134.0</ele><time>2026-04-26T06:43:47.928Z</time></trkpt><trkpt lat="45.3753944" lon="8.3810396"><ele>134.0</ele><time>2026-04-26T06:43:49.979Z</time></trkpt><trkpt lat="45.3754445" lon="8.3809665"><ele>134.0</ele><time>2026-04-26T06:43:51.974Z</time></trkpt><trkpt lat="45.375487" lon="8.380897"><ele>134.0</ele><time>2026-04-26T06:43:53.973Z</time></trkpt><trkpt lat="45.3755481" lon="8.3807956"><ele>134.0</ele><time>2026-04-26T06:43:56.97Z</time></trkpt><trkpt lat="45.3756001" lon="8.3807279"><ele>134.0</ele><time>2026-04-26T06:43:58.968Z</time></trkpt><trkpt lat="45.3756583" lon="8.3806523"><ele>133.83333333333331</ele><time>2026-04-26T06:44:00.975Z</time></trkpt><trkpt lat="45.3757142" lon="8.3805728"><ele>133.66666666666666</ele><time>2026-04-26T06:44:02.988Z</time></trkpt><trkpt lat="45.3757622" lon="8.3804911"><ele>133.5</ele><time>2026-04-26T06:44:04.974Z</time></trkpt><trkpt lat="45.3758045" lon="8.3804113"><ele>133.33333333333334</ele><time>2026-04-26T06:44:06.982Z</time></trkpt><trkpt lat="45.3758705" lon="8.3803227"><ele>133.16666666666669</ele><time>2026-04-26T06:44:09.97Z</time></trkpt><trkpt lat="45.3759392" lon="8.3802262"><ele>133.0</ele><time>2026-04-26T06:44:12.974Z</time></trkpt><trkpt lat="45.3759856" lon="8.3801497"><ele>133.0</ele><time>2026-04-26T06:44:14.976Z</time></trkpt><trkpt lat="45.3760351" lon="8.3800754"><ele>133.0</ele><time>2026-04-26T06:44:16.973Z</time></trkpt><trkpt lat="45.376087" lon="8.3800031"><ele>133.0</ele><time>2026-04-26T06:44:18.972Z</time></trkpt><trkpt lat="45.3761379" lon="8.3799277"><ele>133.0</ele><time>2026-04-26T06:44:20.974Z</time></trkpt><trkpt lat="45.3761882" lon="8.3798537"><ele>133.0</ele><time>2026-04-26T06:44:22.975Z</time></trkpt><trkpt lat="45.3762343" lon="8.3797782"><ele>133.0</ele><time>2026-04-26T06:44:24.971Z</time></trkpt><trkpt lat="45.3762555" lon="8.3796598"><ele>133.0</ele><time>2026-04-26T06:44:27.978Z</time></trkpt><trkpt lat="45.3761923" lon="8.3795672"><ele>133.0</ele><time>2026-04-26T06:44:30.975Z</time></trkpt><trkpt lat="45.3761363" lon="8.3795138"><ele>133.0</ele><time>2026-04-26T06:44:32.979Z</time></trkpt><trkpt lat="45.3760862" lon="8.3794546"><ele>133.0</ele><time>2026-04-26T06:44:34.868Z</time></trkpt><trkpt lat="45.3760276" lon="8.3793721"><ele>133.0</ele><time>2026-04-26T06:44:36.973Z</time></trkpt><trkpt lat="45.3759753" lon="8.3792886"><ele>133.0</ele><time>2026-04-26T06:44:38.977Z</time></trkpt><trkpt lat="45.3759257" lon="8.3792009"><ele>133.0</ele><time>2026-04-26T06:44:40.97Z</time></trkpt><trkpt lat="45.3758847" lon="8.3791045"><ele>133.0</ele><time>2026-04-26T06:44:42.975Z</time></trkpt><trkpt lat="45.3758525" lon="8.3790006"><ele>133.0</ele><time>2026-04-26T06:44:44.968Z</time></trkpt><trkpt lat="45.3758259" lon="8.3788886"><ele>133.0</ele><time>2026-04-26T06:44:46.982Z</time></trkpt><trkpt lat="45.3757989" lon="8.3787756"><ele>133.0</ele><time>2026-04-26T06:44:48.975Z</time></trkpt><trkpt lat="45.3757775" lon="8.3786593"><ele>133.0</ele><time>2026-04-26T06:44:50.991Z</time></trkpt><trkpt lat="45.3757624" lon="8.378545"><ele>133.0</ele><time>2026-04-26T06:44:52.97Z</time></trkpt><trkpt lat="45.3757636" lon="8.3784104"><ele>133.20000000000002</ele><time>2026-04-26T06:44:54.973Z</time></trkpt><trkpt lat="45.3757777" lon="8.37826"><ele>133.4</ele><time>2026-04-26T06:44:56.973Z</time></trkpt><trkpt lat="45.3757797" lon="8.378118"><ele>133.60000000000002</ele><time>2026-04-26T06:44:58.984Z</time></trkpt><trkpt lat="45.3757937" lon="8.3779832"><ele>133.8</ele><time>2026-04-26T06:45:00.978Z</time></trkpt><trkpt lat="45.3758061" lon="8.3778455"><ele>134.0</ele><time>2026-04-26T06:45:02.971Z</time></trkpt><trkpt lat="45.3758085" lon="8.3776992"><ele>134.0</ele><time>2026-04-26T06:45:04.983Z</time></trkpt><trkpt lat="45.3758117" lon="8.3775569"><ele>134.0</ele><time>2026-04-26T06:45:06.975Z</time></trkpt><trkpt lat="45.3758086" lon="8.3774146"><ele>134.0</ele><time>2026-04-26T06:45:08.972Z</time></trkpt><trkpt lat="45.375812" lon="8.3772769"><ele>134.0</ele><time>2026-04-26T06:45:10.98Z</time></trkpt><trkpt lat="45.3758091" lon="8.3771357"><ele>134.0</ele><time>2026-04-26T06:45:12.971Z</time></trkpt><trkpt lat="45.3757995" lon="8.376993"><ele>134.0</ele><time>2026-04-26T06:45:14.978Z</time></trkpt><trkpt lat="45.3757702" lon="8.37686"><ele>134.0</ele><time>2026-04-26T06:45:16.975Z</time></trkpt><trkpt lat="45.3757307" lon="8.3767435"><ele>134.0</ele><time>2026-04-26T06:45:18.987Z</time></trkpt><trkpt lat="45.3756853" lon="8.3766269"><ele>134.0</ele><time>2026-04-26T06:45:20.977Z</time></trkpt><trkpt lat="45.3756511" lon="8.3765021"><ele>134.0</ele><time>2026-04-26T06:45:22.969Z</time></trkpt><trkpt lat="45.3756256" lon="8.3763676"><ele>134.0</ele><time>2026-04-26T06:45:24.969Z</time></trkpt><trkpt lat="45.3756106" lon="8.3762302"><ele>134.0</ele><time>2026-04-26T06:45:26.968Z</time></trkpt><trkpt lat="45.3756041" lon="8.3760926"><ele>134.0</ele><time>2026-04-26T06:45:28.975Z</time></trkpt><trkpt lat="45.3756026" lon="8.3759593"><ele>134.0</ele><time>2026-04-26T06:45:30.971Z</time></trkpt><trkpt lat="45.3756047" lon="8.3758264"><ele>134.0</ele><time>2026-04-26T06:45:32.972Z</time></trkpt><trkpt lat="45.3756158" lon="8.3756932"><ele>134.0</ele><time>2026-04-26T06:45:34.978Z</time></trkpt><trkpt lat="45.3756241" lon="8.3755566"><ele>134.0</ele><time>2026-04-26T06:45:36.974Z</time></trkpt><trkpt lat="45.3756282" lon="8.3754128"><ele>134.0</ele><time>2026-04-26T06:45:38.98Z</time></trkpt><trkpt lat="45.3756298" lon="8.3752687"><ele>134.0</ele><time>2026-04-26T06:45:40.979Z</time></trkpt><trkpt lat="45.3756019" lon="8.3751311"><ele>134.0</ele><time>2026-04-26T06:45:42.97Z</time></trkpt><trkpt lat="45.3755863" lon="8.3749968"><ele>134.0</ele><time>2026-04-26T06:45:44.968Z</time></trkpt><trkpt lat="45.3755718" lon="8.3748672"><ele>134.0</ele><time>2026-04-26T06:45:46.969Z</time></trkpt><trkpt lat="45.3755575" lon="8.3747384"><ele>134.0</ele><time>2026-04-26T06:45:48.976Z</time></trkpt><trkpt lat="45.3755334" lon="8.3746046"><ele>134.0</ele><time>2026-04-26T06:45:50.977Z</time></trkpt><trkpt lat="45.375508" lon="8.3744753"><ele>134.0</ele><time>2026-04-26T06:45:52.977Z</time></trkpt><trkpt lat="45.3754821" lon="8.3743455"><ele>134.2</ele><time>2026-04-26T06:45:54.98Z</time></trkpt><trkpt lat="45.3754627" lon="8.3742184"><ele>134.4</ele><time>2026-04-26T06:45:56.979Z</time></trkpt><trkpt lat="45.3754396" lon="8.3740971"><ele>134.6</ele><time>2026-04-26T06:45:58.968Z</time></trkpt><trkpt lat="45.3754254" lon="8.3739648"><ele>134.8</ele><time>2026-04-26T06:46:00.977Z</time></trkpt><trkpt lat="45.3754051" lon="8.3738429"><ele>135.0</ele><time>2026-04-26T06:46:02.976Z</time></trkpt><trkpt lat="45.3753625" lon="8.3736913"><ele>135.0</ele><time>2026-04-26T06:46:05.969Z</time></trkpt><trkpt lat="45.3753535" lon="8.3735726"><ele>135.0</ele><time>2026-04-26T06:46:07.978Z</time></trkpt><trkpt lat="45.3754294" lon="8.3735117"><ele>135.0</ele><time>2026-04-26T06:46:09.97Z</time></trkpt><trkpt lat="45.3755246" lon="8.3735159"><ele>135.0</ele><time>2026-04-26T06:46:11.969Z</time></trkpt><trkpt lat="45.3756164" lon="8.3734968"><ele>135.0</ele><time>2026-04-26T06:46:13.977Z</time></trkpt><trkpt lat="45.3757127" lon="8.3734604"><ele>135.0</ele><time>2026-04-26T06:46:15.967Z</time></trkpt><trkpt lat="45.3758157" lon="8.3734255"><ele>135.0</ele><time>2026-04-26T06:46:17.967Z</time></trkpt><trkpt lat="45.375917" lon="8.373385"><ele>135.0</ele><time>2026-04-26T06:46:19.977Z</time></trkpt><trkpt lat="45.3760139" lon="8.3733453"><ele>135.0</ele><time>2026-04-26T06:46:21.977Z</time></trkpt><trkpt lat="45.3761068" lon="8.3733059"><ele>135.0</ele><time>2026-04-26T06:46:23.969Z</time></trkpt><trkpt lat="45.3762054" lon="8.3732645"><ele>135.0</ele><time>2026-04-26T06:46:25.975Z</time></trkpt><trkpt lat="45.3763063" lon="8.3732232"><ele>135.0</ele><time>2026-04-26T06:46:27.971Z</time></trkpt><trkpt lat="45.376418" lon="8.3731835"><ele>135.0</ele><time>2026-04-26T06:46:29.972Z</time></trkpt><trkpt lat="45.3765266" lon="8.3731411"><ele>135.0</ele><time>2026-04-26T06:46:31.977Z</time></trkpt><trkpt lat="45.3766356" lon="8.3730944"><ele>135.0</ele><time>2026-04-26T06:46:33.973Z</time></trkpt><trkpt lat="45.3767457" lon="8.3730518"><ele>135.0</ele><time>2026-04-26T06:46:35.977Z</time></trkpt><trkpt lat="45.3768573" lon="8.3730085"><ele>135.0</ele><time>2026-04-26T06:46:37.979Z</time></trkpt><trkpt lat="45.3769703" lon="8.3729657"><ele>135.0</ele><time>2026-04-26T06:46:39.977Z</time></trkpt><trkpt lat="45.37708" lon="8.3729214"><ele>135.0</ele><time>2026-04-26T06:46:41.97Z</time></trkpt><trkpt lat="45.3771897" lon="8.372876"><ele>135.4</ele><time>2026-04-26T06:46:43.979Z</time></trkpt><trkpt lat="45.3772972" lon="8.3728264"><ele>135.8</ele><time>2026-04-26T06:46:45.975Z</time></trkpt><trkpt lat="45.3774051" lon="8.3727864"><ele>136.2</ele><time>2026-04-26T06:46:47.98Z</time></trkpt><trkpt lat="45.3775078" lon="8.3727414"><ele>136.6</ele><time>2026-04-26T06:46:49.975Z</time></trkpt><trkpt lat="45.3776166" lon="8.3726955"><ele>137.0</ele><time>2026-04-26T06:46:51.982Z</time></trkpt><trkpt lat="45.3777236" lon="8.3726551"><ele>137.0</ele><time>2026-04-26T06:46:53.972Z</time></trkpt><trkpt lat="45.3778304" lon="8.3726085"><ele>137.0</ele><time>2026-04-26T06:46:55.978Z</time></trkpt><trkpt lat="45.3779377" lon="8.3725624"><ele>137.0</ele><time>2026-04-26T06:46:57.978Z</time></trkpt><trkpt lat="45.3780458" lon="8.3725205"><ele>137.0</ele><time>2026-04-26T06:46:59.977Z</time></trkpt><trkpt lat="45.3781491" lon="8.3724789"><ele>137.0</ele><time>2026-04-26T06:47:01.978Z</time></trkpt><trkpt lat="45.3782542" lon="8.372438"><ele>137.25</ele><time>2026-04-26T06:47:03.974Z</time></trkpt><trkpt lat="45.3783628" lon="8.3723986"><ele>137.5</ele><time>2026-04-26T06:47:05.981Z</time></trkpt><trkpt lat="45.378476" lon="8.3723701"><ele>137.75</ele><time>2026-04-26T06:47:07.977Z</time></trkpt><trkpt lat="45.3785928" lon="8.3723519"><ele>138.0</ele><time>2026-04-26T06:47:09.984Z</time></trkpt><trkpt lat="45.3787079" lon="8.3723451"><ele>138.0</ele><time>2026-04-26T06:47:11.967Z</time></trkpt><trkpt lat="45.3788194" lon="8.3723439"><ele>138.0</ele><time>2026-04-26T06:47:13.972Z</time></trkpt><trkpt lat="45.3789308" lon="8.3723552"><ele>138.0</ele><time>2026-04-26T06:47:15.978Z</time></trkpt><trkpt lat="45.3790415" lon="8.3723686"><ele>138.0</ele><time>2026-04-26T06:47:17.969Z</time></trkpt><trkpt lat="45.3791462" lon="8.3723911"><ele>138.0</ele><time>2026-04-26T06:47:19.975Z</time></trkpt><trkpt lat="45.3792582" lon="8.3724209"><ele>137.6</ele><time>2026-04-26T06:47:21.974Z</time></trkpt><trkpt lat="45.3793655" lon="8.3724492"><ele>137.20000000000002</ele><time>2026-04-26T06:47:23.975Z</time></trkpt><trkpt lat="45.3794685" lon="8.3724812"><ele>136.8</ele><time>2026-04-26T06:47:25.974Z</time></trkpt><trkpt lat="45.379577" lon="8.3725133"><ele>136.4</ele><time>2026-04-26T06:47:27.965Z</time></trkpt><trkpt lat="45.379681" lon="8.3725495"><ele>136.0</ele><time>2026-04-26T06:47:29.977Z</time></trkpt><trkpt lat="45.3797858" lon="8.3725939"><ele>135.8</ele><time>2026-04-26T06:47:31.975Z</time></trkpt><trkpt lat="45.3798876" lon="8.3726414"><ele>135.6</ele><time>2026-04-26T06:47:33.976Z</time></trkpt><trkpt lat="45.3799818" lon="8.3726994"><ele>135.4</ele><time>2026-04-26T06:47:35.98Z</time></trkpt><trkpt lat="45.380077" lon="8.3727587"><ele>135.2</ele><time>2026-04-26T06:47:37.97Z</time></trkpt><trkpt lat="45.3801676" lon="8.3728203"><ele>135.0</ele><time>2026-04-26T06:47:39.982Z</time></trkpt><trkpt lat="45.3802572" lon="8.372894"><ele>135.0</ele><time>2026-04-26T06:47:41.983Z</time></trkpt><trkpt lat="45.380347" lon="8.3729744"><ele>135.0</ele><time>2026-04-26T06:47:43.977Z</time></trkpt><trkpt lat="45.3804302" lon="8.3730549"><ele>135.0</ele><time>2026-04-26T06:47:45.969Z</time></trkpt><trkpt lat="45.3805125" lon="8.3731401"><ele>135.0</ele><time>2026-04-26T06:47:47.967Z</time></trkpt><trkpt lat="45.3805874" lon="8.3732232"><ele>135.0</ele><time>2026-04-26T06:47:49.976Z</time></trkpt><trkpt lat="45.3806626" lon="8.3733025"><ele>135.8</ele><time>2026-04-26T06:47:51.98Z</time></trkpt><trkpt lat="45.3807301" lon="8.3733821"><ele>136.6</ele><time>2026-04-26T06:47:53.972Z</time></trkpt><trkpt lat="45.3808002" lon="8.373459"><ele>137.4</ele><time>2026-04-26T06:47:55.975Z</time></trkpt><trkpt lat="45.3808707" lon="8.3735387"><ele>138.2</ele><time>2026-04-26T06:47:57.974Z</time></trkpt><trkpt lat="45.3809416" lon="8.3736214"><ele>139.0</ele><time>2026-04-26T06:47:59.98Z</time></trkpt><trkpt lat="45.3810161" lon="8.3737051"><ele>139.0</ele><time>2026-04-26T06:48:01.979Z</time></trkpt><trkpt lat="45.381091" lon="8.3737901"><ele>139.0</ele><time>2026-04-26T06:48:03.977Z</time></trkpt><trkpt lat="45.3811679" lon="8.3738741"><ele>139.0</ele><time>2026-04-26T06:48:05.973Z</time></trkpt><trkpt lat="45.3812491" lon="8.3739624"><ele>139.0</ele><time>2026-04-26T06:48:07.973Z</time></trkpt><trkpt lat="45.3813279" lon="8.3740531"><ele>139.0</ele><time>2026-04-26T06:48:09.975Z</time></trkpt><trkpt lat="45.3814064" lon="8.3741411"><ele>138.0</ele><time>2026-04-26T06:48:11.977Z</time></trkpt><trkpt lat="45.3814842" lon="8.3742282"><ele>137.0</ele><time>2026-04-26T06:48:13.97Z</time></trkpt><trkpt lat="45.3815638" lon="8.3743225"><ele>136.0</ele><time>2026-04-26T06:48:15.975Z</time></trkpt><trkpt lat="45.3816436" lon="8.3744173"><ele>135.0</ele><time>2026-04-26T06:48:17.968Z</time></trkpt><trkpt lat="45.3817223" lon="8.3745008"><ele>134.0</ele><time>2026-04-26T06:48:19.969Z</time></trkpt><trkpt lat="45.3818057" lon="8.3745848"><ele>134.0</ele><time>2026-04-26T06:48:21.969Z</time></trkpt><trkpt lat="45.3818882" lon="8.3746759"><ele>134.0</ele><time>2026-04-26T06:48:23.964Z</time></trkpt><trkpt lat="45.3819697" lon="8.3747644"><ele>134.0</ele><time>2026-04-26T06:48:25.968Z</time></trkpt><trkpt lat="45.3820533" lon="8.3748595"><ele>134.0</ele><time>2026-04-26T06:48:27.97Z</time></trkpt><trkpt lat="45.3821374" lon="8.3749501"><ele>134.0</ele><time>2026-04-26T06:48:29.973Z</time></trkpt><trkpt lat="45.3822174" lon="8.3750411"><ele>134.0</ele><time>2026-04-26T06:48:31.971Z</time></trkpt><trkpt lat="45.3823026" lon="8.3751303"><ele>134.0</ele><time>2026-04-26T06:48:33.969Z</time></trkpt><trkpt lat="45.3823897" lon="8.3752104"><ele>134.0</ele><time>2026-04-26T06:48:35.965Z</time></trkpt><trkpt lat="45.382472" lon="8.3752873"><ele>134.0</ele><time>2026-04-26T06:48:37.963Z</time></trkpt><trkpt lat="45.3825585" lon="8.3753539"><ele>134.0</ele><time>2026-04-26T06:48:39.972Z</time></trkpt><trkpt lat="45.3826407" lon="8.3754252"><ele>134.0</ele><time>2026-04-26T06:48:41.967Z</time></trkpt><trkpt lat="45.3827283" lon="8.3754843"><ele>134.0</ele><time>2026-04-26T06:48:43.967Z</time></trkpt><trkpt lat="45.3828195" lon="8.3755451"><ele>134.0</ele><time>2026-04-26T06:48:45.967Z</time></trkpt><trkpt lat="45.3829129" lon="8.3756022"><ele>134.0</ele><time>2026-04-26T06:48:47.973Z</time></trkpt><trkpt lat="45.3830068" lon="8.3756597"><ele>134.0</ele><time>2026-04-26T06:48:49.968Z</time></trkpt><trkpt lat="45.3830985" lon="8.3757017"><ele>133.8</ele><time>2026-04-26T06:48:51.969Z</time></trkpt><trkpt lat="45.3831912" lon="8.3757427"><ele>133.60000000000002</ele><time>2026-04-26T06:48:53.969Z</time></trkpt><trkpt lat="45.3832821" lon="8.3757841"><ele>133.4</ele><time>2026-04-26T06:48:55.977Z</time></trkpt><trkpt lat="45.3833724" lon="8.3758215"><ele>133.20000000000002</ele><time>2026-04-26T06:48:57.974Z</time></trkpt><trkpt lat="45.3834617" lon="8.3758454"><ele>133.0</ele><time>2026-04-26T06:48:59.976Z</time></trkpt><trkpt lat="45.3835518" lon="8.3758349"><ele>133.0</ele><time>2026-04-26T06:49:01.974Z</time></trkpt><trkpt lat="45.3836478" lon="8.3758375"><ele>133.0</ele><time>2026-04-26T06:49:03.973Z</time></trkpt><trkpt lat="45.3837484" lon="8.3758524"><ele>133.0</ele><time>2026-04-26T06:49:05.975Z</time></trkpt><trkpt lat="45.3838463" lon="8.3758347"><ele>133.0</ele><time>2026-04-26T06:49:07.973Z</time></trkpt><trkpt lat="45.3839345" lon="8.3758424"><ele>133.0</ele><time>2026-04-26T06:49:09.978Z</time></trkpt><trkpt lat="45.3840201" lon="8.3758525"><ele>133.16666666666669</ele><time>2026-04-26T06:49:11.967Z</time></trkpt><trkpt lat="45.3841114" lon="8.3758481"><ele>133.33333333333334</ele><time>2026-04-26T06:49:13.98Z</time></trkpt><trkpt lat="45.3841888" lon="8.3757794"><ele>133.5</ele><time>2026-04-26T06:49:15.975Z</time></trkpt><trkpt lat="45.3842389" lon="8.3756812"><ele>133.66666666666666</ele><time>2026-04-26T06:49:17.99Z</time></trkpt><trkpt lat="45.3842663" lon="8.3755586"><ele>133.83333333333331</ele><time>2026-04-26T06:49:19.974Z</time></trkpt><trkpt lat="45.3842921" lon="8.3754377"><ele>134.0</ele><time>2026-04-26T06:49:21.974Z</time></trkpt><trkpt lat="45.3843243" lon="8.3753118"><ele>134.0</ele><time>2026-04-26T06:49:23.977Z</time></trkpt><trkpt lat="45.3843445" lon="8.3751791"><ele>134.0</ele><time>2026-04-26T06:49:25.972Z</time></trkpt><trkpt lat="45.3843727" lon="8.3750477"><ele>134.0</ele><time>2026-04-26T06:49:27.974Z</time></trkpt><trkpt lat="45.3844068" lon="8.3749094"><ele>134.0</ele><time>2026-04-26T06:49:29.972Z</time></trkpt><trkpt lat="45.3844442" lon="8.3747639"><ele>134.0</ele><time>2026-04-26T06:49:31.977Z</time></trkpt><trkpt lat="45.3844912" lon="8.3746002"><ele>134.0</ele><time>2026-04-26T06:49:33.971Z</time></trkpt><trkpt lat="45.38452" lon="8.3745142"><ele>134.0</ele><time>2026-04-26T06:49:34.974Z</time></trkpt><trkpt lat="45.3845367" lon="8.3744251"><ele>134.0</ele><time>2026-04-26T06:49:35.977Z</time></trkpt><trkpt lat="45.3845785" lon="8.3742578"><ele>134.0</ele><time>2026-04-26T06:49:37.973Z</time></trkpt><trkpt lat="45.3846006" lon="8.3741737"><ele>134.0</ele><time>2026-04-26T06:49:38.972Z</time></trkpt><trkpt lat="45.3846264" lon="8.3740892"><ele>134.0</ele><time>2026-04-26T06:49:39.974Z</time></trkpt><trkpt lat="45.3846701" lon="8.3739255"><ele>134.33333333333331</ele><time>2026-04-26T06:49:41.977Z</time></trkpt><trkpt lat="45.3846983" lon="8.3738446"><ele>134.66666666666666</ele><time>2026-04-26T06:49:42.973Z</time></trkpt><trkpt lat="45.3847499" lon="8.3736919"><ele>135.0</ele><time>2026-04-26T06:49:44.969Z</time></trkpt><trkpt lat="45.3847788" lon="8.3736106"><ele>135.33333333333334</ele><time>2026-04-26T06:49:45.977Z</time></trkpt><trkpt lat="45.3848028" lon="8.3735234"><ele>135.66666666666669</ele><time>2026-04-26T06:49:46.973Z</time></trkpt><trkpt lat="45.384825" lon="8.3734386"><ele>136.0</ele><time>2026-04-26T06:49:47.974Z</time></trkpt><trkpt lat="45.384877" lon="8.3732828"><ele>136.0</ele><time>2026-04-26T06:49:49.972Z</time></trkpt><trkpt lat="45.3849295" lon="8.3731308"><ele>136.0</ele><time>2026-04-26T06:49:51.978Z</time></trkpt><trkpt lat="45.3849908" lon="8.37298"><ele>136.0</ele><time>2026-04-26T06:49:53.979Z</time></trkpt><trkpt lat="45.3850483" lon="8.3728338"><ele>136.0</ele><time>2026-04-26T06:49:55.969Z</time></trkpt><trkpt lat="45.3851045" lon="8.3726842"><ele>136.0</ele><time>2026-04-26T06:49:57.979Z</time></trkpt><trkpt lat="45.3851589" lon="8.3725408"><ele>136.0</ele><time>2026-04-26T06:49:59.979Z</time></trkpt><trkpt lat="45.3852235" lon="8.3724101"><ele>136.0</ele><time>2026-04-26T06:50:01.969Z</time></trkpt><trkpt lat="45.3852845" lon="8.3722805"><ele>136.0</ele><time>2026-04-26T06:50:03.973Z</time></trkpt><trkpt lat="45.385322" lon="8.3721323"><ele>136.0</ele><time>2026-04-26T06:50:05.978Z</time></trkpt><trkpt lat="45.3853791" lon="8.3720014"><ele>136.0</ele><time>2026-04-26T06:50:07.973Z</time></trkpt><trkpt lat="45.3854313" lon="8.3718655"><ele>136.0</ele><time>2026-04-26T06:50:09.98Z</time></trkpt><trkpt lat="45.3854903" lon="8.371733"><ele>136.0</ele><time>2026-04-26T06:50:11.974Z</time></trkpt><trkpt lat="45.385546" lon="8.3715965"><ele>136.0</ele><time>2026-04-26T06:50:13.969Z</time></trkpt><trkpt lat="45.3856044" lon="8.371468"><ele>136.0</ele><time>2026-04-26T06:50:15.968Z</time></trkpt><trkpt lat="45.3856561" lon="8.3713478"><ele>135.83333333333334</ele><time>2026-04-26T06:50:17.977Z</time></trkpt><trkpt lat="45.3857123" lon="8.3712407"><ele>135.66666666666669</ele><time>2026-04-26T06:50:19.97Z</time></trkpt><trkpt lat="45.3857563" lon="8.3711429"><ele>135.5</ele><time>2026-04-26T06:50:21.972Z</time></trkpt><trkpt lat="45.3857983" lon="8.3710539"><ele>135.33333333333334</ele><time>2026-04-26T06:50:23.978Z</time></trkpt><trkpt lat="45.3858513" lon="8.3709703"><ele>135.16666666666666</ele><time>2026-04-26T06:53:20.966Z</time></trkpt><trkpt lat="45.3859054" lon="8.3709212"><ele>135.0</ele><time>2026-04-26T06:54:00.963Z</time></trkpt><trkpt lat="45.3859336" lon="8.3708327"><ele>135.0</ele><time>2026-04-26T06:54:03.922Z</time></trkpt><trkpt lat="45.3859736" lon="8.370718"><ele>135.0</ele><time>2026-04-26T06:54:06.97Z</time></trkpt><trkpt lat="45.3860073" lon="8.3706207"><ele>135.0</ele><time>2026-04-26T06:54:08.975Z</time></trkpt><trkpt lat="45.386067" lon="8.3705366"><ele>135.0</ele><time>2026-04-26T06:54:10.967Z</time></trkpt><trkpt lat="45.386131" lon="8.3704395"><ele>135.0</ele><time>2026-04-26T06:54:12.966Z</time></trkpt><trkpt lat="45.3861943" lon="8.3703301"><ele>135.0</ele><time>2026-04-26T06:54:14.966Z</time></trkpt><trkpt lat="45.3862641" lon="8.3702151"><ele>135.0</ele><time>2026-04-26T06:54:16.967Z</time></trkpt><trkpt lat="45.3863229" lon="8.370094"><ele>135.0</ele><time>2026-04-26T06:54:18.971Z</time></trkpt><trkpt lat="45.3863839" lon="8.3699771"><ele>135.0</ele><time>2026-04-26T06:54:20.969Z</time></trkpt><trkpt lat="45.386455" lon="8.3698611"><ele>135.0</ele><time>2026-04-26T06:54:22.965Z</time></trkpt><trkpt lat="45.386521" lon="8.3697424"><ele>135.0</ele><time>2026-04-26T06:54:24.967Z</time></trkpt><trkpt lat="45.3865949" lon="8.3696253"><ele>135.6</ele><time>2026-04-26T06:54:26.966Z</time></trkpt><trkpt lat="45.3866668" lon="8.3695117"><ele>136.2</ele><time>2026-04-26T06:54:28.967Z</time></trkpt><trkpt lat="45.3867361" lon="8.3694046"><ele>136.8</ele><time>2026-04-26T06:54:30.97Z</time></trkpt><trkpt lat="45.3868102" lon="8.3692954"><ele>137.4</ele><time>2026-04-26T06:54:32.964Z</time></trkpt><trkpt lat="45.3868845" lon="8.3691806"><ele>138.0</ele><time>2026-04-26T06:54:34.964Z</time></trkpt><trkpt lat="45.3869588" lon="8.3690714"><ele>138.0</ele><time>2026-04-26T06:54:36.963Z</time></trkpt><trkpt lat="45.3870375" lon="8.3689669"><ele>138.0</ele><time>2026-04-26T06:54:38.975Z</time></trkpt><trkpt lat="45.387103" lon="8.3688678"><ele>138.0</ele><time>2026-04-26T06:54:40.968Z</time></trkpt><trkpt lat="45.3871758" lon="8.3687722"><ele>138.0</ele><time>2026-04-26T06:54:42.968Z</time></trkpt><trkpt lat="45.3872464" lon="8.3686624"><ele>138.0</ele><time>2026-04-26T06:54:44.969Z</time></trkpt><trkpt lat="45.3873209" lon="8.3685602"><ele>137.8</ele><time>2026-04-26T06:54:46.978Z</time></trkpt><trkpt lat="45.3873931" lon="8.3684594"><ele>137.60000000000002</ele><time>2026-04-26T06:54:48.968Z</time></trkpt><trkpt lat="45.387467" lon="8.3683648"><ele>137.39999999999998</ele><time>2026-04-26T06:54:50.967Z</time></trkpt><trkpt lat="45.3875453" lon="8.3682709"><ele>137.2</ele><time>2026-04-26T06:54:52.968Z</time></trkpt><trkpt lat="45.3876261" lon="8.3681764"><ele>137.0</ele><time>2026-04-26T06:54:54.976Z</time></trkpt><trkpt lat="45.387703" lon="8.3680898"><ele>137.2</ele><time>2026-04-26T06:54:56.969Z</time></trkpt><trkpt lat="45.387779" lon="8.3679975"><ele>137.39999999999998</ele><time>2026-04-26T06:54:58.966Z</time></trkpt><trkpt lat="45.3878606" lon="8.367913"><ele>137.60000000000002</ele><time>2026-04-26T06:55:00.966Z</time></trkpt><trkpt lat="45.3879437" lon="8.3678214"><ele>137.8</ele><time>2026-04-26T06:55:02.968Z</time></trkpt><trkpt lat="45.3880255" lon="8.3677341"><ele>138.0</ele><time>2026-04-26T06:55:04.977Z</time></trkpt><trkpt lat="45.3881056" lon="8.3676469"><ele>138.0</ele><time>2026-04-26T06:55:06.972Z</time></trkpt><trkpt lat="45.3881778" lon="8.3675535"><ele>138.0</ele><time>2026-04-26T06:55:08.965Z</time></trkpt><trkpt lat="45.3882578" lon="8.3674659"><ele>138.0</ele><time>2026-04-26T06:55:10.97Z</time></trkpt><trkpt lat="45.388345" lon="8.3673797"><ele>138.0</ele><time>2026-04-26T06:55:12.972Z</time></trkpt><trkpt lat="45.3884291" lon="8.3672974"><ele>138.0</ele><time>2026-04-26T06:55:14.969Z</time></trkpt><trkpt lat="45.3885139" lon="8.3672201"><ele>138.0</ele><time>2026-04-26T06:55:16.97Z</time></trkpt><trkpt lat="45.3886058" lon="8.3671496"><ele>138.0</ele><time>2026-04-26T06:55:18.968Z</time></trkpt><trkpt lat="45.3886949" lon="8.3670791"><ele>138.0</ele><time>2026-04-26T06:55:20.967Z</time></trkpt><trkpt lat="45.388784" lon="8.3670183"><ele>138.0</ele><time>2026-04-26T06:55:22.965Z</time></trkpt><trkpt lat="45.3888718" lon="8.3669596"><ele>138.0</ele><time>2026-04-26T06:55:24.971Z</time></trkpt><trkpt lat="45.3889624" lon="8.3669023"><ele>138.0</ele><time>2026-04-26T06:55:26.972Z</time></trkpt><trkpt lat="45.3890525" lon="8.3668507"><ele>138.0</ele><time>2026-04-26T06:55:28.968Z</time></trkpt><trkpt lat="45.389146" lon="8.3667948"><ele>138.0</ele><time>2026-04-26T06:55:30.969Z</time></trkpt><trkpt lat="45.3892407" lon="8.3667453"><ele>138.0</ele><time>2026-04-26T06:55:32.972Z</time></trkpt><trkpt lat="45.3893335" lon="8.3666951"><ele>138.0</ele><time>2026-04-26T06:55:34.963Z</time></trkpt><trkpt lat="45.3894271" lon="8.3666544"><ele>138.0</ele><time>2026-04-26T06:55:36.974Z</time></trkpt><trkpt lat="45.3895278" lon="8.3666162"><ele>138.0</ele><time>2026-04-26T06:55:38.968Z</time></trkpt><trkpt lat="45.3896305" lon="8.3665751"><ele>138.0</ele><time>2026-04-26T06:55:40.967Z</time></trkpt><trkpt lat="45.3897334" lon="8.3665352"><ele>138.0</ele><time>2026-04-26T06:55:42.971Z</time></trkpt><trkpt lat="45.3898411" lon="8.3665074"><ele>138.0</ele><time>2026-04-26T06:55:44.979Z</time></trkpt><trkpt lat="45.3899459" lon="8.3664809"><ele>138.0</ele><time>2026-04-26T06:55:46.967Z</time></trkpt><trkpt lat="45.390049" lon="8.3664567"><ele>138.0</ele><time>2026-04-26T06:55:48.972Z</time></trkpt><trkpt lat="45.3901507" lon="8.3664335"><ele>138.0</ele><time>2026-04-26T06:55:50.977Z</time></trkpt><trkpt lat="45.3902588" lon="8.3664244"><ele>138.0</ele><time>2026-04-26T06:55:52.976Z</time></trkpt><trkpt lat="45.390361" lon="8.3664185"><ele>138.0</ele><time>2026-04-26T06:55:54.975Z</time></trkpt><trkpt lat="45.39046" lon="8.3664141"><ele>137.8</ele><time>2026-04-26T06:55:56.973Z</time></trkpt><trkpt lat="45.3905634" lon="8.3664113"><ele>137.60000000000002</ele><time>2026-04-26T06:55:58.973Z</time></trkpt><trkpt lat="45.3906629" lon="8.3664115"><ele>137.39999999999998</ele><time>2026-04-26T06:56:00.97Z</time></trkpt><trkpt lat="45.3907643" lon="8.3664284"><ele>137.2</ele><time>2026-04-26T06:56:02.978Z</time></trkpt><trkpt lat="45.3908642" lon="8.3664378"><ele>137.0</ele><time>2026-04-26T06:56:04.979Z</time></trkpt><trkpt lat="45.390964" lon="8.3664523"><ele>137.0</ele><time>2026-04-26T06:56:06.969Z</time></trkpt><trkpt lat="45.3910641" lon="8.3664628"><ele>137.0</ele><time>2026-04-26T06:56:08.966Z</time></trkpt><trkpt lat="45.3911626" lon="8.3664833"><ele>137.0</ele><time>2026-04-26T06:56:10.974Z</time></trkpt><trkpt lat="45.3912627" lon="8.3665008"><ele>137.0</ele><time>2026-04-26T06:56:12.965Z</time></trkpt><trkpt lat="45.3913529" lon="8.3665323"><ele>137.0</ele><time>2026-04-26T06:56:14.979Z</time></trkpt><trkpt lat="45.3914542" lon="8.3665639"><ele>137.0</ele><time>2026-04-26T06:56:16.965Z</time></trkpt><trkpt lat="45.3915562" lon="8.3665916"><ele>137.0</ele><time>2026-04-26T06:56:18.975Z</time></trkpt><trkpt lat="45.3916562" lon="8.3666263"><ele>137.0</ele><time>2026-04-26T06:56:20.973Z</time></trkpt><trkpt lat="45.3917549" lon="8.3666655"><ele>137.0</ele><time>2026-04-26T06:56:22.967Z</time></trkpt><trkpt lat="45.3918538" lon="8.3666855"><ele>137.0</ele><time>2026-04-26T06:56:24.969Z</time></trkpt><trkpt lat="45.3919489" lon="8.366719"><ele>137.0</ele><time>2026-04-26T06:56:26.974Z</time></trkpt><trkpt lat="45.3920495" lon="8.3667432"><ele>137.0</ele><time>2026-04-26T06:56:28.977Z</time></trkpt><trkpt lat="45.3921518" lon="8.3667735"><ele>137.0</ele><time>2026-04-26T06:56:30.971Z</time></trkpt><trkpt lat="45.3922472" lon="8.366807"><ele>137.0</ele><time>2026-04-26T06:56:32.969Z</time></trkpt><trkpt lat="45.3923467" lon="8.3668281"><ele>137.0</ele><time>2026-04-26T06:56:34.967Z</time></trkpt><trkpt lat="45.3924486" lon="8.366854"><ele>137.2</ele><time>2026-04-26T06:56:36.976Z</time></trkpt><trkpt lat="45.3925603" lon="8.3668678"><ele>137.39999999999998</ele><time>2026-04-26T06:56:38.978Z</time></trkpt><trkpt lat="45.3926716" lon="8.3668616"><ele>137.60000000000002</ele><time>2026-04-26T06:56:40.977Z</time></trkpt><trkpt lat="45.3927783" lon="8.3668454"><ele>137.8</ele><time>2026-04-26T06:56:42.969Z</time></trkpt><trkpt lat="45.3928863" lon="8.3668372"><ele>138.0</ele><time>2026-04-26T06:56:44.979Z</time></trkpt><trkpt lat="45.3929924" lon="8.36682"><ele>137.8</ele><time>2026-04-26T06:56:46.974Z</time></trkpt><trkpt lat="45.3931004" lon="8.3668061"><ele>137.60000000000002</ele><time>2026-04-26T06:56:48.983Z</time></trkpt><trkpt lat="45.3932078" lon="8.3667773"><ele>137.39999999999998</ele><time>2026-04-26T06:56:50.972Z</time></trkpt><trkpt lat="45.3933152" lon="8.3667427"><ele>137.2</ele><time>2026-04-26T06:56:52.974Z</time></trkpt><trkpt lat="45.3934209" lon="8.3667042"><ele>137.0</ele><time>2026-04-26T06:56:54.978Z</time></trkpt><trkpt lat="45.3935216" lon="8.3666515"><ele>137.0</ele><time>2026-04-26T06:56:56.965Z</time></trkpt><trkpt lat="45.3936199" lon="8.3666076"><ele>137.0</ele><time>2026-04-26T06:56:58.969Z</time></trkpt><trkpt lat="45.3937182" lon="8.3665572"><ele>137.0</ele><time>2026-04-26T06:57:00.973Z</time></trkpt><trkpt lat="45.3938191" lon="8.3665142"><ele>137.0</ele><time>2026-04-26T06:57:02.969Z</time></trkpt><trkpt lat="45.3939137" lon="8.3664614"><ele>137.0</ele><time>2026-04-26T06:57:04.973Z</time></trkpt><trkpt lat="45.3940098" lon="8.3664178"><ele>137.2</ele><time>2026-04-26T06:57:06.97Z</time></trkpt><trkpt lat="45.3941027" lon="8.366386"><ele>137.39999999999998</ele><time>2026-04-26T06:57:08.979Z</time></trkpt><trkpt lat="45.3941903" lon="8.3663636"><ele>137.60000000000002</ele><time>2026-04-26T06:57:10.978Z</time></trkpt><trkpt lat="45.3942817" lon="8.3663531"><ele>137.8</ele><time>2026-04-26T06:57:12.973Z</time></trkpt><trkpt lat="45.3943786" lon="8.3663496"><ele>138.0</ele><time>2026-04-26T06:57:14.972Z</time></trkpt><trkpt lat="45.3944717" lon="8.3663522"><ele>138.0</ele><time>2026-04-26T06:57:16.976Z</time></trkpt><trkpt lat="45.3945627" lon="8.3663625"><ele>138.0</ele><time>2026-04-26T06:57:18.965Z</time></trkpt><trkpt lat="45.3946522" lon="8.3663651"><ele>138.0</ele><time>2026-04-26T06:57:20.968Z</time></trkpt><trkpt lat="45.3947461" lon="8.3663593"><ele>138.0</ele><time>2026-04-26T06:57:22.983Z</time></trkpt><trkpt lat="45.3948387" lon="8.3663501"><ele>138.0</ele><time>2026-04-26T06:57:24.973Z</time></trkpt><trkpt lat="45.3949353" lon="8.3663508"><ele>138.0</ele><time>2026-04-26T06:57:26.977Z</time></trkpt><trkpt lat="45.3950321" lon="8.3663452"><ele>138.0</ele><time>2026-04-26T06:57:28.983Z</time></trkpt><trkpt lat="45.3951295" lon="8.3663262"><ele>138.0</ele><time>2026-04-26T06:57:30.989Z</time></trkpt><trkpt lat="45.3952282" lon="8.3663327"><ele>138.0</ele><time>2026-04-26T06:57:32.973Z</time></trkpt><trkpt lat="45.395333" lon="8.3663376"><ele>138.0</ele><time>2026-04-26T06:57:34.979Z</time></trkpt><trkpt lat="45.3954333" lon="8.3663395"><ele>138.4</ele><time>2026-04-26T06:57:36.973Z</time></trkpt><trkpt lat="45.3955298" lon="8.366333"><ele>138.8</ele><time>2026-04-26T06:57:38.971Z</time></trkpt><trkpt lat="45.3956256" lon="8.366326"><ele>139.2</ele><time>2026-04-26T06:57:40.977Z</time></trkpt><trkpt lat="45.3957199" lon="8.3663275"><ele>139.6</ele><time>2026-04-26T06:57:42.973Z</time></trkpt><trkpt lat="45.3958195" lon="8.36632"><ele>140.0</ele><time>2026-04-26T06:57:44.976Z</time></trkpt><trkpt lat="45.395921" lon="8.3663191"><ele>140.0</ele><time>2026-04-26T06:57:46.969Z</time></trkpt><trkpt lat="45.3960231" lon="8.366317"><ele>140.0</ele><time>2026-04-26T06:57:48.973Z</time></trkpt><trkpt lat="45.3961218" lon="8.366331"><ele>140.0</ele><time>2026-04-26T06:57:50.981Z</time></trkpt><trkpt lat="45.3962302" lon="8.3663452"><ele>140.0</ele><time>2026-04-26T06:57:52.969Z</time></trkpt><trkpt lat="45.3963376" lon="8.3663412"><ele>140.0</ele><time>2026-04-26T06:57:54.972Z</time></trkpt><trkpt lat="45.3964331" lon="8.3663433"><ele>139.8</ele><time>2026-04-26T06:57:56.977Z</time></trkpt><trkpt lat="45.3965288" lon="8.3663317"><ele>139.6</ele><time>2026-04-26T06:57:58.978Z</time></trkpt><trkpt lat="45.396625" lon="8.3663335"><ele>139.4</ele><time>2026-04-26T06:58:00.969Z</time></trkpt><trkpt lat="45.3967228" lon="8.366327"><ele>139.2</ele><time>2026-04-26T06:58:02.978Z</time></trkpt><trkpt lat="45.3968143" lon="8.3663233"><ele>139.0</ele><time>2026-04-26T06:58:04.975Z</time></trkpt><trkpt lat="45.3969044" lon="8.3663135"><ele>139.0</ele><time>2026-04-26T06:58:06.973Z</time></trkpt><trkpt lat="45.3970016" lon="8.3663034"><ele>139.0</ele><time>2026-04-26T06:58:08.991Z</time></trkpt><trkpt lat="45.3971018" lon="8.3662841"><ele>139.0</ele><time>2026-04-26T06:58:10.979Z</time></trkpt><trkpt lat="45.3972023" lon="8.3662642"><ele>139.0</ele><time>2026-04-26T06:58:12.969Z</time></trkpt><trkpt lat="45.3973005" lon="8.3662438"><ele>139.0</ele><time>2026-04-26T06:58:14.972Z</time></trkpt><trkpt lat="45.3973974" lon="8.3662169"><ele>138.6</ele><time>2026-04-26T06:58:16.977Z</time></trkpt><trkpt lat="45.3974962" lon="8.3661921"><ele>138.2</ele><time>2026-04-26T06:58:18.977Z</time></trkpt><trkpt lat="45.3975902" lon="8.3661671"><ele>137.79999999999998</ele><time>2026-04-26T06:58:20.975Z</time></trkpt><trkpt lat="45.3976844" lon="8.3661387"><ele>137.4</ele><time>2026-04-26T06:58:22.974Z</time></trkpt><trkpt lat="45.3977803" lon="8.3661094"><ele>137.0</ele><time>2026-04-26T06:58:24.977Z</time></trkpt><trkpt lat="45.3978744" lon="8.3660763"><ele>137.0</ele><time>2026-04-26T06:58:26.974Z</time></trkpt><trkpt lat="45.3979652" lon="8.3660396"><ele>137.0</ele><time>2026-04-26T06:58:28.976Z</time></trkpt><trkpt lat="45.3980524" lon="8.3659818"><ele>137.0</ele><time>2026-04-26T06:58:30.97Z</time></trkpt><trkpt lat="45.3981429" lon="8.3659333"><ele>137.0</ele><time>2026-04-26T06:58:32.977Z</time></trkpt><trkpt lat="45.3982332" lon="8.3658834"><ele>137.0</ele><time>2026-04-26T06:58:34.973Z</time></trkpt><trkpt lat="45.3983228" lon="8.3658333"><ele>137.2</ele><time>2026-04-26T06:58:36.978Z</time></trkpt><trkpt lat="45.3984104" lon="8.3657769"><ele>137.39999999999998</ele><time>2026-04-26T06:58:38.977Z</time></trkpt><trkpt lat="45.3984972" lon="8.3657237"><ele>137.60000000000002</ele><time>2026-04-26T06:58:40.979Z</time></trkpt><trkpt lat="45.3985896" lon="8.3656687"><ele>137.8</ele><time>2026-04-26T06:58:42.977Z</time></trkpt><trkpt lat="45.3986821" lon="8.365615"><ele>138.0</ele><time>2026-04-26T06:58:44.971Z</time></trkpt><trkpt lat="45.3987734" lon="8.3655582"><ele>138.20000000000002</ele><time>2026-04-26T06:58:46.979Z</time></trkpt><trkpt lat="45.3988603" lon="8.3654976"><ele>138.4</ele><time>2026-04-26T06:58:48.978Z</time></trkpt><trkpt lat="45.3989503" lon="8.3654445"><ele>138.60000000000002</ele><time>2026-04-26T06:58:50.976Z</time></trkpt><trkpt lat="45.3990413" lon="8.3653899"><ele>138.8</ele><time>2026-04-26T06:58:52.976Z</time></trkpt><trkpt lat="45.3991276" lon="8.365338"><ele>139.0</ele><time>2026-04-26T06:58:54.977Z</time></trkpt><trkpt lat="45.3992307" lon="8.365294"><ele>139.0</ele><time>2026-04-26T06:58:56.972Z</time></trkpt><trkpt lat="45.3993295" lon="8.3652548"><ele>139.0</ele><time>2026-04-26T06:58:58.969Z</time></trkpt><trkpt lat="45.3994275" lon="8.3652372"><ele>139.0</ele><time>2026-04-26T06:59:00.974Z</time></trkpt><trkpt lat="45.3995251" lon="8.3652454"><ele>139.0</ele><time>2026-04-26T06:59:02.98Z</time></trkpt><trkpt lat="45.3996193" lon="8.3652755"><ele>139.0</ele><time>2026-04-26T06:59:04.98Z</time></trkpt><trkpt lat="45.3997134" lon="8.365322"><ele>138.8</ele><time>2026-04-26T06:59:06.979Z</time></trkpt><trkpt lat="45.3998108" lon="8.3653614"><ele>138.60000000000002</ele><time>2026-04-26T06:59:08.972Z</time></trkpt><trkpt lat="45.3999072" lon="8.3654274"><ele>138.4</ele><time>2026-04-26T06:59:10.978Z</time></trkpt><trkpt lat="45.3999995" lon="8.3655113"><ele>138.20000000000002</ele><time>2026-04-26T06:59:12.979Z</time></trkpt><trkpt lat="45.4000925" lon="8.3655888"><ele>138.0</ele><time>2026-04-26T06:59:14.97Z</time></trkpt><trkpt lat="45.4001855" lon="8.3656706"><ele>138.0</ele><time>2026-04-26T06:59:16.981Z</time></trkpt><trkpt lat="45.4002744" lon="8.3657557"><ele>138.0</ele><time>2026-04-26T06:59:18.973Z</time></trkpt><trkpt lat="45.4003502" lon="8.3658572"><ele>138.0</ele><time>2026-04-26T06:59:20.971Z</time></trkpt><trkpt lat="45.4004076" lon="8.3659741"><ele>138.0</ele><time>2026-04-26T06:59:22.973Z</time></trkpt><trkpt lat="45.4004564" lon="8.3660997"><ele>138.0</ele><time>2026-04-26T06:59:24.97Z</time></trkpt><trkpt lat="45.4004991" lon="8.3662272"><ele>138.20000000000002</ele><time>2026-04-26T06:59:26.977Z</time></trkpt><trkpt lat="45.4005395" lon="8.3663605"><ele>138.4</ele><time>2026-04-26T06:59:28.968Z</time></trkpt><trkpt lat="45.4005753" lon="8.3664989"><ele>138.60000000000002</ele><time>2026-04-26T06:59:30.982Z</time></trkpt><trkpt lat="45.4006172" lon="8.3666351"><ele>138.8</ele><time>2026-04-26T06:59:32.975Z</time></trkpt><trkpt lat="45.4006544" lon="8.3667677"><ele>139.0</ele><time>2026-04-26T06:59:34.974Z</time></trkpt><trkpt lat="45.4006682" lon="8.3669107"><ele>139.0</ele><time>2026-04-26T06:59:36.975Z</time></trkpt><trkpt lat="45.4006921" lon="8.3670503"><ele>139.0</ele><time>2026-04-26T06:59:38.976Z</time></trkpt><trkpt lat="45.4007162" lon="8.3671896"><ele>139.0</ele><time>2026-04-26T06:59:40.973Z</time></trkpt><trkpt lat="45.4007381" lon="8.3673264"><ele>139.0</ele><time>2026-04-26T06:59:42.974Z</time></trkpt><trkpt lat="45.4007569" lon="8.367471"><ele>139.0</ele><time>2026-04-26T06:59:44.974Z</time></trkpt><trkpt lat="45.4007853" lon="8.367615"><ele>139.0</ele><time>2026-04-26T06:59:46.975Z</time></trkpt><trkpt lat="45.4008136" lon="8.3677584"><ele>139.0</ele><time>2026-04-26T06:59:48.972Z</time></trkpt><trkpt lat="45.4008415" lon="8.3678697"><ele>139.0</ele><time>2026-04-26T06:59:50.973Z</time></trkpt><trkpt lat="45.400856" lon="8.367959"><ele>139.0</ele><time>2026-04-26T07:00:11.972Z</time></trkpt><trkpt lat="45.4008336" lon="8.3680493"><ele>139.0</ele><time>2026-04-26T07:00:15.973Z</time></trkpt><trkpt lat="45.4007596" lon="8.3679984"><ele>139.0</ele><time>2026-04-26T07:00:18.969Z</time></trkpt><trkpt lat="45.4007109" lon="8.3679363"><ele>139.0</ele><time>2026-04-26T07:00:20.915Z</time></trkpt><trkpt lat="45.4006317" lon="8.3680018"><ele>139.0</ele><time>2026-04-26T07:00:22.97Z</time></trkpt><trkpt lat="45.400646" lon="8.3681272"><ele>139.0</ele><time>2026-04-26T07:00:24.978Z</time></trkpt><trkpt lat="45.4007161" lon="8.3682006"><ele>139.0</ele><time>2026-04-26T07:00:26.973Z</time></trkpt><trkpt lat="45.4007695" lon="8.3682834"><ele>139.0</ele><time>2026-04-26T07:00:28.97Z</time></trkpt><trkpt lat="45.4008123" lon="8.368384"><ele>139.0</ele><time>2026-04-26T07:00:30.98Z</time></trkpt><trkpt lat="45.4008381" lon="8.3685032"><ele>139.0</ele><time>2026-04-26T07:00:32.978Z</time></trkpt><trkpt lat="45.400858" lon="8.3686299"><ele>139.0</ele><time>2026-04-26T07:00:34.972Z</time></trkpt><trkpt lat="45.4008868" lon="8.3687558"><ele>139.0</ele><time>2026-04-26T07:00:36.97Z</time></trkpt><trkpt lat="45.4009112" lon="8.368881"><ele>139.0</ele><time>2026-04-26T07:00:38.973Z</time></trkpt><trkpt lat="45.4009397" lon="8.3690089"><ele>139.0</ele><time>2026-04-26T07:00:40.975Z</time></trkpt><trkpt lat="45.4009892" lon="8.3691265"><ele>139.2</ele><time>2026-04-26T07:00:42.969Z</time></trkpt><trkpt lat="45.4010579" lon="8.3692226"><ele>139.4</ele><time>2026-04-26T07:00:44.973Z</time></trkpt><trkpt lat="45.4011454" lon="8.3692911"><ele>139.6</ele><time>2026-04-26T07:00:46.982Z</time></trkpt><trkpt lat="45.4012346" lon="8.369365"><ele>139.8</ele><time>2026-04-26T07:00:48.977Z</time></trkpt><trkpt lat="45.4013208" lon="8.3694343"><ele>140.0</ele><time>2026-04-26T07:00:50.973Z</time></trkpt><trkpt lat="45.4013978" lon="8.3695206"><ele>140.0</ele><time>2026-04-26T07:00:52.972Z</time></trkpt><trkpt lat="45.4014757" lon="8.3696047"><ele>140.0</ele><time>2026-04-26T07:00:54.975Z</time></trkpt><trkpt lat="45.4015551" lon="8.3696976"><ele>140.0</ele><time>2026-04-26T07:00:56.976Z</time></trkpt><trkpt lat="45.4016275" lon="8.3697915"><ele>140.0</ele><time>2026-04-26T07:00:58.974Z</time></trkpt><trkpt lat="45.4016858" lon="8.3698981"><ele>140.0</ele><time>2026-04-26T07:01:00.97Z</time></trkpt><trkpt lat="45.4017446" lon="8.3700083"><ele>140.0</ele><time>2026-04-26T07:01:02.972Z</time></trkpt><trkpt lat="45.4018017" lon="8.370131"><ele>140.0</ele><time>2026-04-26T07:01:04.975Z</time></trkpt><trkpt lat="45.4018689" lon="8.3702403"><ele>140.0</ele><time>2026-04-26T07:01:06.971Z</time></trkpt><trkpt lat="45.4019352" lon="8.3703457"><ele>140.0</ele><time>2026-04-26T07:01:08.979Z</time></trkpt><trkpt lat="45.4020067" lon="8.3704426"><ele>140.0</ele><time>2026-04-26T07:01:10.974Z</time></trkpt><trkpt lat="45.40208" lon="8.3705484"><ele>140.0</ele><time>2026-04-26T07:01:12.969Z</time></trkpt><trkpt lat="45.4021509" lon="8.3706412"><ele>140.0</ele><time>2026-04-26T07:01:14.974Z</time></trkpt><trkpt lat="45.4022193" lon="8.3707326"><ele>140.0</ele><time>2026-04-26T07:01:16.982Z</time></trkpt><trkpt lat="45.4022895" lon="8.3708388"><ele>140.0</ele><time>2026-04-26T07:01:18.976Z</time></trkpt><trkpt lat="45.4023587" lon="8.3709465"><ele>140.0</ele><time>2026-04-26T07:01:20.969Z</time></trkpt><trkpt lat="45.4024295" lon="8.3710545"><ele>140.0</ele><time>2026-04-26T07:01:22.97Z</time></trkpt><trkpt lat="45.4024998" lon="8.371164"><ele>140.0</ele><time>2026-04-26T07:01:24.964Z</time></trkpt><trkpt lat="45.4025723" lon="8.371284"><ele>140.0</ele><time>2026-04-26T07:01:26.97Z</time></trkpt><trkpt lat="45.4026475" lon="8.3713905"><ele>140.0</ele><time>2026-04-26T07:01:28.971Z</time></trkpt><trkpt lat="45.4027184" lon="8.3715087"><ele>140.0</ele><time>2026-04-26T07:01:30.97Z</time></trkpt><trkpt lat="45.402788" lon="8.3716319"><ele>140.0</ele><time>2026-04-26T07:01:32.97Z</time></trkpt><trkpt lat="45.4028602" lon="8.3717448"><ele>140.0</ele><time>2026-04-26T07:01:34.971Z</time></trkpt><trkpt lat="45.4029389" lon="8.3718479"><ele>140.0</ele><time>2026-04-26T07:01:36.972Z</time></trkpt><trkpt lat="45.403025" lon="8.3719475"><ele>140.0</ele><time>2026-04-26T07:01:38.972Z</time></trkpt><trkpt lat="45.4031209" lon="8.372035"><ele>140.0</ele><time>2026-04-26T07:01:40.967Z</time></trkpt><trkpt lat="45.4032239" lon="8.3720975"><ele>140.0</ele><time>2026-04-26T07:01:42.976Z</time></trkpt><trkpt lat="45.4033226" lon="8.3721575"><ele>140.0</ele><time>2026-04-26T07:01:44.978Z</time></trkpt><trkpt lat="45.4034125" lon="8.3722316"><ele>140.0</ele><time>2026-04-26T07:01:46.976Z</time></trkpt><trkpt lat="45.40351" lon="8.3722949"><ele>140.0</ele><time>2026-04-26T07:01:48.98Z</time></trkpt><trkpt lat="45.4035932" lon="8.3723468"><ele>140.0</ele><time>2026-04-26T07:01:50.965Z</time></trkpt><trkpt lat="45.4036789" lon="8.3723903"><ele>140.0</ele><time>2026-04-26T07:01:52.977Z</time></trkpt><trkpt lat="45.4037722" lon="8.3724295"><ele>140.0</ele><time>2026-04-26T07:01:54.986Z</time></trkpt><trkpt lat="45.4038567" lon="8.3725124"><ele>140.0</ele><time>2026-04-26T07:01:56.971Z</time></trkpt><trkpt lat="45.4039217" lon="8.3726265"><ele>140.0</ele><time>2026-04-26T07:01:58.974Z</time></trkpt><trkpt lat="45.4039748" lon="8.372759"><ele>140.0</ele><time>2026-04-26T07:02:00.977Z</time></trkpt><trkpt lat="45.4040327" lon="8.3728913"><ele>140.0</ele><time>2026-04-26T07:02:02.973Z</time></trkpt><trkpt lat="45.4040992" lon="8.3730111"><ele>140.0</ele><time>2026-04-26T07:02:04.972Z</time></trkpt><trkpt lat="45.4041846" lon="8.3731137"><ele>140.0</ele><time>2026-04-26T07:02:06.98Z</time></trkpt><trkpt lat="45.404271" lon="8.3732161"><ele>140.0</ele><time>2026-04-26T07:02:08.98Z</time></trkpt><trkpt lat="45.4043599" lon="8.3733244"><ele>140.0</ele><time>2026-04-26T07:02:10.976Z</time></trkpt><trkpt lat="45.4044452" lon="8.3734236"><ele>139.8</ele><time>2026-04-26T07:02:12.972Z</time></trkpt><trkpt lat="45.4045292" lon="8.3735232"><ele>139.6</ele><time>2026-04-26T07:02:14.971Z</time></trkpt><trkpt lat="45.4046134" lon="8.373627"><ele>139.4</ele><time>2026-04-26T07:02:16.979Z</time></trkpt><trkpt lat="45.4046808" lon="8.3737405"><ele>139.2</ele><time>2026-04-26T07:02:18.977Z</time></trkpt><trkpt lat="45.4047469" lon="8.3738517"><ele>139.0</ele><time>2026-04-26T07:02:20.979Z</time></trkpt><trkpt lat="45.4048363" lon="8.3739175"><ele>139.4</ele><time>2026-04-26T07:02:22.976Z</time></trkpt><trkpt lat="45.4049356" lon="8.3739496"><ele>139.8</ele><time>2026-04-26T07:02:24.975Z</time></trkpt><trkpt lat="45.4050347" lon="8.3739733"><ele>140.2</ele><time>2026-04-26T07:02:26.975Z</time></trkpt><trkpt lat="45.4051372" lon="8.3739831"><ele>140.6</ele><time>2026-04-26T07:02:28.979Z</time></trkpt><trkpt lat="45.405238" lon="8.3740064"><ele>141.0</ele><time>2026-04-26T07:02:30.976Z</time></trkpt><trkpt lat="45.4053432" lon="8.374027"><ele>141.0</ele><time>2026-04-26T07:02:32.975Z</time></trkpt><trkpt lat="45.405448" lon="8.3740482"><ele>141.0</ele><time>2026-04-26T07:02:34.979Z</time></trkpt><trkpt lat="45.4055554" lon="8.3740715"><ele>141.0</ele><time>2026-04-26T07:02:36.97Z</time></trkpt><trkpt lat="45.40566" lon="8.3741024"><ele>141.0</ele><time>2026-04-26T07:02:38.977Z</time></trkpt><trkpt lat="45.4057643" lon="8.3741279"><ele>141.0</ele><time>2026-04-26T07:02:40.981Z</time></trkpt><trkpt lat="45.4058625" lon="8.3741546"><ele>141.0</ele><time>2026-04-26T07:02:42.981Z</time></trkpt><trkpt lat="45.4059639" lon="8.3741716"><ele>141.0</ele><time>2026-04-26T07:02:44.979Z</time></trkpt><trkpt lat="45.4060619" lon="8.3741971"><ele>141.0</ele><time>2026-04-26T07:02:46.979Z</time></trkpt><trkpt lat="45.406163" lon="8.3742119"><ele>141.0</ele><time>2026-04-26T07:02:48.977Z</time></trkpt><trkpt lat="45.4062621" lon="8.3742322"><ele>141.0</ele><time>2026-04-26T07:02:50.972Z</time></trkpt><trkpt lat="45.4063585" lon="8.3742571"><ele>141.0</ele><time>2026-04-26T07:02:52.976Z</time></trkpt><trkpt lat="45.4064566" lon="8.3742744"><ele>141.0</ele><time>2026-04-26T07:02:54.976Z</time></trkpt><trkpt lat="45.4065556" lon="8.374295"><ele>141.0</ele><time>2026-04-26T07:02:56.977Z</time></trkpt><trkpt lat="45.4066575" lon="8.3743127"><ele>141.0</ele><time>2026-04-26T07:02:58.975Z</time></trkpt><trkpt lat="45.4067607" lon="8.3743399"><ele>141.0</ele><time>2026-04-26T07:03:00.966Z</time></trkpt><trkpt lat="45.4068611" lon="8.3743723"><ele>141.0</ele><time>2026-04-26T07:03:02.97Z</time></trkpt><trkpt lat="45.4069609" lon="8.374401"><ele>141.0</ele><time>2026-04-26T07:03:04.974Z</time></trkpt><trkpt lat="45.4070586" lon="8.374438"><ele>141.0</ele><time>2026-04-26T07:03:06.971Z</time></trkpt><trkpt lat="45.4071564" lon="8.3744735"><ele>141.0</ele><time>2026-04-26T07:03:08.976Z</time></trkpt><trkpt lat="45.4072526" lon="8.3745073"><ele>141.0</ele><time>2026-04-26T07:03:10.97Z</time></trkpt><trkpt lat="45.4073467" lon="8.3745343"><ele>141.0</ele><time>2026-04-26T07:03:12.97Z</time></trkpt><trkpt lat="45.4074433" lon="8.3745647"><ele>141.0</ele><time>2026-04-26T07:03:14.972Z</time></trkpt><trkpt lat="45.4075367" lon="8.3745983"><ele>141.0</ele><time>2026-04-26T07:03:16.98Z</time></trkpt><trkpt lat="45.4076325" lon="8.3746284"><ele>141.0</ele><time>2026-04-26T07:03:18.97Z</time></trkpt><trkpt lat="45.4077252" lon="8.3746675"><ele>141.0</ele><time>2026-04-26T07:03:20.972Z</time></trkpt><trkpt lat="45.4078184" lon="8.3746983"><ele>141.0</ele><time>2026-04-26T07:03:22.971Z</time></trkpt><trkpt lat="45.4079076" lon="8.3747409"><ele>141.0</ele><time>2026-04-26T07:03:24.971Z</time></trkpt><trkpt lat="45.4079972" lon="8.3747695"><ele>141.0</ele><time>2026-04-26T07:03:26.975Z</time></trkpt><trkpt lat="45.4080926" lon="8.3748"><ele>141.0</ele><time>2026-04-26T07:03:28.98Z</time></trkpt><trkpt lat="45.4081845" lon="8.3748361"><ele>141.0</ele><time>2026-04-26T07:03:30.976Z</time></trkpt><trkpt lat="45.4082741" lon="8.3748758"><ele>141.0</ele><time>2026-04-26T07:03:32.977Z</time></trkpt><trkpt lat="45.4083628" lon="8.3749135"><ele>141.0</ele><time>2026-04-26T07:03:34.975Z</time></trkpt><trkpt lat="45.4084452" lon="8.3749048"><ele>141.0</ele><time>2026-04-26T07:03:36.971Z</time></trkpt><trkpt lat="45.4085125" lon="8.3748367"><ele>141.0</ele><time>2026-04-26T07:03:38.974Z</time></trkpt><trkpt lat="45.4085416" lon="8.3747324"><ele>141.0</ele><time>2026-04-26T07:03:40.978Z</time></trkpt><trkpt lat="45.4085855" lon="8.374663"><ele>141.0</ele><time>2026-04-26T07:03:42.975Z</time></trkpt><trkpt lat="45.408653" lon="8.3745841"><ele>141.0</ele><time>2026-04-26T07:03:44.973Z</time></trkpt><trkpt lat="45.4087009" lon="8.3744624"><ele>141.0</ele><time>2026-04-26T07:03:46.974Z</time></trkpt><trkpt lat="45.4087382" lon="8.3743332"><ele>141.0</ele><time>2026-04-26T07:03:48.965Z</time></trkpt><trkpt lat="45.4087555" lon="8.3741997"><ele>141.0</ele><time>2026-04-26T07:03:50.977Z</time></trkpt><trkpt lat="45.4088164" lon="8.3740932"><ele>141.0</ele><time>2026-04-26T07:03:52.979Z</time></trkpt><trkpt lat="45.4088768" lon="8.3740015"><ele>141.0</ele><time>2026-04-26T07:03:54.973Z</time></trkpt><trkpt lat="45.4089396" lon="8.3739128"><ele>141.0</ele><time>2026-04-26T07:03:56.982Z</time></trkpt><trkpt lat="45.4090074" lon="8.3738199"><ele>141.0</ele><time>2026-04-26T07:03:58.967Z</time></trkpt><trkpt lat="45.4090707" lon="8.373746"><ele>141.0</ele><time>2026-04-26T07:04:00.974Z</time></trkpt><trkpt lat="45.4091431" lon="8.3736806"><ele>141.0</ele><time>2026-04-26T07:04:02.973Z</time></trkpt><trkpt lat="45.4092254" lon="8.3735747"><ele>141.2</ele><time>2026-04-26T07:04:04.976Z</time></trkpt><trkpt lat="45.4093003" lon="8.3734927"><ele>141.39999999999998</ele><time>2026-04-26T07:04:06.975Z</time></trkpt><trkpt lat="45.4093834" lon="8.3734248"><ele>141.6</ele><time>2026-04-26T07:04:08.972Z</time></trkpt><trkpt lat="45.4094604" lon="8.3733541"><ele>141.79999999999998</ele><time>2026-04-26T07:04:10.979Z</time></trkpt><trkpt lat="45.4095342" lon="8.3732847"><ele>142.0</ele><time>2026-04-26T07:04:12.977Z</time></trkpt><trkpt lat="45.4096022" lon="8.3732126"><ele>142.0</ele><time>2026-04-26T07:04:14.974Z</time></trkpt><trkpt lat="45.409672" lon="8.373126"><ele>142.0</ele><time>2026-04-26T07:04:16.979Z</time></trkpt><trkpt lat="45.4097404" lon="8.3730349"><ele>142.0</ele><time>2026-04-26T07:04:18.985Z</time></trkpt><trkpt lat="45.4098048" lon="8.3729349"><ele>142.0</ele><time>2026-04-26T07:04:20.981Z</time></trkpt><trkpt lat="45.4098683" lon="8.3728335"><ele>142.0</ele><time>2026-04-26T07:04:22.986Z</time></trkpt><trkpt lat="45.4099298" lon="8.3727239"><ele>142.0</ele><time>2026-04-26T07:04:24.979Z</time></trkpt><trkpt lat="45.4099784" lon="8.3726064"><ele>142.0</ele><time>2026-04-26T07:04:26.975Z</time></trkpt><trkpt lat="45.4100337" lon="8.3724991"><ele>142.0</ele><time>2026-04-26T07:04:28.977Z</time></trkpt><trkpt lat="45.4100932" lon="8.3723856"><ele>142.0</ele><time>2026-04-26T07:04:30.979Z</time></trkpt><trkpt lat="45.4101553" lon="8.3722782"><ele>142.0</ele><time>2026-04-26T07:04:32.976Z</time></trkpt><trkpt lat="45.4102203" lon="8.3721812"><ele>142.0</ele><time>2026-04-26T07:04:34.978Z</time></trkpt><trkpt lat="45.4102861" lon="8.3720962"><ele>142.0</ele><time>2026-04-26T07:04:36.978Z</time></trkpt><trkpt lat="45.4103538" lon="8.3720109"><ele>142.0</ele><time>2026-04-26T07:04:38.969Z</time></trkpt><trkpt lat="45.4104221" lon="8.371922"><ele>142.0</ele><time>2026-04-26T07:04:40.974Z</time></trkpt><trkpt lat="45.4104928" lon="8.3718362"><ele>142.0</ele><time>2026-04-26T07:04:42.976Z</time></trkpt><trkpt lat="45.4105597" lon="8.3717431"><ele>142.0</ele><time>2026-04-26T07:04:44.969Z</time></trkpt><trkpt lat="45.4106308" lon="8.3716507"><ele>142.0</ele><time>2026-04-26T07:04:46.967Z</time></trkpt><trkpt lat="45.410694" lon="8.3715535"><ele>142.0</ele><time>2026-04-26T07:04:48.971Z</time></trkpt><trkpt lat="45.4107549" lon="8.3714524"><ele>142.0</ele><time>2026-04-26T07:04:50.971Z</time></trkpt><trkpt lat="45.410807" lon="8.3713441"><ele>142.0</ele><time>2026-04-26T07:04:52.971Z</time></trkpt><trkpt lat="45.4108577" lon="8.3712386"><ele>142.16666666666669</ele><time>2026-04-26T07:04:54.966Z</time></trkpt><trkpt lat="45.4108997" lon="8.3711285"><ele>142.33333333333334</ele><time>2026-04-26T07:04:56.967Z</time></trkpt><trkpt lat="45.4109352" lon="8.3710124"><ele>142.5</ele><time>2026-04-26T07:04:58.969Z</time></trkpt><trkpt lat="45.410966" lon="8.3708885"><ele>142.66666666666666</ele><time>2026-04-26T07:05:00.975Z</time></trkpt><trkpt lat="45.4109903" lon="8.3707691"><ele>142.83333333333331</ele><time>2026-04-26T07:05:02.969Z</time></trkpt><trkpt lat="45.4110153" lon="8.3706505"><ele>143.0</ele><time>2026-04-26T07:05:04.973Z</time></trkpt><trkpt lat="45.4110458" lon="8.3705249"><ele>143.20000000000002</ele><time>2026-04-26T07:05:06.972Z</time></trkpt><trkpt lat="45.4110685" lon="8.3704028"><ele>143.4</ele><time>2026-04-26T07:05:08.976Z</time></trkpt><trkpt lat="45.4110906" lon="8.3703025"><ele>143.60000000000002</ele><time>2026-04-26T07:05:10.97Z</time></trkpt><trkpt lat="45.411126" lon="8.3701745"><ele>143.8</ele><time>2026-04-26T07:05:12.971Z</time></trkpt><trkpt lat="45.4111586" lon="8.3700362"><ele>144.0</ele><time>2026-04-26T07:05:14.965Z</time></trkpt><trkpt lat="45.4111893" lon="8.369914"><ele>144.0</ele><time>2026-04-26T07:05:16.968Z</time></trkpt><trkpt lat="45.4112202" lon="8.3698004"><ele>144.0</ele><time>2026-04-26T07:05:18.979Z</time></trkpt><trkpt lat="45.4112536" lon="8.3696813"><ele>144.0</ele><time>2026-04-26T07:05:20.973Z</time></trkpt><trkpt lat="45.4112803" lon="8.3695848"><ele>144.0</ele><time>2026-04-26T07:05:22.979Z</time></trkpt><trkpt lat="45.4113172" lon="8.3695119"><ele>144.0</ele><time>2026-04-26T07:05:24.969Z</time></trkpt><trkpt lat="45.4113775" lon="8.3694354"><ele>144.0</ele><time>2026-04-26T07:05:26.974Z</time></trkpt><trkpt lat="45.4114612" lon="8.3694482"><ele>143.83333333333334</ele><time>2026-04-26T07:05:28.89Z</time></trkpt><trkpt lat="45.4115533" lon="8.3694757"><ele>143.66666666666666</ele><time>2026-04-26T07:05:30.996Z</time></trkpt><trkpt lat="45.41164" lon="8.3694437"><ele>143.5</ele><time>2026-04-26T07:05:32.98Z</time></trkpt><trkpt lat="45.4116971" lon="8.3693765"><ele>143.33333333333331</ele><time>2026-04-26T07:05:34.975Z</time></trkpt><trkpt lat="45.4117304" lon="8.3692458"><ele>143.16666666666666</ele><time>2026-04-26T07:05:36.978Z</time></trkpt><trkpt lat="45.4117544" lon="8.3691326"><ele>143.0</ele><time>2026-04-26T07:05:38.975Z</time></trkpt><trkpt lat="45.4117732" lon="8.3690126"><ele>143.0</ele><time>2026-04-26T07:05:40.979Z</time></trkpt><trkpt lat="45.4117994" lon="8.368893"><ele>143.0</ele><time>2026-04-26T07:05:42.974Z</time></trkpt><trkpt lat="45.4118316" lon="8.3687692"><ele>143.0</ele><time>2026-04-26T07:05:44.984Z</time></trkpt><trkpt lat="45.411862" lon="8.3686524"><ele>143.0</ele><time>2026-04-26T07:05:46.974Z</time></trkpt><trkpt lat="45.4118837" lon="8.3685259"><ele>143.0</ele><time>2026-04-26T07:05:48.982Z</time></trkpt><trkpt lat="45.4119132" lon="8.3684092"><ele>143.0</ele><time>2026-04-26T07:05:50.972Z</time></trkpt><trkpt lat="45.4119407" lon="8.368287"><ele>143.0</ele><time>2026-04-26T07:05:52.968Z</time></trkpt><trkpt lat="45.4119692" lon="8.3681799"><ele>143.0</ele><time>2026-04-26T07:05:54.968Z</time></trkpt><trkpt lat="45.412002" lon="8.3680422"><ele>143.0</ele><time>2026-04-26T07:05:56.973Z</time></trkpt><trkpt lat="45.4120353" lon="8.3679184"><ele>143.0</ele><time>2026-04-26T07:05:58.978Z</time></trkpt><trkpt lat="45.4120663" lon="8.3677943"><ele>143.0</ele><time>2026-04-26T07:06:00.982Z</time></trkpt><trkpt lat="45.4120954" lon="8.3676696"><ele>143.0</ele><time>2026-04-26T07:06:02.973Z</time></trkpt><trkpt lat="45.4121271" lon="8.3675423"><ele>143.0</ele><time>2026-04-26T07:06:04.981Z</time></trkpt><trkpt lat="45.412156" lon="8.3674119"><ele>143.0</ele><time>2026-04-26T07:06:06.973Z</time></trkpt><trkpt lat="45.4121877" lon="8.3672847"><ele>143.0</ele><time>2026-04-26T07:06:08.97Z</time></trkpt><trkpt lat="45.4122152" lon="8.3671541"><ele>143.0</ele><time>2026-04-26T07:06:10.97Z</time></trkpt><trkpt lat="45.4122408" lon="8.3670312"><ele>143.0</ele><time>2026-04-26T07:06:12.972Z</time></trkpt><trkpt lat="45.4122606" lon="8.3668948"><ele>143.0</ele><time>2026-04-26T07:06:14.968Z</time></trkpt><trkpt lat="45.4122775" lon="8.3667824"><ele>143.0</ele><time>2026-04-26T07:06:16.969Z</time></trkpt><trkpt lat="45.4122929" lon="8.3666694"><ele>143.0</ele><time>2026-04-26T07:06:18.972Z</time></trkpt><trkpt lat="45.412333" lon="8.3664961"><ele>143.0</ele><time>2026-04-26T07:06:21.971Z</time></trkpt><trkpt lat="45.4123742" lon="8.366355"><ele>143.20000000000002</ele><time>2026-04-26T07:06:23.978Z</time></trkpt><trkpt lat="45.4124181" lon="8.3662341"><ele>143.4</ele><time>2026-04-26T07:06:25.97Z</time></trkpt><trkpt lat="45.4124672" lon="8.3661211"><ele>143.60000000000002</ele><time>2026-04-26T07:06:27.972Z</time></trkpt><trkpt lat="45.4125155" lon="8.3660033"><ele>143.8</ele><time>2026-04-26T07:06:29.973Z</time></trkpt><trkpt lat="45.412563" lon="8.365884"><ele>144.0</ele><time>2026-04-26T07:06:31.98Z</time></trkpt><trkpt lat="45.4126174" lon="8.3657693"><ele>144.0</ele><time>2026-04-26T07:06:33.974Z</time></trkpt><trkpt lat="45.4126707" lon="8.3656506"><ele>144.0</ele><time>2026-04-26T07:06:35.974Z</time></trkpt><trkpt lat="45.4127245" lon="8.3655361"><ele>144.0</ele><time>2026-04-26T07:06:37.978Z</time></trkpt><trkpt lat="45.412773" lon="8.3654226"><ele>144.0</ele><time>2026-04-26T07:06:39.972Z</time></trkpt><trkpt lat="45.4128169" lon="8.3653065"><ele>144.0</ele><time>2026-04-26T07:06:41.979Z</time></trkpt><trkpt lat="45.4128639" lon="8.365184"><ele>144.0</ele><time>2026-04-26T07:06:43.965Z</time></trkpt><trkpt lat="45.4129035" lon="8.3650678"><ele>144.0</ele><time>2026-04-26T07:06:45.973Z</time></trkpt><trkpt lat="45.4129416" lon="8.3649484"><ele>144.0</ele><time>2026-04-26T07:06:47.978Z</time></trkpt><trkpt lat="45.4129868" lon="8.3648325"><ele>144.0</ele><time>2026-04-26T07:06:49.973Z</time></trkpt><trkpt lat="45.4130266" lon="8.3647177"><ele>144.0</ele><time>2026-04-26T07:06:51.969Z</time></trkpt><trkpt lat="45.4130661" lon="8.3646002"><ele>144.0</ele><time>2026-04-26T07:06:53.98Z</time></trkpt><trkpt lat="45.4131064" lon="8.3644839"><ele>144.0</ele><time>2026-04-26T07:06:55.976Z</time></trkpt><trkpt lat="45.4131454" lon="8.3643654"><ele>144.0</ele><time>2026-04-26T07:06:57.977Z</time></trkpt><trkpt lat="45.413187" lon="8.3642486"><ele>144.0</ele><time>2026-04-26T07:06:59.977Z</time></trkpt><trkpt lat="45.4132249" lon="8.3641357"><ele>144.0</ele><time>2026-04-26T07:07:01.984Z</time></trkpt><trkpt lat="45.4132542" lon="8.3640144"><ele>144.0</ele><time>2026-04-26T07:07:03.971Z</time></trkpt><trkpt lat="45.4132861" lon="8.3638967"><ele>144.0</ele><time>2026-04-26T07:07:05.979Z</time></trkpt><trkpt lat="45.4133269" lon="8.3637812"><ele>144.0</ele><time>2026-04-26T07:07:07.973Z</time></trkpt><trkpt lat="45.4133667" lon="8.3636619"><ele>144.0</ele><time>2026-04-26T07:07:09.973Z</time></trkpt><trkpt lat="45.413409" lon="8.3635428"><ele>144.0</ele><time>2026-04-26T07:07:11.968Z</time></trkpt><trkpt lat="45.4134491" lon="8.3634241"><ele>143.8</ele><time>2026-04-26T07:07:13.964Z</time></trkpt><trkpt lat="45.4134896" lon="8.3633043"><ele>143.60000000000002</ele><time>2026-04-26T07:07:15.973Z</time></trkpt><trkpt lat="45.4135294" lon="8.3631809"><ele>143.4</ele><time>2026-04-26T07:07:17.967Z</time></trkpt><trkpt lat="45.4135691" lon="8.3630582"><ele>143.20000000000002</ele><time>2026-04-26T07:07:19.971Z</time></trkpt><trkpt lat="45.4136078" lon="8.362937"><ele>143.0</ele><time>2026-04-26T07:07:21.973Z</time></trkpt><trkpt lat="45.4136448" lon="8.362813"><ele>143.0</ele><time>2026-04-26T07:07:23.97Z</time></trkpt><trkpt lat="45.4136813" lon="8.3626915"><ele>143.0</ele><time>2026-04-26T07:07:25.975Z</time></trkpt><trkpt lat="45.4137203" lon="8.3625655"><ele>143.0</ele><time>2026-04-26T07:07:27.979Z</time></trkpt><trkpt lat="45.4137609" lon="8.3624408"><ele>143.0</ele><time>2026-04-26T07:07:29.969Z</time></trkpt><trkpt lat="45.4138048" lon="8.3623199"><ele>143.0</ele><time>2026-04-26T07:07:31.972Z</time></trkpt><trkpt lat="45.4138495" lon="8.3622007"><ele>143.0</ele><time>2026-04-26T07:07:33.979Z</time></trkpt><trkpt lat="45.4138937" lon="8.3620802"><ele>143.0</ele><time>2026-04-26T07:07:35.979Z</time></trkpt><trkpt lat="45.4139452" lon="8.3619584"><ele>143.0</ele><time>2026-04-26T07:07:37.982Z</time></trkpt><trkpt lat="45.4139903" lon="8.3618442"><ele>143.0</ele><time>2026-04-26T07:07:39.978Z</time></trkpt><trkpt lat="45.4140343" lon="8.3617284"><ele>143.0</ele><time>2026-04-26T07:07:41.978Z</time></trkpt><trkpt lat="45.4140768" lon="8.3616087"><ele>143.0</ele><time>2026-04-26T07:07:43.979Z</time></trkpt><trkpt lat="45.4141134" lon="8.3614933"><ele>143.0</ele><time>2026-04-26T07:07:45.978Z</time></trkpt><trkpt lat="45.4141463" lon="8.3613823"><ele>143.0</ele><time>2026-04-26T07:07:47.967Z</time></trkpt><trkpt lat="45.4141723" lon="8.3612711"><ele>143.0</ele><time>2026-04-26T07:07:49.974Z</time></trkpt><trkpt lat="45.414196" lon="8.3611605"><ele>143.0</ele><time>2026-04-26T07:07:51.971Z</time></trkpt><trkpt lat="45.4142216" lon="8.3610401"><ele>143.0</ele><time>2026-04-26T07:07:53.966Z</time></trkpt><trkpt lat="45.4142444" lon="8.3609083"><ele>143.0</ele><time>2026-04-26T07:07:55.978Z</time></trkpt><trkpt lat="45.4142665" lon="8.3607787"><ele>143.0</ele><time>2026-04-26T07:07:57.982Z</time></trkpt><trkpt lat="45.4143016" lon="8.3606573"><ele>143.0</ele><time>2026-04-26T07:07:59.966Z</time></trkpt><trkpt lat="45.4143458" lon="8.3605311"><ele>143.0</ele><time>2026-04-26T07:08:01.97Z</time></trkpt><trkpt lat="45.4143951" lon="8.3604018"><ele>143.0</ele><time>2026-04-26T07:08:03.974Z</time></trkpt><trkpt lat="45.4144433" lon="8.3602679"><ele>143.0</ele><time>2026-04-26T07:08:05.974Z</time></trkpt><trkpt lat="45.414498" lon="8.3601324"><ele>143.0</ele><time>2026-04-26T07:08:07.974Z</time></trkpt><trkpt lat="45.4145468" lon="8.3599988"><ele>143.0</ele><time>2026-04-26T07:08:09.972Z</time></trkpt><trkpt lat="45.4145956" lon="8.3598676"><ele>143.0</ele><time>2026-04-26T07:08:11.976Z</time></trkpt><trkpt lat="45.4146412" lon="8.3597399"><ele>143.0</ele><time>2026-04-26T07:08:13.974Z</time></trkpt><trkpt lat="45.4146864" lon="8.3596086"><ele>143.20000000000002</ele><time>2026-04-26T07:08:15.977Z</time></trkpt><trkpt lat="45.4147329" lon="8.3594713"><ele>143.4</ele><time>2026-04-26T07:08:17.976Z</time></trkpt><trkpt lat="45.4147795" lon="8.3593327"><ele>143.60000000000002</ele><time>2026-04-26T07:08:19.97Z</time></trkpt><trkpt lat="45.4148289" lon="8.3591924"><ele>143.8</ele><time>2026-04-26T07:08:21.976Z</time></trkpt><trkpt lat="45.4148752" lon="8.3590521"><ele>144.0</ele><time>2026-04-26T07:08:23.978Z</time></trkpt><trkpt lat="45.4149182" lon="8.3589158"><ele>143.8</ele><time>2026-04-26T07:08:25.981Z</time></trkpt><trkpt lat="45.4149585" lon="8.3587921"><ele>143.60000000000002</ele><time>2026-04-26T07:08:27.977Z</time></trkpt><trkpt lat="45.4150016" lon="8.3586642"><ele>143.4</ele><time>2026-04-26T07:08:29.98Z</time></trkpt><trkpt lat="45.4150383" lon="8.3585374"><ele>143.20000000000002</ele><time>2026-04-26T07:08:31.978Z</time></trkpt><trkpt lat="45.4150797" lon="8.3584067"><ele>143.0</ele><time>2026-04-26T07:08:33.975Z</time></trkpt><trkpt lat="45.4151199" lon="8.3582796"><ele>143.0</ele><time>2026-04-26T07:08:35.978Z</time></trkpt><trkpt lat="45.4151641" lon="8.3581674"><ele>143.0</ele><time>2026-04-26T07:08:37.975Z</time></trkpt><trkpt lat="45.4152514" lon="8.3581289"><ele>143.0</ele><time>2026-04-26T07:08:39.978Z</time></trkpt><trkpt lat="45.4153457" lon="8.3581638"><ele>143.0</ele><time>2026-04-26T07:08:41.973Z</time></trkpt><trkpt lat="45.4154485" lon="8.3582299"><ele>143.0</ele><time>2026-04-26T07:08:43.979Z</time></trkpt><trkpt lat="45.415555" lon="8.3582882"><ele>143.20000000000002</ele><time>2026-04-26T07:08:45.975Z</time></trkpt><trkpt lat="45.4156501" lon="8.3583467"><ele>143.4</ele><time>2026-04-26T07:08:47.972Z</time></trkpt><trkpt lat="45.4157382" lon="8.3584041"><ele>143.60000000000002</ele><time>2026-04-26T07:08:49.977Z</time></trkpt><trkpt lat="45.4158233" lon="8.3584587"><ele>143.8</ele><time>2026-04-26T07:08:51.974Z</time></trkpt><trkpt lat="45.4159078" lon="8.3585143"><ele>144.0</ele><time>2026-04-26T07:08:53.983Z</time></trkpt><trkpt lat="45.4159912" lon="8.3585637"><ele>144.0</ele><time>2026-04-26T07:08:55.98Z</time></trkpt><trkpt lat="45.4160785" lon="8.358619"><ele>144.0</ele><time>2026-04-26T07:08:57.978Z</time></trkpt><trkpt lat="45.4161628" lon="8.3586717"><ele>144.0</ele><time>2026-04-26T07:08:59.978Z</time></trkpt><trkpt lat="45.4162478" lon="8.3587265"><ele>144.0</ele><time>2026-04-26T07:09:01.969Z</time></trkpt><trkpt lat="45.4163309" lon="8.3587785"><ele>144.0</ele><time>2026-04-26T07:09:03.974Z</time></trkpt><trkpt lat="45.4164177" lon="8.3588294"><ele>144.0</ele><time>2026-04-26T07:09:05.978Z</time></trkpt><trkpt lat="45.416507" lon="8.3588838"><ele>144.0</ele><time>2026-04-26T07:09:07.97Z</time></trkpt><trkpt lat="45.4165945" lon="8.3589387"><ele>144.0</ele><time>2026-04-26T07:09:09.977Z</time></trkpt><trkpt lat="45.4166768" lon="8.3589946"><ele>144.0</ele><time>2026-04-26T07:09:11.974Z</time></trkpt><trkpt lat="45.4167597" lon="8.359045"><ele>144.0</ele><time>2026-04-26T07:09:13.98Z</time></trkpt><trkpt lat="45.4168439" lon="8.3591025"><ele>144.0</ele><time>2026-04-26T07:09:15.978Z</time></trkpt><trkpt lat="45.4169295" lon="8.3591518"><ele>144.0</ele><time>2026-04-26T07:09:17.973Z</time></trkpt><trkpt lat="45.4170154" lon="8.3592057"><ele>144.0</ele><time>2026-04-26T07:09:19.975Z</time></trkpt><trkpt lat="45.4171005" lon="8.3592544"><ele>144.0</ele><time>2026-04-26T07:09:21.98Z</time></trkpt><trkpt lat="45.4171848" lon="8.3593091"><ele>144.0</ele><time>2026-04-26T07:09:23.977Z</time></trkpt><trkpt lat="45.417267" lon="8.3593632"><ele>144.2</ele><time>2026-04-26T07:09:25.971Z</time></trkpt><trkpt lat="45.417355" lon="8.3594185"><ele>144.4</ele><time>2026-04-26T07:09:27.976Z</time></trkpt><trkpt lat="45.4174396" lon="8.3594734"><ele>144.6</ele><time>2026-04-26T07:09:29.974Z</time></trkpt><trkpt lat="45.4175219" lon="8.3595303"><ele>144.8</ele><time>2026-04-26T07:09:31.97Z</time></trkpt><trkpt lat="45.4176013" lon="8.3595779"><ele>145.0</ele><time>2026-04-26T07:09:33.975Z</time></trkpt><trkpt lat="45.4176843" lon="8.3596259"><ele>145.0</ele><time>2026-04-26T07:09:35.977Z</time></trkpt><trkpt lat="45.4177878" lon="8.3596718"><ele>145.0</ele><time>2026-04-26T07:09:38.828Z</time></trkpt><trkpt lat="45.4178464" lon="8.3597218"><ele>145.0</ele><time>2026-04-26T07:09:39.968Z</time></trkpt><trkpt lat="45.4179283" lon="8.3597779"><ele>145.0</ele><time>2026-04-26T07:09:41.97Z</time></trkpt><trkpt lat="45.4180076" lon="8.359839"><ele>145.0</ele><time>2026-04-26T07:09:43.967Z</time></trkpt><trkpt lat="45.418082" lon="8.3598807"><ele>145.0</ele><time>2026-04-26T07:09:45.974Z</time></trkpt><trkpt lat="45.4181649" lon="8.3599422"><ele>145.0</ele><time>2026-04-26T07:09:47.982Z</time></trkpt><trkpt lat="45.4182496" lon="8.3599966"><ele>145.0</ele><time>2026-04-26T07:09:49.979Z</time></trkpt><trkpt lat="45.4183483" lon="8.3600569"><ele>145.0</ele><time>2026-04-26T07:09:51.979Z</time></trkpt><trkpt lat="45.4184508" lon="8.3601202"><ele>145.0</ele><time>2026-04-26T07:09:53.98Z</time></trkpt><trkpt lat="45.4185528" lon="8.3601801"><ele>145.0</ele><time>2026-04-26T07:09:55.979Z</time></trkpt><trkpt lat="45.4186556" lon="8.3602227"><ele>145.0</ele><time>2026-04-26T07:09:57.979Z</time></trkpt><trkpt lat="45.4187525" lon="8.3602622"><ele>145.0</ele><time>2026-04-26T07:09:59.981Z</time></trkpt><trkpt lat="45.418854" lon="8.3603177"><ele>145.0</ele><time>2026-04-26T07:10:01.98Z</time></trkpt><trkpt lat="45.4189471" lon="8.3603992"><ele>145.0</ele><time>2026-04-26T07:10:03.974Z</time></trkpt><trkpt lat="45.419033" lon="8.3604959"><ele>145.0</ele><time>2026-04-26T07:10:05.979Z</time></trkpt><trkpt lat="45.4191008" lon="8.3606096"><ele>145.0</ele><time>2026-04-26T07:10:07.981Z</time></trkpt><trkpt lat="45.4191655" lon="8.3607347"><ele>145.0</ele><time>2026-04-26T07:10:09.975Z</time></trkpt><trkpt lat="45.4192252" lon="8.3608628"><ele>145.0</ele><time>2026-04-26T07:10:11.978Z</time></trkpt><trkpt lat="45.4192822" lon="8.3609907"><ele>145.0</ele><time>2026-04-26T07:10:13.975Z</time></trkpt><trkpt lat="45.4193401" lon="8.3611144"><ele>145.0</ele><time>2026-04-26T07:10:15.975Z</time></trkpt><trkpt lat="45.4194042" lon="8.3612329"><ele>145.0</ele><time>2026-04-26T07:10:17.975Z</time></trkpt><trkpt lat="45.4194807" lon="8.361338"><ele>145.0</ele><time>2026-04-26T07:10:19.973Z</time></trkpt><trkpt lat="45.4195807" lon="8.361385"><ele>145.0</ele><time>2026-04-26T07:10:21.978Z</time></trkpt><trkpt lat="45.4196799" lon="8.361422"><ele>145.0</ele><time>2026-04-26T07:10:23.97Z</time></trkpt><trkpt lat="45.4197813" lon="8.3614537"><ele>145.0</ele><time>2026-04-26T07:10:25.977Z</time></trkpt><trkpt lat="45.4198798" lon="8.3614814"><ele>145.2</ele><time>2026-04-26T07:10:27.98Z</time></trkpt><trkpt lat="45.4199788" lon="8.3615005"><ele>145.4</ele><time>2026-04-26T07:10:29.973Z</time></trkpt><trkpt lat="45.420079" lon="8.3615189"><ele>145.6</ele><time>2026-04-26T07:10:31.974Z</time></trkpt><trkpt lat="45.4201801" lon="8.3615366"><ele>145.8</ele><time>2026-04-26T07:10:33.969Z</time></trkpt><trkpt lat="45.4202809" lon="8.3615609"><ele>146.0</ele><time>2026-04-26T07:10:35.968Z</time></trkpt><trkpt lat="45.4203826" lon="8.3615784"><ele>146.0</ele><time>2026-04-26T07:10:37.974Z</time></trkpt><trkpt lat="45.420482" lon="8.3615958"><ele>146.0</ele><time>2026-04-26T07:10:39.971Z</time></trkpt><trkpt lat="45.420584" lon="8.3616124"><ele>146.0</ele><time>2026-04-26T07:10:41.978Z</time></trkpt><trkpt lat="45.4206865" lon="8.3616265"><ele>146.0</ele><time>2026-04-26T07:10:43.967Z</time></trkpt><trkpt lat="45.4207876" lon="8.3616398"><ele>146.0</ele><time>2026-04-26T07:10:45.973Z</time></trkpt><trkpt lat="45.4208878" lon="8.3616491"><ele>146.2</ele><time>2026-04-26T07:10:47.978Z</time></trkpt><trkpt lat="45.4209884" lon="8.3616568"><ele>146.39999999999998</ele><time>2026-04-26T07:10:49.98Z</time></trkpt><trkpt lat="45.4210873" lon="8.3616634"><ele>146.6</ele><time>2026-04-26T07:10:51.974Z</time></trkpt><trkpt lat="45.4211864" lon="8.3616665"><ele>146.79999999999998</ele><time>2026-04-26T07:10:53.978Z</time></trkpt><trkpt lat="45.4212822" lon="8.3616718"><ele>147.0</ele><time>2026-04-26T07:10:55.973Z</time></trkpt><trkpt lat="45.4213788" lon="8.3616783"><ele>147.2</ele><time>2026-04-26T07:10:57.972Z</time></trkpt><trkpt lat="45.4214742" lon="8.361684"><ele>147.39999999999998</ele><time>2026-04-26T07:10:59.973Z</time></trkpt><trkpt lat="45.4215665" lon="8.3616932"><ele>147.60000000000002</ele><time>2026-04-26T07:11:01.977Z</time></trkpt><trkpt lat="45.4216542" lon="8.3617414"><ele>147.8</ele><time>2026-04-26T07:11:03.981Z</time></trkpt><trkpt lat="45.4217081" lon="8.3618491"><ele>148.0</ele><time>2026-04-26T07:11:05.974Z</time></trkpt><trkpt lat="45.4217134" lon="8.3619819"><ele>148.0</ele><time>2026-04-26T07:11:07.98Z</time></trkpt><trkpt lat="45.4216853" lon="8.3621143"><ele>148.0</ele><time>2026-04-26T07:11:09.978Z</time></trkpt><trkpt lat="45.4216597" lon="8.3622569"><ele>148.0</ele><time>2026-04-26T07:11:11.982Z</time></trkpt><trkpt lat="45.4216269" lon="8.3624098"><ele>148.0</ele><time>2026-04-26T07:11:13.979Z</time></trkpt><trkpt lat="45.4215912" lon="8.3625646"><ele>148.0</ele><time>2026-04-26T07:11:15.98Z</time></trkpt><trkpt lat="45.4215542" lon="8.3627205"><ele>147.75</ele><time>2026-04-26T07:11:17.979Z</time></trkpt><trkpt lat="45.4215177" lon="8.362879"><ele>147.5</ele><time>2026-04-26T07:11:19.978Z</time></trkpt><trkpt lat="45.4214825" lon="8.3630332"><ele>147.25</ele><time>2026-04-26T07:11:21.975Z</time></trkpt><trkpt lat="45.4214406" lon="8.3631899"><ele>147.0</ele><time>2026-04-26T07:11:23.974Z</time></trkpt><trkpt lat="45.4214065" lon="8.3633473"><ele>147.0</ele><time>2026-04-26T07:11:25.985Z</time></trkpt><trkpt lat="45.4213723" lon="8.3635002"><ele>147.0</ele><time>2026-04-26T07:11:27.978Z</time></trkpt><trkpt lat="45.421338" lon="8.3636549"><ele>147.0</ele><time>2026-04-26T07:11:29.971Z</time></trkpt><trkpt lat="45.4213034" lon="8.3638088"><ele>147.0</ele><time>2026-04-26T07:11:31.98Z</time></trkpt><trkpt lat="45.4212792" lon="8.363964"><ele>147.0</ele><time>2026-04-26T07:11:33.977Z</time></trkpt><trkpt lat="45.4212786" lon="8.3641185"><ele>147.0</ele><time>2026-04-26T07:11:35.974Z</time></trkpt><trkpt lat="45.4213301" lon="8.3642535"><ele>147.0</ele><time>2026-04-26T07:11:37.967Z</time></trkpt><trkpt lat="45.4214149" lon="8.3643462"><ele>147.0</ele><time>2026-04-26T07:11:39.969Z</time></trkpt><trkpt lat="45.4215098" lon="8.3644186"><ele>147.0</ele><time>2026-04-26T07:11:41.972Z</time></trkpt><trkpt lat="45.421601" lon="8.364491"><ele>147.0</ele><time>2026-04-26T07:11:43.968Z</time></trkpt><trkpt lat="45.4216922" lon="8.3645595"><ele>147.0</ele><time>2026-04-26T07:11:45.975Z</time></trkpt><trkpt lat="45.4217812" lon="8.3646327"><ele>147.0</ele><time>2026-04-26T07:11:47.977Z</time></trkpt><trkpt lat="45.4218574" lon="8.3647327"><ele>147.0</ele><time>2026-04-26T07:11:49.976Z</time></trkpt><trkpt lat="45.4219055" lon="8.3648489"><ele>147.0</ele><time>2026-04-26T07:11:51.979Z</time></trkpt><trkpt lat="45.4219435" lon="8.3649785"><ele>147.0</ele><time>2026-04-26T07:11:53.98Z</time></trkpt><trkpt lat="45.4220051" lon="8.3650969"><ele>147.0</ele><time>2026-04-26T07:11:55.98Z</time></trkpt><trkpt lat="45.4220863" lon="8.3651808"><ele>147.0</ele><time>2026-04-26T07:11:57.983Z</time></trkpt><trkpt lat="45.4221725" lon="8.3652453"><ele>147.0</ele><time>2026-04-26T07:11:59.979Z</time></trkpt><trkpt lat="45.4222606" lon="8.3653042"><ele>147.0</ele><time>2026-04-26T07:12:01.984Z</time></trkpt><trkpt lat="45.4223476" lon="8.3653568"><ele>147.0</ele><time>2026-04-26T07:12:03.978Z</time></trkpt><trkpt lat="45.4224296" lon="8.3653991"><ele>147.0</ele><time>2026-04-26T07:12:05.98Z</time></trkpt><trkpt lat="45.4225129" lon="8.3654471"><ele>147.0</ele><time>2026-04-26T07:12:07.978Z</time></trkpt><trkpt lat="45.4225943" lon="8.3654949"><ele>147.0</ele><time>2026-04-26T07:12:09.981Z</time></trkpt><trkpt lat="45.4226573" lon="8.3656045"><ele>147.0</ele><time>2026-04-26T07:12:12.971Z</time></trkpt><trkpt lat="45.4226742" lon="8.3657384"><ele>147.2</ele><time>2026-04-26T07:12:14.977Z</time></trkpt><trkpt lat="45.4226812" lon="8.3658636"><ele>147.39999999999998</ele><time>2026-04-26T07:12:16.968Z</time></trkpt><trkpt lat="45.4226908" lon="8.366011"><ele>147.60000000000002</ele><time>2026-04-26T07:12:18.979Z</time></trkpt><trkpt lat="45.4227033" lon="8.3661615"><ele>147.8</ele><time>2026-04-26T07:12:20.976Z</time></trkpt><trkpt lat="45.4227115" lon="8.3663131"><ele>148.0</ele><time>2026-04-26T07:12:22.982Z</time></trkpt><trkpt lat="45.4227289" lon="8.3664682"><ele>148.0</ele><time>2026-04-26T07:12:24.974Z</time></trkpt><trkpt lat="45.4227381" lon="8.3666243"><ele>148.0</ele><time>2026-04-26T07:12:26.978Z</time></trkpt><trkpt lat="45.4227535" lon="8.3667809"><ele>148.0</ele><time>2026-04-26T07:12:28.98Z</time></trkpt><trkpt lat="45.4227664" lon="8.3669362"><ele>148.0</ele><time>2026-04-26T07:12:30.975Z</time></trkpt><trkpt lat="45.4227787" lon="8.3670898"><ele>148.0</ele><time>2026-04-26T07:12:32.975Z</time></trkpt><trkpt lat="45.4227927" lon="8.3672412"><ele>148.0</ele><time>2026-04-26T07:12:34.974Z</time></trkpt><trkpt lat="45.422802" lon="8.3673895"><ele>148.0</ele><time>2026-04-26T07:12:36.98Z</time></trkpt><trkpt lat="45.4228155" lon="8.3675515"><ele>148.0</ele><time>2026-04-26T07:12:38.981Z</time></trkpt><trkpt lat="45.4228284" lon="8.3677195"><ele>148.0</ele><time>2026-04-26T07:12:40.978Z</time></trkpt><trkpt lat="45.4228428" lon="8.3678886"><ele>148.0</ele><time>2026-04-26T07:12:42.974Z</time></trkpt><trkpt lat="45.4228581" lon="8.3680578"><ele>148.0</ele><time>2026-04-26T07:12:44.972Z</time></trkpt><trkpt lat="45.4228745" lon="8.3682279"><ele>148.0</ele><time>2026-04-26T07:12:46.971Z</time></trkpt><trkpt lat="45.4228893" lon="8.368397"><ele>148.0</ele><time>2026-04-26T07:12:48.978Z</time></trkpt><trkpt lat="45.4229087" lon="8.3685702"><ele>148.0</ele><time>2026-04-26T07:12:50.977Z</time></trkpt><trkpt lat="45.4229243" lon="8.3687375"><ele>148.0</ele><time>2026-04-26T07:12:52.975Z</time></trkpt><trkpt lat="45.4229441" lon="8.3689068"><ele>148.0</ele><time>2026-04-26T07:12:54.98Z</time></trkpt><trkpt lat="45.422974" lon="8.3690745"><ele>148.0</ele><time>2026-04-26T07:12:56.98Z</time></trkpt><trkpt lat="45.4230009" lon="8.3692475"><ele>147.75</ele><time>2026-04-26T07:12:58.975Z</time></trkpt><trkpt lat="45.4230301" lon="8.3694088"><ele>147.5</ele><time>2026-04-26T07:13:00.984Z</time></trkpt><trkpt lat="45.4230566" lon="8.3695691"><ele>147.25</ele><time>2026-04-26T07:13:02.979Z</time></trkpt><trkpt lat="45.4230787" lon="8.3697343"><ele>147.0</ele><time>2026-04-26T07:13:04.983Z</time></trkpt><trkpt lat="45.4230948" lon="8.3698971"><ele>147.0</ele><time>2026-04-26T07:13:06.98Z</time></trkpt><trkpt lat="45.4231049" lon="8.3700632"><ele>147.0</ele><time>2026-04-26T07:13:08.98Z</time></trkpt><trkpt lat="45.4231178" lon="8.3702245"><ele>147.0</ele><time>2026-04-26T07:13:10.975Z</time></trkpt><trkpt lat="45.4231369" lon="8.370382"><ele>147.0</ele><time>2026-04-26T07:13:12.973Z</time></trkpt><trkpt lat="45.4231611" lon="8.370539"><ele>147.0</ele><time>2026-04-26T07:13:14.977Z</time></trkpt><trkpt lat="45.4231932" lon="8.370696"><ele>147.0</ele><time>2026-04-26T07:13:16.984Z</time></trkpt><trkpt lat="45.4232308" lon="8.3708494"><ele>147.0</ele><time>2026-04-26T07:13:18.977Z</time></trkpt><trkpt lat="45.4232774" lon="8.3709955"><ele>147.0</ele><time>2026-04-26T07:13:20.985Z</time></trkpt><trkpt lat="45.4233278" lon="8.3711367"><ele>147.0</ele><time>2026-04-26T07:13:22.977Z</time></trkpt><trkpt lat="45.4233807" lon="8.3712786"><ele>147.0</ele><time>2026-04-26T07:13:24.982Z</time></trkpt><trkpt lat="45.4234284" lon="8.371422"><ele>147.0</ele><time>2026-04-26T07:13:26.983Z</time></trkpt><trkpt lat="45.4234727" lon="8.3715684"><ele>147.0</ele><time>2026-04-26T07:13:28.986Z</time></trkpt><trkpt lat="45.4235097" lon="8.371724"><ele>147.0</ele><time>2026-04-26T07:13:30.978Z</time></trkpt><trkpt lat="45.4235482" lon="8.3718814"><ele>147.0</ele><time>2026-04-26T07:13:32.975Z</time></trkpt><trkpt lat="45.4235826" lon="8.3720474"><ele>147.0</ele><time>2026-04-26T07:13:34.98Z</time></trkpt><trkpt lat="45.4235996" lon="8.3721339"><ele>147.0</ele><time>2026-04-26T07:13:35.971Z</time></trkpt><trkpt lat="45.4236341" lon="8.3723023"><ele>147.0</ele><time>2026-04-26T07:13:37.974Z</time></trkpt><trkpt lat="45.4236658" lon="8.3724724"><ele>147.0</ele><time>2026-04-26T07:13:39.978Z</time></trkpt><trkpt lat="45.4236921" lon="8.3726412"><ele>147.0</ele><time>2026-04-26T07:13:41.973Z</time></trkpt><trkpt lat="45.4236925" lon="8.3728125"><ele>147.0</ele><time>2026-04-26T07:13:43.975Z</time></trkpt><trkpt lat="45.4236817" lon="8.3729796"><ele>147.0</ele><time>2026-04-26T07:13:45.971Z</time></trkpt><trkpt lat="45.4236674" lon="8.3731542"><ele>147.0</ele><time>2026-04-26T07:13:47.985Z</time></trkpt><trkpt lat="45.4236477" lon="8.3733222"><ele>147.0</ele><time>2026-04-26T07:13:49.981Z</time></trkpt><trkpt lat="45.4236265" lon="8.3734907"><ele>147.0</ele><time>2026-04-26T07:13:51.981Z</time></trkpt><trkpt lat="45.4236017" lon="8.3736656"><ele>147.0</ele><time>2026-04-26T07:13:53.978Z</time></trkpt><trkpt lat="45.423577" lon="8.373835"><ele>147.25</ele><time>2026-04-26T07:13:55.976Z</time></trkpt><trkpt lat="45.423551" lon="8.374002"><ele>147.5</ele><time>2026-04-26T07:13:57.975Z</time></trkpt><trkpt lat="45.4235211" lon="8.3741678"><ele>147.75</ele><time>2026-04-26T07:13:59.979Z</time></trkpt><trkpt lat="45.4234893" lon="8.3743304"><ele>148.0</ele><time>2026-04-26T07:14:01.977Z</time></trkpt><trkpt lat="45.4234645" lon="8.3744966"><ele>148.0</ele><time>2026-04-26T07:14:03.974Z</time></trkpt><trkpt lat="45.4234487" lon="8.3746603"><ele>148.0</ele><time>2026-04-26T07:14:05.978Z</time></trkpt><trkpt lat="45.4234304" lon="8.3748206"><ele>148.0</ele><time>2026-04-26T07:14:07.98Z</time></trkpt><trkpt lat="45.4234126" lon="8.3749785"><ele>148.0</ele><time>2026-04-26T07:14:09.973Z</time></trkpt><trkpt lat="45.423388" lon="8.3751395"><ele>148.0</ele><time>2026-04-26T07:14:11.973Z</time></trkpt><trkpt lat="45.4233612" lon="8.3752957"><ele>148.0</ele><time>2026-04-26T07:14:13.982Z</time></trkpt><trkpt lat="45.4233268" lon="8.3754445"><ele>148.0</ele><time>2026-04-26T07:14:15.975Z</time></trkpt><trkpt lat="45.4232929" lon="8.375589"><ele>148.0</ele><time>2026-04-26T07:14:17.975Z</time></trkpt><trkpt lat="45.4232497" lon="8.3757321"><ele>148.0</ele><time>2026-04-26T07:14:19.98Z</time></trkpt><trkpt lat="45.4232152" lon="8.3758734"><ele>148.0</ele><time>2026-04-26T07:14:21.98Z</time></trkpt><trkpt lat="45.4231699" lon="8.3760189"><ele>148.0</ele><time>2026-04-26T07:14:23.978Z</time></trkpt><trkpt lat="45.4231309" lon="8.3761622"><ele>148.0</ele><time>2026-04-26T07:14:25.969Z</time></trkpt><trkpt lat="45.4230809" lon="8.3762953"><ele>148.0</ele><time>2026-04-26T07:14:27.973Z</time></trkpt><trkpt lat="45.4230475" lon="8.3764344"><ele>148.0</ele><time>2026-04-26T07:14:29.975Z</time></trkpt><trkpt lat="45.4230204" lon="8.3765672"><ele>147.8</ele><time>2026-04-26T07:14:31.98Z</time></trkpt><trkpt lat="45.4230094" lon="8.3766962"><ele>147.60000000000002</ele><time>2026-04-26T07:14:33.98Z</time></trkpt><trkpt lat="45.4230199" lon="8.3768324"><ele>147.39999999999998</ele><time>2026-04-26T07:14:35.977Z</time></trkpt><trkpt lat="45.4230419" lon="8.3769753"><ele>147.2</ele><time>2026-04-26T07:14:37.982Z</time></trkpt><trkpt lat="45.4230645" lon="8.3771143"><ele>147.0</ele><time>2026-04-26T07:14:39.975Z</time></trkpt><trkpt lat="45.4230908" lon="8.3772428"><ele>147.0</ele><time>2026-04-26T07:14:41.977Z</time></trkpt><trkpt lat="45.4231212" lon="8.3773724"><ele>147.0</ele><time>2026-04-26T07:14:43.977Z</time></trkpt><trkpt lat="45.4231531" lon="8.3774953"><ele>147.0</ele><time>2026-04-26T07:14:45.974Z</time></trkpt><trkpt lat="45.4231739" lon="8.3776052"><ele>147.0</ele><time>2026-04-26T07:14:47.982Z</time></trkpt><trkpt lat="45.423187" lon="8.377694"><ele>147.0</ele><time>2026-04-26T07:14:49.976Z</time></trkpt><trkpt lat="45.4232328" lon="8.3777809"><ele>147.0</ele><time>2026-04-26T07:14:53.98Z</time></trkpt><trkpt lat="45.4232988" lon="8.3777945"><ele>147.0</ele><time>2026-04-26T07:14:55.984Z</time></trkpt><trkpt lat="45.4233705" lon="8.3777767"><ele>147.0</ele><time>2026-04-26T07:14:57.93Z</time></trkpt><trkpt lat="45.4234532" lon="8.3777348"><ele>147.0</ele><time>2026-04-26T07:14:59.971Z</time></trkpt><trkpt lat="45.4235298" lon="8.3776753"><ele>147.0</ele><time>2026-04-26T07:15:01.974Z</time></trkpt><trkpt lat="45.4235958" lon="8.3776293"><ele>147.0</ele><time>2026-04-26T07:15:03.974Z</time></trkpt><trkpt lat="45.4235834" lon="8.3775324"><ele>147.0</ele><time>2026-04-26T07:15:06.97Z</time></trkpt><trkpt lat="45.4234994" lon="8.3775741"><ele>147.0</ele><time>2026-04-26T07:15:08.969Z</time></trkpt><trkpt lat="45.4234264" lon="8.3776361"><ele>147.0</ele><time>2026-04-26T07:15:10.979Z</time></trkpt><trkpt lat="45.4233509" lon="8.3776891"><ele>147.0</ele><time>2026-04-26T07:15:12.97Z</time></trkpt><trkpt lat="45.4232742" lon="8.3777329"><ele>147.0</ele><time>2026-04-26T07:15:14.971Z</time></trkpt><trkpt lat="45.4232066" lon="8.3777852"><ele>147.0</ele><time>2026-04-26T07:15:16.97Z</time></trkpt><trkpt lat="45.423195" lon="8.3779069"><ele>147.0</ele><time>2026-04-26T07:15:18.97Z</time></trkpt><trkpt lat="45.4232488" lon="8.3780257"><ele>147.33333333333334</ele><time>2026-04-26T07:15:20.974Z</time></trkpt><trkpt lat="45.4232886" lon="8.3781377"><ele>147.66666666666666</ele><time>2026-04-26T07:15:22.973Z</time></trkpt><trkpt lat="45.4233188" lon="8.3782537"><ele>148.0</ele><time>2026-04-26T07:15:24.978Z</time></trkpt><trkpt lat="45.4233533" lon="8.3783649"><ele>148.33333333333331</ele><time>2026-04-26T07:15:26.97Z</time></trkpt><trkpt lat="45.4233718" lon="8.3784863"><ele>148.66666666666666</ele><time>2026-04-26T07:15:28.94Z</time></trkpt><trkpt lat="45.4233881" lon="8.3786119"><ele>149.0</ele><time>2026-04-26T07:15:30.907Z</time></trkpt><trkpt lat="45.4234049" lon="8.37874"><ele>149.2</ele><time>2026-04-26T07:15:32.97Z</time></trkpt><trkpt lat="45.4234077" lon="8.3788754"><ele>149.4</ele><time>2026-04-26T07:15:34.972Z</time></trkpt><trkpt lat="45.4234245" lon="8.3790108"><ele>149.6</ele><time>2026-04-26T07:15:36.974Z</time></trkpt><trkpt lat="45.4234494" lon="8.3791488"><ele>149.8</ele><time>2026-04-26T07:15:38.983Z</time></trkpt><trkpt lat="45.4234776" lon="8.3792938"><ele>150.0</ele><time>2026-04-26T07:15:40.977Z</time></trkpt><trkpt lat="45.4235169" lon="8.3794308"><ele>150.0</ele><time>2026-04-26T07:15:42.973Z</time></trkpt><trkpt lat="45.4235478" lon="8.379584"><ele>150.0</ele><time>2026-04-26T07:15:44.977Z</time></trkpt><trkpt lat="45.4235781" lon="8.3797432"><ele>150.0</ele><time>2026-04-26T07:15:46.973Z</time></trkpt><trkpt lat="45.4236186" lon="8.3798877"><ele>150.0</ele><time>2026-04-26T07:15:48.979Z</time></trkpt><trkpt lat="45.4236714" lon="8.3800185"><ele>150.0</ele><time>2026-04-26T07:15:50.977Z</time></trkpt><trkpt lat="45.4237192" lon="8.3801433"><ele>149.8</ele><time>2026-04-26T07:15:52.973Z</time></trkpt><trkpt lat="45.4237688" lon="8.380278"><ele>149.6</ele><time>2026-04-26T07:15:54.968Z</time></trkpt><trkpt lat="45.4238361" lon="8.3804066"><ele>149.4</ele><time>2026-04-26T07:15:56.976Z</time></trkpt><trkpt lat="45.4238961" lon="8.3805262"><ele>149.2</ele><time>2026-04-26T07:15:58.976Z</time></trkpt><trkpt lat="45.4239483" lon="8.380648"><ele>149.0</ele><time>2026-04-26T07:16:00.968Z</time></trkpt><trkpt lat="45.4239951" lon="8.3807467"><ele>149.0</ele><time>2026-04-26T07:16:02.974Z</time></trkpt><trkpt lat="45.42403" lon="8.3808504"><ele>149.0</ele><time>2026-04-26T07:16:04.968Z</time></trkpt><trkpt lat="45.4240972" lon="8.3809215"><ele>149.0</ele><time>2026-04-26T07:16:06.97Z</time></trkpt><trkpt lat="45.4241782" lon="8.3809725"><ele>149.0</ele><time>2026-04-26T07:16:08.971Z</time></trkpt><trkpt lat="45.4242381" lon="8.3810701"><ele>149.0</ele><time>2026-04-26T07:16:10.973Z</time></trkpt><trkpt lat="45.4242646" lon="8.3811958"><ele>149.0</ele><time>2026-04-26T07:16:12.972Z</time></trkpt><trkpt lat="45.4242948" lon="8.3813185"><ele>149.0</ele><time>2026-04-26T07:16:14.98Z</time></trkpt><trkpt lat="45.424318" lon="8.3814313"><ele>149.0</ele><time>2026-04-26T07:16:16.977Z</time></trkpt><trkpt lat="45.4243225" lon="8.3813184"><ele>149.0</ele><time>2026-04-26T07:16:23.972Z</time></trkpt><trkpt lat="45.424286" lon="8.3812177"><ele>149.0</ele><time>2026-04-26T07:16:25.967Z</time></trkpt><trkpt lat="45.4242777" lon="8.3811029"><ele>149.0</ele><time>2026-04-26T07:16:27.969Z</time></trkpt><trkpt lat="45.4243873" lon="8.3810646"><ele>149.0</ele><time>2026-04-26T07:16:29.976Z</time></trkpt><trkpt lat="45.4244883" lon="8.3810524"><ele>149.0</ele><time>2026-04-26T07:16:31.971Z</time></trkpt><trkpt lat="45.4245823" lon="8.381043"><ele>149.0</ele><time>2026-04-26T07:16:33.978Z</time></trkpt><trkpt lat="45.4246772" lon="8.3810345"><ele>149.0</ele><time>2026-04-26T07:16:35.977Z</time></trkpt><trkpt lat="45.4247686" lon="8.3810103"><ele>149.0</ele><time>2026-04-26T07:16:37.978Z</time></trkpt><trkpt lat="45.4248609" lon="8.380997"><ele>149.0</ele><time>2026-04-26T07:16:39.967Z</time></trkpt><trkpt lat="45.4249493" lon="8.3809811"><ele>149.33333333333331</ele><time>2026-04-26T07:16:41.972Z</time></trkpt><trkpt lat="45.4250274" lon="8.3809875"><ele>149.66666666666666</ele><time>2026-04-26T07:16:44.974Z</time></trkpt><trkpt lat="45.4251074" lon="8.3809652"><ele>150.0</ele><time>2026-04-26T07:16:46.973Z</time></trkpt><trkpt lat="45.4251951" lon="8.3809585"><ele>150.33333333333334</ele><time>2026-04-26T07:16:48.97Z</time></trkpt><trkpt lat="45.4252825" lon="8.3809746"><ele>150.66666666666669</ele><time>2026-04-26T07:16:50.972Z</time></trkpt><trkpt lat="45.4253683" lon="8.3810077"><ele>151.0</ele><time>2026-04-26T07:16:52.971Z</time></trkpt><trkpt lat="45.425451" lon="8.3810369"><ele>151.0</ele><time>2026-04-26T07:16:54.97Z</time></trkpt><trkpt lat="45.4255339" lon="8.3810412"><ele>151.0</ele><time>2026-04-26T07:16:56.977Z</time></trkpt><trkpt lat="45.4256169" lon="8.3810394"><ele>151.0</ele><time>2026-04-26T07:16:58.973Z</time></trkpt><trkpt lat="45.4257047" lon="8.3810331"><ele>151.0</ele><time>2026-04-26T07:17:00.97Z</time></trkpt><trkpt lat="45.4257989" lon="8.3810315"><ele>151.0</ele><time>2026-04-26T07:17:02.972Z</time></trkpt><trkpt lat="45.4258957" lon="8.3810318"><ele>151.0</ele><time>2026-04-26T07:17:04.977Z</time></trkpt><trkpt lat="45.4259909" lon="8.3810123"><ele>151.0</ele><time>2026-04-26T07:17:06.973Z</time></trkpt><trkpt lat="45.4260949" lon="8.3809977"><ele>151.0</ele><time>2026-04-26T07:17:08.973Z</time></trkpt><trkpt lat="45.4261927" lon="8.3809947"><ele>151.0</ele><time>2026-04-26T07:17:10.971Z</time></trkpt><trkpt lat="45.4262931" lon="8.3810017"><ele>151.0</ele><time>2026-04-26T07:17:12.979Z</time></trkpt><trkpt lat="45.426399" lon="8.381"><ele>151.0</ele><time>2026-04-26T07:17:14.977Z</time></trkpt><trkpt lat="45.426498" lon="8.381005"><ele>151.33333333333334</ele><time>2026-04-26T07:17:16.981Z</time></trkpt><trkpt lat="45.426595" lon="8.3810114"><ele>151.66666666666669</ele><time>2026-04-26T07:17:18.981Z</time></trkpt><trkpt lat="45.4266891" lon="8.38102"><ele>152.0</ele><time>2026-04-26T07:17:20.973Z</time></trkpt><trkpt lat="45.4267771" lon="8.3810498"><ele>152.33333333333334</ele><time>2026-04-26T07:17:22.978Z</time></trkpt><trkpt lat="45.4268557" lon="8.3810443"><ele>152.66666666666666</ele><time>2026-04-26T07:17:24.974Z</time></trkpt><trkpt lat="45.4269342" lon="8.3810608"><ele>153.0</ele><time>2026-04-26T07:17:26.969Z</time></trkpt><trkpt lat="45.4270171" lon="8.3810679"><ele>153.0</ele><time>2026-04-26T07:17:28.972Z</time></trkpt><trkpt lat="45.4270819" lon="8.3810692"><ele>153.0</ele><time>2026-04-26T07:17:30.979Z</time></trkpt><trkpt lat="45.427188" lon="8.3810625"><ele>153.0</ele><time>2026-04-26T07:17:32.976Z</time></trkpt><trkpt lat="45.4272872" lon="8.3810502"><ele>153.0</ele><time>2026-04-26T07:17:34.978Z</time></trkpt><trkpt lat="45.4273843" lon="8.3810373"><ele>153.0</ele><time>2026-04-26T07:17:36.971Z</time></trkpt><trkpt lat="45.4274888" lon="8.3810395"><ele>152.8</ele><time>2026-04-26T07:17:38.974Z</time></trkpt><trkpt lat="45.4275897" lon="8.3810386"><ele>152.60000000000002</ele><time>2026-04-26T07:17:40.985Z</time></trkpt><trkpt lat="45.4276879" lon="8.3810317"><ele>152.39999999999998</ele><time>2026-04-26T07:17:42.974Z</time></trkpt><trkpt lat="45.4277873" lon="8.3810176"><ele>152.2</ele><time>2026-04-26T07:17:44.979Z</time></trkpt><trkpt lat="45.4278884" lon="8.3810049"><ele>152.0</ele><time>2026-04-26T07:17:46.978Z</time></trkpt><trkpt lat="45.427988" lon="8.3809849"><ele>152.0</ele><time>2026-04-26T07:17:48.975Z</time></trkpt><trkpt lat="45.4280911" lon="8.3809875"><ele>152.0</ele><time>2026-04-26T07:17:50.977Z</time></trkpt><trkpt lat="45.4281921" lon="8.3809749"><ele>152.0</ele><time>2026-04-26T07:17:52.982Z</time></trkpt><trkpt lat="45.4282877" lon="8.3809623"><ele>152.0</ele><time>2026-04-26T07:17:54.974Z</time></trkpt><trkpt lat="45.4283852" lon="8.3809623"><ele>152.0</ele><time>2026-04-26T07:17:56.978Z</time></trkpt><trkpt lat="45.4284883" lon="8.380971"><ele>152.0</ele><time>2026-04-26T07:17:58.977Z</time></trkpt><trkpt lat="45.4285918" lon="8.3809752"><ele>152.0</ele><time>2026-04-26T07:18:00.978Z</time></trkpt><trkpt lat="45.4286925" lon="8.3809848"><ele>152.0</ele><time>2026-04-26T07:18:02.974Z</time></trkpt><trkpt lat="45.4287906" lon="8.3809946"><ele>152.0</ele><time>2026-04-26T07:18:04.996Z</time></trkpt><trkpt lat="45.4288905" lon="8.3810071"><ele>152.0</ele><time>2026-04-26T07:18:06.992Z</time></trkpt><trkpt lat="45.4289935" lon="8.3810145"><ele>152.2</ele><time>2026-04-26T07:18:08.978Z</time></trkpt><trkpt lat="45.4290905" lon="8.3810291"><ele>152.39999999999998</ele><time>2026-04-26T07:18:10.977Z</time></trkpt><trkpt lat="45.4291779" lon="8.3810507"><ele>152.60000000000002</ele><time>2026-04-26T07:18:12.979Z</time></trkpt><trkpt lat="45.429269" lon="8.3810718"><ele>152.8</ele><time>2026-04-26T07:18:14.981Z</time></trkpt><trkpt lat="45.4293653" lon="8.3810754"><ele>153.0</ele><time>2026-04-26T07:18:16.979Z</time></trkpt><trkpt lat="45.4294662" lon="8.381087"><ele>153.0</ele><time>2026-04-26T07:18:18.982Z</time></trkpt><trkpt lat="45.4295701" lon="8.3811095"><ele>153.0</ele><time>2026-04-26T07:18:20.979Z</time></trkpt><trkpt lat="45.4296746" lon="8.3811226"><ele>153.0</ele><time>2026-04-26T07:18:22.977Z</time></trkpt><trkpt lat="45.4297701" lon="8.3811398"><ele>153.0</ele><time>2026-04-26T07:18:24.978Z</time></trkpt><trkpt lat="45.4298615" lon="8.381152"><ele>153.0</ele><time>2026-04-26T07:18:26.976Z</time></trkpt><trkpt lat="45.4299589" lon="8.3811638"><ele>153.0</ele><time>2026-04-26T07:18:28.973Z</time></trkpt><trkpt lat="45.4300631" lon="8.381186"><ele>153.0</ele><time>2026-04-26T07:18:30.982Z</time></trkpt><trkpt lat="45.4301702" lon="8.3812101"><ele>153.0</ele><time>2026-04-26T07:18:32.977Z</time></trkpt><trkpt lat="45.4302793" lon="8.3812327"><ele>153.0</ele><time>2026-04-26T07:18:34.98Z</time></trkpt><trkpt lat="45.4303827" lon="8.3812541"><ele>153.0</ele><time>2026-04-26T07:18:36.978Z</time></trkpt><trkpt lat="45.4304855" lon="8.3812766"><ele>152.6</ele><time>2026-04-26T07:18:38.966Z</time></trkpt><trkpt lat="45.4305919" lon="8.3812869"><ele>152.20000000000002</ele><time>2026-04-26T07:18:40.974Z</time></trkpt><trkpt lat="45.4306933" lon="8.3813041"><ele>151.8</ele><time>2026-04-26T07:18:42.975Z</time></trkpt><trkpt lat="45.4307966" lon="8.3813288"><ele>151.4</ele><time>2026-04-26T07:18:44.97Z</time></trkpt><trkpt lat="45.4308995" lon="8.381365"><ele>151.0</ele><time>2026-04-26T07:18:46.978Z</time></trkpt><trkpt lat="45.431002" lon="8.3813871"><ele>151.0</ele><time>2026-04-26T07:18:48.974Z</time></trkpt><trkpt lat="45.4311074" lon="8.3814092"><ele>151.0</ele><time>2026-04-26T07:18:50.979Z</time></trkpt><trkpt lat="45.4312137" lon="8.3814338"><ele>151.0</ele><time>2026-04-26T07:18:52.975Z</time></trkpt><trkpt lat="45.4313252" lon="8.3814578"><ele>151.0</ele><time>2026-04-26T07:18:54.969Z</time></trkpt><trkpt lat="45.4314345" lon="8.3814806"><ele>151.0</ele><time>2026-04-26T07:18:56.969Z</time></trkpt><trkpt lat="45.4315431" lon="8.3814988"><ele>150.8</ele><time>2026-04-26T07:18:58.975Z</time></trkpt><trkpt lat="45.4316502" lon="8.3815244"><ele>150.6</ele><time>2026-04-26T07:19:00.976Z</time></trkpt><trkpt lat="45.4317553" lon="8.3815473"><ele>150.4</ele><time>2026-04-26T07:19:02.969Z</time></trkpt><trkpt lat="45.4318626" lon="8.38157"><ele>150.2</ele><time>2026-04-26T07:19:04.979Z</time></trkpt><trkpt lat="45.4319682" lon="8.3815854"><ele>150.0</ele><time>2026-04-26T07:19:06.967Z</time></trkpt><trkpt lat="45.4320724" lon="8.3816043"><ele>150.2</ele><time>2026-04-26T07:19:08.973Z</time></trkpt><trkpt lat="45.4321786" lon="8.3816263"><ele>150.4</ele><time>2026-04-26T07:19:10.973Z</time></trkpt><trkpt lat="45.4322828" lon="8.3816479"><ele>150.6</ele><time>2026-04-26T07:19:12.969Z</time></trkpt><trkpt lat="45.4323859" lon="8.3816605"><ele>150.8</ele><time>2026-04-26T07:19:14.973Z</time></trkpt><trkpt lat="45.4324877" lon="8.3816927"><ele>151.0</ele><time>2026-04-26T07:19:16.974Z</time></trkpt><trkpt lat="45.4325919" lon="8.3817181"><ele>151.0</ele><time>2026-04-26T07:19:18.976Z</time></trkpt><trkpt lat="45.4326986" lon="8.3817356"><ele>151.0</ele><time>2026-04-26T07:19:20.973Z</time></trkpt><trkpt lat="45.4328043" lon="8.3817533"><ele>151.0</ele><time>2026-04-26T07:19:22.97Z</time></trkpt><trkpt lat="45.4329087" lon="8.3817759"><ele>151.0</ele><time>2026-04-26T07:19:24.976Z</time></trkpt><trkpt lat="45.4330106" lon="8.3817951"><ele>151.0</ele><time>2026-04-26T07:19:26.97Z</time></trkpt><trkpt lat="45.433111" lon="8.3818141"><ele>151.0</ele><time>2026-04-26T07:19:28.98Z</time></trkpt><trkpt lat="45.4332139" lon="8.3818374"><ele>151.0</ele><time>2026-04-26T07:19:30.981Z</time></trkpt><trkpt lat="45.4333148" lon="8.3818519"><ele>151.0</ele><time>2026-04-26T07:19:32.974Z</time></trkpt><trkpt lat="45.4334103" lon="8.3818603"><ele>151.0</ele><time>2026-04-26T07:19:34.979Z</time></trkpt><trkpt lat="45.4335114" lon="8.3818724"><ele>151.0</ele><time>2026-04-26T07:19:36.969Z</time></trkpt><trkpt lat="45.4336109" lon="8.3818962"><ele>151.0</ele><time>2026-04-26T07:19:38.975Z</time></trkpt><trkpt lat="45.4337111" lon="8.3819145"><ele>151.0</ele><time>2026-04-26T07:19:40.97Z</time></trkpt><trkpt lat="45.4338122" lon="8.3819358"><ele>151.0</ele><time>2026-04-26T07:19:42.969Z</time></trkpt><trkpt lat="45.4339147" lon="8.3819551"><ele>151.0</ele><time>2026-04-26T07:19:44.977Z</time></trkpt><trkpt lat="45.434014" lon="8.3819719"><ele>151.0</ele><time>2026-04-26T07:19:46.967Z</time></trkpt><trkpt lat="45.4341114" lon="8.3819926"><ele>151.0</ele><time>2026-04-26T07:19:48.974Z</time></trkpt><trkpt lat="45.434209" lon="8.3820095"><ele>151.0</ele><time>2026-04-26T07:19:50.972Z</time></trkpt><trkpt lat="45.4343067" lon="8.3820254"><ele>151.0</ele><time>2026-04-26T07:19:52.972Z</time></trkpt><trkpt lat="45.4344061" lon="8.3820462"><ele>151.0</ele><time>2026-04-26T07:19:54.98Z</time></trkpt><trkpt lat="45.4345071" lon="8.3820649"><ele>151.0</ele><time>2026-04-26T07:19:56.978Z</time></trkpt><trkpt lat="45.434607" lon="8.3820837"><ele>151.2</ele><time>2026-04-26T07:19:58.978Z</time></trkpt><trkpt lat="45.4347073" lon="8.3821094"><ele>151.39999999999998</ele><time>2026-04-26T07:20:00.971Z</time></trkpt><trkpt lat="45.4348052" lon="8.3821297"><ele>151.6</ele><time>2026-04-26T07:20:02.974Z</time></trkpt><trkpt lat="45.4349068" lon="8.3821491"><ele>151.79999999999998</ele><time>2026-04-26T07:20:04.973Z</time></trkpt><trkpt lat="45.4350048" lon="8.3821647"><ele>152.0</ele><time>2026-04-26T07:20:06.977Z</time></trkpt><trkpt lat="45.4351019" lon="8.3821898"><ele>151.6</ele><time>2026-04-26T07:20:08.981Z</time></trkpt><trkpt lat="45.4352053" lon="8.3822081"><ele>151.2</ele><time>2026-04-26T07:20:10.973Z</time></trkpt><trkpt lat="45.4353086" lon="8.3822234"><ele>150.8</ele><time>2026-04-26T07:20:12.977Z</time></trkpt><trkpt lat="45.4354103" lon="8.3822384"><ele>150.4</ele><time>2026-04-26T07:20:14.97Z</time></trkpt><trkpt lat="45.435507" lon="8.3822585"><ele>150.0</ele><time>2026-04-26T07:20:16.974Z</time></trkpt><trkpt lat="45.4356086" lon="8.3822809"><ele>150.0</ele><time>2026-04-26T07:20:18.979Z</time></trkpt><trkpt lat="45.4357037" lon="8.382296"><ele>150.0</ele><time>2026-04-26T07:20:20.979Z</time></trkpt><trkpt lat="45.435802" lon="8.3823088"><ele>150.0</ele><time>2026-04-26T07:20:22.974Z</time></trkpt><trkpt lat="45.435899" lon="8.3823266"><ele>150.0</ele><time>2026-04-26T07:20:24.98Z</time></trkpt><trkpt lat="45.4359947" lon="8.3823502"><ele>150.0</ele><time>2026-04-26T07:20:26.968Z</time></trkpt><trkpt lat="45.4360937" lon="8.3823712"><ele>150.0</ele><time>2026-04-26T07:20:28.977Z</time></trkpt><trkpt lat="45.4361916" lon="8.3823884"><ele>150.0</ele><time>2026-04-26T07:20:30.97Z</time></trkpt><trkpt lat="45.4362893" lon="8.382411"><ele>150.0</ele><time>2026-04-26T07:20:32.981Z</time></trkpt><trkpt lat="45.4363794" lon="8.3824172"><ele>150.0</ele><time>2026-04-26T07:20:34.972Z</time></trkpt><trkpt lat="45.4364685" lon="8.3824286"><ele>150.0</ele><time>2026-04-26T07:20:36.97Z</time></trkpt><trkpt lat="45.4365508" lon="8.3824499"><ele>150.4</ele><time>2026-04-26T07:20:38.972Z</time></trkpt><trkpt lat="45.4366369" lon="8.3824701"><ele>150.8</ele><time>2026-04-26T07:20:40.971Z</time></trkpt><trkpt lat="45.4367142" lon="8.3824864"><ele>151.2</ele><time>2026-04-26T07:20:42.978Z</time></trkpt><trkpt lat="45.4368143" lon="8.3825052"><ele>151.6</ele><time>2026-04-26T07:20:44.972Z</time></trkpt><trkpt lat="45.43691" lon="8.3825189"><ele>152.0</ele><time>2026-04-26T07:20:46.979Z</time></trkpt><trkpt lat="45.4369973" lon="8.3825419"><ele>152.0</ele><time>2026-04-26T07:20:48.974Z</time></trkpt><trkpt lat="45.437088" lon="8.3825611"><ele>152.0</ele><time>2026-04-26T07:20:50.973Z</time></trkpt><trkpt lat="45.4371758" lon="8.3825797"><ele>152.0</ele><time>2026-04-26T07:20:52.979Z</time></trkpt><trkpt lat="45.4372691" lon="8.3825945"><ele>152.0</ele><time>2026-04-26T07:20:54.972Z</time></trkpt><trkpt lat="45.4373632" lon="8.3826095"><ele>152.0</ele><time>2026-04-26T07:20:56.979Z</time></trkpt><trkpt lat="45.4374629" lon="8.3826316"><ele>152.2</ele><time>2026-04-26T07:20:58.986Z</time></trkpt><trkpt lat="45.43756" lon="8.3826567"><ele>152.39999999999998</ele><time>2026-04-26T07:21:00.975Z</time></trkpt><trkpt lat="45.4376604" lon="8.3826828"><ele>152.60000000000002</ele><time>2026-04-26T07:21:02.978Z</time></trkpt><trkpt lat="45.4377592" lon="8.3827061"><ele>152.8</ele><time>2026-04-26T07:21:04.975Z</time></trkpt><trkpt lat="45.4378586" lon="8.3827135"><ele>153.0</ele><time>2026-04-26T07:21:06.976Z</time></trkpt><trkpt lat="45.4379572" lon="8.3827292"><ele>153.4</ele><time>2026-04-26T07:21:08.976Z</time></trkpt><trkpt lat="45.4380543" lon="8.3827473"><ele>153.8</ele><time>2026-04-26T07:21:10.977Z</time></trkpt><trkpt lat="45.438157" lon="8.3827649"><ele>154.2</ele><time>2026-04-26T07:21:12.987Z</time></trkpt><trkpt lat="45.438259" lon="8.3827881"><ele>154.6</ele><time>2026-04-26T07:21:14.976Z</time></trkpt><trkpt lat="45.4383579" lon="8.3828117"><ele>155.0</ele><time>2026-04-26T07:21:16.974Z</time></trkpt><trkpt lat="45.4384577" lon="8.382833"><ele>155.0</ele><time>2026-04-26T07:21:18.981Z</time></trkpt><trkpt lat="45.4385629" lon="8.3828562"><ele>155.0</ele><time>2026-04-26T07:21:20.974Z</time></trkpt><trkpt lat="45.4386691" lon="8.3828741"><ele>155.0</ele><time>2026-04-26T07:21:22.979Z</time></trkpt><trkpt lat="45.4387821" lon="8.3828935"><ele>155.0</ele><time>2026-04-26T07:21:24.972Z</time></trkpt><trkpt lat="45.4388974" lon="8.382913"><ele>155.0</ele><time>2026-04-26T07:21:26.977Z</time></trkpt><trkpt lat="45.4390164" lon="8.3829399"><ele>155.0</ele><time>2026-04-26T07:21:28.975Z</time></trkpt><trkpt lat="45.4391344" lon="8.3829643"><ele>155.0</ele><time>2026-04-26T07:21:30.974Z</time></trkpt><trkpt lat="45.4392532" lon="8.3829906"><ele>155.0</ele><time>2026-04-26T07:21:32.977Z</time></trkpt><trkpt lat="45.4393736" lon="8.3830119"><ele>155.0</ele><time>2026-04-26T07:21:34.979Z</time></trkpt><trkpt lat="45.4394935" lon="8.3830357"><ele>155.0</ele><time>2026-04-26T07:21:36.974Z</time></trkpt><trkpt lat="45.4396078" lon="8.3830577"><ele>155.0</ele><time>2026-04-26T07:21:38.972Z</time></trkpt><trkpt lat="45.4397188" lon="8.3830748"><ele>155.0</ele><time>2026-04-26T07:21:40.972Z</time></trkpt><trkpt lat="45.4398345" lon="8.3830964"><ele>155.0</ele><time>2026-04-26T07:21:42.965Z</time></trkpt><trkpt lat="45.4399489" lon="8.383118"><ele>155.0</ele><time>2026-04-26T07:21:44.982Z</time></trkpt><trkpt lat="45.4400605" lon="8.3831374"><ele>155.0</ele><time>2026-04-26T07:21:46.977Z</time></trkpt><trkpt lat="45.4401716" lon="8.3831589"><ele>155.0</ele><time>2026-04-26T07:21:48.978Z</time></trkpt><trkpt lat="45.4402765" lon="8.3831736"><ele>155.0</ele><time>2026-04-26T07:21:50.97Z</time></trkpt><trkpt lat="45.4403807" lon="8.3831967"><ele>155.0</ele><time>2026-04-26T07:21:52.973Z</time></trkpt><trkpt lat="45.4404877" lon="8.3832171"><ele>155.0</ele><time>2026-04-26T07:21:54.978Z</time></trkpt><trkpt lat="45.4405953" lon="8.3832403"><ele>155.0</ele><time>2026-04-26T07:21:56.978Z</time></trkpt><trkpt lat="45.4407015" lon="8.3832629"><ele>155.0</ele><time>2026-04-26T07:21:58.977Z</time></trkpt><trkpt lat="45.4408111" lon="8.3832866"><ele>155.0</ele><time>2026-04-26T07:22:00.972Z</time></trkpt><trkpt lat="45.4409194" lon="8.383307"><ele>155.0</ele><time>2026-04-26T07:22:02.981Z</time></trkpt><trkpt lat="45.4410263" lon="8.3833315"><ele>155.0</ele><time>2026-04-26T07:22:04.981Z</time></trkpt><trkpt lat="45.4411379" lon="8.383356"><ele>155.0</ele><time>2026-04-26T07:22:06.977Z</time></trkpt><trkpt lat="45.44125" lon="8.3833733"><ele>155.0</ele><time>2026-04-26T07:22:08.974Z</time></trkpt><trkpt lat="45.4413609" lon="8.3833957"><ele>155.0</ele><time>2026-04-26T07:22:10.978Z</time></trkpt><trkpt lat="45.4414723" lon="8.3834163"><ele>155.0</ele><time>2026-04-26T07:22:12.978Z</time></trkpt><trkpt lat="45.4415853" lon="8.383438"><ele>155.0</ele><time>2026-04-26T07:22:14.973Z</time></trkpt><trkpt lat="45.4416943" lon="8.3834558"><ele>155.0</ele><time>2026-04-26T07:22:16.976Z</time></trkpt><trkpt lat="45.4418096" lon="8.3834761"><ele>155.0</ele><time>2026-04-26T07:22:18.978Z</time></trkpt><trkpt lat="45.4419237" lon="8.3834987"><ele>155.0</ele><time>2026-04-26T07:22:20.983Z</time></trkpt><trkpt lat="45.4420316" lon="8.3835198"><ele>155.0</ele><time>2026-04-26T07:22:22.975Z</time></trkpt><trkpt lat="45.4421401" lon="8.3835388"><ele>155.0</ele><time>2026-04-26T07:22:24.974Z</time></trkpt><trkpt lat="45.4422465" lon="8.3835603"><ele>155.0</ele><time>2026-04-26T07:22:26.976Z</time></trkpt><trkpt lat="45.4423536" lon="8.3835859"><ele>155.0</ele><time>2026-04-26T07:22:28.979Z</time></trkpt><trkpt lat="45.4424646" lon="8.3836076"><ele>155.0</ele><time>2026-04-26T07:22:30.982Z</time></trkpt><trkpt lat="45.4425805" lon="8.3836261"><ele>155.0</ele><time>2026-04-26T07:22:32.991Z</time></trkpt><trkpt lat="45.4426956" lon="8.3836469"><ele>155.0</ele><time>2026-04-26T07:22:34.976Z</time></trkpt><trkpt lat="45.4428018" lon="8.3836699"><ele>155.0</ele><time>2026-04-26T07:22:36.969Z</time></trkpt><trkpt lat="45.4429006" lon="8.3836916"><ele>155.0</ele><time>2026-04-26T07:22:38.977Z</time></trkpt><trkpt lat="45.4430002" lon="8.3837112"><ele>155.2</ele><time>2026-04-26T07:22:40.978Z</time></trkpt><trkpt lat="45.4431011" lon="8.3837328"><ele>155.4</ele><time>2026-04-26T07:22:42.971Z</time></trkpt><trkpt lat="45.4431947" lon="8.3837431"><ele>155.6</ele><time>2026-04-26T07:22:44.978Z</time></trkpt><trkpt lat="45.4432879" lon="8.3837614"><ele>155.8</ele><time>2026-04-26T07:22:46.978Z</time></trkpt><trkpt lat="45.4433826" lon="8.3837778"><ele>156.0</ele><time>2026-04-26T07:22:48.973Z</time></trkpt><trkpt lat="45.4434924" lon="8.3837939"><ele>156.0</ele><time>2026-04-26T07:22:50.971Z</time></trkpt><trkpt lat="45.4436071" lon="8.3838147"><ele>156.0</ele><time>2026-04-26T07:22:52.974Z</time></trkpt><trkpt lat="45.4437222" lon="8.3838425"><ele>156.0</ele><time>2026-04-26T07:22:54.969Z</time></trkpt><trkpt lat="45.4438334" lon="8.3838658"><ele>156.0</ele><time>2026-04-26T07:22:56.971Z</time></trkpt><trkpt lat="45.4439415" lon="8.383885"><ele>156.2</ele><time>2026-04-26T07:22:58.97Z</time></trkpt><trkpt lat="45.4440522" lon="8.3839085"><ele>156.39999999999998</ele><time>2026-04-26T07:23:00.971Z</time></trkpt><trkpt lat="45.4441662" lon="8.383929"><ele>156.6</ele><time>2026-04-26T07:23:02.979Z</time></trkpt><trkpt lat="45.4442755" lon="8.3839483"><ele>156.79999999999998</ele><time>2026-04-26T07:23:04.978Z</time></trkpt><trkpt lat="45.4443847" lon="8.3839682"><ele>157.0</ele><time>2026-04-26T07:23:06.973Z</time></trkpt><trkpt lat="45.4444917" lon="8.3839879"><ele>157.0</ele><time>2026-04-26T07:23:08.983Z</time></trkpt><trkpt lat="45.444599" lon="8.3840138"><ele>157.0</ele><time>2026-04-26T07:23:10.974Z</time></trkpt><trkpt lat="45.4447062" lon="8.3840357"><ele>157.0</ele><time>2026-04-26T07:23:12.978Z</time></trkpt><trkpt lat="45.4448119" lon="8.3840575"><ele>157.0</ele><time>2026-04-26T07:23:14.973Z</time></trkpt><trkpt lat="45.4449171" lon="8.384083"><ele>157.0</ele><time>2026-04-26T07:23:16.986Z</time></trkpt><trkpt lat="45.4450216" lon="8.3841037"><ele>157.0</ele><time>2026-04-26T07:23:18.976Z</time></trkpt><trkpt lat="45.4451246" lon="8.3841241"><ele>157.0</ele><time>2026-04-26T07:23:20.979Z</time></trkpt><trkpt lat="45.4452282" lon="8.3841452"><ele>157.0</ele><time>2026-04-26T07:23:22.98Z</time></trkpt><trkpt lat="45.4453326" lon="8.3841615"><ele>157.0</ele><time>2026-04-26T07:23:24.975Z</time></trkpt><trkpt lat="45.445441" lon="8.3841805"><ele>157.0</ele><time>2026-04-26T07:23:26.976Z</time></trkpt><trkpt lat="45.4455456" lon="8.3842005"><ele>157.0</ele><time>2026-04-26T07:23:28.981Z</time></trkpt><trkpt lat="45.4456492" lon="8.3842222"><ele>157.0</ele><time>2026-04-26T07:23:30.981Z</time></trkpt><trkpt lat="45.4457514" lon="8.3842331"><ele>157.0</ele><time>2026-04-26T07:23:32.976Z</time></trkpt><trkpt lat="45.4458529" lon="8.3842555"><ele>157.0</ele><time>2026-04-26T07:23:34.98Z</time></trkpt><trkpt lat="45.4459564" lon="8.3842762"><ele>157.0</ele><time>2026-04-26T07:23:36.977Z</time></trkpt><trkpt lat="45.4460562" lon="8.3842965"><ele>157.0</ele><time>2026-04-26T07:23:38.975Z</time></trkpt><trkpt lat="45.4461583" lon="8.3843163"><ele>157.0</ele><time>2026-04-26T07:23:40.974Z</time></trkpt><trkpt lat="45.4462612" lon="8.3843388"><ele>157.0</ele><time>2026-04-26T07:23:42.981Z</time></trkpt><trkpt lat="45.4463586" lon="8.3843537"><ele>157.0</ele><time>2026-04-26T07:23:44.979Z</time></trkpt><trkpt lat="45.4464652" lon="8.3843769"><ele>157.0</ele><time>2026-04-26T07:23:46.978Z</time></trkpt><trkpt lat="45.4465689" lon="8.3843954"><ele>157.4</ele><time>2026-04-26T07:23:48.984Z</time></trkpt><trkpt lat="45.4466762" lon="8.3844153"><ele>157.79999999999998</ele><time>2026-04-26T07:23:50.979Z</time></trkpt><trkpt lat="45.4467893" lon="8.3844392"><ele>158.2</ele><time>2026-04-26T07:23:52.982Z</time></trkpt><trkpt lat="45.4468932" lon="8.384457"><ele>158.6</ele><time>2026-04-26T07:23:54.978Z</time></trkpt><trkpt lat="45.4469951" lon="8.3844785"><ele>159.0</ele><time>2026-04-26T07:23:56.98Z</time></trkpt><trkpt lat="45.447098" lon="8.384496"><ele>159.0</ele><time>2026-04-26T07:23:58.974Z</time></trkpt><trkpt lat="45.4472051" lon="8.3845147"><ele>159.0</ele><time>2026-04-26T07:24:00.978Z</time></trkpt><trkpt lat="45.4473049" lon="8.3845342"><ele>159.0</ele><time>2026-04-26T07:24:02.978Z</time></trkpt><trkpt lat="45.4474058" lon="8.3845554"><ele>159.0</ele><time>2026-04-26T07:24:04.974Z</time></trkpt><trkpt lat="45.4474979" lon="8.384572"><ele>159.0</ele><time>2026-04-26T07:24:06.973Z</time></trkpt><trkpt lat="45.447596" lon="8.3845882"><ele>159.0</ele><time>2026-04-26T07:24:08.977Z</time></trkpt><trkpt lat="45.4476949" lon="8.3846096"><ele>159.0</ele><time>2026-04-26T07:24:10.973Z</time></trkpt><trkpt lat="45.4477998" lon="8.3846298"><ele>159.0</ele><time>2026-04-26T07:24:12.976Z</time></trkpt><trkpt lat="45.4478999" lon="8.3846496"><ele>159.0</ele><time>2026-04-26T07:24:14.98Z</time></trkpt><trkpt lat="45.4480036" lon="8.3846661"><ele>159.0</ele><time>2026-04-26T07:24:16.976Z</time></trkpt><trkpt lat="45.4481075" lon="8.3846843"><ele>159.2</ele><time>2026-04-26T07:24:18.979Z</time></trkpt><trkpt lat="45.4482104" lon="8.3847021"><ele>159.4</ele><time>2026-04-26T07:24:20.967Z</time></trkpt><trkpt lat="45.448314" lon="8.3847174"><ele>159.6</ele><time>2026-04-26T07:24:22.973Z</time></trkpt><trkpt lat="45.4484139" lon="8.3847396"><ele>159.8</ele><time>2026-04-26T07:24:24.972Z</time></trkpt><trkpt lat="45.4485149" lon="8.3847626"><ele>160.0</ele><time>2026-04-26T07:24:26.968Z</time></trkpt><trkpt lat="45.4486154" lon="8.3847808"><ele>160.0</ele><time>2026-04-26T07:24:28.983Z</time></trkpt><trkpt lat="45.4487095" lon="8.3848037"><ele>160.0</ele><time>2026-04-26T07:24:30.979Z</time></trkpt><trkpt lat="45.448799" lon="8.3848203"><ele>160.0</ele><time>2026-04-26T07:24:32.983Z</time></trkpt><trkpt lat="45.4488904" lon="8.3848311"><ele>160.0</ele><time>2026-04-26T07:24:34.975Z</time></trkpt><trkpt lat="45.4489838" lon="8.384843"><ele>160.0</ele><time>2026-04-26T07:24:36.974Z</time></trkpt><trkpt lat="45.4490762" lon="8.3848575"><ele>160.2</ele><time>2026-04-26T07:24:38.974Z</time></trkpt><trkpt lat="45.4491666" lon="8.3848782"><ele>160.4</ele><time>2026-04-26T07:24:40.979Z</time></trkpt><trkpt lat="45.4492606" lon="8.3849023"><ele>160.60000000000002</ele><time>2026-04-26T07:24:42.98Z</time></trkpt><trkpt lat="45.4493585" lon="8.3849201"><ele>160.8</ele><time>2026-04-26T07:24:44.979Z</time></trkpt><trkpt lat="45.4494512" lon="8.3849556"><ele>161.0</ele><time>2026-04-26T07:24:46.978Z</time></trkpt><trkpt lat="45.4495441" lon="8.3849646"><ele>161.0</ele><time>2026-04-26T07:24:48.979Z</time></trkpt><trkpt lat="45.4496396" lon="8.3849836"><ele>161.0</ele><time>2026-04-26T07:24:50.973Z</time></trkpt><trkpt lat="45.4497337" lon="8.3849986"><ele>161.0</ele><time>2026-04-26T07:24:52.976Z</time></trkpt><trkpt lat="45.4498265" lon="8.3850174"><ele>161.0</ele><time>2026-04-26T07:24:54.974Z</time></trkpt><trkpt lat="45.4499168" lon="8.3850357"><ele>161.0</ele><time>2026-04-26T07:24:56.974Z</time></trkpt><trkpt lat="45.4500038" lon="8.3850525"><ele>161.0</ele><time>2026-04-26T07:24:58.981Z</time></trkpt><trkpt lat="45.4500843" lon="8.3850773"><ele>161.0</ele><time>2026-04-26T07:25:00.978Z</time></trkpt><trkpt lat="45.4501705" lon="8.38509"><ele>161.0</ele><time>2026-04-26T07:25:02.973Z</time></trkpt><trkpt lat="45.4502456" lon="8.3850837"><ele>161.0</ele><time>2026-04-26T07:25:04.975Z</time></trkpt><trkpt lat="45.4503276" lon="8.3850822"><ele>161.0</ele><time>2026-04-26T07:25:06.97Z</time></trkpt><trkpt lat="45.450423" lon="8.3851116"><ele>161.0</ele><time>2026-04-26T07:25:08.975Z</time></trkpt><trkpt lat="45.4505071" lon="8.3851512"><ele>161.33333333333331</ele><time>2026-04-26T07:25:10.973Z</time></trkpt><trkpt lat="45.450602" lon="8.38517"><ele>161.66666666666666</ele><time>2026-04-26T07:25:12.968Z</time></trkpt><trkpt lat="45.4506894" lon="8.3851638"><ele>162.0</ele><time>2026-04-26T07:25:14.968Z</time></trkpt><trkpt lat="45.4507764" lon="8.3851855"><ele>162.33333333333334</ele><time>2026-04-26T07:25:16.976Z</time></trkpt><trkpt lat="45.4508389" lon="8.3852123"><ele>162.66666666666669</ele><time>2026-04-26T07:25:18.97Z</time></trkpt><trkpt lat="45.4508987" lon="8.3852658"><ele>163.0</ele><time>2026-04-26T07:25:20.979Z</time></trkpt><trkpt lat="45.4509776" lon="8.3853246"><ele>163.0</ele><time>2026-04-26T07:25:22.977Z</time></trkpt><trkpt lat="45.4510694" lon="8.3853529"><ele>163.0</ele><time>2026-04-26T07:25:24.978Z</time></trkpt><trkpt lat="45.4511485" lon="8.3854003"><ele>163.0</ele><time>2026-04-26T07:25:26.977Z</time></trkpt><trkpt lat="45.4512255" lon="8.3854659"><ele>163.0</ele><time>2026-04-26T07:25:28.976Z</time></trkpt><trkpt lat="45.4513181" lon="8.3854682"><ele>163.0</ele><time>2026-04-26T07:25:30.976Z</time></trkpt><trkpt lat="45.4514103" lon="8.3854762"><ele>162.83333333333334</ele><time>2026-04-26T07:25:32.98Z</time></trkpt><trkpt lat="45.4515055" lon="8.3854714"><ele>162.66666666666669</ele><time>2026-04-26T07:25:34.973Z</time></trkpt><trkpt lat="45.4515944" lon="8.3854612"><ele>162.5</ele><time>2026-04-26T07:25:36.979Z</time></trkpt><trkpt lat="45.4516601" lon="8.3854432"><ele>162.33333333333334</ele><time>2026-04-26T07:25:38.971Z</time></trkpt><trkpt lat="45.4517561" lon="8.3854422"><ele>162.16666666666666</ele><time>2026-04-26T07:25:40.98Z</time></trkpt><trkpt lat="45.4518517" lon="8.3854066"><ele>162.0</ele><time>2026-04-26T07:25:42.981Z</time></trkpt><trkpt lat="45.4519337" lon="8.3853753"><ele>162.0</ele><time>2026-04-26T07:25:44.977Z</time></trkpt><trkpt lat="45.4520133" lon="8.3853492"><ele>162.0</ele><time>2026-04-26T07:25:46.98Z</time></trkpt><trkpt lat="45.4520868" lon="8.3853212"><ele>162.0</ele><time>2026-04-26T07:25:48.979Z</time></trkpt><trkpt lat="45.4521522" lon="8.3852892"><ele>160.0</ele><time>2026-04-26T07:25:50.982Z</time></trkpt><trkpt lat="45.4522289" lon="8.3852559"><ele>160.0</ele><time>2026-04-26T07:25:53.986Z</time></trkpt></trkseg><trkseg><trkpt lat="45.4523289" lon="8.3852255"><ele>160.0</ele><time>2026-04-26T07:36:57.974Z</time></trkpt><trkpt lat="45.4524026" lon="8.3852033"><ele>160.0</ele><time>2026-04-26T07:36:59.972Z</time></trkpt><trkpt lat="45.4524427" lon="8.3851138"><ele>160.0</ele><time>2026-04-26T07:37:01.978Z</time></trkpt><trkpt lat="45.4524046" lon="8.3850218"><ele>160.0</ele><time>2026-04-26T07:37:03.981Z</time></trkpt><trkpt lat="45.4523822" lon="8.3849104"><ele>160.0</ele><time>2026-04-26T07:37:05.978Z</time></trkpt><trkpt lat="45.4523704" lon="8.3847733"><ele>160.0</ele><time>2026-04-26T07:37:07.98Z</time></trkpt><trkpt lat="45.4523671" lon="8.384643"><ele>160.2</ele><time>2026-04-26T07:37:09.969Z</time></trkpt><trkpt lat="45.4523653" lon="8.3845087"><ele>160.4</ele><time>2026-04-26T07:37:11.98Z</time></trkpt><trkpt lat="45.4523403" lon="8.3843811"><ele>160.60000000000002</ele><time>2026-04-26T07:37:13.977Z</time></trkpt><trkpt lat="45.4522799" lon="8.3842795"><ele>160.8</ele><time>2026-04-26T07:37:15.977Z</time></trkpt><trkpt lat="45.4521891" lon="8.3842245"><ele>161.0</ele><time>2026-04-26T07:37:17.972Z</time></trkpt><trkpt lat="45.4520843" lon="8.3842052"><ele>161.25</ele><time>2026-04-26T07:37:19.985Z</time></trkpt><trkpt lat="45.4519737" lon="8.3841792"><ele>161.5</ele><time>2026-04-26T07:37:21.986Z</time></trkpt><trkpt lat="45.451859" lon="8.3841649"><ele>161.75</ele><time>2026-04-26T07:37:23.976Z</time></trkpt><trkpt lat="45.4517448" lon="8.3841447"><ele>162.0</ele><time>2026-04-26T07:37:25.984Z</time></trkpt><trkpt lat="45.4516344" lon="8.3841226"><ele>162.0</ele><time>2026-04-26T07:37:27.972Z</time></trkpt><trkpt lat="45.4515431" lon="8.3841038"><ele>162.0</ele><time>2026-04-26T07:37:29.97Z</time></trkpt><trkpt lat="45.4514602" lon="8.3841686"><ele>162.0</ele><time>2026-04-26T07:37:33.976Z</time></trkpt><trkpt lat="45.4514171" lon="8.3842587"><ele>162.0</ele><time>2026-04-26T07:37:35.974Z</time></trkpt><trkpt lat="45.4513981" lon="8.3843479"><ele>162.0</ele><time>2026-04-26T07:37:37.972Z</time></trkpt><trkpt lat="45.4513983" lon="8.3845003"><ele>162.0</ele><time>2026-04-26T07:37:39.976Z</time></trkpt><trkpt lat="45.4513701" lon="8.3846258"><ele>162.0</ele><time>2026-04-26T07:37:41.974Z</time></trkpt><trkpt lat="45.4513444" lon="8.3847484"><ele>162.0</ele><time>2026-04-26T07:37:43.974Z</time></trkpt><trkpt lat="45.4513139" lon="8.3848688"><ele>162.0</ele><time>2026-04-26T07:37:45.973Z</time></trkpt><trkpt lat="45.4512876" lon="8.384961"><ele>162.0</ele><time>2026-04-26T07:37:47.978Z</time></trkpt><trkpt lat="45.4512588" lon="8.3850924"><ele>162.0</ele><time>2026-04-26T07:37:50.978Z</time></trkpt><trkpt lat="45.4512272" lon="8.3852124"><ele>162.0</ele><time>2026-04-26T07:37:52.98Z</time></trkpt><trkpt lat="45.4511571" lon="8.3852736"><ele>162.2</ele><time>2026-04-26T07:37:54.973Z</time></trkpt><trkpt lat="45.4510757" lon="8.3852589"><ele>162.39999999999998</ele><time>2026-04-26T07:37:56.973Z</time></trkpt><trkpt lat="45.4509861" lon="8.3852091"><ele>162.60000000000002</ele><time>2026-04-26T07:37:58.975Z</time></trkpt><trkpt lat="45.4509087" lon="8.3851528"><ele>162.8</ele><time>2026-04-26T07:38:00.97Z</time></trkpt><trkpt lat="45.4508112" lon="8.3851235"><ele>163.0</ele><time>2026-04-26T07:38:02.974Z</time></trkpt><trkpt lat="45.450723" lon="8.3850979"><ele>163.0</ele><time>2026-04-26T07:38:04.977Z</time></trkpt><trkpt lat="45.4506492" lon="8.3850837"><ele>163.0</ele><time>2026-04-26T07:38:06.979Z</time></trkpt><trkpt lat="45.450557" lon="8.3850654"><ele>163.0</ele><time>2026-04-26T07:38:08.973Z</time></trkpt><trkpt lat="45.4504518" lon="8.3850421"><ele>163.0</ele><time>2026-04-26T07:38:10.983Z</time></trkpt><trkpt lat="45.450338" lon="8.385022"><ele>163.0</ele><time>2026-04-26T07:38:12.981Z</time></trkpt><trkpt lat="45.4502226" lon="8.3850023"><ele>162.66666666666669</ele><time>2026-04-26T07:38:14.976Z</time></trkpt><trkpt lat="45.4501028" lon="8.3849855"><ele>162.33333333333334</ele><time>2026-04-26T07:38:16.981Z</time></trkpt><trkpt lat="45.4499798" lon="8.384965"><ele>162.0</ele><time>2026-04-26T07:38:18.974Z</time></trkpt><trkpt lat="45.4499167" lon="8.3849518"><ele>161.66666666666666</ele><time>2026-04-26T07:38:19.977Z</time></trkpt><trkpt lat="45.4498542" lon="8.3849391"><ele>161.33333333333331</ele><time>2026-04-26T07:38:20.98Z</time></trkpt><trkpt lat="45.4497905" lon="8.384928"><ele>161.0</ele><time>2026-04-26T07:38:21.972Z</time></trkpt><trkpt lat="45.4497255" lon="8.3849153"><ele>161.0</ele><time>2026-04-26T07:38:22.979Z</time></trkpt><trkpt lat="45.4496619" lon="8.3849055"><ele>161.0</ele><time>2026-04-26T07:38:23.976Z</time></trkpt><trkpt lat="45.4495979" lon="8.3848942"><ele>161.0</ele><time>2026-04-26T07:38:24.97Z</time></trkpt><trkpt lat="45.4495335" lon="8.3848829"><ele>161.0</ele><time>2026-04-26T07:38:25.969Z</time></trkpt><trkpt lat="45.4494678" lon="8.38487"><ele>161.0</ele><time>2026-04-26T07:38:26.979Z</time></trkpt><trkpt lat="45.4494043" lon="8.3848573"><ele>161.0</ele><time>2026-04-26T07:38:27.973Z</time></trkpt><trkpt lat="45.4493417" lon="8.3848461"><ele>161.0</ele><time>2026-04-26T07:38:28.979Z</time></trkpt><trkpt lat="45.4492792" lon="8.3848337"><ele>161.0</ele><time>2026-04-26T07:38:29.977Z</time></trkpt><trkpt lat="45.4491531" lon="8.384807"><ele>161.0</ele><time>2026-04-26T07:38:31.979Z</time></trkpt><trkpt lat="45.4490874" lon="8.3847969"><ele>161.0</ele><time>2026-04-26T07:38:32.979Z</time></trkpt><trkpt lat="45.4490243" lon="8.3847881"><ele>161.0</ele><time>2026-04-26T07:38:33.979Z</time></trkpt><trkpt lat="45.4489614" lon="8.3847804"><ele>161.0</ele><time>2026-04-26T07:38:34.977Z</time></trkpt><trkpt lat="45.4488364" lon="8.3847564"><ele>161.0</ele><time>2026-04-26T07:38:36.977Z</time></trkpt><trkpt lat="45.4487738" lon="8.3847407"><ele>160.75</ele><time>2026-04-26T07:38:37.973Z</time></trkpt><trkpt lat="45.4486533" lon="8.3847155"><ele>160.5</ele><time>2026-04-26T07:38:39.98Z</time></trkpt><trkpt lat="45.4485331" lon="8.3846873"><ele>160.25</ele><time>2026-04-26T07:38:41.975Z</time></trkpt><trkpt lat="45.4484104" lon="8.3846695"><ele>160.0</ele><time>2026-04-26T07:38:43.978Z</time></trkpt><trkpt lat="45.4482906" lon="8.3846396"><ele>160.0</ele><time>2026-04-26T07:38:45.976Z</time></trkpt><trkpt lat="45.4482266" lon="8.3846283"><ele>160.0</ele><time>2026-04-26T07:38:46.983Z</time></trkpt><trkpt lat="45.4481629" lon="8.3846178"><ele>160.0</ele><time>2026-04-26T07:38:47.971Z</time></trkpt><trkpt lat="45.4480408" lon="8.3846"><ele>160.0</ele><time>2026-04-26T07:38:49.976Z</time></trkpt><trkpt lat="45.4479263" lon="8.3845774"><ele>160.0</ele><time>2026-04-26T07:38:51.967Z</time></trkpt><trkpt lat="45.4478079" lon="8.3845547"><ele>159.8</ele><time>2026-04-26T07:38:53.97Z</time></trkpt><trkpt lat="45.4476919" lon="8.3845248"><ele>159.6</ele><time>2026-04-26T07:38:55.975Z</time></trkpt><trkpt lat="45.447569" lon="8.3845053"><ele>159.4</ele><time>2026-04-26T07:38:57.979Z</time></trkpt><trkpt lat="45.4475061" lon="8.3844944"><ele>159.2</ele><time>2026-04-26T07:38:58.975Z</time></trkpt><trkpt lat="45.4474434" lon="8.3844836"><ele>159.0</ele><time>2026-04-26T07:38:59.98Z</time></trkpt><trkpt lat="45.4473186" lon="8.3844612"><ele>159.0</ele><time>2026-04-26T07:39:01.974Z</time></trkpt><trkpt lat="45.4472556" lon="8.3844485"><ele>159.0</ele><time>2026-04-26T07:39:02.972Z</time></trkpt><trkpt lat="45.4471918" lon="8.3844356"><ele>159.0</ele><time>2026-04-26T07:39:03.981Z</time></trkpt><trkpt lat="45.4470681" lon="8.3844106"><ele>159.0</ele><time>2026-04-26T07:39:05.981Z</time></trkpt><trkpt lat="45.4470051" lon="8.3843994"><ele>159.0</ele><time>2026-04-26T07:39:06.972Z</time></trkpt><trkpt lat="45.446941" lon="8.3843848"><ele>159.0</ele><time>2026-04-26T07:39:07.976Z</time></trkpt><trkpt lat="45.4468165" lon="8.3843583"><ele>159.0</ele><time>2026-04-26T07:39:09.98Z</time></trkpt><trkpt lat="45.4467537" lon="8.3843505"><ele>159.0</ele><time>2026-04-26T07:39:10.972Z</time></trkpt><trkpt lat="45.4466896" lon="8.3843411"><ele>159.0</ele><time>2026-04-26T07:39:11.972Z</time></trkpt><trkpt lat="45.4466257" lon="8.3843291"><ele>159.0</ele><time>2026-04-26T07:39:12.976Z</time></trkpt><trkpt lat="45.4465617" lon="8.3843146"><ele>159.0</ele><time>2026-04-26T07:39:14Z</time></trkpt><trkpt lat="45.4464978" lon="8.3843038"><ele>159.0</ele><time>2026-04-26T07:39:14.972Z</time></trkpt><trkpt lat="45.4464337" lon="8.3842935"><ele>159.0</ele><time>2026-04-26T07:39:15.978Z</time></trkpt><trkpt lat="45.4463703" lon="8.3842842"><ele>159.0</ele><time>2026-04-26T07:39:16.978Z</time></trkpt><trkpt lat="45.4463035" lon="8.3842734"><ele>158.7142857142857</ele><time>2026-04-26T07:39:17.977Z</time></trkpt><trkpt lat="45.4462361" lon="8.3842608"><ele>158.42857142857144</ele><time>2026-04-26T07:39:18.978Z</time></trkpt><trkpt lat="45.446173" lon="8.384247"><ele>158.14285714285714</ele><time>2026-04-26T07:39:19.974Z</time></trkpt><trkpt lat="45.4461091" lon="8.3842353"><ele>157.85714285714283</ele><time>2026-04-26T07:39:20.976Z</time></trkpt><trkpt lat="45.4460442" lon="8.3842264"><ele>157.57142857142856</ele><time>2026-04-26T07:39:21.981Z</time></trkpt><trkpt lat="45.4459787" lon="8.3842135"><ele>157.28571428571428</ele><time>2026-04-26T07:39:22.977Z</time></trkpt><trkpt lat="45.4459164" lon="8.3841959"><ele>157.0</ele><time>2026-04-26T07:39:23.979Z</time></trkpt><trkpt lat="45.445852" lon="8.3841856"><ele>157.0</ele><time>2026-04-26T07:39:24.976Z</time></trkpt><trkpt lat="45.4457897" lon="8.3841689"><ele>157.0</ele><time>2026-04-26T07:39:25.975Z</time></trkpt><trkpt lat="45.4457255" lon="8.3841538"><ele>157.0</ele><time>2026-04-26T07:39:26.975Z</time></trkpt><trkpt lat="45.4456633" lon="8.3841398"><ele>157.0</ele><time>2026-04-26T07:39:27.976Z</time></trkpt><trkpt lat="45.4456005" lon="8.3841265"><ele>157.0</ele><time>2026-04-26T07:39:28.973Z</time></trkpt><trkpt lat="45.4455357" lon="8.3841154"><ele>157.0</ele><time>2026-04-26T07:39:29.982Z</time></trkpt><trkpt lat="45.4454726" lon="8.3841041"><ele>157.0</ele><time>2026-04-26T07:39:30.975Z</time></trkpt><trkpt lat="45.445408" lon="8.3840909"><ele>157.0</ele><time>2026-04-26T07:39:31.98Z</time></trkpt><trkpt lat="45.4453427" lon="8.3840814"><ele>156.85714285714283</ele><time>2026-04-26T07:39:32.973Z</time></trkpt><trkpt lat="45.4452794" lon="8.3840713"><ele>156.71428571428572</ele><time>2026-04-26T07:39:33.97Z</time></trkpt><trkpt lat="45.4452161" lon="8.3840629"><ele>156.57142857142856</ele><time>2026-04-26T07:39:34.972Z</time></trkpt><trkpt lat="45.4451522" lon="8.3840505"><ele>156.42857142857142</ele><time>2026-04-26T07:39:35.976Z</time></trkpt><trkpt lat="45.4450881" lon="8.3840371"><ele>156.28571428571428</ele><time>2026-04-26T07:39:36.972Z</time></trkpt><trkpt lat="45.4450243" lon="8.384021"><ele>156.14285714285714</ele><time>2026-04-26T07:39:37.98Z</time></trkpt><trkpt lat="45.4449607" lon="8.38401"><ele>156.0</ele><time>2026-04-26T07:39:38.975Z</time></trkpt><trkpt lat="45.4448955" lon="8.3839984"><ele>156.0</ele><time>2026-04-26T07:39:39.983Z</time></trkpt><trkpt lat="45.4448328" lon="8.3839875"><ele>156.0</ele><time>2026-04-26T07:39:40.977Z</time></trkpt><trkpt lat="45.444768" lon="8.3839758"><ele>156.0</ele><time>2026-04-26T07:39:41.977Z</time></trkpt><trkpt lat="45.4447051" lon="8.3839624"><ele>156.0</ele><time>2026-04-26T07:39:42.974Z</time></trkpt><trkpt lat="45.4446421" lon="8.383947"><ele>156.0</ele><time>2026-04-26T07:39:43.98Z</time></trkpt><trkpt lat="45.4445787" lon="8.3839329"><ele>156.0</ele><time>2026-04-26T07:39:44.974Z</time></trkpt><trkpt lat="45.444514" lon="8.3839196"><ele>156.0</ele><time>2026-04-26T07:39:45.98Z</time></trkpt><trkpt lat="45.4444512" lon="8.3839066"><ele>156.0</ele><time>2026-04-26T07:39:46.969Z</time></trkpt><trkpt lat="45.4443886" lon="8.3838926"><ele>156.14285714285714</ele><time>2026-04-26T07:39:47.978Z</time></trkpt><trkpt lat="45.4443251" lon="8.3838802"><ele>156.28571428571428</ele><time>2026-04-26T07:39:48.975Z</time></trkpt><trkpt lat="45.44426" lon="8.3838681"><ele>156.42857142857142</ele><time>2026-04-26T07:39:49.972Z</time></trkpt><trkpt lat="45.4441955" lon="8.3838558"><ele>156.57142857142856</ele><time>2026-04-26T07:39:50.97Z</time></trkpt><trkpt lat="45.4441304" lon="8.3838439"><ele>156.71428571428572</ele><time>2026-04-26T07:39:51.991Z</time></trkpt><trkpt lat="45.4440662" lon="8.3838335"><ele>156.85714285714283</ele><time>2026-04-26T07:39:52.978Z</time></trkpt><trkpt lat="45.4440029" lon="8.3838243"><ele>157.0</ele><time>2026-04-26T07:39:53.976Z</time></trkpt><trkpt lat="45.4439378" lon="8.3838149"><ele>156.85714285714283</ele><time>2026-04-26T07:39:54.977Z</time></trkpt><trkpt lat="45.443873" lon="8.3838035"><ele>156.71428571428572</ele><time>2026-04-26T07:39:55.977Z</time></trkpt><trkpt lat="45.4438094" lon="8.3837879"><ele>156.57142857142856</ele><time>2026-04-26T07:39:56.977Z</time></trkpt><trkpt lat="45.443744" lon="8.3837743"><ele>156.42857142857142</ele><time>2026-04-26T07:39:57.974Z</time></trkpt><trkpt lat="45.4436772" lon="8.3837637"><ele>156.28571428571428</ele><time>2026-04-26T07:39:58.978Z</time></trkpt><trkpt lat="45.4436118" lon="8.3837498"><ele>156.14285714285714</ele><time>2026-04-26T07:39:59.977Z</time></trkpt><trkpt lat="45.4435469" lon="8.3837374"><ele>156.0</ele><time>2026-04-26T07:40:00.978Z</time></trkpt><trkpt lat="45.4434825" lon="8.383726"><ele>156.0</ele><time>2026-04-26T07:40:01.973Z</time></trkpt><trkpt lat="45.4434178" lon="8.3837161"><ele>156.0</ele><time>2026-04-26T07:40:02.977Z</time></trkpt><trkpt lat="45.443353" lon="8.3837027"><ele>156.0</ele><time>2026-04-26T07:40:03.978Z</time></trkpt><trkpt lat="45.4432881" lon="8.3836903"><ele>156.0</ele><time>2026-04-26T07:40:04.978Z</time></trkpt><trkpt lat="45.4432249" lon="8.3836783"><ele>156.0</ele><time>2026-04-26T07:40:05.97Z</time></trkpt><trkpt lat="45.4431615" lon="8.3836669"><ele>156.0</ele><time>2026-04-26T07:40:06.987Z</time></trkpt><trkpt lat="45.4430982" lon="8.3836514"><ele>156.0</ele><time>2026-04-26T07:40:07.975Z</time></trkpt><trkpt lat="45.4430332" lon="8.3836383"><ele>156.0</ele><time>2026-04-26T07:40:08.975Z</time></trkpt><trkpt lat="45.4429682" lon="8.3836281"><ele>156.0</ele><time>2026-04-26T07:40:09.969Z</time></trkpt><trkpt lat="45.4429019" lon="8.383618"><ele>156.0</ele><time>2026-04-26T07:40:10.981Z</time></trkpt><trkpt lat="45.4428366" lon="8.383606"><ele>156.0</ele><time>2026-04-26T07:40:11.978Z</time></trkpt><trkpt lat="45.4427725" lon="8.3835959"><ele>156.0</ele><time>2026-04-26T07:40:12.984Z</time></trkpt><trkpt lat="45.4427071" lon="8.3835847"><ele>156.0</ele><time>2026-04-26T07:40:13.972Z</time></trkpt><trkpt lat="45.442583" lon="8.3835618"><ele>155.83333333333334</ele><time>2026-04-26T07:40:15.972Z</time></trkpt><trkpt lat="45.4425183" lon="8.3835504"><ele>155.66666666666666</ele><time>2026-04-26T07:40:16.977Z</time></trkpt><trkpt lat="45.4423936" lon="8.3835207"><ele>155.5</ele><time>2026-04-26T07:40:18.977Z</time></trkpt><trkpt lat="45.4423293" lon="8.383506"><ele>155.33333333333331</ele><time>2026-04-26T07:40:19.978Z</time></trkpt><trkpt lat="45.4422648" lon="8.3834925"><ele>155.16666666666666</ele><time>2026-04-26T07:40:20.978Z</time></trkpt><trkpt lat="45.4422014" lon="8.3834811"><ele>155.0</ele><time>2026-04-26T07:40:21.978Z</time></trkpt><trkpt lat="45.442137" lon="8.3834712"><ele>155.0</ele><time>2026-04-26T07:40:22.978Z</time></trkpt><trkpt lat="45.4420743" lon="8.383461"><ele>155.0</ele><time>2026-04-26T07:40:23.974Z</time></trkpt><trkpt lat="45.4419529" lon="8.3834453"><ele>155.0</ele><time>2026-04-26T07:40:25.975Z</time></trkpt><trkpt lat="45.4418881" lon="8.3834316"><ele>155.0</ele><time>2026-04-26T07:40:26.979Z</time></trkpt><trkpt lat="45.4417632" lon="8.3834057"><ele>155.0</ele><time>2026-04-26T07:40:28.979Z</time></trkpt><trkpt lat="45.4416394" lon="8.3833791"><ele>155.0</ele><time>2026-04-26T07:40:30.98Z</time></trkpt><trkpt lat="45.4415762" lon="8.3833677"><ele>155.0</ele><time>2026-04-26T07:40:31.976Z</time></trkpt><trkpt lat="45.4414524" lon="8.3833472"><ele>155.0</ele><time>2026-04-26T07:40:33.977Z</time></trkpt><trkpt lat="45.4413299" lon="8.3833228"><ele>155.0</ele><time>2026-04-26T07:40:35.976Z</time></trkpt><trkpt lat="45.4412115" lon="8.3832965"><ele>155.0</ele><time>2026-04-26T07:40:37.979Z</time></trkpt><trkpt lat="45.4410891" lon="8.383272"><ele>155.0</ele><time>2026-04-26T07:40:39.965Z</time></trkpt><trkpt lat="45.4409733" lon="8.3832443"><ele>155.0</ele><time>2026-04-26T07:40:41.977Z</time></trkpt><trkpt lat="45.4408612" lon="8.3832224"><ele>155.0</ele><time>2026-04-26T07:40:43.97Z</time></trkpt><trkpt lat="45.4407408" lon="8.3832241"><ele>155.0</ele><time>2026-04-26T07:40:45.977Z</time></trkpt><trkpt lat="45.4406776" lon="8.3832283"><ele>155.0</ele><time>2026-04-26T07:40:46.979Z</time></trkpt><trkpt lat="45.4405538" lon="8.3832255"><ele>154.5</ele><time>2026-04-26T07:40:48.976Z</time></trkpt><trkpt lat="45.4404327" lon="8.3832049"><ele>154.0</ele><time>2026-04-26T07:40:50.978Z</time></trkpt><trkpt lat="45.4403141" lon="8.3831877"><ele>153.5</ele><time>2026-04-26T07:40:52.978Z</time></trkpt><trkpt lat="45.4402075" lon="8.3832357"><ele>153.0</ele><time>2026-04-26T07:40:54.979Z</time></trkpt><trkpt lat="45.4401095" lon="8.3832501"><ele>153.0</ele><time>2026-04-26T07:40:56.973Z</time></trkpt><trkpt lat="45.440007" lon="8.3832305"><ele>153.0</ele><time>2026-04-26T07:40:58.975Z</time></trkpt><trkpt lat="45.4398997" lon="8.383211"><ele>153.0</ele><time>2026-04-26T07:41:00.979Z</time></trkpt><trkpt lat="45.4397918" lon="8.3831971"><ele>153.0</ele><time>2026-04-26T07:41:02.985Z</time></trkpt><trkpt lat="45.439686" lon="8.3831836"><ele>153.0</ele><time>2026-04-26T07:41:04.98Z</time></trkpt><trkpt lat="45.4395806" lon="8.3831693"><ele>153.4</ele><time>2026-04-26T07:41:06.978Z</time></trkpt><trkpt lat="45.4394731" lon="8.3831515"><ele>153.8</ele><time>2026-04-26T07:41:08.98Z</time></trkpt><trkpt lat="45.4393665" lon="8.3831333"><ele>154.2</ele><time>2026-04-26T07:41:10.976Z</time></trkpt><trkpt lat="45.4392612" lon="8.3831099"><ele>154.6</ele><time>2026-04-26T07:41:12.978Z</time></trkpt><trkpt lat="45.4391504" lon="8.3830933"><ele>155.0</ele><time>2026-04-26T07:41:14.983Z</time></trkpt><trkpt lat="45.4390423" lon="8.3830759"><ele>155.0</ele><time>2026-04-26T07:41:16.98Z</time></trkpt><trkpt lat="45.4389358" lon="8.3830547"><ele>155.0</ele><time>2026-04-26T07:41:18.981Z</time></trkpt><trkpt lat="45.4388337" lon="8.3830324"><ele>155.0</ele><time>2026-04-26T07:41:20.979Z</time></trkpt><trkpt lat="45.438726" lon="8.3830176"><ele>155.0</ele><time>2026-04-26T07:41:22.984Z</time></trkpt><trkpt lat="45.4386214" lon="8.3829998"><ele>155.0</ele><time>2026-04-26T07:41:24.98Z</time></trkpt><trkpt lat="45.4385156" lon="8.3829792"><ele>155.0</ele><time>2026-04-26T07:41:26.976Z</time></trkpt><trkpt lat="45.4384076" lon="8.3829607"><ele>155.0</ele><time>2026-04-26T07:41:28.979Z</time></trkpt><trkpt lat="45.4382973" lon="8.3829401"><ele>155.0</ele><time>2026-04-26T07:41:30.977Z</time></trkpt><trkpt lat="45.4381931" lon="8.3829172"><ele>155.0</ele><time>2026-04-26T07:41:32.975Z</time></trkpt><trkpt lat="45.4380942" lon="8.3828996"><ele>155.0</ele><time>2026-04-26T07:41:34.98Z</time></trkpt><trkpt lat="45.4380028" lon="8.3828815"><ele>154.66666666666666</ele><time>2026-04-26T07:41:36.973Z</time></trkpt><trkpt lat="45.4379217" lon="8.3828591"><ele>154.33333333333331</ele><time>2026-04-26T07:41:38.976Z</time></trkpt><trkpt lat="45.4378436" lon="8.3828688"><ele>154.0</ele><time>2026-04-26T07:41:40.975Z</time></trkpt><trkpt lat="45.4377723" lon="8.3828523"><ele>153.66666666666666</ele><time>2026-04-26T07:41:42.98Z</time></trkpt><trkpt lat="45.4376786" lon="8.3828307"><ele>153.33333333333334</ele><time>2026-04-26T07:41:45.97Z</time></trkpt><trkpt lat="45.4375875" lon="8.3828398"><ele>153.0</ele><time>2026-04-26T07:41:47.969Z</time></trkpt><trkpt lat="45.4375032" lon="8.3828439"><ele>153.0</ele><time>2026-04-26T07:41:49.972Z</time></trkpt><trkpt lat="45.4374161" lon="8.3828167"><ele>153.0</ele><time>2026-04-26T07:41:51.983Z</time></trkpt><trkpt lat="45.437333" lon="8.3828049"><ele>153.0</ele><time>2026-04-26T07:41:53.934Z</time></trkpt><trkpt lat="45.4372418" lon="8.3828136"><ele>153.0</ele><time>2026-04-26T07:41:55.977Z</time></trkpt><trkpt lat="45.4371435" lon="8.3828268"><ele>153.0</ele><time>2026-04-26T07:41:57.973Z</time></trkpt><trkpt lat="45.4370399" lon="8.3828465"><ele>152.83333333333334</ele><time>2026-04-26T07:41:59.974Z</time></trkpt><trkpt lat="45.4369467" lon="8.3828586"><ele>152.66666666666666</ele><time>2026-04-26T07:42:01.975Z</time></trkpt><trkpt lat="45.4368634" lon="8.3828861"><ele>152.5</ele><time>2026-04-26T07:42:03.971Z</time></trkpt><trkpt lat="45.4367811" lon="8.3828777"><ele>152.33333333333331</ele><time>2026-04-26T07:42:05.978Z</time></trkpt><trkpt lat="45.4367231" lon="8.3828123"><ele>152.16666666666666</ele><time>2026-04-26T07:42:09.973Z</time></trkpt><trkpt lat="45.4366586" lon="8.3827155"><ele>152.0</ele><time>2026-04-26T07:42:11.973Z</time></trkpt><trkpt lat="45.4365873" lon="8.3826089"><ele>152.0</ele><time>2026-04-26T07:42:13.972Z</time></trkpt><trkpt lat="45.4365335" lon="8.3825162"><ele>152.0</ele><time>2026-04-26T07:42:15.977Z</time></trkpt><trkpt lat="45.4364784" lon="8.3824619"><ele>152.0</ele><time>2026-04-26T07:42:17.988Z</time></trkpt><trkpt lat="45.4364032" lon="8.3824395"><ele>152.0</ele><time>2026-04-26T07:42:19.973Z</time></trkpt><trkpt lat="45.436334" lon="8.3824344"><ele>152.0</ele><time>2026-04-26T07:42:21.972Z</time></trkpt><trkpt lat="45.4362401" lon="8.3823993"><ele>152.0</ele><time>2026-04-26T07:42:23.969Z</time></trkpt><trkpt lat="45.4361494" lon="8.3823787"><ele>151.6</ele><time>2026-04-26T07:42:25.978Z</time></trkpt><trkpt lat="45.4360552" lon="8.3823649"><ele>151.2</ele><time>2026-04-26T07:42:27.975Z</time></trkpt><trkpt lat="45.4359562" lon="8.3823479"><ele>150.8</ele><time>2026-04-26T07:42:29.978Z</time></trkpt><trkpt lat="45.4358622" lon="8.3823202"><ele>150.4</ele><time>2026-04-26T07:42:31.973Z</time></trkpt><trkpt lat="45.4357646" lon="8.382258"><ele>150.0</ele><time>2026-04-26T07:42:33.981Z</time></trkpt><trkpt lat="45.4356504" lon="8.3822333"><ele>150.0</ele><time>2026-04-26T07:42:35.973Z</time></trkpt><trkpt lat="45.4355316" lon="8.3822073"><ele>150.0</ele><time>2026-04-26T07:42:37.985Z</time></trkpt><trkpt lat="45.4354146" lon="8.3821783"><ele>150.0</ele><time>2026-04-26T07:42:39.98Z</time></trkpt><trkpt lat="45.4352976" lon="8.3821524"><ele>150.0</ele><time>2026-04-26T07:42:41.978Z</time></trkpt><trkpt lat="45.4351761" lon="8.3821288"><ele>150.5</ele><time>2026-04-26T07:42:43.981Z</time></trkpt><trkpt lat="45.4350538" lon="8.3821089"><ele>151.0</ele><time>2026-04-26T07:42:45.975Z</time></trkpt><trkpt lat="45.4349351" lon="8.3820881"><ele>151.5</ele><time>2026-04-26T07:42:47.971Z</time></trkpt><trkpt lat="45.4348192" lon="8.382063"><ele>152.0</ele><time>2026-04-26T07:42:49.974Z</time></trkpt><trkpt lat="45.4347005" lon="8.3820454"><ele>151.75</ele><time>2026-04-26T07:42:51.979Z</time></trkpt><trkpt lat="45.4345761" lon="8.3820268"><ele>151.5</ele><time>2026-04-26T07:42:53.969Z</time></trkpt><trkpt lat="45.4344535" lon="8.3820106"><ele>151.25</ele><time>2026-04-26T07:42:55.976Z</time></trkpt><trkpt lat="45.4343321" lon="8.3819833"><ele>151.0</ele><time>2026-04-26T07:42:57.972Z</time></trkpt><trkpt lat="45.4342113" lon="8.3819553"><ele>151.0</ele><time>2026-04-26T07:42:59.972Z</time></trkpt><trkpt lat="45.4340875" lon="8.3819332"><ele>151.0</ele><time>2026-04-26T07:43:01.979Z</time></trkpt><trkpt lat="45.4340245" lon="8.3819211"><ele>151.0</ele><time>2026-04-26T07:43:02.979Z</time></trkpt><trkpt lat="45.4339617" lon="8.3819068"><ele>151.0</ele><time>2026-04-26T07:43:03.977Z</time></trkpt><trkpt lat="45.4338394" lon="8.381882"><ele>151.0</ele><time>2026-04-26T07:43:05.974Z</time></trkpt><trkpt lat="45.4337132" lon="8.3818576"><ele>151.00000000000003</ele><time>2026-04-26T07:43:07.977Z</time></trkpt><trkpt lat="45.4336499" lon="8.3818458"><ele>151.0</ele><time>2026-04-26T07:43:08.976Z</time></trkpt><trkpt lat="45.433525" lon="8.3818203"><ele>151.0</ele><time>2026-04-26T07:43:10.979Z</time></trkpt><trkpt lat="45.4334622" lon="8.3818085"><ele>151.0</ele><time>2026-04-26T07:43:11.978Z</time></trkpt><trkpt lat="45.4333986" lon="8.3817937"><ele>151.0</ele><time>2026-04-26T07:43:12.984Z</time></trkpt><trkpt lat="45.4333343" lon="8.3817819"><ele>151.00000000000003</ele><time>2026-04-26T07:43:13.972Z</time></trkpt><trkpt lat="45.4332712" lon="8.3817724"><ele>151.0</ele><time>2026-04-26T07:43:14.979Z</time></trkpt><trkpt lat="45.4332072" lon="8.3817593"><ele>151.00000000000003</ele><time>2026-04-26T07:43:15.98Z</time></trkpt><trkpt lat="45.4331447" lon="8.3817461"><ele>151.0</ele><time>2026-04-26T07:43:16.98Z</time></trkpt><trkpt lat="45.4330795" lon="8.3817337"><ele>151.0</ele><time>2026-04-26T07:43:17.97Z</time></trkpt><trkpt lat="45.4330149" lon="8.381721"><ele>151.0</ele><time>2026-04-26T07:43:18.973Z</time></trkpt><trkpt lat="45.4329503" lon="8.3817081"><ele>151.0</ele><time>2026-04-26T07:43:19.975Z</time></trkpt><trkpt lat="45.4328876" lon="8.3816934"><ele>151.00000000000003</ele><time>2026-04-26T07:43:20.979Z</time></trkpt><trkpt lat="45.4328207" lon="8.3816835"><ele>151.0</ele><time>2026-04-26T07:43:21.971Z</time></trkpt><trkpt lat="45.4327553" lon="8.381671"><ele>151.0</ele><time>2026-04-26T07:43:22.978Z</time></trkpt><trkpt lat="45.4326909" lon="8.3816589"><ele>151.0</ele><time>2026-04-26T07:43:23.974Z</time></trkpt><trkpt lat="45.4326257" lon="8.3816491"><ele>151.0</ele><time>2026-04-26T07:43:24.974Z</time></trkpt><trkpt lat="45.4325628" lon="8.38164"><ele>151.0</ele><time>2026-04-26T07:43:25.973Z</time></trkpt><trkpt lat="45.4324382" lon="8.3816177"><ele>151.0</ele><time>2026-04-26T07:43:27.976Z</time></trkpt><trkpt lat="45.4323742" lon="8.3816089"><ele>151.0</ele><time>2026-04-26T07:43:28.977Z</time></trkpt><trkpt lat="45.4322496" lon="8.3815876"><ele>150.8</ele><time>2026-04-26T07:43:30.978Z</time></trkpt><trkpt lat="45.4321255" lon="8.3815646"><ele>150.6</ele><time>2026-04-26T07:43:32.976Z</time></trkpt><trkpt lat="45.432062" lon="8.3815526"><ele>150.4</ele><time>2026-04-26T07:43:33.974Z</time></trkpt><trkpt lat="45.4319382" lon="8.3815258"><ele>150.2</ele><time>2026-04-26T07:43:35.975Z</time></trkpt><trkpt lat="45.4318145" lon="8.3815032"><ele>150.0</ele><time>2026-04-26T07:43:37.976Z</time></trkpt><trkpt lat="45.4317522" lon="8.3814881"><ele>150.0</ele><time>2026-04-26T07:43:38.974Z</time></trkpt><trkpt lat="45.4316886" lon="8.381475"><ele>150.0</ele><time>2026-04-26T07:43:39.975Z</time></trkpt><trkpt lat="45.431626" lon="8.3814636"><ele>150.0</ele><time>2026-04-26T07:43:40.973Z</time></trkpt><trkpt lat="45.4315018" lon="8.3814385"><ele>150.0</ele><time>2026-04-26T07:43:42.98Z</time></trkpt><trkpt lat="45.4313793" lon="8.3814127"><ele>150.0</ele><time>2026-04-26T07:43:44.979Z</time></trkpt><trkpt lat="45.4312522" lon="8.3813885"><ele>150.16666666666666</ele><time>2026-04-26T07:43:46.979Z</time></trkpt><trkpt lat="45.431188" lon="8.3813763"><ele>150.33333333333334</ele><time>2026-04-26T07:43:47.976Z</time></trkpt><trkpt lat="45.4311233" lon="8.3813635"><ele>150.5</ele><time>2026-04-26T07:43:48.977Z</time></trkpt><trkpt lat="45.4309982" lon="8.3813418"><ele>150.66666666666669</ele><time>2026-04-26T07:43:50.977Z</time></trkpt><trkpt lat="45.4309351" lon="8.3813307"><ele>150.83333333333334</ele><time>2026-04-26T07:43:51.969Z</time></trkpt><trkpt lat="45.4308098" lon="8.3813064"><ele>151.0</ele><time>2026-04-26T07:43:53.975Z</time></trkpt><trkpt lat="45.4307481" lon="8.3812885"><ele>151.0</ele><time>2026-04-26T07:43:54.969Z</time></trkpt><trkpt lat="45.4306839" lon="8.3812754"><ele>151.0</ele><time>2026-04-26T07:43:55.973Z</time></trkpt><trkpt lat="45.4306159" lon="8.3812705"><ele>151.0</ele><time>2026-04-26T07:43:56.975Z</time></trkpt><trkpt lat="45.4305515" lon="8.3812652"><ele>151.0</ele><time>2026-04-26T07:43:57.978Z</time></trkpt><trkpt lat="45.4304282" lon="8.3812341"><ele>151.0</ele><time>2026-04-26T07:43:59.976Z</time></trkpt><trkpt lat="45.4303013" lon="8.3812098"><ele>151.33333333333334</ele><time>2026-04-26T07:44:01.977Z</time></trkpt><trkpt lat="45.4302371" lon="8.3811978"><ele>151.66666666666669</ele><time>2026-04-26T07:44:02.978Z</time></trkpt><trkpt lat="45.4301737" lon="8.381185"><ele>152.0</ele><time>2026-04-26T07:44:03.972Z</time></trkpt><trkpt lat="45.4301104" lon="8.3811742"><ele>152.33333333333334</ele><time>2026-04-26T07:44:04.979Z</time></trkpt><trkpt lat="45.4300462" lon="8.3811626"><ele>152.66666666666666</ele><time>2026-04-26T07:44:05.978Z</time></trkpt><trkpt lat="45.4299238" lon="8.3811346"><ele>153.0</ele><time>2026-04-26T07:44:07.976Z</time></trkpt><trkpt lat="45.4298026" lon="8.3811102"><ele>153.0</ele><time>2026-04-26T07:44:09.974Z</time></trkpt><trkpt lat="45.4296795" lon="8.3810855"><ele>153.0</ele><time>2026-04-26T07:44:11.975Z</time></trkpt><trkpt lat="45.4295622" lon="8.3810618"><ele>153.0</ele><time>2026-04-26T07:44:13.979Z</time></trkpt><trkpt lat="45.4294441" lon="8.3810399"><ele>153.0</ele><time>2026-04-26T07:44:15.979Z</time></trkpt><trkpt lat="45.4293225" lon="8.3810163"><ele>153.0</ele><time>2026-04-26T07:44:17.977Z</time></trkpt><trkpt lat="45.4292013" lon="8.3809914"><ele>153.0</ele><time>2026-04-26T07:44:19.976Z</time></trkpt><trkpt lat="45.4290766" lon="8.3809858"><ele>153.0</ele><time>2026-04-26T07:44:21.979Z</time></trkpt><trkpt lat="45.4290103" lon="8.3809877"><ele>153.0</ele><time>2026-04-26T07:44:22.976Z</time></trkpt><trkpt lat="45.4289408" lon="8.3809848"><ele>153.0</ele><time>2026-04-26T07:44:23.983Z</time></trkpt><trkpt lat="45.4288717" lon="8.3809741"><ele>152.85714285714286</ele><time>2026-04-26T07:44:24.975Z</time></trkpt><trkpt lat="45.4288036" lon="8.3809641"><ele>152.71428571428572</ele><time>2026-04-26T07:44:25.976Z</time></trkpt><trkpt lat="45.4287366" lon="8.3809588"><ele>152.57142857142856</ele><time>2026-04-26T07:44:26.979Z</time></trkpt><trkpt lat="45.4286709" lon="8.3809503"><ele>152.42857142857144</ele><time>2026-04-26T07:44:27.979Z</time></trkpt><trkpt lat="45.4286069" lon="8.3809412"><ele>152.2857142857143</ele><time>2026-04-26T07:44:28.977Z</time></trkpt><trkpt lat="45.4285411" lon="8.3809347"><ele>152.14285714285714</ele><time>2026-04-26T07:44:29.972Z</time></trkpt><trkpt lat="45.4284747" lon="8.3809361"><ele>152.0</ele><time>2026-04-26T07:44:30.973Z</time></trkpt><trkpt lat="45.4284077" lon="8.380928"><ele>152.0</ele><time>2026-04-26T07:44:31.981Z</time></trkpt><trkpt lat="45.4283442" lon="8.3809268"><ele>152.0</ele><time>2026-04-26T07:44:32.972Z</time></trkpt><trkpt lat="45.4282804" lon="8.380939"><ele>152.0</ele><time>2026-04-26T07:44:33.979Z</time></trkpt><trkpt lat="45.4282141" lon="8.380949"><ele>152.0</ele><time>2026-04-26T07:44:34.97Z</time></trkpt><trkpt lat="45.4281486" lon="8.3809562"><ele>152.0</ele><time>2026-04-26T07:44:35.974Z</time></trkpt><trkpt lat="45.4280804" lon="8.3809603"><ele>152.0</ele><time>2026-04-26T07:44:36.977Z</time></trkpt><trkpt lat="45.4280171" lon="8.3809602"><ele>152.0</ele><time>2026-04-26T07:44:37.975Z</time></trkpt><trkpt lat="45.4279537" lon="8.3809682"><ele>152.0</ele><time>2026-04-26T07:44:38.967Z</time></trkpt><trkpt lat="45.4278872" lon="8.380973"><ele>152.0</ele><time>2026-04-26T07:44:39.975Z</time></trkpt><trkpt lat="45.427764" lon="8.3809811"><ele>152.0</ele><time>2026-04-26T07:44:41.986Z</time></trkpt><trkpt lat="45.4276438" lon="8.3809856"><ele>152.0</ele><time>2026-04-26T07:44:43.98Z</time></trkpt><trkpt lat="45.4275224" lon="8.3809978"><ele>152.0</ele><time>2026-04-26T07:44:45.971Z</time></trkpt><trkpt lat="45.427401" lon="8.3810072"><ele>152.0</ele><time>2026-04-26T07:44:47.973Z</time></trkpt><trkpt lat="45.4273375" lon="8.3810098"><ele>152.0</ele><time>2026-04-26T07:44:48.979Z</time></trkpt><trkpt lat="45.427271" lon="8.3810177"><ele>152.0</ele><time>2026-04-26T07:44:49.975Z</time></trkpt><trkpt lat="45.4271453" lon="8.3810288"><ele>152.0</ele><time>2026-04-26T07:44:51.971Z</time></trkpt><trkpt lat="45.4270228" lon="8.3810215"><ele>152.0</ele><time>2026-04-26T07:44:53.975Z</time></trkpt><trkpt lat="45.4268966" lon="8.381022"><ele>152.25</ele><time>2026-04-26T07:44:55.972Z</time></trkpt><trkpt lat="45.4267738" lon="8.3810106"><ele>152.5</ele><time>2026-04-26T07:44:57.969Z</time></trkpt><trkpt lat="45.4266534" lon="8.3809832"><ele>152.75</ele><time>2026-04-26T07:44:59.973Z</time></trkpt><trkpt lat="45.4265316" lon="8.3809644"><ele>153.0</ele><time>2026-04-26T07:45:01.976Z</time></trkpt><trkpt lat="45.4264084" lon="8.3809612"><ele>152.5</ele><time>2026-04-26T07:45:03.971Z</time></trkpt><trkpt lat="45.4262919" lon="8.3809653"><ele>152.0</ele><time>2026-04-26T07:45:05.978Z</time></trkpt><trkpt lat="45.4261708" lon="8.380981"><ele>151.5</ele><time>2026-04-26T07:45:07.969Z</time></trkpt><trkpt lat="45.426051" lon="8.3809959"><ele>151.0</ele><time>2026-04-26T07:45:09.967Z</time></trkpt><trkpt lat="45.4259322" lon="8.3809953"><ele>151.0</ele><time>2026-04-26T07:45:11.967Z</time></trkpt><trkpt lat="45.4258159" lon="8.3809923"><ele>151.0</ele><time>2026-04-26T07:45:13.97Z</time></trkpt><trkpt lat="45.4256952" lon="8.3810013"><ele>151.0</ele><time>2026-04-26T07:45:15.977Z</time></trkpt><trkpt lat="45.4255764" lon="8.3809887"><ele>151.0</ele><time>2026-04-26T07:45:17.975Z</time></trkpt><trkpt lat="45.4254607" lon="8.3809512"><ele>151.0</ele><time>2026-04-26T07:45:19.969Z</time></trkpt><trkpt lat="45.4253433" lon="8.3809192"><ele>151.0</ele><time>2026-04-26T07:45:21.982Z</time></trkpt><trkpt lat="45.4252207" lon="8.38092"><ele>151.0</ele><time>2026-04-26T07:45:23.972Z</time></trkpt><trkpt lat="45.4251572" lon="8.380919"><ele>151.0</ele><time>2026-04-26T07:45:24.979Z</time></trkpt><trkpt lat="45.4250358" lon="8.3809136"><ele>151.0</ele><time>2026-04-26T07:45:26.977Z</time></trkpt><trkpt lat="45.4249119" lon="8.3809332"><ele>151.0</ele><time>2026-04-26T07:45:28.975Z</time></trkpt><trkpt lat="45.4247863" lon="8.3809555"><ele>151.0</ele><time>2026-04-26T07:45:30.975Z</time></trkpt><trkpt lat="45.4247233" lon="8.3809624"><ele>151.0</ele><time>2026-04-26T07:45:31.978Z</time></trkpt><trkpt lat="45.4246091" lon="8.3809758"><ele>151.0</ele><time>2026-04-26T07:45:33.968Z</time></trkpt><trkpt lat="45.4244871" lon="8.3809835"><ele>151.0</ele><time>2026-04-26T07:45:35.981Z</time></trkpt><trkpt lat="45.4243669" lon="8.3809707"><ele>150.6</ele><time>2026-04-26T07:45:37.976Z</time></trkpt><trkpt lat="45.4242541" lon="8.3809555"><ele>150.2</ele><time>2026-04-26T07:45:39.977Z</time></trkpt><trkpt lat="45.4241445" lon="8.380922"><ele>149.8</ele><time>2026-04-26T07:45:41.972Z</time></trkpt><trkpt lat="45.4240458" lon="8.3808937"><ele>149.4</ele><time>2026-04-26T07:45:43.977Z</time></trkpt><trkpt lat="45.4239518" lon="8.3808837"><ele>149.0</ele><time>2026-04-26T07:45:45.974Z</time></trkpt><trkpt lat="45.4238669" lon="8.3808643"><ele>148.6</ele><time>2026-04-26T07:45:47.977Z</time></trkpt><trkpt lat="45.4237732" lon="8.3808277"><ele>148.2</ele><time>2026-04-26T07:45:49.973Z</time></trkpt><trkpt lat="45.4236702" lon="8.3808001"><ele>147.79999999999998</ele><time>2026-04-26T07:45:51.971Z</time></trkpt><trkpt lat="45.4235659" lon="8.380774"><ele>147.4</ele><time>2026-04-26T07:45:53.974Z</time></trkpt><trkpt lat="45.4234596" lon="8.3807482"><ele>147.0</ele><time>2026-04-26T07:45:55.968Z</time></trkpt><trkpt lat="45.4233547" lon="8.3807194"><ele>147.0</ele><time>2026-04-26T07:45:57.965Z</time></trkpt><trkpt lat="45.4232571" lon="8.3806942"><ele>147.0</ele><time>2026-04-26T07:45:59.968Z</time></trkpt><trkpt lat="45.4230743" lon="8.3806516"><ele>147.0</ele><time>2026-04-26T07:46:03.974Z</time></trkpt><trkpt lat="45.4229903" lon="8.3806317"><ele>147.0</ele><time>2026-04-26T07:46:05.979Z</time></trkpt><trkpt lat="45.4229216" lon="8.3806142"><ele>147.0</ele><time>2026-04-26T07:46:07.979Z</time></trkpt><trkpt lat="45.4228326" lon="8.3806037"><ele>147.0</ele><time>2026-04-26T07:46:10.974Z</time></trkpt><trkpt lat="45.4227564" lon="8.3806135"><ele>147.0</ele><time>2026-04-26T07:46:13.974Z</time></trkpt><trkpt lat="45.4228282" lon="8.3806503"><ele>147.0</ele><time>2026-04-26T07:46:18.978Z</time></trkpt><trkpt lat="45.4228965" lon="8.3806496"><ele>147.0</ele><time>2026-04-26T07:46:20.982Z</time></trkpt><trkpt lat="45.4229734" lon="8.3806765"><ele>147.0</ele><time>2026-04-26T07:46:22.978Z</time></trkpt><trkpt lat="45.4230629" lon="8.3807101"><ele>147.0</ele><time>2026-04-26T07:46:24.976Z</time></trkpt><trkpt lat="45.4231645" lon="8.3807386"><ele>147.0</ele><time>2026-04-26T07:46:26.974Z</time></trkpt><trkpt lat="45.4232735" lon="8.3807658"><ele>147.0</ele><time>2026-04-26T07:46:28.974Z</time></trkpt><trkpt lat="45.4233826" lon="8.3807947"><ele>147.0</ele><time>2026-04-26T07:46:30.975Z</time></trkpt><trkpt lat="45.4234912" lon="8.3808227"><ele>147.0</ele><time>2026-04-26T07:46:32.982Z</time></trkpt><trkpt lat="45.4235903" lon="8.3808438"><ele>147.0</ele><time>2026-04-26T07:46:34.979Z</time></trkpt><trkpt lat="45.4236889" lon="8.3808667"><ele>147.0</ele><time>2026-04-26T07:46:36.974Z</time></trkpt><trkpt lat="45.4237884" lon="8.3808847"><ele>147.0</ele><time>2026-04-26T07:46:38.972Z</time></trkpt><trkpt lat="45.4238782" lon="8.3809075"><ele>147.0</ele><time>2026-04-26T07:46:40.977Z</time></trkpt><trkpt lat="45.4239653" lon="8.3809259"><ele>147.0</ele><time>2026-04-26T07:46:42.971Z</time></trkpt><trkpt lat="45.4240328" lon="8.3808454"><ele>147.0</ele><time>2026-04-26T07:46:44.966Z</time></trkpt><trkpt lat="45.4240136" lon="8.3807226"><ele>147.16666666666666</ele><time>2026-04-26T07:46:46.972Z</time></trkpt><trkpt lat="45.4239587" lon="8.3806402"><ele>147.33333333333334</ele><time>2026-04-26T07:46:48.972Z</time></trkpt><trkpt lat="45.4239166" lon="8.3805429"><ele>147.5</ele><time>2026-04-26T07:46:50.972Z</time></trkpt><trkpt lat="45.4238729" lon="8.380435"><ele>147.66666666666669</ele><time>2026-04-26T07:46:52.97Z</time></trkpt><trkpt lat="45.4238263" lon="8.3803321"><ele>147.83333333333334</ele><time>2026-04-26T07:46:54.977Z</time></trkpt><trkpt lat="45.423774" lon="8.3802106"><ele>148.0</ele><time>2026-04-26T07:46:56.967Z</time></trkpt><trkpt lat="45.4237235" lon="8.3800935"><ele>148.20000000000002</ele><time>2026-04-26T07:46:58.978Z</time></trkpt><trkpt lat="45.4236812" lon="8.3799714"><ele>148.4</ele><time>2026-04-26T07:47:00.974Z</time></trkpt><trkpt lat="45.4236487" lon="8.3798405"><ele>148.60000000000002</ele><time>2026-04-26T07:47:02.973Z</time></trkpt><trkpt lat="45.4236067" lon="8.3797079"><ele>148.8</ele><time>2026-04-26T07:47:04.973Z</time></trkpt><trkpt lat="45.4235762" lon="8.379566"><ele>149.0</ele><time>2026-04-26T07:47:06.973Z</time></trkpt><trkpt lat="45.4235456" lon="8.3794257"><ele>149.0</ele><time>2026-04-26T07:47:08.977Z</time></trkpt><trkpt lat="45.423516" lon="8.3792823"><ele>149.0</ele><time>2026-04-26T07:47:10.978Z</time></trkpt><trkpt lat="45.4234825" lon="8.379143"><ele>149.0</ele><time>2026-04-26T07:47:12.978Z</time></trkpt><trkpt lat="45.4234454" lon="8.379017"><ele>149.0</ele><time>2026-04-26T07:47:14.984Z</time></trkpt><trkpt lat="45.4234209" lon="8.3788825"><ele>149.0</ele><time>2026-04-26T07:47:16.977Z</time></trkpt><trkpt lat="45.4233992" lon="8.3787395"><ele>149.0</ele><time>2026-04-26T07:47:18.981Z</time></trkpt><trkpt lat="45.4233623" lon="8.3786113"><ele>149.0</ele><time>2026-04-26T07:47:20.974Z</time></trkpt><trkpt lat="45.4233344" lon="8.3784736"><ele>149.0</ele><time>2026-04-26T07:47:22.976Z</time></trkpt><trkpt lat="45.4233087" lon="8.3783423"><ele>149.0</ele><time>2026-04-26T07:47:24.977Z</time></trkpt><trkpt lat="45.4232828" lon="8.3782125"><ele>149.0</ele><time>2026-04-26T07:47:26.982Z</time></trkpt><trkpt lat="45.423259" lon="8.3781005"><ele>148.66666666666666</ele><time>2026-04-26T07:47:28.969Z</time></trkpt><trkpt lat="45.42324" lon="8.3779977"><ele>148.33333333333331</ele><time>2026-04-26T07:47:30.975Z</time></trkpt><trkpt lat="45.4232251" lon="8.3778807"><ele>148.0</ele><time>2026-04-26T07:47:33.973Z</time></trkpt><trkpt lat="45.4232066" lon="8.3777589"><ele>147.66666666666666</ele><time>2026-04-26T07:47:37.969Z</time></trkpt><trkpt lat="45.4231919" lon="8.3776666"><ele>147.33333333333334</ele><time>2026-04-26T07:47:39.974Z</time></trkpt><trkpt lat="45.4231642" lon="8.3775591"><ele>147.0</ele><time>2026-04-26T07:47:41.971Z</time></trkpt><trkpt lat="45.4231363" lon="8.3774092"><ele>147.0</ele><time>2026-04-26T07:47:43.968Z</time></trkpt><trkpt lat="45.4231036" lon="8.3772616"><ele>147.0</ele><time>2026-04-26T07:47:45.968Z</time></trkpt><trkpt lat="45.4230741" lon="8.3771198"><ele>147.0</ele><time>2026-04-26T07:47:47.975Z</time></trkpt><trkpt lat="45.4230405" lon="8.3769791"><ele>147.0</ele><time>2026-04-26T07:47:49.969Z</time></trkpt><trkpt lat="45.4230167" lon="8.3768224"><ele>147.0</ele><time>2026-04-26T07:47:51.972Z</time></trkpt><trkpt lat="45.423015" lon="8.3766655"><ele>147.0</ele><time>2026-04-26T07:47:53.978Z</time></trkpt><trkpt lat="45.4230346" lon="8.3764952"><ele>147.0</ele><time>2026-04-26T07:47:55.969Z</time></trkpt><trkpt lat="45.4230659" lon="8.3763349"><ele>147.0</ele><time>2026-04-26T07:47:57.968Z</time></trkpt><trkpt lat="45.4231075" lon="8.3761879"><ele>147.0</ele><time>2026-04-26T07:47:59.971Z</time></trkpt><trkpt lat="45.4231496" lon="8.3760396"><ele>147.0</ele><time>2026-04-26T07:48:01.975Z</time></trkpt><trkpt lat="45.4231907" lon="8.3758908"><ele>147.0</ele><time>2026-04-26T07:48:03.977Z</time></trkpt><trkpt lat="45.4232271" lon="8.3757427"><ele>147.0</ele><time>2026-04-26T07:48:05.975Z</time></trkpt><trkpt lat="45.4232684" lon="8.3755966"><ele>147.0</ele><time>2026-04-26T07:48:07.972Z</time></trkpt><trkpt lat="45.4233044" lon="8.3754536"><ele>147.0</ele><time>2026-04-26T07:48:09.968Z</time></trkpt><trkpt lat="45.4233377" lon="8.3753031"><ele>147.0</ele><time>2026-04-26T07:48:11.977Z</time></trkpt><trkpt lat="45.4233641" lon="8.3751516"><ele>147.0</ele><time>2026-04-26T07:48:13.97Z</time></trkpt><trkpt lat="45.4233871" lon="8.3750016"><ele>147.0</ele><time>2026-04-26T07:48:15.971Z</time></trkpt><trkpt lat="45.4234051" lon="8.3748468"><ele>147.0</ele><time>2026-04-26T07:48:17.968Z</time></trkpt><trkpt lat="45.4234203" lon="8.3746945"><ele>147.0</ele><time>2026-04-26T07:48:19.976Z</time></trkpt><trkpt lat="45.4234361" lon="8.3745478"><ele>147.0</ele><time>2026-04-26T07:48:21.976Z</time></trkpt><trkpt lat="45.4234535" lon="8.3744063"><ele>147.0</ele><time>2026-04-26T07:48:23.98Z</time></trkpt><trkpt lat="45.4234741" lon="8.3742646"><ele>147.0</ele><time>2026-04-26T07:48:25.973Z</time></trkpt><trkpt lat="45.423499" lon="8.3741231"><ele>147.0</ele><time>2026-04-26T07:48:27.977Z</time></trkpt><trkpt lat="45.4235241" lon="8.3739784"><ele>147.0</ele><time>2026-04-26T07:48:29.983Z</time></trkpt><trkpt lat="45.4235514" lon="8.3738318"><ele>147.0</ele><time>2026-04-26T07:48:31.978Z</time></trkpt><trkpt lat="45.4235782" lon="8.373681"><ele>147.0</ele><time>2026-04-26T07:48:33.976Z</time></trkpt><trkpt lat="45.4236017" lon="8.3735255"><ele>147.0</ele><time>2026-04-26T07:48:35.971Z</time></trkpt><trkpt lat="45.423622" lon="8.3733785"><ele>147.0</ele><time>2026-04-26T07:48:37.978Z</time></trkpt><trkpt lat="45.4236406" lon="8.3732304"><ele>147.0</ele><time>2026-04-26T07:48:39.972Z</time></trkpt><trkpt lat="45.4236574" lon="8.3730842"><ele>147.0</ele><time>2026-04-26T07:48:41.975Z</time></trkpt><trkpt lat="45.4236692" lon="8.3729397"><ele>147.0</ele><time>2026-04-26T07:48:43.979Z</time></trkpt><trkpt lat="45.4236763" lon="8.3727938"><ele>147.0</ele><time>2026-04-26T07:48:45.978Z</time></trkpt><trkpt lat="45.4236862" lon="8.3726463"><ele>147.0</ele><time>2026-04-26T07:48:47.976Z</time></trkpt><trkpt lat="45.4236689" lon="8.3724967"><ele>147.0</ele><time>2026-04-26T07:48:49.973Z</time></trkpt><trkpt lat="45.4236458" lon="8.3723472"><ele>147.0</ele><time>2026-04-26T07:48:51.98Z</time></trkpt><trkpt lat="45.4236183" lon="8.3721987"><ele>147.0</ele><time>2026-04-26T07:48:53.975Z</time></trkpt><trkpt lat="45.4235912" lon="8.3720492"><ele>147.0</ele><time>2026-04-26T07:48:55.975Z</time></trkpt><trkpt lat="45.4235596" lon="8.3719031"><ele>147.0</ele><time>2026-04-26T07:48:57.973Z</time></trkpt><trkpt lat="45.4235277" lon="8.3717559"><ele>147.0</ele><time>2026-04-26T07:48:59.971Z</time></trkpt><trkpt lat="45.4234923" lon="8.371617"><ele>147.0</ele><time>2026-04-26T07:49:01.99Z</time></trkpt><trkpt lat="45.4234527" lon="8.3714794"><ele>147.0</ele><time>2026-04-26T07:49:03.978Z</time></trkpt><trkpt lat="45.4234071" lon="8.371349"><ele>147.0</ele><time>2026-04-26T07:49:05.978Z</time></trkpt><trkpt lat="45.4233577" lon="8.3712195"><ele>147.0</ele><time>2026-04-26T07:49:07.974Z</time></trkpt><trkpt lat="45.4233101" lon="8.3710883"><ele>147.0</ele><time>2026-04-26T07:49:09.973Z</time></trkpt><trkpt lat="45.4232636" lon="8.3709544"><ele>147.0</ele><time>2026-04-26T07:49:11.967Z</time></trkpt><trkpt lat="45.423222" lon="8.3708122"><ele>147.0</ele><time>2026-04-26T07:49:13.971Z</time></trkpt><trkpt lat="45.4231884" lon="8.3706651"><ele>147.0</ele><time>2026-04-26T07:49:15.974Z</time></trkpt><trkpt lat="45.4231436" lon="8.3705304"><ele>147.0</ele><time>2026-04-26T07:49:17.973Z</time></trkpt><trkpt lat="45.4231185" lon="8.3703888"><ele>147.0</ele><time>2026-04-26T07:49:19.977Z</time></trkpt><trkpt lat="45.4231036" lon="8.3702446"><ele>147.0</ele><time>2026-04-26T07:49:21.975Z</time></trkpt><trkpt lat="45.4230895" lon="8.3700979"><ele>147.0</ele><time>2026-04-26T07:49:23.971Z</time></trkpt><trkpt lat="45.4230739" lon="8.3699502"><ele>147.0</ele><time>2026-04-26T07:49:25.969Z</time></trkpt><trkpt lat="45.4230616" lon="8.369798"><ele>147.0</ele><time>2026-04-26T07:49:27.979Z</time></trkpt><trkpt lat="45.423045" lon="8.3696392"><ele>147.0</ele><time>2026-04-26T07:49:29.973Z</time></trkpt><trkpt lat="45.4230314" lon="8.3694876"><ele>146.79999999999998</ele><time>2026-04-26T07:49:31.973Z</time></trkpt><trkpt lat="45.423015" lon="8.3693382"><ele>146.6</ele><time>2026-04-26T07:49:33.969Z</time></trkpt><trkpt lat="45.4229909" lon="8.3691907"><ele>146.39999999999998</ele><time>2026-04-26T07:49:35.976Z</time></trkpt><trkpt lat="45.4229661" lon="8.3690404"><ele>146.2</ele><time>2026-04-26T07:49:37.974Z</time></trkpt><trkpt lat="45.4229461" lon="8.3688854"><ele>146.0</ele><time>2026-04-26T07:49:39.978Z</time></trkpt><trkpt lat="45.4229311" lon="8.368735"><ele>146.4</ele><time>2026-04-26T07:49:41.972Z</time></trkpt><trkpt lat="45.4229165" lon="8.3685848"><ele>146.8</ele><time>2026-04-26T07:49:43.973Z</time></trkpt><trkpt lat="45.4229008" lon="8.3684316"><ele>147.20000000000002</ele><time>2026-04-26T07:49:45.969Z</time></trkpt><trkpt lat="45.4228815" lon="8.3682758"><ele>147.6</ele><time>2026-04-26T07:49:47.974Z</time></trkpt><trkpt lat="45.4228662" lon="8.3681211"><ele>148.0</ele><time>2026-04-26T07:49:49.979Z</time></trkpt><trkpt lat="45.4228511" lon="8.367965"><ele>148.0</ele><time>2026-04-26T07:49:51.979Z</time></trkpt><trkpt lat="45.4228373" lon="8.3678077"><ele>148.0</ele><time>2026-04-26T07:49:53.971Z</time></trkpt><trkpt lat="45.4228266" lon="8.367656"><ele>148.0</ele><time>2026-04-26T07:49:55.979Z</time></trkpt><trkpt lat="45.4228135" lon="8.3675051"><ele>148.0</ele><time>2026-04-26T07:49:57.976Z</time></trkpt><trkpt lat="45.4227976" lon="8.3673561"><ele>148.0</ele><time>2026-04-26T07:49:59.972Z</time></trkpt><trkpt lat="45.4227877" lon="8.3672035"><ele>148.0</ele><time>2026-04-26T07:50:01.97Z</time></trkpt><trkpt lat="45.4227772" lon="8.3670519"><ele>148.0</ele><time>2026-04-26T07:50:03.976Z</time></trkpt><trkpt lat="45.422768" lon="8.366907"><ele>148.0</ele><time>2026-04-26T07:50:05.976Z</time></trkpt><trkpt lat="45.4227608" lon="8.3667595"><ele>148.0</ele><time>2026-04-26T07:50:07.973Z</time></trkpt><trkpt lat="45.4227446" lon="8.366609"><ele>148.0</ele><time>2026-04-26T07:50:09.973Z</time></trkpt><trkpt lat="45.4227336" lon="8.3664583"><ele>148.0</ele><time>2026-04-26T07:50:11.969Z</time></trkpt><trkpt lat="45.422717" lon="8.3663144"><ele>148.0</ele><time>2026-04-26T07:50:13.968Z</time></trkpt><trkpt lat="45.4227041" lon="8.3661714"><ele>148.0</ele><time>2026-04-26T07:50:15.967Z</time></trkpt><trkpt lat="45.4226944" lon="8.3660251"><ele>148.0</ele><time>2026-04-26T07:50:17.976Z</time></trkpt><trkpt lat="45.4226822" lon="8.3658831"><ele>148.0</ele><time>2026-04-26T07:50:19.974Z</time></trkpt><trkpt lat="45.4226744" lon="8.3657426"><ele>148.0</ele><time>2026-04-26T07:50:21.975Z</time></trkpt><trkpt lat="45.4226643" lon="8.3656227"><ele>148.0</ele><time>2026-04-26T07:50:23.968Z</time></trkpt><trkpt lat="45.4226172" lon="8.3655103"><ele>148.0</ele><time>2026-04-26T07:50:25.976Z</time></trkpt><trkpt lat="45.4225244" lon="8.3654382"><ele>148.0</ele><time>2026-04-26T07:50:27.976Z</time></trkpt><trkpt lat="45.4224275" lon="8.3653882"><ele>148.0</ele><time>2026-04-26T07:50:29.982Z</time></trkpt><trkpt lat="45.4223239" lon="8.3653324"><ele>147.75</ele><time>2026-04-26T07:50:31.967Z</time></trkpt><trkpt lat="45.4222188" lon="8.3652652"><ele>147.5</ele><time>2026-04-26T07:50:33.976Z</time></trkpt><trkpt lat="45.4221145" lon="8.3651944"><ele>147.25</ele><time>2026-04-26T07:50:35.967Z</time></trkpt><trkpt lat="45.4220177" lon="8.3650989"><ele>147.0</ele><time>2026-04-26T07:50:37.97Z</time></trkpt><trkpt lat="45.4219427" lon="8.3649731"><ele>147.0</ele><time>2026-04-26T07:50:39.971Z</time></trkpt><trkpt lat="45.4219058" lon="8.3648255"><ele>147.0</ele><time>2026-04-26T07:50:41.974Z</time></trkpt><trkpt lat="45.421841" lon="8.3647048"><ele>147.0</ele><time>2026-04-26T07:50:43.97Z</time></trkpt><trkpt lat="45.4217508" lon="8.3646137"><ele>147.0</ele><time>2026-04-26T07:50:45.973Z</time></trkpt><trkpt lat="45.4216598" lon="8.3645389"><ele>147.0</ele><time>2026-04-26T07:50:47.978Z</time></trkpt><trkpt lat="45.4215723" lon="8.364468"><ele>147.0</ele><time>2026-04-26T07:50:49.969Z</time></trkpt><trkpt lat="45.4214807" lon="8.3643969"><ele>147.0</ele><time>2026-04-26T07:50:51.971Z</time></trkpt><trkpt lat="45.42139" lon="8.3643237"><ele>147.0</ele><time>2026-04-26T07:50:53.971Z</time></trkpt><trkpt lat="45.4213054" lon="8.3642352"><ele>147.0</ele><time>2026-04-26T07:50:55.981Z</time></trkpt><trkpt lat="45.4212619" lon="8.3641084"><ele>147.0</ele><time>2026-04-26T07:50:57.977Z</time></trkpt><trkpt lat="45.4212584" lon="8.3639687"><ele>147.0</ele><time>2026-04-26T07:50:59.977Z</time></trkpt><trkpt lat="45.4212788" lon="8.363836"><ele>147.0</ele><time>2026-04-26T07:51:01.972Z</time></trkpt><trkpt lat="45.4213075" lon="8.3636997"><ele>147.0</ele><time>2026-04-26T07:51:03.974Z</time></trkpt><trkpt lat="45.4213367" lon="8.3635668"><ele>147.0</ele><time>2026-04-26T07:51:05.972Z</time></trkpt><trkpt lat="45.4213688" lon="8.3634238"><ele>147.0</ele><time>2026-04-26T07:51:07.99Z</time></trkpt><trkpt lat="45.421404" lon="8.3632847"><ele>147.0</ele><time>2026-04-26T07:51:09.979Z</time></trkpt><trkpt lat="45.4214338" lon="8.3631522"><ele>147.0</ele><time>2026-04-26T07:51:11.977Z</time></trkpt><trkpt lat="45.4214637" lon="8.363014"><ele>147.0</ele><time>2026-04-26T07:51:13.976Z</time></trkpt><trkpt lat="45.4214991" lon="8.3628676"><ele>147.0</ele><time>2026-04-26T07:51:15.976Z</time></trkpt><trkpt lat="45.4215325" lon="8.3627237"><ele>147.0</ele><time>2026-04-26T07:51:17.984Z</time></trkpt><trkpt lat="45.4215676" lon="8.3625796"><ele>147.0</ele><time>2026-04-26T07:51:19.978Z</time></trkpt><trkpt lat="45.421597" lon="8.3624416"><ele>147.0</ele><time>2026-04-26T07:51:21.965Z</time></trkpt><trkpt lat="45.4216326" lon="8.3623085"><ele>147.0</ele><time>2026-04-26T07:51:23.974Z</time></trkpt><trkpt lat="45.4216634" lon="8.3621752"><ele>147.0</ele><time>2026-04-26T07:51:25.971Z</time></trkpt><trkpt lat="45.421695" lon="8.362032"><ele>147.0</ele><time>2026-04-26T07:51:27.975Z</time></trkpt><trkpt lat="45.4217002" lon="8.3618793"><ele>147.0</ele><time>2026-04-26T07:51:29.97Z</time></trkpt><trkpt lat="45.4216303" lon="8.3617581"><ele>147.0</ele><time>2026-04-26T07:51:31.969Z</time></trkpt><trkpt lat="45.4215282" lon="8.3617257"><ele>147.0</ele><time>2026-04-26T07:51:33.976Z</time></trkpt><trkpt lat="45.4214236" lon="8.3617139"><ele>147.0</ele><time>2026-04-26T07:51:35.974Z</time></trkpt><trkpt lat="45.4213189" lon="8.3617019"><ele>147.0</ele><time>2026-04-26T07:51:37.978Z</time></trkpt><trkpt lat="45.4212098" lon="8.3616895"><ele>147.0</ele><time>2026-04-26T07:51:39.974Z</time></trkpt><trkpt lat="45.4211007" lon="8.3616826"><ele>147.0</ele><time>2026-04-26T07:51:41.968Z</time></trkpt><trkpt lat="45.4209917" lon="8.361672"><ele>147.0</ele><time>2026-04-26T07:51:43.971Z</time></trkpt><trkpt lat="45.4208806" lon="8.3616638"><ele>147.0</ele><time>2026-04-26T07:51:45.972Z</time></trkpt><trkpt lat="45.4207666" lon="8.3616588"><ele>147.0</ele><time>2026-04-26T07:51:47.971Z</time></trkpt><trkpt lat="45.4206521" lon="8.3616484"><ele>147.0</ele><time>2026-04-26T07:51:49.969Z</time></trkpt><trkpt lat="45.4205377" lon="8.3616341"><ele>147.0</ele><time>2026-04-26T07:51:51.977Z</time></trkpt><trkpt lat="45.4204229" lon="8.3616118"><ele>147.0</ele><time>2026-04-26T07:51:53.969Z</time></trkpt><trkpt lat="45.4203065" lon="8.3615879"><ele>147.0</ele><time>2026-04-26T07:51:55.973Z</time></trkpt><trkpt lat="45.4201894" lon="8.3615646"><ele>146.75</ele><time>2026-04-26T07:51:57.98Z</time></trkpt><trkpt lat="45.420072" lon="8.3615444"><ele>146.5</ele><time>2026-04-26T07:51:59.973Z</time></trkpt><trkpt lat="45.4199532" lon="8.3615188"><ele>146.25</ele><time>2026-04-26T07:52:01.975Z</time></trkpt><trkpt lat="45.4198398" lon="8.361488"><ele>146.0</ele><time>2026-04-26T07:52:03.983Z</time></trkpt><trkpt lat="45.4197268" lon="8.3614579"><ele>146.0</ele><time>2026-04-26T07:52:05.974Z</time></trkpt><trkpt lat="45.4196148" lon="8.3614205"><ele>146.0</ele><time>2026-04-26T07:52:07.969Z</time></trkpt><trkpt lat="45.4195088" lon="8.3613638"><ele>146.0</ele><time>2026-04-26T07:52:09.979Z</time></trkpt><trkpt lat="45.4194218" lon="8.3612792"><ele>146.0</ele><time>2026-04-26T07:52:11.968Z</time></trkpt><trkpt lat="45.4193501" lon="8.3611623"><ele>146.0</ele><time>2026-04-26T07:52:13.971Z</time></trkpt><trkpt lat="45.4192851" lon="8.3610307"><ele>146.0</ele><time>2026-04-26T07:52:15.966Z</time></trkpt><trkpt lat="45.419221" lon="8.3608944"><ele>146.0</ele><time>2026-04-26T07:52:17.971Z</time></trkpt><trkpt lat="45.4191595" lon="8.3607596"><ele>146.0</ele><time>2026-04-26T07:52:19.967Z</time></trkpt><trkpt lat="45.4191005" lon="8.3606136"><ele>146.0</ele><time>2026-04-26T07:52:21.966Z</time></trkpt><trkpt lat="45.4190323" lon="8.3604897"><ele>146.0</ele><time>2026-04-26T07:52:23.976Z</time></trkpt><trkpt lat="45.4189366" lon="8.3603932"><ele>146.0</ele><time>2026-04-26T07:52:25.982Z</time></trkpt><trkpt lat="45.4188362" lon="8.3603137"><ele>146.0</ele><time>2026-04-26T07:52:27.967Z</time></trkpt><trkpt lat="45.4187313" lon="8.3602545"><ele>146.0</ele><time>2026-04-26T07:52:29.978Z</time></trkpt><trkpt lat="45.4186241" lon="8.3602179"><ele>145.75</ele><time>2026-04-26T07:52:31.978Z</time></trkpt><trkpt lat="45.4185126" lon="8.360171"><ele>145.5</ele><time>2026-04-26T07:52:33.971Z</time></trkpt><trkpt lat="45.4184094" lon="8.3601099"><ele>145.25</ele><time>2026-04-26T07:52:35.974Z</time></trkpt><trkpt lat="45.4183045" lon="8.3600489"><ele>145.0</ele><time>2026-04-26T07:52:37.965Z</time></trkpt><trkpt lat="45.4182003" lon="8.3599762"><ele>145.0</ele><time>2026-04-26T07:52:39.967Z</time></trkpt><trkpt lat="45.4180943" lon="8.3599083"><ele>145.0</ele><time>2026-04-26T07:52:41.977Z</time></trkpt><trkpt lat="45.4179884" lon="8.3598297"><ele>145.0</ele><time>2026-04-26T07:52:43.974Z</time></trkpt><trkpt lat="45.4178817" lon="8.359755"><ele>145.0</ele><time>2026-04-26T07:52:45.977Z</time></trkpt><trkpt lat="45.4178244" lon="8.3597152"><ele>145.0</ele><time>2026-04-26T07:52:46.971Z</time></trkpt><trkpt lat="45.4177149" lon="8.3596445"><ele>145.0</ele><time>2026-04-26T07:52:48.972Z</time></trkpt><trkpt lat="45.4176008" lon="8.3595836"><ele>145.0</ele><time>2026-04-26T07:52:50.976Z</time></trkpt><trkpt lat="45.4174828" lon="8.3595217"><ele>145.0</ele><time>2026-04-26T07:52:52.973Z</time></trkpt><trkpt lat="45.4174229" lon="8.3594857"><ele>145.0</ele><time>2026-04-26T07:52:53.976Z</time></trkpt><trkpt lat="45.4173612" lon="8.3594456"><ele>145.0</ele><time>2026-04-26T07:52:54.972Z</time></trkpt><trkpt lat="45.4173021" lon="8.3594051"><ele>145.0</ele><time>2026-04-26T07:52:55.976Z</time></trkpt><trkpt lat="45.4172425" lon="8.3593705"><ele>145.0</ele><time>2026-04-26T07:52:56.974Z</time></trkpt><trkpt lat="45.4171813" lon="8.359337"><ele>145.0</ele><time>2026-04-26T07:52:57.978Z</time></trkpt><trkpt lat="45.4170674" lon="8.359267"><ele>145.0</ele><time>2026-04-26T07:52:59.978Z</time></trkpt><trkpt lat="45.4169537" lon="8.3591934"><ele>145.0</ele><time>2026-04-26T07:53:01.971Z</time></trkpt><trkpt lat="45.416896" lon="8.3591525"><ele>145.0</ele><time>2026-04-26T07:53:02.971Z</time></trkpt><trkpt lat="45.4167837" lon="8.3590772"><ele>145.0</ele><time>2026-04-26T07:53:04.976Z</time></trkpt><trkpt lat="45.4167235" lon="8.3590406"><ele>145.0</ele><time>2026-04-26T07:53:05.975Z</time></trkpt><trkpt lat="45.4166642" lon="8.3590048"><ele>145.0</ele><time>2026-04-26T07:53:06.972Z</time></trkpt><trkpt lat="45.4166053" lon="8.3589699"><ele>145.0</ele><time>2026-04-26T07:53:07.978Z</time></trkpt><trkpt lat="45.4164936" lon="8.3588997"><ele>145.0</ele><time>2026-04-26T07:53:09.98Z</time></trkpt><trkpt lat="45.4163844" lon="8.358824"><ele>145.0</ele><time>2026-04-26T07:53:11.981Z</time></trkpt><trkpt lat="45.4163258" lon="8.3587887"><ele>144.75</ele><time>2026-04-26T07:53:12.97Z</time></trkpt><trkpt lat="45.4162145" lon="8.3587188"><ele>144.5</ele><time>2026-04-26T07:53:14.98Z</time></trkpt><trkpt lat="45.4161026" lon="8.3586418"><ele>144.25</ele><time>2026-04-26T07:53:16.976Z</time></trkpt><trkpt lat="45.4159925" lon="8.3585751"><ele>144.0</ele><time>2026-04-26T07:53:18.979Z</time></trkpt><trkpt lat="45.4158845" lon="8.3585059"><ele>144.0</ele><time>2026-04-26T07:53:20.974Z</time></trkpt><trkpt lat="45.4157778" lon="8.3584395"><ele>144.0</ele><time>2026-04-26T07:53:22.978Z</time></trkpt><trkpt lat="45.41567" lon="8.358373"><ele>144.0</ele><time>2026-04-26T07:53:24.971Z</time></trkpt><trkpt lat="45.4155606" lon="8.3583038"><ele>144.0</ele><time>2026-04-26T07:53:26.968Z</time></trkpt><trkpt lat="45.4154518" lon="8.3582372"><ele>143.8</ele><time>2026-04-26T07:53:28.968Z</time></trkpt><trkpt lat="45.4153468" lon="8.3581769"><ele>143.60000000000002</ele><time>2026-04-26T07:53:30.977Z</time></trkpt><trkpt lat="45.4152461" lon="8.3581349"><ele>143.4</ele><time>2026-04-26T07:53:32.978Z</time></trkpt><trkpt lat="45.415158" lon="8.3581924"><ele>143.20000000000002</ele><time>2026-04-26T07:53:34.974Z</time></trkpt><trkpt lat="45.4151175" lon="8.3583135"><ele>143.0</ele><time>2026-04-26T07:53:36.974Z</time></trkpt><trkpt lat="45.4150747" lon="8.3584476"><ele>143.0</ele><time>2026-04-26T07:53:38.972Z</time></trkpt><trkpt lat="45.4150272" lon="8.3585969"><ele>143.0</ele><time>2026-04-26T07:53:40.975Z</time></trkpt><trkpt lat="45.4149797" lon="8.3587432"><ele>143.0</ele><time>2026-04-26T07:53:42.97Z</time></trkpt><trkpt lat="45.4149327" lon="8.3588884"><ele>143.0</ele><time>2026-04-26T07:53:44.973Z</time></trkpt><trkpt lat="45.4148806" lon="8.3590361"><ele>143.25</ele><time>2026-04-26T07:53:46.973Z</time></trkpt><trkpt lat="45.4148276" lon="8.3591927"><ele>143.5</ele><time>2026-04-26T07:53:48.975Z</time></trkpt><trkpt lat="45.4147781" lon="8.3593436"><ele>143.75</ele><time>2026-04-26T07:53:50.973Z</time></trkpt><trkpt lat="45.4147284" lon="8.3594906"><ele>144.0</ele><time>2026-04-26T07:53:52.97Z</time></trkpt><trkpt lat="45.4146776" lon="8.3596365"><ele>143.8</ele><time>2026-04-26T07:53:54.972Z</time></trkpt><trkpt lat="45.4146285" lon="8.3597778"><ele>143.60000000000002</ele><time>2026-04-26T07:53:56.971Z</time></trkpt><trkpt lat="45.4145808" lon="8.3599102"><ele>143.4</ele><time>2026-04-26T07:53:58.974Z</time></trkpt><trkpt lat="45.4145305" lon="8.3600467"><ele>143.20000000000002</ele><time>2026-04-26T07:54:00.981Z</time></trkpt><trkpt lat="45.414477" lon="8.3601905"><ele>143.0</ele><time>2026-04-26T07:54:02.974Z</time></trkpt><trkpt lat="45.4144221" lon="8.3603272"><ele>143.0</ele><time>2026-04-26T07:54:04.976Z</time></trkpt><trkpt lat="45.4143668" lon="8.3604669"><ele>143.0</ele><time>2026-04-26T07:54:06.984Z</time></trkpt><trkpt lat="45.4143144" lon="8.3606041"><ele>143.0</ele><time>2026-04-26T07:54:08.972Z</time></trkpt><trkpt lat="45.4142714" lon="8.3607423"><ele>143.0</ele><time>2026-04-26T07:54:10.972Z</time></trkpt><trkpt lat="45.4142452" lon="8.3608937"><ele>143.0</ele><time>2026-04-26T07:54:12.977Z</time></trkpt><trkpt lat="45.4142222" lon="8.3610451"><ele>143.0</ele><time>2026-04-26T07:54:14.971Z</time></trkpt><trkpt lat="45.4141995" lon="8.3611807"><ele>143.0</ele><time>2026-04-26T07:54:16.974Z</time></trkpt><trkpt lat="45.4141686" lon="8.3613124"><ele>143.0</ele><time>2026-04-26T07:54:18.977Z</time></trkpt><trkpt lat="45.4141247" lon="8.3614628"><ele>143.0</ele><time>2026-04-26T07:54:20.971Z</time></trkpt><trkpt lat="45.4140742" lon="8.3616114"><ele>143.0</ele><time>2026-04-26T07:54:22.975Z</time></trkpt><trkpt lat="45.4140193" lon="8.3617558"><ele>143.0</ele><time>2026-04-26T07:54:24.974Z</time></trkpt><trkpt lat="45.4139667" lon="8.3618987"><ele>143.0</ele><time>2026-04-26T07:54:26.98Z</time></trkpt><trkpt lat="45.4139135" lon="8.3620361"><ele>143.0</ele><time>2026-04-26T07:54:28.97Z</time></trkpt><trkpt lat="45.4138613" lon="8.3621726"><ele>143.0</ele><time>2026-04-26T07:54:30.971Z</time></trkpt><trkpt lat="45.4138084" lon="8.3623109"><ele>143.0</ele><time>2026-04-26T07:54:32.972Z</time></trkpt><trkpt lat="45.4137604" lon="8.3624446"><ele>143.0</ele><time>2026-04-26T07:54:34.972Z</time></trkpt><trkpt lat="45.4137194" lon="8.3625854"><ele>143.0</ele><time>2026-04-26T07:54:36.967Z</time></trkpt><trkpt lat="45.4136763" lon="8.3627207"><ele>143.0</ele><time>2026-04-26T07:54:38.976Z</time></trkpt><trkpt lat="45.4136364" lon="8.3628596"><ele>143.0</ele><time>2026-04-26T07:54:40.976Z</time></trkpt><trkpt lat="45.413592" lon="8.3629959"><ele>143.0</ele><time>2026-04-26T07:54:42.967Z</time></trkpt><trkpt lat="45.4135466" lon="8.3631368"><ele>143.0</ele><time>2026-04-26T07:54:44.97Z</time></trkpt><trkpt lat="45.4134977" lon="8.3632819"><ele>143.0</ele><time>2026-04-26T07:54:46.967Z</time></trkpt><trkpt lat="45.4134498" lon="8.3634262"><ele>143.0</ele><time>2026-04-26T07:54:48.972Z</time></trkpt><trkpt lat="45.4133972" lon="8.3635756"><ele>143.0</ele><time>2026-04-26T07:54:50.968Z</time></trkpt><trkpt lat="45.4133473" lon="8.3637226"><ele>143.25</ele><time>2026-04-26T07:54:52.971Z</time></trkpt><trkpt lat="45.4132998" lon="8.3638762"><ele>143.5</ele><time>2026-04-26T07:54:54.976Z</time></trkpt><trkpt lat="45.4132513" lon="8.3640305"><ele>143.75</ele><time>2026-04-26T07:54:56.974Z</time></trkpt><trkpt lat="45.4131998" lon="8.3641848"><ele>144.0</ele><time>2026-04-26T07:54:58.974Z</time></trkpt><trkpt lat="45.4131484" lon="8.3643396"><ele>144.0</ele><time>2026-04-26T07:55:00.969Z</time></trkpt><trkpt lat="45.4131001" lon="8.3644948"><ele>144.0</ele><time>2026-04-26T07:55:02.975Z</time></trkpt><trkpt lat="45.413045" lon="8.3646485"><ele>144.0</ele><time>2026-04-26T07:55:04.976Z</time></trkpt><trkpt lat="45.4129942" lon="8.3648007"><ele>144.0</ele><time>2026-04-26T07:55:06.976Z</time></trkpt><trkpt lat="45.4129437" lon="8.3649474"><ele>144.0</ele><time>2026-04-26T07:55:08.974Z</time></trkpt><trkpt lat="45.4128988" lon="8.3651005"><ele>144.0</ele><time>2026-04-26T07:55:10.975Z</time></trkpt><trkpt lat="45.4128357" lon="8.3652281"><ele>144.0</ele><time>2026-04-26T07:55:12.971Z</time></trkpt><trkpt lat="45.4127858" lon="8.3653605"><ele>144.0</ele><time>2026-04-26T07:55:14.971Z</time></trkpt><trkpt lat="45.4127333" lon="8.3654882"><ele>144.0</ele><time>2026-04-26T07:55:16.965Z</time></trkpt><trkpt lat="45.41268" lon="8.365619"><ele>144.0</ele><time>2026-04-26T07:55:18.978Z</time></trkpt><trkpt lat="45.4126204" lon="8.3657432"><ele>144.0</ele><time>2026-04-26T07:55:20.968Z</time></trkpt><trkpt lat="45.4125668" lon="8.3658728"><ele>144.0</ele><time>2026-04-26T07:55:22.97Z</time></trkpt><trkpt lat="45.4125083" lon="8.3659952"><ele>144.0</ele><time>2026-04-26T07:55:24.977Z</time></trkpt><trkpt lat="45.4124515" lon="8.3661205"><ele>144.0</ele><time>2026-04-26T07:55:26.978Z</time></trkpt><trkpt lat="45.4123976" lon="8.3662509"><ele>143.8</ele><time>2026-04-26T07:55:28.976Z</time></trkpt><trkpt lat="45.4123513" lon="8.3663742"><ele>143.60000000000002</ele><time>2026-04-26T07:55:30.974Z</time></trkpt><trkpt lat="45.4123036" lon="8.3665029"><ele>143.4</ele><time>2026-04-26T07:55:32.977Z</time></trkpt><trkpt lat="45.4122735" lon="8.3666399"><ele>143.20000000000002</ele><time>2026-04-26T07:55:34.974Z</time></trkpt><trkpt lat="45.4122552" lon="8.3667772"><ele>143.0</ele><time>2026-04-26T07:55:36.972Z</time></trkpt><trkpt lat="45.4122348" lon="8.3669109"><ele>143.0</ele><time>2026-04-26T07:55:38.972Z</time></trkpt><trkpt lat="45.4122205" lon="8.3670551"><ele>143.0</ele><time>2026-04-26T07:55:40.976Z</time></trkpt><trkpt lat="45.4121909" lon="8.3671947"><ele>143.0</ele><time>2026-04-26T07:55:42.974Z</time></trkpt><trkpt lat="45.4121587" lon="8.3673423"><ele>143.0</ele><time>2026-04-26T07:55:44.974Z</time></trkpt><trkpt lat="45.4121229" lon="8.3674879"><ele>143.0</ele><time>2026-04-26T07:55:46.975Z</time></trkpt><trkpt lat="45.4120889" lon="8.3676339"><ele>143.0</ele><time>2026-04-26T07:55:48.972Z</time></trkpt><trkpt lat="45.412056" lon="8.3677752"><ele>143.0</ele><time>2026-04-26T07:55:50.973Z</time></trkpt><trkpt lat="45.4120185" lon="8.3679099"><ele>143.0</ele><time>2026-04-26T07:55:52.969Z</time></trkpt><trkpt lat="45.4119832" lon="8.3680482"><ele>143.0</ele><time>2026-04-26T07:55:54.982Z</time></trkpt><trkpt lat="45.4119551" lon="8.3681831"><ele>143.0</ele><time>2026-04-26T07:55:56.977Z</time></trkpt><trkpt lat="45.4119224" lon="8.3683179"><ele>143.0</ele><time>2026-04-26T07:55:58.973Z</time></trkpt><trkpt lat="45.4118917" lon="8.3684562"><ele>143.0</ele><time>2026-04-26T07:56:00.975Z</time></trkpt><trkpt lat="45.4118611" lon="8.3685884"><ele>143.0</ele><time>2026-04-26T07:56:02.976Z</time></trkpt><trkpt lat="45.4118243" lon="8.3687201"><ele>143.0</ele><time>2026-04-26T07:56:04.977Z</time></trkpt><trkpt lat="45.4117896" lon="8.3688591"><ele>143.0</ele><time>2026-04-26T07:56:06.974Z</time></trkpt><trkpt lat="45.4117556" lon="8.3689924"><ele>143.0</ele><time>2026-04-26T07:56:08.967Z</time></trkpt><trkpt lat="45.4117228" lon="8.3691271"><ele>143.0</ele><time>2026-04-26T07:56:10.978Z</time></trkpt><trkpt lat="45.4117033" lon="8.3692568"><ele>143.0</ele><time>2026-04-26T07:56:12.971Z</time></trkpt><trkpt lat="45.4116674" lon="8.3693717"><ele>143.0</ele><time>2026-04-26T07:56:14.974Z</time></trkpt><trkpt lat="45.4116178" lon="8.3694482"><ele>143.0</ele><time>2026-04-26T07:56:16.978Z</time></trkpt></trkseg><trkseg><trkpt lat="45.4115095" lon="8.3694817"><ele>143.0</ele><time>2026-04-26T08:12:30.972Z</time></trkpt><trkpt lat="45.4114348" lon="8.3694534"><ele>143.0</ele><time>2026-04-26T08:12:33.969Z</time></trkpt><trkpt lat="45.4113678" lon="8.3694427"><ele>143.0</ele><time>2026-04-26T08:12:35.968Z</time></trkpt><trkpt lat="45.4112978" lon="8.3694839"><ele>143.0</ele><time>2026-04-26T08:12:37.899Z</time></trkpt><trkpt lat="45.411258" lon="8.3696075"><ele>143.0</ele><time>2026-04-26T08:12:39.966Z</time></trkpt><trkpt lat="45.4112472" lon="8.3697281"><ele>143.0</ele><time>2026-04-26T08:12:41.974Z</time></trkpt><trkpt lat="45.4112308" lon="8.3698477"><ele>143.20000000000002</ele><time>2026-04-26T08:12:43.968Z</time></trkpt><trkpt lat="45.4111956" lon="8.3699671"><ele>143.4</ele><time>2026-04-26T08:12:45.974Z</time></trkpt><trkpt lat="45.4111577" lon="8.370088"><ele>143.60000000000002</ele><time>2026-04-26T08:12:47.983Z</time></trkpt><trkpt lat="45.4111267" lon="8.3702161"><ele>143.8</ele><time>2026-04-26T08:12:49.969Z</time></trkpt><trkpt lat="45.4110951" lon="8.3703427"><ele>144.0</ele><time>2026-04-26T08:12:51.978Z</time></trkpt><trkpt lat="45.4110653" lon="8.3704775"><ele>143.8</ele><time>2026-04-26T08:12:53.981Z</time></trkpt><trkpt lat="45.4110357" lon="8.3706075"><ele>143.60000000000002</ele><time>2026-04-26T08:12:55.977Z</time></trkpt><trkpt lat="45.4110064" lon="8.3707439"><ele>143.4</ele><time>2026-04-26T08:12:57.976Z</time></trkpt><trkpt lat="45.4109782" lon="8.3708816"><ele>143.20000000000002</ele><time>2026-04-26T08:12:59.973Z</time></trkpt><trkpt lat="45.4109443" lon="8.3710185"><ele>143.0</ele><time>2026-04-26T08:13:01.98Z</time></trkpt><trkpt lat="45.4108964" lon="8.3711546"><ele>143.0</ele><time>2026-04-26T08:13:03.983Z</time></trkpt><trkpt lat="45.4108421" lon="8.3712825"><ele>143.0</ele><time>2026-04-26T08:13:05.975Z</time></trkpt><trkpt lat="45.4107762" lon="8.3714085"><ele>143.0</ele><time>2026-04-26T08:13:07.987Z</time></trkpt><trkpt lat="45.4107058" lon="8.3715196"><ele>143.0</ele><time>2026-04-26T08:13:09.981Z</time></trkpt><trkpt lat="45.4106309" lon="8.371634"><ele>143.0</ele><time>2026-04-26T08:13:11.976Z</time></trkpt><trkpt lat="45.4105498" lon="8.3717411"><ele>142.8</ele><time>2026-04-26T08:13:13.98Z</time></trkpt><trkpt lat="45.4104697" lon="8.3718462"><ele>142.60000000000002</ele><time>2026-04-26T08:13:15.981Z</time></trkpt><trkpt lat="45.4103856" lon="8.3719472"><ele>142.39999999999998</ele><time>2026-04-26T08:13:17.973Z</time></trkpt><trkpt lat="45.410308" lon="8.3720547"><ele>142.2</ele><time>2026-04-26T08:13:19.969Z</time></trkpt><trkpt lat="45.4102254" lon="8.3721581"><ele>142.0</ele><time>2026-04-26T08:13:21.98Z</time></trkpt><trkpt lat="45.4101494" lon="8.3722694"><ele>142.0</ele><time>2026-04-26T08:13:23.968Z</time></trkpt><trkpt lat="45.4100817" lon="8.3723994"><ele>142.0</ele><time>2026-04-26T08:13:25.975Z</time></trkpt><trkpt lat="45.4100148" lon="8.3725237"><ele>142.0</ele><time>2026-04-26T08:13:27.972Z</time></trkpt><trkpt lat="45.4099508" lon="8.3726471"><ele>142.0</ele><time>2026-04-26T08:13:29.969Z</time></trkpt><trkpt lat="45.4098914" lon="8.3727779"><ele>142.0</ele><time>2026-04-26T08:13:31.976Z</time></trkpt><trkpt lat="45.4098264" lon="8.372896"><ele>142.0</ele><time>2026-04-26T08:13:33.97Z</time></trkpt><trkpt lat="45.4097587" lon="8.3730023"><ele>142.0</ele><time>2026-04-26T08:13:35.973Z</time></trkpt><trkpt lat="45.4096842" lon="8.3731082"><ele>142.0</ele><time>2026-04-26T08:13:37.967Z</time></trkpt><trkpt lat="45.4096032" lon="8.3732052"><ele>142.0</ele><time>2026-04-26T08:13:39.973Z</time></trkpt><trkpt lat="45.4095155" lon="8.373302"><ele>142.0</ele><time>2026-04-26T08:13:41.968Z</time></trkpt><trkpt lat="45.4094279" lon="8.3733783"><ele>142.0</ele><time>2026-04-26T08:13:43.966Z</time></trkpt><trkpt lat="45.4093414" lon="8.3734683"><ele>142.0</ele><time>2026-04-26T08:13:45.968Z</time></trkpt><trkpt lat="45.4092522" lon="8.3735653"><ele>142.0</ele><time>2026-04-26T08:13:47.969Z</time></trkpt><trkpt lat="45.4091624" lon="8.3736648"><ele>142.0</ele><time>2026-04-26T08:13:49.973Z</time></trkpt><trkpt lat="45.4090763" lon="8.373764"><ele>142.0</ele><time>2026-04-26T08:13:51.973Z</time></trkpt><trkpt lat="45.4090032" lon="8.3738679"><ele>142.0</ele><time>2026-04-26T08:13:53.98Z</time></trkpt><trkpt lat="45.4089254" lon="8.3739731"><ele>142.0</ele><time>2026-04-26T08:13:55.971Z</time></trkpt><trkpt lat="45.4088529" lon="8.3740769"><ele>142.0</ele><time>2026-04-26T08:13:57.976Z</time></trkpt><trkpt lat="45.4087812" lon="8.3741904"><ele>142.0</ele><time>2026-04-26T08:13:59.972Z</time></trkpt><trkpt lat="45.4087206" lon="8.3743112"><ele>142.0</ele><time>2026-04-26T08:14:01.972Z</time></trkpt><trkpt lat="45.4086651" lon="8.3744368"><ele>142.0</ele><time>2026-04-26T08:14:03.966Z</time></trkpt><trkpt lat="45.4086094" lon="8.3745696"><ele>142.0</ele><time>2026-04-26T08:14:05.975Z</time></trkpt><trkpt lat="45.4085632" lon="8.3747084"><ele>142.0</ele><time>2026-04-26T08:14:07.968Z</time></trkpt><trkpt lat="45.4085235" lon="8.3748507"><ele>142.0</ele><time>2026-04-26T08:14:09.968Z</time></trkpt><trkpt lat="45.4084884" lon="8.3749922"><ele>142.0</ele><time>2026-04-26T08:14:11.976Z</time></trkpt><trkpt lat="45.4084658" lon="8.3751338"><ele>142.0</ele><time>2026-04-26T08:14:13.974Z</time></trkpt><trkpt lat="45.4084366" lon="8.3752712"><ele>142.0</ele><time>2026-04-26T08:14:15.964Z</time></trkpt><trkpt lat="45.4084021" lon="8.3754125"><ele>142.0</ele><time>2026-04-26T08:14:17.972Z</time></trkpt><trkpt lat="45.4083724" lon="8.3755542"><ele>142.0</ele><time>2026-04-26T08:14:19.97Z</time></trkpt><trkpt lat="45.4083442" lon="8.3756978"><ele>142.0</ele><time>2026-04-26T08:14:21.97Z</time></trkpt><trkpt lat="45.4083118" lon="8.3758386"><ele>142.0</ele><time>2026-04-26T08:14:23.981Z</time></trkpt><trkpt lat="45.408279" lon="8.3759752"><ele>142.0</ele><time>2026-04-26T08:14:25.971Z</time></trkpt><trkpt lat="45.4082405" lon="8.3761142"><ele>142.0</ele><time>2026-04-26T08:14:27.979Z</time></trkpt><trkpt lat="45.4082037" lon="8.3762453"><ele>142.0</ele><time>2026-04-26T08:14:29.98Z</time></trkpt><trkpt lat="45.408162" lon="8.3763738"><ele>142.0</ele><time>2026-04-26T08:14:31.977Z</time></trkpt><trkpt lat="45.4081304" lon="8.3765074"><ele>141.83333333333334</ele><time>2026-04-26T08:14:33.97Z</time></trkpt><trkpt lat="45.4080992" lon="8.376645"><ele>141.66666666666669</ele><time>2026-04-26T08:14:35.977Z</time></trkpt><trkpt lat="45.4080721" lon="8.376769"><ele>141.5</ele><time>2026-04-26T08:14:37.973Z</time></trkpt><trkpt lat="45.4080579" lon="8.376883"><ele>141.33333333333334</ele><time>2026-04-26T08:14:39.968Z</time></trkpt><trkpt lat="45.4080406" lon="8.3769871"><ele>141.16666666666666</ele><time>2026-04-26T08:14:41.976Z</time></trkpt><trkpt lat="45.4079897" lon="8.3770429"><ele>141.0</ele><time>2026-04-26T08:14:43.971Z</time></trkpt><trkpt lat="45.4078831" lon="8.3770395"><ele>141.0</ele><time>2026-04-26T08:14:46.975Z</time></trkpt><trkpt lat="45.4077774" lon="8.3770704"><ele>141.0</ele><time>2026-04-26T08:14:48.974Z</time></trkpt><trkpt lat="45.4076748" lon="8.3770984"><ele>141.0</ele><time>2026-04-26T08:14:50.971Z</time></trkpt><trkpt lat="45.4075687" lon="8.3771186"><ele>141.0</ele><time>2026-04-26T08:14:52.982Z</time></trkpt><trkpt lat="45.4074623" lon="8.377145"><ele>141.0</ele><time>2026-04-26T08:14:54.976Z</time></trkpt><trkpt lat="45.4073564" lon="8.3771814"><ele>141.0</ele><time>2026-04-26T08:14:56.966Z</time></trkpt><trkpt lat="45.4072462" lon="8.3772279"><ele>141.0</ele><time>2026-04-26T08:14:58.967Z</time></trkpt><trkpt lat="45.4071268" lon="8.3772743"><ele>141.0</ele><time>2026-04-26T08:15:00.967Z</time></trkpt><trkpt lat="45.4070085" lon="8.37733"><ele>141.0</ele><time>2026-04-26T08:15:02.973Z</time></trkpt><trkpt lat="45.4068894" lon="8.3773841"><ele>141.0</ele><time>2026-04-26T08:15:04.967Z</time></trkpt><trkpt lat="45.4068267" lon="8.3774095"><ele>141.0</ele><time>2026-04-26T08:15:05.967Z</time></trkpt><trkpt lat="45.406764" lon="8.377436"><ele>141.0</ele><time>2026-04-26T08:15:06.972Z</time></trkpt><trkpt lat="45.406644" lon="8.3774899"><ele>141.0</ele><time>2026-04-26T08:15:08.974Z</time></trkpt><trkpt lat="45.4065828" lon="8.3775176"><ele>141.0</ele><time>2026-04-26T08:15:09.972Z</time></trkpt><trkpt lat="45.4065228" lon="8.3775475"><ele>141.0</ele><time>2026-04-26T08:15:10.972Z</time></trkpt><trkpt lat="45.4064618" lon="8.3775756"><ele>141.0</ele><time>2026-04-26T08:15:11.976Z</time></trkpt><trkpt lat="45.4063454" lon="8.3776297"><ele>141.2</ele><time>2026-04-26T08:15:13.968Z</time></trkpt><trkpt lat="45.4062287" lon="8.3776841"><ele>141.39999999999998</ele><time>2026-04-26T08:15:15.975Z</time></trkpt><trkpt lat="45.4061132" lon="8.3777349"><ele>141.6</ele><time>2026-04-26T08:15:17.968Z</time></trkpt><trkpt lat="45.405995" lon="8.3777875"><ele>141.79999999999998</ele><time>2026-04-26T08:15:19.969Z</time></trkpt><trkpt lat="45.4059345" lon="8.3778159"><ele>142.0</ele><time>2026-04-26T08:15:20.978Z</time></trkpt><trkpt lat="45.4058189" lon="8.3778713"><ele>142.0</ele><time>2026-04-26T08:15:22.976Z</time></trkpt><trkpt lat="45.4057026" lon="8.377921"><ele>142.0</ele><time>2026-04-26T08:15:24.976Z</time></trkpt><trkpt lat="45.4055868" lon="8.3779752"><ele>142.0</ele><time>2026-04-26T08:15:26.969Z</time></trkpt><trkpt lat="45.405476" lon="8.3780287"><ele>142.0</ele><time>2026-04-26T08:15:28.975Z</time></trkpt><trkpt lat="45.4053608" lon="8.3780837"><ele>141.25</ele><time>2026-04-26T08:15:30.969Z</time></trkpt><trkpt lat="45.4052461" lon="8.3781339"><ele>140.5</ele><time>2026-04-26T08:15:32.97Z</time></trkpt><trkpt lat="45.4051375" lon="8.3781864"><ele>139.75</ele><time>2026-04-26T08:15:34.968Z</time></trkpt><trkpt lat="45.4050252" lon="8.3782287"><ele>139.0</ele><time>2026-04-26T08:15:36.969Z</time></trkpt><trkpt lat="45.4049153" lon="8.3782767"><ele>139.0</ele><time>2026-04-26T08:15:38.973Z</time></trkpt><trkpt lat="45.4048069" lon="8.3783293"><ele>139.0</ele><time>2026-04-26T08:15:40.976Z</time></trkpt><trkpt lat="45.4046972" lon="8.3783788"><ele>139.0</ele><time>2026-04-26T08:15:42.974Z</time></trkpt><trkpt lat="45.4045846" lon="8.3784313"><ele>139.0</ele><time>2026-04-26T08:15:44.966Z</time></trkpt><trkpt lat="45.4044716" lon="8.3784774"><ele>139.5</ele><time>2026-04-26T08:15:46.971Z</time></trkpt><trkpt lat="45.4043599" lon="8.3785197"><ele>140.0</ele><time>2026-04-26T08:15:48.975Z</time></trkpt><trkpt lat="45.4042477" lon="8.3785587"><ele>140.5</ele><time>2026-04-26T08:15:50.97Z</time></trkpt><trkpt lat="45.4041308" lon="8.3786026"><ele>141.0</ele><time>2026-04-26T08:15:52.971Z</time></trkpt><trkpt lat="45.4040099" lon="8.3786308"><ele>141.0</ele><time>2026-04-26T08:15:54.968Z</time></trkpt><trkpt lat="45.4038891" lon="8.3786518"><ele>141.0</ele><time>2026-04-26T08:15:56.967Z</time></trkpt><trkpt lat="45.403762" lon="8.3786691"><ele>141.0</ele><time>2026-04-26T08:15:58.969Z</time></trkpt><trkpt lat="45.4036968" lon="8.3786742"><ele>141.0</ele><time>2026-04-26T08:15:59.968Z</time></trkpt><trkpt lat="45.4036327" lon="8.3786816"><ele>141.0</ele><time>2026-04-26T08:16:00.966Z</time></trkpt><trkpt lat="45.4035682" lon="8.3786896"><ele>141.0</ele><time>2026-04-26T08:16:01.974Z</time></trkpt><trkpt lat="45.4035034" lon="8.3786961"><ele>141.14285714285714</ele><time>2026-04-26T08:16:02.975Z</time></trkpt><trkpt lat="45.4034388" lon="8.3787037"><ele>141.28571428571428</ele><time>2026-04-26T08:16:03.971Z</time></trkpt><trkpt lat="45.4033728" lon="8.3787119"><ele>141.42857142857142</ele><time>2026-04-26T08:16:04.979Z</time></trkpt><trkpt lat="45.4033071" lon="8.3787229"><ele>141.57142857142856</ele><time>2026-04-26T08:16:05.971Z</time></trkpt><trkpt lat="45.4032419" lon="8.3787269"><ele>141.7142857142857</ele><time>2026-04-26T08:16:06.978Z</time></trkpt><trkpt lat="45.4031768" lon="8.3787303"><ele>141.85714285714286</ele><time>2026-04-26T08:16:07.981Z</time></trkpt><trkpt lat="45.4031124" lon="8.3787335"><ele>142.0</ele><time>2026-04-26T08:16:08.974Z</time></trkpt><trkpt lat="45.4030472" lon="8.3787394"><ele>141.83333333333334</ele><time>2026-04-26T08:16:09.968Z</time></trkpt><trkpt lat="45.40298" lon="8.3787465"><ele>141.66666666666669</ele><time>2026-04-26T08:16:10.972Z</time></trkpt><trkpt lat="45.4029161" lon="8.3787492"><ele>141.5</ele><time>2026-04-26T08:16:11.972Z</time></trkpt><trkpt lat="45.4028521" lon="8.3787541"><ele>141.33333333333334</ele><time>2026-04-26T08:16:12.976Z</time></trkpt><trkpt lat="45.4027298" lon="8.378763"><ele>141.16666666666666</ele><time>2026-04-26T08:16:14.967Z</time></trkpt><trkpt lat="45.4026652" lon="8.3787614"><ele>141.0</ele><time>2026-04-26T08:16:15.967Z</time></trkpt><trkpt lat="45.4025416" lon="8.3787722"><ele>141.0</ele><time>2026-04-26T08:16:17.978Z</time></trkpt><trkpt lat="45.4024183" lon="8.3787782"><ele>141.0</ele><time>2026-04-26T08:16:19.967Z</time></trkpt><trkpt lat="45.4022934" lon="8.3787885"><ele>141.0</ele><time>2026-04-26T08:16:21.979Z</time></trkpt><trkpt lat="45.4021709" lon="8.3788006"><ele>141.0</ele><time>2026-04-26T08:16:23.972Z</time></trkpt><trkpt lat="45.4020457" lon="8.3788069"><ele>140.83333333333334</ele><time>2026-04-26T08:16:25.973Z</time></trkpt><trkpt lat="45.4019818" lon="8.3788118"><ele>140.66666666666666</ele><time>2026-04-26T08:16:26.969Z</time></trkpt><trkpt lat="45.4019166" lon="8.3788146"><ele>140.5</ele><time>2026-04-26T08:16:27.977Z</time></trkpt><trkpt lat="45.4018537" lon="8.3788186"><ele>140.33333333333331</ele><time>2026-04-26T08:16:28.975Z</time></trkpt><trkpt lat="45.4017908" lon="8.3788253"><ele>140.16666666666666</ele><time>2026-04-26T08:16:29.97Z</time></trkpt><trkpt lat="45.4016686" lon="8.3788302"><ele>140.0</ele><time>2026-04-26T08:16:31.966Z</time></trkpt><trkpt lat="45.4015468" lon="8.3788438"><ele>140.0</ele><time>2026-04-26T08:16:33.972Z</time></trkpt><trkpt lat="45.4014226" lon="8.378859"><ele>140.0</ele><time>2026-04-26T08:16:35.973Z</time></trkpt><trkpt lat="45.4013023" lon="8.3788644"><ele>140.0</ele><time>2026-04-26T08:16:37.967Z</time></trkpt><trkpt lat="45.4011825" lon="8.3788737"><ele>140.0</ele><time>2026-04-26T08:16:39.968Z</time></trkpt><trkpt lat="45.4010608" lon="8.3788837"><ele>140.0</ele><time>2026-04-26T08:16:41.98Z</time></trkpt><trkpt lat="45.4009418" lon="8.3788845"><ele>140.0</ele><time>2026-04-26T08:16:43.972Z</time></trkpt><trkpt lat="45.4008261" lon="8.3788914"><ele>140.0</ele><time>2026-04-26T08:16:45.974Z</time></trkpt><trkpt lat="45.4007105" lon="8.3788999"><ele>140.0</ele><time>2026-04-26T08:16:47.975Z</time></trkpt><trkpt lat="45.4005973" lon="8.3789165"><ele>139.25</ele><time>2026-04-26T08:16:49.973Z</time></trkpt><trkpt lat="45.4004812" lon="8.378929"><ele>138.5</ele><time>2026-04-26T08:16:51.975Z</time></trkpt><trkpt lat="45.4003627" lon="8.3789379"><ele>137.75</ele><time>2026-04-26T08:16:53.975Z</time></trkpt><trkpt lat="45.4002447" lon="8.378944"><ele>137.0</ele><time>2026-04-26T08:16:55.976Z</time></trkpt><trkpt lat="45.4001242" lon="8.378948"><ele>137.0</ele><time>2026-04-26T08:16:57.974Z</time></trkpt><trkpt lat="45.400003" lon="8.3789594"><ele>137.0</ele><time>2026-04-26T08:16:59.978Z</time></trkpt><trkpt lat="45.3998802" lon="8.3789703"><ele>137.0</ele><time>2026-04-26T08:17:01.974Z</time></trkpt><trkpt lat="45.3997614" lon="8.3789792"><ele>137.0</ele><time>2026-04-26T08:17:03.972Z</time></trkpt><trkpt lat="45.3996465" lon="8.3789888"><ele>137.0</ele><time>2026-04-26T08:17:05.975Z</time></trkpt><trkpt lat="45.3995324" lon="8.3789977"><ele>137.0</ele><time>2026-04-26T08:17:07.979Z</time></trkpt><trkpt lat="45.3994161" lon="8.3790026"><ele>137.0</ele><time>2026-04-26T08:17:09.983Z</time></trkpt><trkpt lat="45.3993014" lon="8.3790117"><ele>137.0</ele><time>2026-04-26T08:17:11.967Z</time></trkpt><trkpt lat="45.3991875" lon="8.3790189"><ele>137.0</ele><time>2026-04-26T08:17:13.965Z</time></trkpt><trkpt lat="45.3990731" lon="8.3790243"><ele>137.0</ele><time>2026-04-26T08:17:15.976Z</time></trkpt><trkpt lat="45.3989616" lon="8.379032"><ele>137.0</ele><time>2026-04-26T08:17:17.97Z</time></trkpt><trkpt lat="45.3988489" lon="8.3790393"><ele>137.0</ele><time>2026-04-26T08:17:19.966Z</time></trkpt><trkpt lat="45.3987377" lon="8.3790483"><ele>137.25</ele><time>2026-04-26T08:17:21.977Z</time></trkpt><trkpt lat="45.3986267" lon="8.3790579"><ele>137.5</ele><time>2026-04-26T08:17:23.971Z</time></trkpt><trkpt lat="45.398516" lon="8.3790673"><ele>137.75</ele><time>2026-04-26T08:17:25.972Z</time></trkpt><trkpt lat="45.3984031" lon="8.3790748"><ele>138.0</ele><time>2026-04-26T08:17:27.971Z</time></trkpt><trkpt lat="45.3982881" lon="8.3790834"><ele>138.0</ele><time>2026-04-26T08:17:29.973Z</time></trkpt><trkpt lat="45.398176" lon="8.3790942"><ele>138.0</ele><time>2026-04-26T08:17:31.972Z</time></trkpt><trkpt lat="45.3980637" lon="8.3791034"><ele>138.0</ele><time>2026-04-26T08:17:33.972Z</time></trkpt><trkpt lat="45.3979499" lon="8.3791153"><ele>138.0</ele><time>2026-04-26T08:17:35.972Z</time></trkpt><trkpt lat="45.3978381" lon="8.3791261"><ele>138.0</ele><time>2026-04-26T08:17:37.967Z</time></trkpt><trkpt lat="45.3977218" lon="8.3791377"><ele>138.0</ele><time>2026-04-26T08:17:39.974Z</time></trkpt><trkpt lat="45.397605" lon="8.3791439"><ele>138.0</ele><time>2026-04-26T08:17:41.971Z</time></trkpt><trkpt lat="45.3974932" lon="8.3791504"><ele>138.0</ele><time>2026-04-26T08:17:43.972Z</time></trkpt><trkpt lat="45.3973827" lon="8.3791584"><ele>138.0</ele><time>2026-04-26T08:17:45.973Z</time></trkpt><trkpt lat="45.3972689" lon="8.3791683"><ele>138.0</ele><time>2026-04-26T08:17:47.972Z</time></trkpt><trkpt lat="45.3971578" lon="8.3791694"><ele>138.0</ele><time>2026-04-26T08:17:49.969Z</time></trkpt><trkpt lat="45.3970485" lon="8.3791812"><ele>138.0</ele><time>2026-04-26T08:17:51.966Z</time></trkpt><trkpt lat="45.3969359" lon="8.3791909"><ele>138.0</ele><time>2026-04-26T08:17:53.967Z</time></trkpt><trkpt lat="45.3968204" lon="8.3792017"><ele>138.0</ele><time>2026-04-26T08:17:55.97Z</time></trkpt><trkpt lat="45.3967053" lon="8.3792091"><ele>138.0</ele><time>2026-04-26T08:17:57.967Z</time></trkpt><trkpt lat="45.3965899" lon="8.3792171"><ele>138.0</ele><time>2026-04-26T08:17:59.967Z</time></trkpt><trkpt lat="45.3964778" lon="8.3792242"><ele>138.0</ele><time>2026-04-26T08:18:01.968Z</time></trkpt><trkpt lat="45.3963645" lon="8.3792313"><ele>137.8</ele><time>2026-04-26T08:18:03.967Z</time></trkpt><trkpt lat="45.3962495" lon="8.3792369"><ele>137.60000000000002</ele><time>2026-04-26T08:18:05.981Z</time></trkpt><trkpt lat="45.396143" lon="8.3792469"><ele>137.39999999999998</ele><time>2026-04-26T08:18:07.97Z</time></trkpt><trkpt lat="45.3960356" lon="8.3792542"><ele>137.2</ele><time>2026-04-26T08:18:09.97Z</time></trkpt><trkpt lat="45.3959237" lon="8.3792645"><ele>137.0</ele><time>2026-04-26T08:18:11.964Z</time></trkpt><trkpt lat="45.3958128" lon="8.3792769"><ele>137.0</ele><time>2026-04-26T08:18:13.971Z</time></trkpt><trkpt lat="45.3956995" lon="8.3792881"><ele>137.0</ele><time>2026-04-26T08:18:15.967Z</time></trkpt><trkpt lat="45.3955846" lon="8.3792978"><ele>137.0</ele><time>2026-04-26T08:18:17.969Z</time></trkpt><trkpt lat="45.3954725" lon="8.3793071"><ele>137.0</ele><time>2026-04-26T08:18:19.973Z</time></trkpt><trkpt lat="45.3953552" lon="8.3793182"><ele>137.25</ele><time>2026-04-26T08:18:21.972Z</time></trkpt><trkpt lat="45.3952313" lon="8.3793252"><ele>137.5</ele><time>2026-04-26T08:18:23.969Z</time></trkpt><trkpt lat="45.3951117" lon="8.3793328"><ele>137.75</ele><time>2026-04-26T08:18:25.977Z</time></trkpt><trkpt lat="45.3949862" lon="8.3793457"><ele>138.0</ele><time>2026-04-26T08:18:27.965Z</time></trkpt><trkpt lat="45.3948658" lon="8.3793456"><ele>138.0</ele><time>2026-04-26T08:18:29.973Z</time></trkpt><trkpt lat="45.394747" lon="8.3793505"><ele>138.0</ele><time>2026-04-26T08:18:31.972Z</time></trkpt><trkpt lat="45.3946266" lon="8.3793559"><ele>138.0</ele><time>2026-04-26T08:18:33.969Z</time></trkpt><trkpt lat="45.3945073" lon="8.3793658"><ele>138.0</ele><time>2026-04-26T08:18:35.976Z</time></trkpt><trkpt lat="45.3943911" lon="8.3793635"><ele>137.75</ele><time>2026-04-26T08:18:37.966Z</time></trkpt><trkpt lat="45.3942722" lon="8.379362"><ele>137.5</ele><time>2026-04-26T08:18:39.971Z</time></trkpt><trkpt lat="45.3941542" lon="8.3793572"><ele>137.25</ele><time>2026-04-26T08:18:41.97Z</time></trkpt><trkpt lat="45.3940348" lon="8.379348"><ele>137.0</ele><time>2026-04-26T08:18:43.973Z</time></trkpt><trkpt lat="45.3939186" lon="8.3793286"><ele>137.25</ele><time>2026-04-26T08:18:45.973Z</time></trkpt><trkpt lat="45.3938049" lon="8.3793075"><ele>137.5</ele><time>2026-04-26T08:18:47.973Z</time></trkpt><trkpt lat="45.393694" lon="8.3792852"><ele>137.75</ele><time>2026-04-26T08:18:49.971Z</time></trkpt><trkpt lat="45.3935831" lon="8.3792564"><ele>138.0</ele><time>2026-04-26T08:18:51.976Z</time></trkpt><trkpt lat="45.3934735" lon="8.3792232"><ele>138.0</ele><time>2026-04-26T08:18:53.967Z</time></trkpt><trkpt lat="45.3933677" lon="8.3791901"><ele>138.0</ele><time>2026-04-26T08:18:55.972Z</time></trkpt><trkpt lat="45.3932602" lon="8.3791511"><ele>138.0</ele><time>2026-04-26T08:18:57.968Z</time></trkpt><trkpt lat="45.3931486" lon="8.3791123"><ele>138.0</ele><time>2026-04-26T08:18:59.967Z</time></trkpt><trkpt lat="45.3930389" lon="8.3790672"><ele>138.0</ele><time>2026-04-26T08:19:01.974Z</time></trkpt><trkpt lat="45.3929272" lon="8.3790126"><ele>137.75</ele><time>2026-04-26T08:19:03.981Z</time></trkpt><trkpt lat="45.392819" lon="8.3789547"><ele>137.5</ele><time>2026-04-26T08:19:05.967Z</time></trkpt><trkpt lat="45.3927103" lon="8.378895"><ele>137.25</ele><time>2026-04-26T08:19:07.976Z</time></trkpt><trkpt lat="45.3926032" lon="8.3788269"><ele>137.0</ele><time>2026-04-26T08:19:09.975Z</time></trkpt><trkpt lat="45.3924967" lon="8.3787646"><ele>137.0</ele><time>2026-04-26T08:19:11.968Z</time></trkpt><trkpt lat="45.3923963" lon="8.3786968"><ele>137.0</ele><time>2026-04-26T08:19:13.978Z</time></trkpt><trkpt lat="45.3923" lon="8.3786254"><ele>137.0</ele><time>2026-04-26T08:19:15.972Z</time></trkpt><trkpt lat="45.392201" lon="8.3785514"><ele>137.0</ele><time>2026-04-26T08:19:17.972Z</time></trkpt><trkpt lat="45.3921021" lon="8.3784794"><ele>137.0</ele><time>2026-04-26T08:19:19.975Z</time></trkpt><trkpt lat="45.392004" lon="8.3784046"><ele>137.2</ele><time>2026-04-26T08:19:21.971Z</time></trkpt><trkpt lat="45.3919086" lon="8.3783334"><ele>137.39999999999998</ele><time>2026-04-26T08:19:23.971Z</time></trkpt><trkpt lat="45.3918114" lon="8.3782589"><ele>137.60000000000002</ele><time>2026-04-26T08:19:25.969Z</time></trkpt><trkpt lat="45.3917149" lon="8.378188"><ele>137.8</ele><time>2026-04-26T08:19:27.972Z</time></trkpt><trkpt lat="45.3916169" lon="8.3781116"><ele>138.0</ele><time>2026-04-26T08:19:29.973Z</time></trkpt><trkpt lat="45.3915205" lon="8.3780342"><ele>138.0</ele><time>2026-04-26T08:19:31.967Z</time></trkpt><trkpt lat="45.391423" lon="8.3779596"><ele>138.0</ele><time>2026-04-26T08:19:33.974Z</time></trkpt><trkpt lat="45.3913281" lon="8.3778761"><ele>138.0</ele><time>2026-04-26T08:19:35.978Z</time></trkpt><trkpt lat="45.3912349" lon="8.3777983"><ele>138.0</ele><time>2026-04-26T08:19:37.97Z</time></trkpt><trkpt lat="45.3911345" lon="8.3777224"><ele>138.0</ele><time>2026-04-26T08:19:39.979Z</time></trkpt><trkpt lat="45.3910341" lon="8.3776494"><ele>138.0</ele><time>2026-04-26T08:19:41.973Z</time></trkpt><trkpt lat="45.3909332" lon="8.3775714"><ele>138.0</ele><time>2026-04-26T08:19:43.976Z</time></trkpt><trkpt lat="45.3908268" lon="8.3774968"><ele>138.0</ele><time>2026-04-26T08:19:45.974Z</time></trkpt><trkpt lat="45.3907255" lon="8.3774198"><ele>138.0</ele><time>2026-04-26T08:19:47.974Z</time></trkpt><trkpt lat="45.3906258" lon="8.3773373"><ele>138.0</ele><time>2026-04-26T08:19:49.974Z</time></trkpt><trkpt lat="45.3905261" lon="8.3772596"><ele>138.0</ele><time>2026-04-26T08:19:51.976Z</time></trkpt><trkpt lat="45.3904272" lon="8.3771823"><ele>138.0</ele><time>2026-04-26T08:19:53.976Z</time></trkpt><trkpt lat="45.3903304" lon="8.3771044"><ele>138.0</ele><time>2026-04-26T08:19:55.975Z</time></trkpt><trkpt lat="45.3902327" lon="8.3770237"><ele>137.6</ele><time>2026-04-26T08:19:57.972Z</time></trkpt><trkpt lat="45.3901372" lon="8.3769456"><ele>137.20000000000002</ele><time>2026-04-26T08:19:59.982Z</time></trkpt><trkpt lat="45.3900407" lon="8.3768742"><ele>136.8</ele><time>2026-04-26T08:20:01.978Z</time></trkpt><trkpt lat="45.3899478" lon="8.3768047"><ele>136.4</ele><time>2026-04-26T08:20:03.975Z</time></trkpt><trkpt lat="45.3898527" lon="8.3767354"><ele>136.0</ele><time>2026-04-26T08:20:05.977Z</time></trkpt><trkpt lat="45.3897594" lon="8.3766738"><ele>136.0</ele><time>2026-04-26T08:20:07.971Z</time></trkpt><trkpt lat="45.3896617" lon="8.3766138"><ele>136.0</ele><time>2026-04-26T08:20:09.975Z</time></trkpt><trkpt lat="45.3895584" lon="8.3765659"><ele>136.0</ele><time>2026-04-26T08:20:11.975Z</time></trkpt><trkpt lat="45.3894552" lon="8.3765166"><ele>136.0</ele><time>2026-04-26T08:20:13.975Z</time></trkpt><trkpt lat="45.389351" lon="8.3764661"><ele>136.0</ele><time>2026-04-26T08:20:15.971Z</time></trkpt><trkpt lat="45.3892421" lon="8.3764233"><ele>136.0</ele><time>2026-04-26T08:20:17.97Z</time></trkpt><trkpt lat="45.3891347" lon="8.3763801"><ele>136.0</ele><time>2026-04-26T08:20:19.978Z</time></trkpt><trkpt lat="45.3890263" lon="8.3763368"><ele>136.0</ele><time>2026-04-26T08:20:21.975Z</time></trkpt><trkpt lat="45.3889194" lon="8.3762997"><ele>136.0</ele><time>2026-04-26T08:20:23.977Z</time></trkpt><trkpt lat="45.3888092" lon="8.3762641"><ele>136.0</ele><time>2026-04-26T08:20:25.979Z</time></trkpt><trkpt lat="45.3887013" lon="8.3762386"><ele>136.25</ele><time>2026-04-26T08:20:27.974Z</time></trkpt><trkpt lat="45.3885872" lon="8.3762128"><ele>136.5</ele><time>2026-04-26T08:20:29.971Z</time></trkpt><trkpt lat="45.3884733" lon="8.3761945"><ele>136.75</ele><time>2026-04-26T08:20:31.971Z</time></trkpt><trkpt lat="45.3883586" lon="8.3761817"><ele>137.0</ele><time>2026-04-26T08:20:33.976Z</time></trkpt><trkpt lat="45.3882437" lon="8.3761698"><ele>137.0</ele><time>2026-04-26T08:20:35.973Z</time></trkpt><trkpt lat="45.3881262" lon="8.3761605"><ele>137.0</ele><time>2026-04-26T08:20:37.965Z</time></trkpt><trkpt lat="45.3880064" lon="8.3761546"><ele>137.0</ele><time>2026-04-26T08:20:39.967Z</time></trkpt><trkpt lat="45.3878864" lon="8.3761499"><ele>137.0</ele><time>2026-04-26T08:20:41.966Z</time></trkpt><trkpt lat="45.3877682" lon="8.3761427"><ele>137.0</ele><time>2026-04-26T08:20:43.967Z</time></trkpt><trkpt lat="45.3876505" lon="8.3761318"><ele>137.0</ele><time>2026-04-26T08:20:45.975Z</time></trkpt><trkpt lat="45.3875309" lon="8.3761246"><ele>137.0</ele><time>2026-04-26T08:20:47.971Z</time></trkpt><trkpt lat="45.387414" lon="8.3761205"><ele>137.0</ele><time>2026-04-26T08:20:49.969Z</time></trkpt><trkpt lat="45.3872966" lon="8.3761162"><ele>137.0</ele><time>2026-04-26T08:20:51.983Z</time></trkpt><trkpt lat="45.3871786" lon="8.3761094"><ele>137.0</ele><time>2026-04-26T08:20:53.97Z</time></trkpt><trkpt lat="45.3870615" lon="8.3761003"><ele>137.0</ele><time>2026-04-26T08:20:55.98Z</time></trkpt><trkpt lat="45.3869441" lon="8.3760925"><ele>137.0</ele><time>2026-04-26T08:20:57.98Z</time></trkpt><trkpt lat="45.3868242" lon="8.3760828"><ele>136.83333333333331</ele><time>2026-04-26T08:20:59.974Z</time></trkpt><trkpt lat="45.3867013" lon="8.376077"><ele>136.66666666666666</ele><time>2026-04-26T08:21:01.976Z</time></trkpt><trkpt lat="45.3866385" lon="8.3760707"><ele>136.5</ele><time>2026-04-26T08:21:02.973Z</time></trkpt><trkpt lat="45.3865749" lon="8.376068"><ele>136.33333333333334</ele><time>2026-04-26T08:21:03.968Z</time></trkpt><trkpt lat="45.3865118" lon="8.3760662"><ele>136.16666666666669</ele><time>2026-04-26T08:21:04.972Z</time></trkpt><trkpt lat="45.3863908" lon="8.3760546"><ele>136.0</ele><time>2026-04-26T08:21:06.971Z</time></trkpt><trkpt lat="45.3862757" lon="8.376045"><ele>136.0</ele><time>2026-04-26T08:21:08.967Z</time></trkpt><trkpt lat="45.3861563" lon="8.3760362"><ele>136.0</ele><time>2026-04-26T08:21:10.972Z</time></trkpt><trkpt lat="45.3860389" lon="8.3760331"><ele>136.0</ele><time>2026-04-26T08:21:12.969Z</time></trkpt><trkpt lat="45.3859232" lon="8.3760225"><ele>136.0</ele><time>2026-04-26T08:21:14.974Z</time></trkpt><trkpt lat="45.3858077" lon="8.3760145"><ele>136.0</ele><time>2026-04-26T08:21:16.967Z</time></trkpt><trkpt lat="45.3856914" lon="8.3760054"><ele>136.0</ele><time>2026-04-26T08:21:18.972Z</time></trkpt><trkpt lat="45.3855755" lon="8.3760003"><ele>136.0</ele><time>2026-04-26T08:21:20.973Z</time></trkpt><trkpt lat="45.3854605" lon="8.3759951"><ele>136.0</ele><time>2026-04-26T08:21:22.965Z</time></trkpt><trkpt lat="45.3853438" lon="8.3759879"><ele>136.0</ele><time>2026-04-26T08:21:24.97Z</time></trkpt><trkpt lat="45.3852343" lon="8.3759808"><ele>136.0</ele><time>2026-04-26T08:21:26.969Z</time></trkpt><trkpt lat="45.3851245" lon="8.375973"><ele>136.0</ele><time>2026-04-26T08:21:28.979Z</time></trkpt><trkpt lat="45.3850132" lon="8.375964"><ele>136.0</ele><time>2026-04-26T08:21:30.972Z</time></trkpt><trkpt lat="45.3849026" lon="8.3759552"><ele>136.0</ele><time>2026-04-26T08:21:32.979Z</time></trkpt><trkpt lat="45.3847919" lon="8.375947"><ele>136.0</ele><time>2026-04-26T08:21:34.973Z</time></trkpt><trkpt lat="45.384682" lon="8.3759452"><ele>136.0</ele><time>2026-04-26T08:21:36.969Z</time></trkpt><trkpt lat="45.3845745" lon="8.3759349"><ele>136.0</ele><time>2026-04-26T08:21:38.968Z</time></trkpt><trkpt lat="45.3844671" lon="8.3759297"><ele>136.0</ele><time>2026-04-26T08:21:40.973Z</time></trkpt><trkpt lat="45.3843619" lon="8.3759222"><ele>136.0</ele><time>2026-04-26T08:21:42.967Z</time></trkpt><trkpt lat="45.3842586" lon="8.3759172"><ele>135.6</ele><time>2026-04-26T08:21:44.972Z</time></trkpt><trkpt lat="45.384156" lon="8.37591"><ele>135.2</ele><time>2026-04-26T08:21:46.972Z</time></trkpt><trkpt lat="45.38405" lon="8.3759011"><ele>134.8</ele><time>2026-04-26T08:21:48.966Z</time></trkpt><trkpt lat="45.383948" lon="8.3758894"><ele>134.4</ele><time>2026-04-26T08:21:50.976Z</time></trkpt><trkpt lat="45.3838384" lon="8.3758692"><ele>134.0</ele><time>2026-04-26T08:21:52.972Z</time></trkpt><trkpt lat="45.3837381" lon="8.3758487"><ele>133.8</ele><time>2026-04-26T08:21:54.963Z</time></trkpt><trkpt lat="45.383641" lon="8.3758236"><ele>133.60000000000002</ele><time>2026-04-26T08:21:56.973Z</time></trkpt><trkpt lat="45.3835459" lon="8.3757989"><ele>133.4</ele><time>2026-04-26T08:21:58.964Z</time></trkpt><trkpt lat="45.3834522" lon="8.3757687"><ele>133.20000000000002</ele><time>2026-04-26T08:22:00.98Z</time></trkpt><trkpt lat="45.3833603" lon="8.3757357"><ele>133.0</ele><time>2026-04-26T08:22:02.968Z</time></trkpt><trkpt lat="45.3832717" lon="8.3756998"><ele>133.0</ele><time>2026-04-26T08:22:04.977Z</time></trkpt><trkpt lat="45.3831829" lon="8.3756592"><ele>133.0</ele><time>2026-04-26T08:22:06.969Z</time></trkpt><trkpt lat="45.383089" lon="8.3756172"><ele>133.0</ele><time>2026-04-26T08:22:08.973Z</time></trkpt><trkpt lat="45.3830015" lon="8.375573"><ele>133.0</ele><time>2026-04-26T08:22:10.978Z</time></trkpt><trkpt lat="45.3829173" lon="8.3755259"><ele>133.0</ele><time>2026-04-26T08:22:12.971Z</time></trkpt><trkpt lat="45.3828309" lon="8.3754743"><ele>133.20000000000002</ele><time>2026-04-26T08:22:14.978Z</time></trkpt><trkpt lat="45.3827499" lon="8.3754177"><ele>133.4</ele><time>2026-04-26T08:22:16.967Z</time></trkpt><trkpt lat="45.3826679" lon="8.3753603"><ele>133.60000000000002</ele><time>2026-04-26T08:22:18.975Z</time></trkpt><trkpt lat="45.3825881" lon="8.3752949"><ele>133.8</ele><time>2026-04-26T08:22:20.972Z</time></trkpt><trkpt lat="45.3825063" lon="8.3752238"><ele>134.0</ele><time>2026-04-26T08:22:22.98Z</time></trkpt><trkpt lat="45.3824269" lon="8.3751553"><ele>134.0</ele><time>2026-04-26T08:22:24.973Z</time></trkpt><trkpt lat="45.3823512" lon="8.3750797"><ele>134.0</ele><time>2026-04-26T08:22:26.975Z</time></trkpt><trkpt lat="45.3822768" lon="8.3749954"><ele>134.0</ele><time>2026-04-26T08:22:28.972Z</time></trkpt><trkpt lat="45.3822039" lon="8.3749188"><ele>134.0</ele><time>2026-04-26T08:22:30.985Z</time></trkpt><trkpt lat="45.3821261" lon="8.3748374"><ele>134.0</ele><time>2026-04-26T08:22:32.974Z</time></trkpt><trkpt lat="45.3820592" lon="8.3747547"><ele>134.0</ele><time>2026-04-26T08:22:34.985Z</time></trkpt><trkpt lat="45.3819838" lon="8.3746763"><ele>134.0</ele><time>2026-04-26T08:22:36.972Z</time></trkpt><trkpt lat="45.3819347" lon="8.3746086"><ele>134.0</ele><time>2026-04-26T08:22:38.977Z</time></trkpt><trkpt lat="45.3818528" lon="8.3745202"><ele>134.0</ele><time>2026-04-26T08:22:40.98Z</time></trkpt><trkpt lat="45.3817764" lon="8.3744357"><ele>134.0</ele><time>2026-04-26T08:22:42.98Z</time></trkpt><trkpt lat="45.381701" lon="8.3743409"><ele>134.0</ele><time>2026-04-26T08:22:44.983Z</time></trkpt><trkpt lat="45.3816263" lon="8.3742677"><ele>134.0</ele><time>2026-04-26T08:22:46.981Z</time></trkpt><trkpt lat="45.3815575" lon="8.3741862"><ele>134.0</ele><time>2026-04-26T08:22:48.971Z</time></trkpt><trkpt lat="45.3814871" lon="8.3741"><ele>134.0</ele><time>2026-04-26T08:22:50.981Z</time></trkpt><trkpt lat="45.3814091" lon="8.3740088"><ele>134.0</ele><time>2026-04-26T08:22:52.974Z</time></trkpt><trkpt lat="45.3813334" lon="8.3739267"><ele>135.0</ele><time>2026-04-26T08:22:54.989Z</time></trkpt><trkpt lat="45.3812538" lon="8.3738485"><ele>136.0</ele><time>2026-04-26T08:22:56.973Z</time></trkpt><trkpt lat="45.3811748" lon="8.373758"><ele>137.0</ele><time>2026-04-26T08:22:58.968Z</time></trkpt><trkpt lat="45.3810943" lon="8.3736686"><ele>138.0</ele><time>2026-04-26T08:23:00.978Z</time></trkpt><trkpt lat="45.3810104" lon="8.3735822"><ele>139.0</ele><time>2026-04-26T08:23:02.982Z</time></trkpt><trkpt lat="45.3809334" lon="8.3734957"><ele>139.0</ele><time>2026-04-26T08:23:04.977Z</time></trkpt><trkpt lat="45.3808502" lon="8.3734125"><ele>139.0</ele><time>2026-04-26T08:23:06.975Z</time></trkpt><trkpt lat="45.3807713" lon="8.3733307"><ele>139.0</ele><time>2026-04-26T08:23:08.971Z</time></trkpt><trkpt lat="45.3806896" lon="8.3732384"><ele>139.0</ele><time>2026-04-26T08:23:10.978Z</time></trkpt><trkpt lat="45.3806068" lon="8.3731417"><ele>139.0</ele><time>2026-04-26T08:23:12.98Z</time></trkpt><trkpt lat="45.3805197" lon="8.3730486"><ele>138.2</ele><time>2026-04-26T08:23:14.98Z</time></trkpt><trkpt lat="45.3804325" lon="8.3729506"><ele>137.4</ele><time>2026-04-26T08:23:16.975Z</time></trkpt><trkpt lat="45.3803373" lon="8.3728637"><ele>136.6</ele><time>2026-04-26T08:23:18.976Z</time></trkpt><trkpt lat="45.3802427" lon="8.3727856"><ele>135.8</ele><time>2026-04-26T08:23:20.974Z</time></trkpt><trkpt lat="45.3801428" lon="8.3727157"><ele>135.0</ele><time>2026-04-26T08:23:22.981Z</time></trkpt><trkpt lat="45.3800447" lon="8.3726341"><ele>135.0</ele><time>2026-04-26T08:23:24.986Z</time></trkpt><trkpt lat="45.3799459" lon="8.3725784"><ele>135.0</ele><time>2026-04-26T08:23:26.975Z</time></trkpt><trkpt lat="45.3798393" lon="8.3725278"><ele>135.0</ele><time>2026-04-26T08:23:28.981Z</time></trkpt><trkpt lat="45.3797258" lon="8.372486"><ele>135.0</ele><time>2026-04-26T08:23:30.983Z</time></trkpt><trkpt lat="45.3796094" lon="8.3724414"><ele>135.2</ele><time>2026-04-26T08:23:32.965Z</time></trkpt><trkpt lat="45.3794902" lon="8.372395"><ele>135.4</ele><time>2026-04-26T08:23:34.969Z</time></trkpt><trkpt lat="45.3793698" lon="8.3723624"><ele>135.6</ele><time>2026-04-26T08:23:36.985Z</time></trkpt><trkpt lat="45.3792463" lon="8.3723329"><ele>135.8</ele><time>2026-04-26T08:23:38.986Z</time></trkpt><trkpt lat="45.3791825" lon="8.3723199"><ele>136.0</ele><time>2026-04-26T08:23:39.968Z</time></trkpt><trkpt lat="45.3791195" lon="8.3723076"><ele>136.0</ele><time>2026-04-26T08:23:40.984Z</time></trkpt><trkpt lat="45.3790558" lon="8.3722959"><ele>136.0</ele><time>2026-04-26T08:23:41.967Z</time></trkpt><trkpt lat="45.3789896" lon="8.3722881"><ele>136.0</ele><time>2026-04-26T08:23:42.978Z</time></trkpt><trkpt lat="45.3789223" lon="8.37228"><ele>136.0</ele><time>2026-04-26T08:23:43.974Z</time></trkpt><trkpt lat="45.3788579" lon="8.3722716"><ele>136.0</ele><time>2026-04-26T08:23:44.977Z</time></trkpt><trkpt lat="45.3787312" lon="8.3722699"><ele>136.0</ele><time>2026-04-26T08:23:46.975Z</time></trkpt><trkpt lat="45.3786669" lon="8.372275"><ele>136.33333333333334</ele><time>2026-04-26T08:23:47.971Z</time></trkpt><trkpt lat="45.3786022" lon="8.3722756"><ele>136.66666666666669</ele><time>2026-04-26T08:23:48.975Z</time></trkpt><trkpt lat="45.3785361" lon="8.3722822"><ele>137.0</ele><time>2026-04-26T08:23:49.97Z</time></trkpt><trkpt lat="45.3784711" lon="8.3722966"><ele>137.33333333333334</ele><time>2026-04-26T08:23:50.988Z</time></trkpt><trkpt lat="45.3784075" lon="8.3723124"><ele>137.66666666666666</ele><time>2026-04-26T08:23:51.967Z</time></trkpt><trkpt lat="45.3782855" lon="8.3723532"><ele>138.0</ele><time>2026-04-26T08:23:53.972Z</time></trkpt><trkpt lat="45.3781655" lon="8.3723966"><ele>138.0</ele><time>2026-04-26T08:23:55.973Z</time></trkpt><trkpt lat="45.3780482" lon="8.3724496"><ele>138.0</ele><time>2026-04-26T08:23:57.968Z</time></trkpt><trkpt lat="45.3779346" lon="8.3724934"><ele>138.0</ele><time>2026-04-26T08:23:59.969Z</time></trkpt><trkpt lat="45.3778228" lon="8.372543"><ele>138.0</ele><time>2026-04-26T08:24:01.972Z</time></trkpt><trkpt lat="45.3777053" lon="8.3725863"><ele>137.8</ele><time>2026-04-26T08:24:03.974Z</time></trkpt><trkpt lat="45.3776419" lon="8.3726074"><ele>137.60000000000002</ele><time>2026-04-26T08:24:04.982Z</time></trkpt><trkpt lat="45.3775273" lon="8.3726543"><ele>137.39999999999998</ele><time>2026-04-26T08:24:06.982Z</time></trkpt><trkpt lat="45.3774165" lon="8.3726934"><ele>137.2</ele><time>2026-04-26T08:24:08.977Z</time></trkpt><trkpt lat="45.377312" lon="8.3727385"><ele>137.0</ele><time>2026-04-26T08:24:10.984Z</time></trkpt><trkpt lat="45.3772094" lon="8.3727818"><ele>136.5</ele><time>2026-04-26T08:24:12.975Z</time></trkpt><trkpt lat="45.3771021" lon="8.3728276"><ele>136.0</ele><time>2026-04-26T08:24:14.971Z</time></trkpt><trkpt lat="45.3769917" lon="8.3728729"><ele>135.5</ele><time>2026-04-26T08:24:16.967Z</time></trkpt><trkpt lat="45.3768849" lon="8.3729162"><ele>135.0</ele><time>2026-04-26T08:24:18.973Z</time></trkpt><trkpt lat="45.3767742" lon="8.3729619"><ele>135.0</ele><time>2026-04-26T08:24:20.968Z</time></trkpt><trkpt lat="45.3766658" lon="8.3730046"><ele>135.0</ele><time>2026-04-26T08:24:22.965Z</time></trkpt><trkpt lat="45.3765506" lon="8.3730462"><ele>135.0</ele><time>2026-04-26T08:24:24.977Z</time></trkpt><trkpt lat="45.376435" lon="8.3730924"><ele>135.0</ele><time>2026-04-26T08:24:26.977Z</time></trkpt><trkpt lat="45.3763261" lon="8.3731405"><ele>135.0</ele><time>2026-04-26T08:24:28.976Z</time></trkpt><trkpt lat="45.3762158" lon="8.3731897"><ele>135.0</ele><time>2026-04-26T08:24:30.978Z</time></trkpt><trkpt lat="45.3761117" lon="8.3732375"><ele>135.0</ele><time>2026-04-26T08:24:32.969Z</time></trkpt><trkpt lat="45.3760061" lon="8.3732873"><ele>135.0</ele><time>2026-04-26T08:24:34.979Z</time></trkpt><trkpt lat="45.3758968" lon="8.3733123"><ele>135.0</ele><time>2026-04-26T08:24:36.978Z</time></trkpt><trkpt lat="45.3757959" lon="8.3732527"><ele>135.0</ele><time>2026-04-26T08:24:38.974Z</time></trkpt><trkpt lat="45.375731" lon="8.3731211"><ele>135.0</ele><time>2026-04-26T08:24:40.977Z</time></trkpt><trkpt lat="45.3757111" lon="8.3729553"><ele>135.0</ele><time>2026-04-26T08:24:42.978Z</time></trkpt><trkpt lat="45.3757315" lon="8.3727996"><ele>135.0</ele><time>2026-04-26T08:24:44.98Z</time></trkpt><trkpt lat="45.3757758" lon="8.3726501"><ele>135.0</ele><time>2026-04-26T08:24:46.973Z</time></trkpt><trkpt lat="45.3758251" lon="8.3725165"><ele>135.0</ele><time>2026-04-26T08:24:48.969Z</time></trkpt><trkpt lat="45.37587" lon="8.372395"><ele>135.0</ele><time>2026-04-26T08:24:50.981Z</time></trkpt><trkpt lat="45.3759149" lon="8.3722748"><ele>135.0</ele><time>2026-04-26T08:24:52.971Z</time></trkpt><trkpt lat="45.3759356" lon="8.3721373"><ele>135.0</ele><time>2026-04-26T08:24:54.966Z</time></trkpt><trkpt lat="45.3758849" lon="8.3720161"><ele>135.0</ele><time>2026-04-26T08:24:56.969Z</time></trkpt><trkpt lat="45.3757974" lon="8.3719718"><ele>135.0</ele><time>2026-04-26T08:24:58.978Z</time></trkpt><trkpt lat="45.3757003" lon="8.3719926"><ele>135.0</ele><time>2026-04-26T08:25:00.974Z</time></trkpt><trkpt lat="45.3756028" lon="8.3720468"><ele>135.0</ele><time>2026-04-26T08:25:02.965Z</time></trkpt><trkpt lat="45.3755165" lon="8.3721365"><ele>135.0</ele><time>2026-04-26T08:25:04.968Z</time></trkpt><trkpt lat="45.375426" lon="8.3722296"><ele>135.2</ele><time>2026-04-26T08:25:06.974Z</time></trkpt><trkpt lat="45.3753408" lon="8.3723213"><ele>135.4</ele><time>2026-04-26T08:25:08.972Z</time></trkpt><trkpt lat="45.3752504" lon="8.3724123"><ele>135.6</ele><time>2026-04-26T08:25:10.981Z</time></trkpt><trkpt lat="45.3751546" lon="8.3725042"><ele>135.8</ele><time>2026-04-26T08:25:12.979Z</time></trkpt><trkpt lat="45.3750631" lon="8.3725936"><ele>136.0</ele><time>2026-04-26T08:25:14.973Z</time></trkpt><trkpt lat="45.3749625" lon="8.3726798"><ele>136.0</ele><time>2026-04-26T08:25:16.975Z</time></trkpt><trkpt lat="45.3748571" lon="8.3727701"><ele>136.0</ele><time>2026-04-26T08:25:18.982Z</time></trkpt><trkpt lat="45.3747482" lon="8.3728667"><ele>136.0</ele><time>2026-04-26T08:25:20.973Z</time></trkpt><trkpt lat="45.374693" lon="8.3729152"><ele>136.0</ele><time>2026-04-26T08:25:21.969Z</time></trkpt><trkpt lat="45.3746374" lon="8.3729651"><ele>136.0</ele><time>2026-04-26T08:25:22.969Z</time></trkpt><trkpt lat="45.3745839" lon="8.3730158"><ele>136.0</ele><time>2026-04-26T08:25:23.968Z</time></trkpt><trkpt lat="45.3745306" lon="8.3730644"><ele>136.25</ele><time>2026-04-26T08:25:24.972Z</time></trkpt><trkpt lat="45.3744285" lon="8.3731609"><ele>136.5</ele><time>2026-04-26T08:25:26.971Z</time></trkpt><trkpt lat="45.3743228" lon="8.3732586"><ele>136.75</ele><time>2026-04-26T08:25:28.973Z</time></trkpt><trkpt lat="45.3742202" lon="8.3733512"><ele>137.0</ele><time>2026-04-26T08:25:30.968Z</time></trkpt><trkpt lat="45.3741207" lon="8.3734432"><ele>137.0</ele><time>2026-04-26T08:25:32.98Z</time></trkpt><trkpt lat="45.3740145" lon="8.3735292"><ele>137.0</ele><time>2026-04-26T08:25:34.963Z</time></trkpt><trkpt lat="45.3739611" lon="8.3735785"><ele>137.0</ele><time>2026-04-26T08:25:35.976Z</time></trkpt><trkpt lat="45.3738573" lon="8.3736712"><ele>137.0</ele><time>2026-04-26T08:25:37.971Z</time></trkpt><trkpt lat="45.3737511" lon="8.373758"><ele>137.0</ele><time>2026-04-26T08:25:39.973Z</time></trkpt><trkpt lat="45.3736475" lon="8.3738499"><ele>136.4</ele><time>2026-04-26T08:25:41.982Z</time></trkpt><trkpt lat="45.3735927" lon="8.373895"><ele>135.79999999999998</ele><time>2026-04-26T08:25:42.968Z</time></trkpt><trkpt lat="45.3734919" lon="8.3739814"><ele>135.2</ele><time>2026-04-26T08:25:44.973Z</time></trkpt><trkpt lat="45.3733933" lon="8.374073"><ele>134.6</ele><time>2026-04-26T08:25:46.967Z</time></trkpt><trkpt lat="45.3732961" lon="8.3741629"><ele>134.0</ele><time>2026-04-26T08:25:48.976Z</time></trkpt><trkpt lat="45.3731948" lon="8.374256"><ele>134.0</ele><time>2026-04-26T08:25:50.983Z</time></trkpt><trkpt lat="45.3730976" lon="8.3743437"><ele>134.0</ele><time>2026-04-26T08:25:52.977Z</time></trkpt><trkpt lat="45.3730027" lon="8.3744279"><ele>134.0</ele><time>2026-04-26T08:25:54.972Z</time></trkpt><trkpt lat="45.3729053" lon="8.3745145"><ele>134.0</ele><time>2026-04-26T08:25:56.971Z</time></trkpt><trkpt lat="45.3728102" lon="8.3745988"><ele>133.8</ele><time>2026-04-26T08:25:58.976Z</time></trkpt><trkpt lat="45.3727163" lon="8.3746836"><ele>133.60000000000002</ele><time>2026-04-26T08:26:00.973Z</time></trkpt><trkpt lat="45.372621" lon="8.3747654"><ele>133.4</ele><time>2026-04-26T08:26:02.972Z</time></trkpt><trkpt lat="45.3725247" lon="8.374849"><ele>133.20000000000002</ele><time>2026-04-26T08:26:04.974Z</time></trkpt><trkpt lat="45.3724309" lon="8.3749331"><ele>133.0</ele><time>2026-04-26T08:26:06.972Z</time></trkpt><trkpt lat="45.3723378" lon="8.3750149"><ele>133.0</ele><time>2026-04-26T08:26:08.968Z</time></trkpt><trkpt lat="45.3722441" lon="8.3751013"><ele>133.0</ele><time>2026-04-26T08:26:10.966Z</time></trkpt><trkpt lat="45.3721526" lon="8.3751782"><ele>133.0</ele><time>2026-04-26T08:26:12.974Z</time></trkpt><trkpt lat="45.3720633" lon="8.3752596"><ele>133.0</ele><time>2026-04-26T08:26:14.97Z</time></trkpt><trkpt lat="45.3719734" lon="8.3753397"><ele>133.0</ele><time>2026-04-26T08:26:16.975Z</time></trkpt><trkpt lat="45.3718843" lon="8.3754191"><ele>133.20000000000002</ele><time>2026-04-26T08:26:18.974Z</time></trkpt><trkpt lat="45.3717938" lon="8.3755033"><ele>133.4</ele><time>2026-04-26T08:26:20.966Z</time></trkpt><trkpt lat="45.3717021" lon="8.3755824"><ele>133.60000000000002</ele><time>2026-04-26T08:26:22.974Z</time></trkpt><trkpt lat="45.3716154" lon="8.3756629"><ele>133.8</ele><time>2026-04-26T08:26:24.97Z</time></trkpt><trkpt lat="45.3715292" lon="8.3757418"><ele>134.0</ele><time>2026-04-26T08:26:26.971Z</time></trkpt><trkpt lat="45.3714389" lon="8.375822"><ele>133.8</ele><time>2026-04-26T08:26:28.966Z</time></trkpt><trkpt lat="45.3713521" lon="8.3759022"><ele>133.60000000000002</ele><time>2026-04-26T08:26:30.981Z</time></trkpt><trkpt lat="45.3712659" lon="8.375984"><ele>133.4</ele><time>2026-04-26T08:26:32.979Z</time></trkpt><trkpt lat="45.3711741" lon="8.3760671"><ele>133.20000000000002</ele><time>2026-04-26T08:26:34.967Z</time></trkpt><trkpt lat="45.3710796" lon="8.3761508"><ele>133.0</ele><time>2026-04-26T08:26:36.968Z</time></trkpt><trkpt lat="45.3709877" lon="8.3762328"><ele>133.0</ele><time>2026-04-26T08:26:38.97Z</time></trkpt><trkpt lat="45.3708945" lon="8.3763139"><ele>133.0</ele><time>2026-04-26T08:26:40.969Z</time></trkpt><trkpt lat="45.3707955" lon="8.376398"><ele>133.0</ele><time>2026-04-26T08:26:42.973Z</time></trkpt><trkpt lat="45.3706952" lon="8.376482"><ele>133.0</ele><time>2026-04-26T08:26:44.971Z</time></trkpt><trkpt lat="45.3706042" lon="8.3765669"><ele>133.0</ele><time>2026-04-26T08:26:46.964Z</time></trkpt><trkpt lat="45.3705089" lon="8.3766549"><ele>133.0</ele><time>2026-04-26T08:26:48.97Z</time></trkpt><trkpt lat="45.3704115" lon="8.3767404"><ele>133.0</ele><time>2026-04-26T08:26:50.975Z</time></trkpt><trkpt lat="45.3703196" lon="8.3768266"><ele>133.0</ele><time>2026-04-26T08:26:52.972Z</time></trkpt><trkpt lat="45.3702272" lon="8.3769099"><ele>133.0</ele><time>2026-04-26T08:26:54.984Z</time></trkpt><trkpt lat="45.3701357" lon="8.3769921"><ele>133.0</ele><time>2026-04-26T08:26:56.976Z</time></trkpt><trkpt lat="45.3700462" lon="8.377076"><ele>133.0</ele><time>2026-04-26T08:26:58.977Z</time></trkpt><trkpt lat="45.3699559" lon="8.3771553"><ele>133.0</ele><time>2026-04-26T08:27:00.978Z</time></trkpt><trkpt lat="45.3698648" lon="8.3772353"><ele>133.0</ele><time>2026-04-26T08:27:02.982Z</time></trkpt><trkpt lat="45.3697778" lon="8.3773134"><ele>133.0</ele><time>2026-04-26T08:27:04.972Z</time></trkpt><trkpt lat="45.3696884" lon="8.3773886"><ele>133.20000000000002</ele><time>2026-04-26T08:27:06.971Z</time></trkpt><trkpt lat="45.3695999" lon="8.3774676"><ele>133.4</ele><time>2026-04-26T08:27:08.973Z</time></trkpt><trkpt lat="45.3695144" lon="8.3775461"><ele>133.60000000000002</ele><time>2026-04-26T08:27:10.967Z</time></trkpt><trkpt lat="45.3694295" lon="8.3776235"><ele>133.8</ele><time>2026-04-26T08:27:12.968Z</time></trkpt><trkpt lat="45.3693448" lon="8.3777025"><ele>134.0</ele><time>2026-04-26T08:27:14.978Z</time></trkpt><trkpt lat="45.3692592" lon="8.3777787"><ele>134.0</ele><time>2026-04-26T08:27:16.97Z</time></trkpt><trkpt lat="45.369176" lon="8.3778484"><ele>134.0</ele><time>2026-04-26T08:27:18.967Z</time></trkpt><trkpt lat="45.3690922" lon="8.3779228"><ele>134.0</ele><time>2026-04-26T08:27:20.973Z</time></trkpt><trkpt lat="45.3690128" lon="8.3780015"><ele>134.0</ele><time>2026-04-26T08:27:22.968Z</time></trkpt><trkpt lat="45.3689323" lon="8.3780749"><ele>134.0</ele><time>2026-04-26T08:27:24.975Z</time></trkpt><trkpt lat="45.368853" lon="8.378139"><ele>134.2</ele><time>2026-04-26T08:27:26.976Z</time></trkpt><trkpt lat="45.3687728" lon="8.3782114"><ele>134.4</ele><time>2026-04-26T08:27:28.979Z</time></trkpt><trkpt lat="45.3686929" lon="8.3782871"><ele>134.6</ele><time>2026-04-26T08:27:30.967Z</time></trkpt><trkpt lat="45.3686138" lon="8.3783631"><ele>134.8</ele><time>2026-04-26T08:27:32.968Z</time></trkpt><trkpt lat="45.3685352" lon="8.3784355"><ele>135.0</ele><time>2026-04-26T08:27:34.976Z</time></trkpt><trkpt lat="45.3684517" lon="8.3785068"><ele>135.0</ele><time>2026-04-26T08:27:36.986Z</time></trkpt><trkpt lat="45.3683705" lon="8.3785727"><ele>135.0</ele><time>2026-04-26T08:27:38.967Z</time></trkpt><trkpt lat="45.3682893" lon="8.378644"><ele>135.0</ele><time>2026-04-26T08:27:40.971Z</time></trkpt><trkpt lat="45.3682091" lon="8.3787156"><ele>135.0</ele><time>2026-04-26T08:27:42.97Z</time></trkpt><trkpt lat="45.3681269" lon="8.3787888"><ele>135.0</ele><time>2026-04-26T08:27:44.97Z</time></trkpt><trkpt lat="45.3680456" lon="8.3788617"><ele>135.0</ele><time>2026-04-26T08:27:46.972Z</time></trkpt><trkpt lat="45.3679605" lon="8.3789386"><ele>135.0</ele><time>2026-04-26T08:27:48.967Z</time></trkpt><trkpt lat="45.3678804" lon="8.3790121"><ele>135.0</ele><time>2026-04-26T08:27:50.962Z</time></trkpt><trkpt lat="45.3677969" lon="8.3790886"><ele>135.0</ele><time>2026-04-26T08:27:52.97Z</time></trkpt><trkpt lat="45.3677162" lon="8.3791579"><ele>135.0</ele><time>2026-04-26T08:27:54.966Z</time></trkpt><trkpt lat="45.3676362" lon="8.3792268"><ele>135.0</ele><time>2026-04-26T08:27:56.976Z</time></trkpt><trkpt lat="45.3675465" lon="8.3793062"><ele>135.0</ele><time>2026-04-26T08:27:58.969Z</time></trkpt><trkpt lat="45.36745" lon="8.3793945"><ele>135.0</ele><time>2026-04-26T08:28:00.969Z</time></trkpt><trkpt lat="45.3673535" lon="8.3794742"><ele>135.0</ele><time>2026-04-26T08:28:02.968Z</time></trkpt><trkpt lat="45.3672594" lon="8.3795578"><ele>135.0</ele><time>2026-04-26T08:28:04.968Z</time></trkpt><trkpt lat="45.3671656" lon="8.3796372"><ele>135.4</ele><time>2026-04-26T08:28:06.968Z</time></trkpt><trkpt lat="45.3670731" lon="8.3797193"><ele>135.8</ele><time>2026-04-26T08:28:08.962Z</time></trkpt><trkpt lat="45.3669798" lon="8.379806"><ele>136.2</ele><time>2026-04-26T08:28:10.985Z</time></trkpt><trkpt lat="45.366884" lon="8.3798917"><ele>136.6</ele><time>2026-04-26T08:28:12.972Z</time></trkpt><trkpt lat="45.3667906" lon="8.3799755"><ele>137.0</ele><time>2026-04-26T08:28:14.976Z</time></trkpt><trkpt lat="45.3666977" lon="8.3800625"><ele>137.0</ele><time>2026-04-26T08:28:16.971Z</time></trkpt><trkpt lat="45.3666071" lon="8.3801491"><ele>137.0</ele><time>2026-04-26T08:28:18.975Z</time></trkpt><trkpt lat="45.3665132" lon="8.3802271"><ele>137.0</ele><time>2026-04-26T08:28:20.973Z</time></trkpt><trkpt lat="45.3664192" lon="8.3803084"><ele>137.0</ele><time>2026-04-26T08:28:22.97Z</time></trkpt><trkpt lat="45.3663308" lon="8.3803908"><ele>137.0</ele><time>2026-04-26T08:28:24.968Z</time></trkpt><trkpt lat="45.3662434" lon="8.3804706"><ele>137.2</ele><time>2026-04-26T08:28:26.967Z</time></trkpt><trkpt lat="45.3661503" lon="8.3805528"><ele>137.39999999999998</ele><time>2026-04-26T08:28:28.97Z</time></trkpt><trkpt lat="45.3660605" lon="8.380637"><ele>137.60000000000002</ele><time>2026-04-26T08:28:30.973Z</time></trkpt><trkpt lat="45.3659658" lon="8.3807169"><ele>137.8</ele><time>2026-04-26T08:28:32.974Z</time></trkpt><trkpt lat="45.3658774" lon="8.3807979"><ele>138.0</ele><time>2026-04-26T08:28:34.971Z</time></trkpt><trkpt lat="45.3657883" lon="8.3808786"><ele>138.0</ele><time>2026-04-26T08:28:36.972Z</time></trkpt><trkpt lat="45.3656965" lon="8.3809616"><ele>138.0</ele><time>2026-04-26T08:28:38.972Z</time></trkpt><trkpt lat="45.3656066" lon="8.3810413"><ele>138.0</ele><time>2026-04-26T08:28:40.971Z</time></trkpt><trkpt lat="45.3655182" lon="8.3811218"><ele>138.0</ele><time>2026-04-26T08:28:42.971Z</time></trkpt><trkpt lat="45.3654241" lon="8.3812001"><ele>138.0</ele><time>2026-04-26T08:28:44.972Z</time></trkpt><trkpt lat="45.3653277" lon="8.3812858"><ele>138.25</ele><time>2026-04-26T08:28:46.971Z</time></trkpt><trkpt lat="45.365233" lon="8.3813669"><ele>138.5</ele><time>2026-04-26T08:28:48.971Z</time></trkpt><trkpt lat="45.3651332" lon="8.3814542"><ele>138.75</ele><time>2026-04-26T08:28:50.973Z</time></trkpt><trkpt lat="45.3650354" lon="8.3815485"><ele>139.0</ele><time>2026-04-26T08:28:52.968Z</time></trkpt><trkpt lat="45.3649339" lon="8.3816384"><ele>139.0</ele><time>2026-04-26T08:28:54.972Z</time></trkpt><trkpt lat="45.3648331" lon="8.3817277"><ele>139.0</ele><time>2026-04-26T08:28:56.967Z</time></trkpt><trkpt lat="45.3647412" lon="8.3818033"><ele>139.0</ele><time>2026-04-26T08:28:58.974Z</time></trkpt><trkpt lat="45.3646493" lon="8.3818818"><ele>139.0</ele><time>2026-04-26T08:29:00.967Z</time></trkpt><trkpt lat="45.3645583" lon="8.381964"><ele>139.0</ele><time>2026-04-26T08:29:02.97Z</time></trkpt><trkpt lat="45.3644636" lon="8.3820423"><ele>138.6</ele><time>2026-04-26T08:29:04.973Z</time></trkpt><trkpt lat="45.3643717" lon="8.3821295"><ele>138.2</ele><time>2026-04-26T08:29:06.971Z</time></trkpt><trkpt lat="45.3642833" lon="8.3822109"><ele>137.79999999999998</ele><time>2026-04-26T08:29:08.972Z</time></trkpt><trkpt lat="45.3641955" lon="8.3822888"><ele>137.4</ele><time>2026-04-26T08:29:10.967Z</time></trkpt><trkpt lat="45.3641064" lon="8.3823691"><ele>137.0</ele><time>2026-04-26T08:29:12.967Z</time></trkpt><trkpt lat="45.3640242" lon="8.3824506"><ele>137.0</ele><time>2026-04-26T08:29:14.984Z</time></trkpt><trkpt lat="45.3639387" lon="8.3825305"><ele>137.0</ele><time>2026-04-26T08:29:16.972Z</time></trkpt><trkpt lat="45.3638498" lon="8.3826137"><ele>137.0</ele><time>2026-04-26T08:29:18.974Z</time></trkpt><trkpt lat="45.3637612" lon="8.3826931"><ele>137.0</ele><time>2026-04-26T08:29:20.967Z</time></trkpt><trkpt lat="45.3636691" lon="8.3827733"><ele>137.0</ele><time>2026-04-26T08:29:22.976Z</time></trkpt><trkpt lat="45.3635819" lon="8.3828457"><ele>137.2</ele><time>2026-04-26T08:29:24.973Z</time></trkpt><trkpt lat="45.3634974" lon="8.3829253"><ele>137.39999999999998</ele><time>2026-04-26T08:29:26.968Z</time></trkpt><trkpt lat="45.363412" lon="8.3830042"><ele>137.60000000000002</ele><time>2026-04-26T08:29:28.974Z</time></trkpt><trkpt lat="45.3633209" lon="8.3830788"><ele>137.8</ele><time>2026-04-26T08:29:30.971Z</time></trkpt><trkpt lat="45.3632274" lon="8.3831615"><ele>138.0</ele><time>2026-04-26T08:29:32.971Z</time></trkpt><trkpt lat="45.3631322" lon="8.3832415"><ele>138.0</ele><time>2026-04-26T08:29:34.972Z</time></trkpt><trkpt lat="45.3630389" lon="8.3833242"><ele>138.0</ele><time>2026-04-26T08:29:36.97Z</time></trkpt><trkpt lat="45.3629502" lon="8.383404"><ele>138.0</ele><time>2026-04-26T08:29:38.97Z</time></trkpt><trkpt lat="45.3628621" lon="8.3834907"><ele>138.0</ele><time>2026-04-26T08:29:40.973Z</time></trkpt><trkpt lat="45.3627642" lon="8.3835725"><ele>138.0</ele><time>2026-04-26T08:29:42.972Z</time></trkpt><trkpt lat="45.3626668" lon="8.3836637"><ele>138.0</ele><time>2026-04-26T08:29:44.969Z</time></trkpt><trkpt lat="45.3625674" lon="8.3837561"><ele>138.0</ele><time>2026-04-26T08:29:46.965Z</time></trkpt><trkpt lat="45.3624704" lon="8.3838554"><ele>138.0</ele><time>2026-04-26T08:29:48.967Z</time></trkpt><trkpt lat="45.3623682" lon="8.3839398"><ele>138.0</ele><time>2026-04-26T08:29:50.965Z</time></trkpt><trkpt lat="45.3622625" lon="8.384032"><ele>138.0</ele><time>2026-04-26T08:29:52.967Z</time></trkpt><trkpt lat="45.3621554" lon="8.3841224"><ele>138.0</ele><time>2026-04-26T08:29:54.976Z</time></trkpt><trkpt lat="45.3620529" lon="8.384219"><ele>138.0</ele><time>2026-04-26T08:29:56.971Z</time></trkpt><trkpt lat="45.3619985" lon="8.3842693"><ele>138.0</ele><time>2026-04-26T08:29:57.98Z</time></trkpt><trkpt lat="45.361895" lon="8.3843628"><ele>138.0</ele><time>2026-04-26T08:29:59.98Z</time></trkpt><trkpt lat="45.3617925" lon="8.3844568"><ele>138.0</ele><time>2026-04-26T08:30:01.978Z</time></trkpt><trkpt lat="45.3616903" lon="8.3845468"><ele>138.0</ele><time>2026-04-26T08:30:03.974Z</time></trkpt><trkpt lat="45.3615914" lon="8.3846391"><ele>138.0</ele><time>2026-04-26T08:30:05.966Z</time></trkpt><trkpt lat="45.361492" lon="8.3847266"><ele>138.0</ele><time>2026-04-26T08:30:07.971Z</time></trkpt><trkpt lat="45.3613945" lon="8.3848183"><ele>137.5</ele><time>2026-04-26T08:30:09.974Z</time></trkpt><trkpt lat="45.3612966" lon="8.3849059"><ele>137.0</ele><time>2026-04-26T08:30:11.982Z</time></trkpt><trkpt lat="45.3612016" lon="8.384987"><ele>136.5</ele><time>2026-04-26T08:30:13.969Z</time></trkpt><trkpt lat="45.361106" lon="8.3850778"><ele>136.0</ele><time>2026-04-26T08:30:15.972Z</time></trkpt><trkpt lat="45.3610085" lon="8.3851596"><ele>136.0</ele><time>2026-04-26T08:30:17.972Z</time></trkpt><trkpt lat="45.3609113" lon="8.3852394"><ele>136.0</ele><time>2026-04-26T08:30:19.972Z</time></trkpt><trkpt lat="45.3608158" lon="8.3853259"><ele>136.0</ele><time>2026-04-26T08:30:21.971Z</time></trkpt><trkpt lat="45.3607248" lon="8.3854071"><ele>136.0</ele><time>2026-04-26T08:30:23.981Z</time></trkpt><trkpt lat="45.3606317" lon="8.3854899"><ele>136.0</ele><time>2026-04-26T08:30:25.972Z</time></trkpt><trkpt lat="45.3605313" lon="8.3855721"><ele>136.2</ele><time>2026-04-26T08:30:27.969Z</time></trkpt><trkpt lat="45.3604396" lon="8.3856522"><ele>136.39999999999998</ele><time>2026-04-26T08:30:29.971Z</time></trkpt><trkpt lat="45.360345" lon="8.3857314"><ele>136.6</ele><time>2026-04-26T08:30:31.97Z</time></trkpt><trkpt lat="45.3602555" lon="8.3858166"><ele>136.79999999999998</ele><time>2026-04-26T08:30:33.966Z</time></trkpt><trkpt lat="45.3601613" lon="8.3859013"><ele>137.0</ele><time>2026-04-26T08:30:35.972Z</time></trkpt><trkpt lat="45.3600678" lon="8.3859867"><ele>137.0</ele><time>2026-04-26T08:30:37.97Z</time></trkpt><trkpt lat="45.359975" lon="8.3860656"><ele>137.0</ele><time>2026-04-26T08:30:39.97Z</time></trkpt><trkpt lat="45.359882" lon="8.3861401"><ele>137.0</ele><time>2026-04-26T08:30:41.967Z</time></trkpt><trkpt lat="45.3597897" lon="8.3862198"><ele>137.0</ele><time>2026-04-26T08:30:43.97Z</time></trkpt><trkpt lat="45.3597005" lon="8.3862963"><ele>137.0</ele><time>2026-04-26T08:30:45.971Z</time></trkpt><trkpt lat="45.3596106" lon="8.3863772"><ele>137.0</ele><time>2026-04-26T08:30:47.967Z</time></trkpt><trkpt lat="45.3595194" lon="8.3864626"><ele>137.0</ele><time>2026-04-26T08:30:49.97Z</time></trkpt><trkpt lat="45.3594246" lon="8.386539"><ele>137.0</ele><time>2026-04-26T08:30:51.979Z</time></trkpt><trkpt lat="45.3593415" lon="8.3866283"><ele>137.0</ele><time>2026-04-26T08:30:53.976Z</time></trkpt><trkpt lat="45.3592566" lon="8.3867095"><ele>137.0</ele><time>2026-04-26T08:30:55.976Z</time></trkpt><trkpt lat="45.3591783" lon="8.3867894"><ele>137.0</ele><time>2026-04-26T08:30:57.968Z</time></trkpt><trkpt lat="45.3591178" lon="8.3868341"><ele>137.0</ele><time>2026-04-26T08:30:59.969Z</time></trkpt><trkpt lat="45.3590329" lon="8.3868258"><ele>137.0</ele><time>2026-04-26T08:31:01.967Z</time></trkpt><trkpt lat="45.35893" lon="8.3868317"><ele>137.0</ele><time>2026-04-26T08:31:03.981Z</time></trkpt><trkpt lat="45.3588409" lon="8.3869295"><ele>137.0</ele><time>2026-04-26T08:31:05.973Z</time></trkpt><trkpt lat="45.3588123" lon="8.3870706"><ele>136.75</ele><time>2026-04-26T08:31:07.97Z</time></trkpt><trkpt lat="45.3587345" lon="8.3871806"><ele>136.5</ele><time>2026-04-26T08:31:09.971Z</time></trkpt><trkpt lat="45.3586386" lon="8.3872617"><ele>136.25</ele><time>2026-04-26T08:31:11.973Z</time></trkpt><trkpt lat="45.3585423" lon="8.3873525"><ele>136.0</ele><time>2026-04-26T08:31:13.977Z</time></trkpt><trkpt lat="45.3584396" lon="8.3874397"><ele>136.0</ele><time>2026-04-26T08:31:15.977Z</time></trkpt><trkpt lat="45.3583422" lon="8.3875271"><ele>136.0</ele><time>2026-04-26T08:31:17.974Z</time></trkpt><trkpt lat="45.3582424" lon="8.3876184"><ele>136.0</ele><time>2026-04-26T08:31:19.975Z</time></trkpt><trkpt lat="45.3581421" lon="8.3877081"><ele>136.0</ele><time>2026-04-26T08:31:21.967Z</time></trkpt><trkpt lat="45.3580438" lon="8.3878006"><ele>136.0</ele><time>2026-04-26T08:31:23.978Z</time></trkpt><trkpt lat="45.3579478" lon="8.3878948"><ele>136.0</ele><time>2026-04-26T08:31:25.97Z</time></trkpt><trkpt lat="45.3578493" lon="8.3879793"><ele>136.0</ele><time>2026-04-26T08:31:27.976Z</time></trkpt><trkpt lat="45.3577546" lon="8.3880674"><ele>136.0</ele><time>2026-04-26T08:31:29.974Z</time></trkpt><trkpt lat="45.3576604" lon="8.3881572"><ele>136.0</ele><time>2026-04-26T08:31:31.972Z</time></trkpt><trkpt lat="45.3575672" lon="8.3882442"><ele>136.0</ele><time>2026-04-26T08:31:33.98Z</time></trkpt><trkpt lat="45.3574733" lon="8.388332"><ele>136.0</ele><time>2026-04-26T08:31:35.979Z</time></trkpt><trkpt lat="45.3573769" lon="8.3884172"><ele>136.0</ele><time>2026-04-26T08:31:37.968Z</time></trkpt><trkpt lat="45.3572829" lon="8.3885054"><ele>135.6</ele><time>2026-04-26T08:31:39.971Z</time></trkpt><trkpt lat="45.3571899" lon="8.3885932"><ele>135.2</ele><time>2026-04-26T08:31:41.968Z</time></trkpt><trkpt lat="45.3570896" lon="8.3886672"><ele>134.8</ele><time>2026-04-26T08:31:43.969Z</time></trkpt><trkpt lat="45.3569976" lon="8.3887427"><ele>134.4</ele><time>2026-04-26T08:31:45.972Z</time></trkpt><trkpt lat="45.3569065" lon="8.38882"><ele>134.0</ele><time>2026-04-26T08:31:47.973Z</time></trkpt><trkpt lat="45.3568129" lon="8.3888989"><ele>134.0</ele><time>2026-04-26T08:31:49.972Z</time></trkpt><trkpt lat="45.3567199" lon="8.388979"><ele>134.0</ele><time>2026-04-26T08:31:51.976Z</time></trkpt><trkpt lat="45.3566248" lon="8.3890629"><ele>134.0</ele><time>2026-04-26T08:31:53.964Z</time></trkpt><trkpt lat="45.3565327" lon="8.3891434"><ele>134.0</ele><time>2026-04-26T08:31:55.975Z</time></trkpt><trkpt lat="45.3564378" lon="8.3892295"><ele>134.0</ele><time>2026-04-26T08:31:57.969Z</time></trkpt><trkpt lat="45.3563414" lon="8.3893155"><ele>134.0</ele><time>2026-04-26T08:31:59.968Z</time></trkpt><trkpt lat="45.35625" lon="8.3894053"><ele>134.0</ele><time>2026-04-26T08:32:01.97Z</time></trkpt><trkpt lat="45.3561575" lon="8.3894865"><ele>134.0</ele><time>2026-04-26T08:32:03.969Z</time></trkpt><trkpt lat="45.3560633" lon="8.3895694"><ele>134.0</ele><time>2026-04-26T08:32:05.971Z</time></trkpt><trkpt lat="45.3559723" lon="8.3896514"><ele>134.0</ele><time>2026-04-26T08:32:07.968Z</time></trkpt><trkpt lat="45.3558818" lon="8.3897377"><ele>134.0</ele><time>2026-04-26T08:32:09.967Z</time></trkpt><trkpt lat="45.3557838" lon="8.3898188"><ele>134.0</ele><time>2026-04-26T08:32:11.982Z</time></trkpt><trkpt lat="45.3556846" lon="8.3899024"><ele>134.0</ele><time>2026-04-26T08:32:13.979Z</time></trkpt><trkpt lat="45.3555838" lon="8.3899893"><ele>134.0</ele><time>2026-04-26T08:32:15.971Z</time></trkpt><trkpt lat="45.3554857" lon="8.3900719"><ele>134.25</ele><time>2026-04-26T08:32:17.97Z</time></trkpt><trkpt lat="45.3553916" lon="8.390158"><ele>134.5</ele><time>2026-04-26T08:32:19.968Z</time></trkpt><trkpt lat="45.3552945" lon="8.390245"><ele>134.75</ele><time>2026-04-26T08:32:21.972Z</time></trkpt><trkpt lat="45.3551951" lon="8.3903283"><ele>135.0</ele><time>2026-04-26T08:32:23.969Z</time></trkpt><trkpt lat="45.3550965" lon="8.3904175"><ele>135.0</ele><time>2026-04-26T08:32:25.973Z</time></trkpt><trkpt lat="45.3549985" lon="8.3905027"><ele>135.0</ele><time>2026-04-26T08:32:27.971Z</time></trkpt><trkpt lat="45.3549042" lon="8.3905942"><ele>135.0</ele><time>2026-04-26T08:32:29.969Z</time></trkpt><trkpt lat="45.3548069" lon="8.3906861"><ele>135.0</ele><time>2026-04-26T08:32:31.97Z</time></trkpt><trkpt lat="45.3547052" lon="8.3907741"><ele>135.25</ele><time>2026-04-26T08:32:33.969Z</time></trkpt><trkpt lat="45.3546064" lon="8.3908656"><ele>135.5</ele><time>2026-04-26T08:32:35.969Z</time></trkpt><trkpt lat="45.3545076" lon="8.3909537"><ele>135.75</ele><time>2026-04-26T08:32:37.968Z</time></trkpt><trkpt lat="45.3544052" lon="8.3910329"><ele>136.0</ele><time>2026-04-26T08:32:39.967Z</time></trkpt><trkpt lat="45.3543034" lon="8.3911256"><ele>136.0</ele><time>2026-04-26T08:32:41.97Z</time></trkpt><trkpt lat="45.3542023" lon="8.3912198"><ele>136.0</ele><time>2026-04-26T08:32:43.969Z</time></trkpt><trkpt lat="45.3541007" lon="8.3913069"><ele>136.0</ele><time>2026-04-26T08:32:45.967Z</time></trkpt><trkpt lat="45.3540005" lon="8.3913896"><ele>136.0</ele><time>2026-04-26T08:32:47.964Z</time></trkpt><trkpt lat="45.3539015" lon="8.3914793"><ele>135.75</ele><time>2026-04-26T08:32:49.97Z</time></trkpt><trkpt lat="45.3538057" lon="8.3915716"><ele>135.5</ele><time>2026-04-26T08:32:51.97Z</time></trkpt><trkpt lat="45.3537069" lon="8.3916592"><ele>135.25</ele><time>2026-04-26T08:32:53.977Z</time></trkpt><trkpt lat="45.3536083" lon="8.3917415"><ele>135.0</ele><time>2026-04-26T08:32:55.972Z</time></trkpt><trkpt lat="45.3535126" lon="8.3918375"><ele>135.0</ele><time>2026-04-26T08:32:57.967Z</time></trkpt><trkpt lat="45.3534139" lon="8.3919238"><ele>135.0</ele><time>2026-04-26T08:32:59.972Z</time></trkpt><trkpt lat="45.3533204" lon="8.3920187"><ele>135.0</ele><time>2026-04-26T08:33:01.969Z</time></trkpt><trkpt lat="45.3532281" lon="8.3921142"><ele>135.0</ele><time>2026-04-26T08:33:03.969Z</time></trkpt><trkpt lat="45.3531358" lon="8.3921944"><ele>135.2</ele><time>2026-04-26T08:33:05.967Z</time></trkpt><trkpt lat="45.3530446" lon="8.3922673"><ele>135.4</ele><time>2026-04-26T08:33:07.983Z</time></trkpt><trkpt lat="45.3529428" lon="8.3922665"><ele>135.6</ele><time>2026-04-26T08:33:09.97Z</time></trkpt><trkpt lat="45.3528371" lon="8.3922626"><ele>135.8</ele><time>2026-04-26T08:33:11.974Z</time></trkpt><trkpt lat="45.352753" lon="8.3923475"><ele>136.0</ele><time>2026-04-26T08:33:13.97Z</time></trkpt><trkpt lat="45.3527055" lon="8.392479"><ele>135.4</ele><time>2026-04-26T08:33:15.973Z</time></trkpt><trkpt lat="45.352656" lon="8.3926081"><ele>134.8</ele><time>2026-04-26T08:33:17.979Z</time></trkpt><trkpt lat="45.3525721" lon="8.3926972"><ele>134.20000000000002</ele><time>2026-04-26T08:33:19.978Z</time></trkpt><trkpt lat="45.3524864" lon="8.3927763"><ele>133.6</ele><time>2026-04-26T08:33:21.976Z</time></trkpt><trkpt lat="45.3524017" lon="8.3928669"><ele>133.0</ele><time>2026-04-26T08:33:23.972Z</time></trkpt><trkpt lat="45.3523154" lon="8.3929434"><ele>133.20000000000002</ele><time>2026-04-26T08:33:25.977Z</time></trkpt><trkpt lat="45.352224" lon="8.3930204"><ele>133.4</ele><time>2026-04-26T08:33:27.974Z</time></trkpt><trkpt lat="45.3521341" lon="8.3931025"><ele>133.60000000000002</ele><time>2026-04-26T08:33:29.982Z</time></trkpt><trkpt lat="45.3520473" lon="8.3931776"><ele>133.8</ele><time>2026-04-26T08:33:31.968Z</time></trkpt><trkpt lat="45.3519591" lon="8.3932526"><ele>134.0</ele><time>2026-04-26T08:33:33.977Z</time></trkpt><trkpt lat="45.3518701" lon="8.3933359"><ele>134.0</ele><time>2026-04-26T08:33:35.974Z</time></trkpt><trkpt lat="45.3517837" lon="8.3934193"><ele>134.0</ele><time>2026-04-26T08:33:37.976Z</time></trkpt><trkpt lat="45.3516921" lon="8.3934943"><ele>134.0</ele><time>2026-04-26T08:33:39.97Z</time></trkpt><trkpt lat="45.3516041" lon="8.3935721"><ele>134.0</ele><time>2026-04-26T08:33:41.967Z</time></trkpt><trkpt lat="45.3515212" lon="8.3936562"><ele>134.0</ele><time>2026-04-26T08:33:43.968Z</time></trkpt><trkpt lat="45.3514346" lon="8.3937308"><ele>134.0</ele><time>2026-04-26T08:33:45.969Z</time></trkpt><trkpt lat="45.3513419" lon="8.3938124"><ele>134.0</ele><time>2026-04-26T08:33:47.977Z</time></trkpt><trkpt lat="45.3512457" lon="8.3938947"><ele>134.0</ele><time>2026-04-26T08:33:49.981Z</time></trkpt><trkpt lat="45.351152" lon="8.3939815"><ele>134.0</ele><time>2026-04-26T08:33:51.969Z</time></trkpt><trkpt lat="45.3510516" lon="8.3940616"><ele>134.0</ele><time>2026-04-26T08:33:53.965Z</time></trkpt><trkpt lat="45.350955" lon="8.3941458"><ele>134.0</ele><time>2026-04-26T08:33:55.976Z</time></trkpt><trkpt lat="45.3508595" lon="8.3942303"><ele>134.0</ele><time>2026-04-26T08:33:57.984Z</time></trkpt><trkpt lat="45.3507638" lon="8.3943156"><ele>134.0</ele><time>2026-04-26T08:33:59.972Z</time></trkpt><trkpt lat="45.3506699" lon="8.3944058"><ele>134.0</ele><time>2026-04-26T08:34:01.971Z</time></trkpt><trkpt lat="45.3505722" lon="8.3944916"><ele>134.5</ele><time>2026-04-26T08:34:03.973Z</time></trkpt><trkpt lat="45.3504762" lon="8.3945743"><ele>135.0</ele><time>2026-04-26T08:34:05.975Z</time></trkpt><trkpt lat="45.3503815" lon="8.3946608"><ele>135.5</ele><time>2026-04-26T08:34:07.97Z</time></trkpt><trkpt lat="45.3502845" lon="8.3947466"><ele>136.0</ele><time>2026-04-26T08:34:09.967Z</time></trkpt><trkpt lat="45.3501902" lon="8.3948333"><ele>136.0</ele><time>2026-04-26T08:34:11.972Z</time></trkpt><trkpt lat="45.3500895" lon="8.3949154"><ele>136.0</ele><time>2026-04-26T08:34:13.974Z</time></trkpt><trkpt lat="45.3499939" lon="8.395002"><ele>136.0</ele><time>2026-04-26T08:34:15.97Z</time></trkpt><trkpt lat="45.3499007" lon="8.3950859"><ele>136.0</ele><time>2026-04-26T08:34:17.974Z</time></trkpt><trkpt lat="45.3498049" lon="8.3951769"><ele>136.0</ele><time>2026-04-26T08:34:19.966Z</time></trkpt><trkpt lat="45.3497126" lon="8.3952743"><ele>136.0</ele><time>2026-04-26T08:34:21.972Z</time></trkpt><trkpt lat="45.3496145" lon="8.395366"><ele>136.0</ele><time>2026-04-26T08:34:23.971Z</time></trkpt><trkpt lat="45.3495155" lon="8.3954568"><ele>136.0</ele><time>2026-04-26T08:34:25.964Z</time></trkpt><trkpt lat="45.3494147" lon="8.3955393"><ele>136.2</ele><time>2026-04-26T08:34:27.97Z</time></trkpt><trkpt lat="45.3493163" lon="8.3956282"><ele>136.39999999999998</ele><time>2026-04-26T08:34:29.968Z</time></trkpt><trkpt lat="45.3492182" lon="8.3957011"><ele>136.6</ele><time>2026-04-26T08:34:31.97Z</time></trkpt><trkpt lat="45.3491225" lon="8.39578"><ele>136.79999999999998</ele><time>2026-04-26T08:34:33.969Z</time></trkpt><trkpt lat="45.3490255" lon="8.3958511"><ele>137.0</ele><time>2026-04-26T08:34:35.973Z</time></trkpt><trkpt lat="45.3489327" lon="8.39592"><ele>136.4</ele><time>2026-04-26T08:34:37.976Z</time></trkpt><trkpt lat="45.3488407" lon="8.3959948"><ele>135.79999999999998</ele><time>2026-04-26T08:34:39.974Z</time></trkpt><trkpt lat="45.3487493" lon="8.3960712"><ele>135.2</ele><time>2026-04-26T08:34:41.964Z</time></trkpt><trkpt lat="45.3486564" lon="8.3961386"><ele>134.6</ele><time>2026-04-26T08:34:43.97Z</time></trkpt><trkpt lat="45.3485629" lon="8.3961884"><ele>134.0</ele><time>2026-04-26T08:34:45.967Z</time></trkpt><trkpt lat="45.3484766" lon="8.3962432"><ele>134.0</ele><time>2026-04-26T08:34:47.966Z</time></trkpt><trkpt lat="45.3483818" lon="8.3962839"><ele>134.0</ele><time>2026-04-26T08:34:49.978Z</time></trkpt><trkpt lat="45.3482781" lon="8.3962863"><ele>134.0</ele><time>2026-04-26T08:34:51.966Z</time></trkpt><trkpt lat="45.3481701" lon="8.3962905"><ele>134.0</ele><time>2026-04-26T08:34:53.973Z</time></trkpt><trkpt lat="45.3480779" lon="8.3963747"><ele>134.0</ele><time>2026-04-26T08:34:55.969Z</time></trkpt><trkpt lat="45.348037" lon="8.3965257"><ele>134.0</ele><time>2026-04-26T08:34:57.971Z</time></trkpt><trkpt lat="45.3480306" lon="8.3966886"><ele>134.0</ele><time>2026-04-26T08:34:59.967Z</time></trkpt><trkpt lat="45.347985" lon="8.3968398"><ele>134.0</ele><time>2026-04-26T08:35:01.977Z</time></trkpt><trkpt lat="45.3478967" lon="8.3969369"><ele>134.0</ele><time>2026-04-26T08:35:03.968Z</time></trkpt><trkpt lat="45.3478017" lon="8.397011"><ele>134.0</ele><time>2026-04-26T08:35:05.969Z</time></trkpt><trkpt lat="45.3477104" lon="8.3970953"><ele>134.0</ele><time>2026-04-26T08:35:07.967Z</time></trkpt><trkpt lat="45.3476006" lon="8.3971663"><ele>134.0</ele><time>2026-04-26T08:35:09.968Z</time></trkpt><trkpt lat="45.3475047" lon="8.3972457"><ele>134.0</ele><time>2026-04-26T08:35:11.976Z</time></trkpt><trkpt lat="45.3474127" lon="8.3973292"><ele>133.8</ele><time>2026-04-26T08:35:13.971Z</time></trkpt><trkpt lat="45.3473176" lon="8.397414"><ele>133.60000000000002</ele><time>2026-04-26T08:35:15.97Z</time></trkpt><trkpt lat="45.3472256" lon="8.397495"><ele>133.4</ele><time>2026-04-26T08:35:17.976Z</time></trkpt><trkpt lat="45.3471338" lon="8.3975733"><ele>133.20000000000002</ele><time>2026-04-26T08:35:19.972Z</time></trkpt><trkpt lat="45.3470384" lon="8.397659"><ele>133.0</ele><time>2026-04-26T08:35:21.981Z</time></trkpt><trkpt lat="45.3469469" lon="8.3977459"><ele>132.75</ele><time>2026-04-26T08:35:23.97Z</time></trkpt><trkpt lat="45.3468547" lon="8.3978367"><ele>132.5</ele><time>2026-04-26T08:35:25.981Z</time></trkpt><trkpt lat="45.3467601" lon="8.3979243"><ele>132.25</ele><time>2026-04-26T08:35:27.972Z</time></trkpt><trkpt lat="45.3466636" lon="8.3980117"><ele>132.0</ele><time>2026-04-26T08:35:29.97Z</time></trkpt><trkpt lat="45.3465658" lon="8.3980995"><ele>132.0</ele><time>2026-04-26T08:35:31.982Z</time></trkpt><trkpt lat="45.3464635" lon="8.398181"><ele>132.0</ele><time>2026-04-26T08:35:33.976Z</time></trkpt><trkpt lat="45.3463674" lon="8.3982747"><ele>132.0</ele><time>2026-04-26T08:35:35.976Z</time></trkpt><trkpt lat="45.3462695" lon="8.398368"><ele>132.0</ele><time>2026-04-26T08:35:37.968Z</time></trkpt><trkpt lat="45.3461696" lon="8.3984636"><ele>132.0</ele><time>2026-04-26T08:35:39.97Z</time></trkpt><trkpt lat="45.3460676" lon="8.3985553"><ele>132.0</ele><time>2026-04-26T08:35:41.967Z</time></trkpt><trkpt lat="45.3459628" lon="8.3986451"><ele>132.0</ele><time>2026-04-26T08:35:43.969Z</time></trkpt><trkpt lat="45.345864" lon="8.3987364"><ele>132.0</ele><time>2026-04-26T08:35:45.966Z</time></trkpt><trkpt lat="45.3457643" lon="8.3988183"><ele>132.0</ele><time>2026-04-26T08:35:47.981Z</time></trkpt><trkpt lat="45.3456612" lon="8.3989055"><ele>132.0</ele><time>2026-04-26T08:35:49.968Z</time></trkpt><trkpt lat="45.3455602" lon="8.3989947"><ele>132.0</ele><time>2026-04-26T08:35:51.968Z</time></trkpt><trkpt lat="45.3454617" lon="8.3990905"><ele>132.0</ele><time>2026-04-26T08:35:53.969Z</time></trkpt><trkpt lat="45.345359" lon="8.3991787"><ele>132.0</ele><time>2026-04-26T08:35:55.969Z</time></trkpt><trkpt lat="45.3452572" lon="8.3992681"><ele>132.0</ele><time>2026-04-26T08:35:57.97Z</time></trkpt><trkpt lat="45.3451544" lon="8.3993591"><ele>132.0</ele><time>2026-04-26T08:35:59.969Z</time></trkpt><trkpt lat="45.3450518" lon="8.3994485"><ele>132.0</ele><time>2026-04-26T08:36:01.972Z</time></trkpt><trkpt lat="45.3449502" lon="8.399542"><ele>132.0</ele><time>2026-04-26T08:36:03.961Z</time></trkpt><trkpt lat="45.3448459" lon="8.3996247"><ele>132.0</ele><time>2026-04-26T08:36:05.971Z</time></trkpt><trkpt lat="45.3447458" lon="8.3997105"><ele>132.0</ele><time>2026-04-26T08:36:07.963Z</time></trkpt><trkpt lat="45.3446481" lon="8.3998016"><ele>132.0</ele><time>2026-04-26T08:36:09.965Z</time></trkpt><trkpt lat="45.3445474" lon="8.3998927"><ele>131.79999999999998</ele><time>2026-04-26T08:36:11.966Z</time></trkpt><trkpt lat="45.3444463" lon="8.399983"><ele>131.6</ele><time>2026-04-26T08:36:13.97Z</time></trkpt><trkpt lat="45.3443495" lon="8.4000642"><ele>131.39999999999998</ele><time>2026-04-26T08:36:15.968Z</time></trkpt><trkpt lat="45.3442539" lon="8.4001477"><ele>131.2</ele><time>2026-04-26T08:36:17.963Z</time></trkpt><trkpt lat="45.3441694" lon="8.4002287"><ele>131.0</ele><time>2026-04-26T08:36:19.969Z</time></trkpt><trkpt lat="45.3440791" lon="8.4003139"><ele>131.0</ele><time>2026-04-26T08:36:21.974Z</time></trkpt><trkpt lat="45.3439911" lon="8.4003989"><ele>131.0</ele><time>2026-04-26T08:36:23.986Z</time></trkpt><trkpt lat="45.3439019" lon="8.4004802"><ele>131.0</ele><time>2026-04-26T08:36:25.981Z</time></trkpt><trkpt lat="45.3438125" lon="8.4005604"><ele>131.0</ele><time>2026-04-26T08:36:27.98Z</time></trkpt><trkpt lat="45.3437228" lon="8.4006454"><ele>131.0</ele><time>2026-04-26T08:36:29.977Z</time></trkpt><trkpt lat="45.3436323" lon="8.4007266"><ele>131.0</ele><time>2026-04-26T08:36:31.982Z</time></trkpt><trkpt lat="45.3435424" lon="8.4008088"><ele>131.0</ele><time>2026-04-26T08:36:33.977Z</time></trkpt><trkpt lat="45.3434528" lon="8.4008903"><ele>131.0</ele><time>2026-04-26T08:36:35.983Z</time></trkpt><trkpt lat="45.3433678" lon="8.4009678"><ele>131.0</ele><time>2026-04-26T08:36:37.974Z</time></trkpt><trkpt lat="45.3432808" lon="8.40104"><ele>131.0</ele><time>2026-04-26T08:36:39.975Z</time></trkpt><trkpt lat="45.3431918" lon="8.4011225"><ele>131.0</ele><time>2026-04-26T08:36:41.976Z</time></trkpt><trkpt lat="45.3430969" lon="8.4012028"><ele>131.0</ele><time>2026-04-26T08:36:43.981Z</time></trkpt><trkpt lat="45.3430049" lon="8.4012842"><ele>131.0</ele><time>2026-04-26T08:36:45.979Z</time></trkpt><trkpt lat="45.3429148" lon="8.4013677"><ele>131.0</ele><time>2026-04-26T08:36:47.97Z</time></trkpt><trkpt lat="45.3423612" lon="8.4015596"><ele>130.8</ele><time>2026-04-26T08:37:00.54Z</time></trkpt><trkpt lat="45.3422833" lon="8.4017229"><ele>130.6</ele><time>2026-04-26T08:37:01.97Z</time></trkpt><trkpt lat="45.342236" lon="8.401823"><ele>130.4</ele><time>2026-04-26T08:37:02.965Z</time></trkpt><trkpt lat="45.3421905" lon="8.4019022"><ele>130.2</ele><time>2026-04-26T08:37:03.976Z</time></trkpt><trkpt lat="45.3420904" lon="8.4019888"><ele>130.0</ele><time>2026-04-26T08:37:05.968Z</time></trkpt><trkpt lat="45.3420082" lon="8.4020037"><ele>129.6</ele><time>2026-04-26T08:37:07.979Z</time></trkpt><trkpt lat="45.341937" lon="8.4019871"><ele>129.2</ele><time>2026-04-26T08:37:09.967Z</time></trkpt><trkpt lat="45.3418778" lon="8.4019461"><ele>128.8</ele><time>2026-04-26T08:37:11.968Z</time></trkpt><trkpt lat="45.3417968" lon="8.4019114"><ele>128.4</ele><time>2026-04-26T08:37:13.966Z</time></trkpt><trkpt lat="45.3416879" lon="8.4019062"><ele>128.0</ele><time>2026-04-26T08:37:15.966Z</time></trkpt><trkpt lat="45.341561" lon="8.4019489"><ele>127.99999999999999</ele><time>2026-04-26T08:37:17.979Z</time></trkpt><trkpt lat="45.3414992" lon="8.4019889"><ele>128.0</ele><time>2026-04-26T08:37:18.968Z</time></trkpt><trkpt lat="45.3414416" lon="8.4020356"><ele>128.0</ele><time>2026-04-26T08:37:19.968Z</time></trkpt><trkpt lat="45.3413908" lon="8.4020916"><ele>128.0</ele><time>2026-04-26T08:37:20.969Z</time></trkpt><trkpt lat="45.3413472" lon="8.4021607"><ele>127.99999999999999</ele><time>2026-04-26T08:37:21.98Z</time></trkpt><trkpt lat="45.3412946" lon="8.4023218"><ele>128.0</ele><time>2026-04-26T08:37:23.971Z</time></trkpt><trkpt lat="45.3412791" lon="8.4024098"><ele>128.28571428571428</ele><time>2026-04-26T08:37:24.976Z</time></trkpt><trkpt lat="45.3412681" lon="8.4024993"><ele>128.57142857142856</ele><time>2026-04-26T08:37:25.972Z</time></trkpt><trkpt lat="45.3412617" lon="8.4025893"><ele>128.85714285714286</ele><time>2026-04-26T08:37:26.973Z</time></trkpt><trkpt lat="45.3412339" lon="8.4027607"><ele>129.14285714285714</ele><time>2026-04-26T08:37:28.971Z</time></trkpt><trkpt lat="45.3412007" lon="8.4028406"><ele>129.42857142857144</ele><time>2026-04-26T08:37:29.972Z</time></trkpt><trkpt lat="45.3411609" lon="8.4029128"><ele>129.71428571428572</ele><time>2026-04-26T08:37:30.969Z</time></trkpt><trkpt lat="45.3411144" lon="8.4029775"><ele>130.0</ele><time>2026-04-26T08:37:31.971Z</time></trkpt><trkpt lat="45.3410632" lon="8.4030306"><ele>130.0</ele><time>2026-04-26T08:37:32.965Z</time></trkpt><trkpt lat="45.3410096" lon="8.4030798"><ele>130.0</ele><time>2026-04-26T08:37:33.97Z</time></trkpt><trkpt lat="45.3409551" lon="8.4031265"><ele>130.0</ele><time>2026-04-26T08:37:34.968Z</time></trkpt><trkpt lat="45.3408542" lon="8.4032177"><ele>130.0</ele><time>2026-04-26T08:37:36.972Z</time></trkpt><trkpt lat="45.3407501" lon="8.4033125"><ele>130.0</ele><time>2026-04-26T08:37:38.967Z</time></trkpt><trkpt lat="45.3406943" lon="8.4033589"><ele>130.0</ele><time>2026-04-26T08:37:39.971Z</time></trkpt><trkpt lat="45.340637" lon="8.403402"><ele>130.00000000000003</ele><time>2026-04-26T08:37:40.969Z</time></trkpt><trkpt lat="45.3405813" lon="8.4034482"><ele>130.0</ele><time>2026-04-26T08:37:41.98Z</time></trkpt><trkpt lat="45.3405264" lon="8.4034938"><ele>130.0</ele><time>2026-04-26T08:37:42.969Z</time></trkpt><trkpt lat="45.3404708" lon="8.403538"><ele>130.0</ele><time>2026-04-26T08:37:43.974Z</time></trkpt><trkpt lat="45.3404166" lon="8.4035852"><ele>130.0</ele><time>2026-04-26T08:37:44.968Z</time></trkpt><trkpt lat="45.3403612" lon="8.4036306"><ele>130.00000000000003</ele><time>2026-04-26T08:37:45.975Z</time></trkpt><trkpt lat="45.3402563" lon="8.4037217"><ele>130.0</ele><time>2026-04-26T08:37:47.97Z</time></trkpt><trkpt lat="45.3402012" lon="8.4037667"><ele>130.0</ele><time>2026-04-26T08:37:48.968Z</time></trkpt><trkpt lat="45.3400959" lon="8.4038562"><ele>130.0</ele><time>2026-04-26T08:37:50.966Z</time></trkpt><trkpt lat="45.3399934" lon="8.4039388"><ele>130.0</ele><time>2026-04-26T08:37:52.97Z</time></trkpt><trkpt lat="45.3398927" lon="8.4040195"><ele>130.0</ele><time>2026-04-26T08:37:54.971Z</time></trkpt><trkpt lat="45.3397918" lon="8.4040885"><ele>130.4</ele><time>2026-04-26T08:37:56.97Z</time></trkpt><trkpt lat="45.3396913" lon="8.4041501"><ele>130.8</ele><time>2026-04-26T08:37:58.974Z</time></trkpt><trkpt lat="45.3395949" lon="8.4042021"><ele>131.2</ele><time>2026-04-26T08:38:00.976Z</time></trkpt><trkpt lat="45.3394921" lon="8.4042327"><ele>131.6</ele><time>2026-04-26T08:38:02.967Z</time></trkpt><trkpt lat="45.339422" lon="8.4042806"><ele>132.0</ele><time>2026-04-26T08:38:05.974Z</time></trkpt><trkpt lat="45.3393819" lon="8.4043725"><ele>132.0</ele><time>2026-04-26T08:38:39.969Z</time></trkpt><trkpt lat="45.3393263" lon="8.4045642"><ele>132.0</ele><time>2026-04-26T08:39:31.19Z</time></trkpt><trkpt lat="45.339281" lon="8.4047166"><ele>132.0</ele><time>2026-04-26T08:40:04.337Z</time></trkpt><trkpt lat="45.3393783" lon="8.4044178"><ele>132.0</ele><time>2026-04-26T08:40:09.974Z</time></trkpt><trkpt lat="45.3393006" lon="8.4044511"><ele>132.0</ele><time>2026-04-26T08:40:22.97Z</time></trkpt><trkpt lat="45.3392624" lon="8.4045338"><ele>132.0</ele><time>2026-04-26T08:40:23.979Z</time></trkpt><trkpt lat="45.3391859" lon="8.4045306"><ele>132.0</ele><time>2026-04-26T08:40:26.975Z</time></trkpt><trkpt lat="45.3390878" lon="8.4045518"><ele>132.0</ele><time>2026-04-26T08:40:29.983Z</time></trkpt><trkpt lat="45.3390184" lon="8.4046091"><ele>132.0</ele><time>2026-04-26T08:40:31.983Z</time></trkpt><trkpt lat="45.3389519" lon="8.4046674"><ele>132.0</ele><time>2026-04-26T08:40:33.981Z</time></trkpt><trkpt lat="45.3388862" lon="8.4047172"><ele>132.0</ele><time>2026-04-26T08:40:35.973Z</time></trkpt><trkpt lat="45.3388056" lon="8.4047737"><ele>132.0</ele><time>2026-04-26T08:40:37.975Z</time></trkpt><trkpt lat="45.3387647" lon="8.4048604"><ele>132.0</ele><time>2026-04-26T08:40:40.983Z</time></trkpt><trkpt lat="45.3387317" lon="8.404968"><ele>132.0</ele><time>2026-04-26T08:40:42.969Z</time></trkpt><trkpt lat="45.3386129" lon="8.4049538"><ele>132.0</ele><time>2026-04-26T08:40:43.981Z</time></trkpt><trkpt lat="45.338539" lon="8.4049551"><ele>132.0</ele><time>2026-04-26T08:40:44.972Z</time></trkpt><trkpt lat="45.3384448" lon="8.4050019"><ele>132.0</ele><time>2026-04-26T08:40:46.984Z</time></trkpt><trkpt lat="45.3383674" lon="8.4050685"><ele>132.0</ele><time>2026-04-26T08:40:48.983Z</time></trkpt><trkpt lat="45.3382795" lon="8.4051187"><ele>132.0</ele><time>2026-04-26T08:40:50.977Z</time></trkpt><trkpt lat="45.3381904" lon="8.4051782"><ele>132.0</ele><time>2026-04-26T08:40:52.981Z</time></trkpt><trkpt lat="45.3381055" lon="8.4052374"><ele>131.79999999999998</ele><time>2026-04-26T08:40:54.975Z</time></trkpt><trkpt lat="45.338024" lon="8.4052927"><ele>131.6</ele><time>2026-04-26T08:40:56.97Z</time></trkpt><trkpt lat="45.3379458" lon="8.4053483"><ele>131.39999999999998</ele><time>2026-04-26T08:40:58.964Z</time></trkpt><trkpt lat="45.3378721" lon="8.4054021"><ele>131.2</ele><time>2026-04-26T08:41:00.964Z</time></trkpt><trkpt lat="45.3377695" lon="8.4054787"><ele>131.0</ele><time>2026-04-26T08:41:03.973Z</time></trkpt><trkpt lat="45.3376789" lon="8.4055424"><ele>131.0</ele><time>2026-04-26T08:41:05.973Z</time></trkpt><trkpt lat="45.3375889" lon="8.4055952"><ele>131.0</ele><time>2026-04-26T08:41:07.965Z</time></trkpt><trkpt lat="45.3375009" lon="8.4056647"><ele>131.0</ele><time>2026-04-26T08:41:09.979Z</time></trkpt><trkpt lat="45.3374054" lon="8.4057311"><ele>131.0</ele><time>2026-04-26T08:41:11.967Z</time></trkpt><trkpt lat="45.3373122" lon="8.4058029"><ele>131.0</ele><time>2026-04-26T08:41:13.968Z</time></trkpt><trkpt lat="45.3372148" lon="8.4058578"><ele>130.6</ele><time>2026-04-26T08:41:15.97Z</time></trkpt><trkpt lat="45.337118" lon="8.4059254"><ele>130.2</ele><time>2026-04-26T08:41:17.965Z</time></trkpt><trkpt lat="45.3370236" lon="8.4059899"><ele>129.8</ele><time>2026-04-26T08:41:19.965Z</time></trkpt><trkpt lat="45.3369157" lon="8.4060542"><ele>129.4</ele><time>2026-04-26T08:41:21.971Z</time></trkpt><trkpt lat="45.3368166" lon="8.4061222"><ele>129.0</ele><time>2026-04-26T08:41:23.972Z</time></trkpt><trkpt lat="45.3367111" lon="8.4061918"><ele>129.0</ele><time>2026-04-26T08:41:25.964Z</time></trkpt><trkpt lat="45.3366158" lon="8.4062647"><ele>129.0</ele><time>2026-04-26T08:41:27.972Z</time></trkpt><trkpt lat="45.336512" lon="8.4063362"><ele>129.0</ele><time>2026-04-26T08:41:29.973Z</time></trkpt><trkpt lat="45.336408" lon="8.4064062"><ele>129.0</ele><time>2026-04-26T08:41:31.972Z</time></trkpt><trkpt lat="45.3363077" lon="8.4064692"><ele>129.0</ele><time>2026-04-26T08:41:33.978Z</time></trkpt><trkpt lat="45.3362079" lon="8.4065395"><ele>129.2</ele><time>2026-04-26T08:41:35.975Z</time></trkpt><trkpt lat="45.3361101" lon="8.4066068"><ele>129.4</ele><time>2026-04-26T08:41:37.976Z</time></trkpt><trkpt lat="45.3360166" lon="8.4066749"><ele>129.6</ele><time>2026-04-26T08:41:39.97Z</time></trkpt><trkpt lat="45.335922" lon="8.4067445"><ele>129.8</ele><time>2026-04-26T08:41:41.97Z</time></trkpt><trkpt lat="45.3358244" lon="8.4068084"><ele>130.0</ele><time>2026-04-26T08:41:43.978Z</time></trkpt><trkpt lat="45.3357335" lon="8.4068705"><ele>130.0</ele><time>2026-04-26T08:41:45.966Z</time></trkpt><trkpt lat="45.3356432" lon="8.406897"><ele>130.0</ele><time>2026-04-26T08:41:47.971Z</time></trkpt><trkpt lat="45.3355607" lon="8.4068903"><ele>130.0</ele><time>2026-04-26T08:41:49.966Z</time></trkpt><trkpt lat="45.3354914" lon="8.4069298"><ele>130.0</ele><time>2026-04-26T08:41:51.971Z</time></trkpt><trkpt lat="45.3354198" lon="8.4069482"><ele>130.0</ele><time>2026-04-26T08:41:54.975Z</time></trkpt><trkpt lat="45.3353628" lon="8.4070279"><ele>130.0</ele><time>2026-04-26T08:45:02.975Z</time></trkpt><trkpt lat="45.335295" lon="8.4070662"><ele>129.8</ele><time>2026-04-26T08:45:06.969Z</time></trkpt><trkpt lat="45.3352711" lon="8.4071714"><ele>129.6</ele><time>2026-04-26T08:45:10.984Z</time></trkpt><trkpt lat="45.335213" lon="8.4072266"><ele>129.4</ele><time>2026-04-26T08:45:12.972Z</time></trkpt><trkpt lat="45.3351284" lon="8.4072825"><ele>129.2</ele><time>2026-04-26T08:45:14.97Z</time></trkpt><trkpt lat="45.3350338" lon="8.4073431"><ele>129.0</ele><time>2026-04-26T08:45:16.979Z</time></trkpt><trkpt lat="45.334937" lon="8.4074011"><ele>129.0</ele><time>2026-04-26T08:45:18.974Z</time></trkpt><trkpt lat="45.3348401" lon="8.4074676"><ele>129.0</ele><time>2026-04-26T08:45:20.971Z</time></trkpt><trkpt lat="45.334754" lon="8.4074926"><ele>129.0</ele><time>2026-04-26T08:45:22.971Z</time></trkpt><trkpt lat="45.3346776" lon="8.4074516"><ele>129.0</ele><time>2026-04-26T08:45:24.976Z</time></trkpt><trkpt lat="45.3346272" lon="8.4073511"><ele>129.0</ele><time>2026-04-26T08:45:26.971Z</time></trkpt><trkpt lat="45.3346392" lon="8.4072214"><ele>129.6</ele><time>2026-04-26T08:45:28.982Z</time></trkpt><trkpt lat="45.3346765" lon="8.4070809"><ele>130.2</ele><time>2026-04-26T08:45:30.974Z</time></trkpt><trkpt lat="45.3347013" lon="8.4069254"><ele>130.79999999999998</ele><time>2026-04-26T08:45:32.981Z</time></trkpt><trkpt lat="45.3346995" lon="8.406782"><ele>131.4</ele><time>2026-04-26T08:45:34.975Z</time></trkpt><trkpt lat="45.3346919" lon="8.4066409"><ele>132.0</ele><time>2026-04-26T08:45:36.972Z</time></trkpt><trkpt lat="45.3346909" lon="8.4065023"><ele>132.0</ele><time>2026-04-26T08:45:38.972Z</time></trkpt><trkpt lat="45.334696" lon="8.4063603"><ele>132.0</ele><time>2026-04-26T08:45:40.965Z</time></trkpt><trkpt lat="45.3346965" lon="8.4062219"><ele>132.0</ele><time>2026-04-26T08:45:42.964Z</time></trkpt><trkpt lat="45.3347003" lon="8.4060832"><ele>132.0</ele><time>2026-04-26T08:45:44.965Z</time></trkpt><trkpt lat="45.334704" lon="8.4059512"><ele>132.0</ele><time>2026-04-26T08:45:46.968Z</time></trkpt><trkpt lat="45.3347131" lon="8.4058224"><ele>131.66666666666666</ele><time>2026-04-26T08:45:48.968Z</time></trkpt><trkpt lat="45.3347187" lon="8.405692"><ele>131.33333333333334</ele><time>2026-04-26T08:45:50.964Z</time></trkpt><trkpt lat="45.3347243" lon="8.4055778"><ele>131.0</ele><time>2026-04-26T08:45:52.968Z</time></trkpt><trkpt lat="45.3347314" lon="8.4054671"><ele>130.66666666666669</ele><time>2026-04-26T08:45:54.966Z</time></trkpt><trkpt lat="45.3347427" lon="8.405355"><ele>130.33333333333334</ele><time>2026-04-26T08:45:56.974Z</time></trkpt><trkpt lat="45.3347708" lon="8.4052447"><ele>130.0</ele><time>2026-04-26T08:45:58.972Z</time></trkpt><trkpt lat="45.3348135" lon="8.4051437"><ele>130.0</ele><time>2026-04-26T08:46:00.977Z</time></trkpt><trkpt lat="45.3348331" lon="8.4050275"><ele>130.0</ele><time>2026-04-26T08:46:02.968Z</time></trkpt><trkpt lat="45.3348356" lon="8.4049052"><ele>130.0</ele><time>2026-04-26T08:46:04.964Z</time></trkpt><trkpt lat="45.3348423" lon="8.4047824"><ele>130.0</ele><time>2026-04-26T08:46:06.979Z</time></trkpt><trkpt lat="45.3348531" lon="8.4046601"><ele>130.0</ele><time>2026-04-26T08:46:08.972Z</time></trkpt><trkpt lat="45.334879" lon="8.4045421"><ele>130.0</ele><time>2026-04-26T08:46:10.973Z</time></trkpt><trkpt lat="45.3349133" lon="8.4044323"><ele>130.33333333333334</ele><time>2026-04-26T08:46:12.966Z</time></trkpt><trkpt lat="45.3349438" lon="8.4043218"><ele>130.66666666666669</ele><time>2026-04-26T08:46:14.967Z</time></trkpt><trkpt lat="45.3349724" lon="8.4042248"><ele>131.0</ele><time>2026-04-26T08:46:16.968Z</time></trkpt><trkpt lat="45.3349969" lon="8.4041228"><ele>131.33333333333334</ele><time>2026-04-26T08:46:18.964Z</time></trkpt><trkpt lat="45.3350142" lon="8.4040173"><ele>131.66666666666666</ele><time>2026-04-26T08:46:20.975Z</time></trkpt><trkpt lat="45.3349965" lon="8.4039051"><ele>132.0</ele><time>2026-04-26T08:46:22.971Z</time></trkpt><trkpt lat="45.3349305" lon="8.4038413"><ele>132.0</ele><time>2026-04-26T08:46:24.963Z</time></trkpt><trkpt lat="45.3348476" lon="8.4038309"><ele>132.0</ele><time>2026-04-26T08:46:26.963Z</time></trkpt><trkpt lat="45.3347764" lon="8.4038014"><ele>132.0</ele><time>2026-04-26T08:46:28.971Z</time></trkpt><trkpt lat="45.3347351" lon="8.403724"><ele>132.0</ele><time>2026-04-26T08:46:30.969Z</time></trkpt><trkpt lat="45.3347441" lon="8.4036167"><ele>132.0</ele><time>2026-04-26T08:46:32.966Z</time></trkpt><trkpt lat="45.3347638" lon="8.4035233"><ele>132.0</ele><time>2026-04-26T08:46:34.963Z</time></trkpt><trkpt lat="45.334785" lon="8.4033943"><ele>131.66666666666666</ele><time>2026-04-26T08:46:37.97Z</time></trkpt><trkpt lat="45.3347875" lon="8.4032833"><ele>131.33333333333334</ele><time>2026-04-26T08:46:40.966Z</time></trkpt><trkpt lat="45.3347152" lon="8.4032307"><ele>131.0</ele><time>2026-04-26T08:46:44.966Z</time></trkpt><trkpt lat="45.3346273" lon="8.4032369"><ele>130.66666666666669</ele><time>2026-04-26T08:46:47.964Z</time></trkpt><trkpt lat="45.3345613" lon="8.4032255"><ele>130.33333333333334</ele><time>2026-04-26T08:46:49.966Z</time></trkpt><trkpt lat="45.334533" lon="8.4031402"><ele>130.0</ele><time>2026-04-26T08:46:51.963Z</time></trkpt><trkpt lat="45.3345434" lon="8.4030345"><ele>130.0</ele><time>2026-04-26T08:46:53.976Z</time></trkpt><trkpt lat="45.3345474" lon="8.402937"><ele>127.0</ele><time>2026-04-26T08:46:55.968Z</time></trkpt><trkpt lat="45.3345708" lon="8.4028516"><ele>127.0</ele><time>2026-04-26T08:46:57.965Z</time></trkpt><trkpt lat="45.3346404" lon="8.4028185"><ele>127.0</ele><time>2026-04-26T08:47:00.968Z</time></trkpt><trkpt lat="45.3346936" lon="8.4028689"><ele>127.0</ele><time>2026-04-26T08:47:07.968Z</time></trkpt><trkpt lat="45.3347564" lon="8.4027935"><ele>131.0</ele><time>2026-04-26T08:47:13.97Z</time></trkpt><trkpt lat="45.3348007" lon="8.4027215"><ele>131.0</ele><time>2026-04-26T08:47:15.971Z</time></trkpt><trkpt lat="45.3348007" lon="8.4027215"><ele>131.0</ele><time>2026-04-26T08:47:15.971Z</time></trkpt></trkseg></trk></gpx>